# Wetter Temperatur Luftdruck Luftfeuchtigkeit Sichtweite Windgeschwindigkeit Windrichtung Zeit
1 Clouds 18 1019 55 10000 4 180 06:26 11.07.2020
2 Clouds 18 1019 55 10000 4 180 05:54 11.07.2020
3 Clouds 17 1019 59 10000 3 170 05:19 11.07.2020
4 Clouds 17 1019 55 10000 3 170 04:50 11.07.2020
5 Clouds 16 1019 59 10000 3 170 04:19 11.07.2020
6 Clear 16 1019 59 10000 2 150 02:54 11.07.2020
7 Clear 16 1019 59 10000 2 150 02:25 11.07.2020
8 Clear 16 1019 59 10000 2 160 01:24 11.07.2020
9 Clear 16 1020 59 10000 2 160 00:57 11.07.2020
10 Clear 16 1020 59 10000 2 160 00:38 11.07.2020
11 Clear 16 1019 59 10000 3 170 00:18 11.07.2020
12 Clear 16 1019 59 10000 2 160 23:45 10.07.2020
13 Clear 17 1019 59 10000 2 160 23:26 10.07.2020
14 Clear 17 1020 55 10000 2 160 22:57 10.07.2020
15 Clear 17 1020 51 10000 3 180 22:38 10.07.2020
16 Clear 17 1020 51 10000 3 180 22:19 10.07.2020
17 Clear 18 1019 48 10000 3 210 21:40 10.07.2020
18 Clear 19 1019 52 10000 3 200 21:20 10.07.2020
19 Clear 19 1019 52 10000 3 200 20:58 10.07.2020
20 Clouds 20 1019 45 10000 3 210 20:40 10.07.2020
21 Clouds 20 1019 45 10000 3 210 20:20 10.07.2020
22 Clouds 20 1019 45 10000 3 210 19:57 10.07.2020
23 Clouds 21 1019 42 10000 4 210 19:38 10.07.2020
24 Clouds 21 1019 40 10000 3 200 19:19 10.07.2020
25 Clouds 22 1019 37 10000 4 230 18:41 10.07.2020
26 Clear 22 1019 40 10000 4 210 18:20 10.07.2020
27 Clear 23 1019 40 10000 4 210 17:57 10.07.2020
28 Clear 23 1019 37 10000 4 240 17:38 10.07.2020
29 Clear 23 1019 37 10000 4 240 17:20 10.07.2020
30 Clear 23 1019 40 10000 4 210 16:42 10.07.2020
31 Clear 23 1019 40 10000 4 210 16:20 10.07.2020
32 Clear 23 1019 40 10000 4 230 15:45 10.07.2020
33 Clear 23 1019 35 10000 3 260 15:25 10.07.2020
34 Clear 22 1019 42 10000 3 260 14:55 10.07.2020
35 Clear 22 1019 40 10000 3 240 14:37 10.07.2020
36 Clear 22 1019 40 10000 3 240 14:19 10.07.2020
37 Clear 22 1019 40 10000 3 270 13:57 10.07.2020
38 Clear 22 1019 43 10000 4 260 13:38 10.07.2020
39 Clear 22 1020 43 10000 3 250 13:20 10.07.2020
40 Clear 21 1020 43 10000 3 250 12:55 10.07.2020
41 Clear 21 1020 40 10000 4 240 12:37 10.07.2020
42 Clear 21 1020 40 10000 4 240 12:18 10.07.2020
43 Clear 20 1020 45 10000 3 250 11:38 10.07.2020
44 Clear 20 1019 48 10000 4 270 11:19 10.07.2020
45 Clear 20 1019 48 10000 4 270 10:55 10.07.2020
46 Clear 20 1019 52 10000 4 250 10:37 10.07.2020
47 Clear 20 1019 52 10000 4 250 10:18 10.07.2020
48 Clouds 19 1019 55 10000 5 250 09:39 10.07.2020
49 Clouds 19 1019 55 10000 5 250 09:20 10.07.2020
50 Clouds 18 1019 55 10000 5 250 08:58 10.07.2020
51 Clear 18 1019 63 10000 3 260 08:40 10.07.2020
52 Clear 18 1019 63 10000 2 260 08:21 10.07.2020
53 Clear 17 1019 63 10000 2 250 07:44 10.07.2020
54 Clear 17 1019 63 10000 2 250 07:23 10.07.2020
55 Clear 15 1019 76 10000 2 260 06:52 10.07.2020
56 Clear 15 1019 76 10000 2 260 06:52 10.07.2020
57 Clear 15 1019 76 10000 2 240 06:27 10.07.2020
58 Clear 14 1018 76 10000 2 230 05:20 10.07.2020
59 Clear 13 1018 87 10000 1 210 03:43 10.07.2020
60 Clear 13 1018 81 10000 3 240 02:53 10.07.2020
61 Clear 13 1017 87 10000 3 250 01:53 10.07.2020
62 Clear 13 1016 81 10000 4 250 00:53 10.07.2020
63 Clear 13 1016 81 10000 4 250 00:22 10.07.2020
64 Clear 14 1016 87 10000 4 260 23:55 09.07.2020
65 Clear 14 1016 87 10000 3 250 23:37 09.07.2020
66 Clear 14 1016 87 10000 3 250 23:18 09.07.2020
67 Clear 15 1016 82 10000 3 250 22:56 09.07.2020
68 Clear 15 1016 82 10000 4 250 22:38 09.07.2020
69 Clear 15 1016 82 10000 4 250 22:19 09.07.2020
70 Clear 15 1015 82 9000 3 260 21:39 09.07.2020
71 Clear 16 1015 76 10000 4 250 21:20 09.07.2020
72 Clear 15 1015 82 9000 3 260 21:20 09.07.2020
73 Clear 16 1015 76 10000 4 250 20:59 09.07.2020
74 Clear 16 1015 72 10000 4 260 20:39 09.07.2020
75 Clouds 17 1015 72 10000 4 260 20:21 09.07.2020
76 Clouds 18 1014 63 10000 5 260 19:43 09.07.2020
77 Clouds 19 1014 59 10000 3 260 19:22 09.07.2020
78 Clouds 18 1014 63 10000 5 260 19:22 09.07.2020
79 Clouds 19 1014 59 10000 3 260 18:57 09.07.2020
80 Clouds 20 1014 63 10000 3 310 18:39 09.07.2020
81 Clouds 20 1014 63 10000 3 300 18:19 09.07.2020
82 Clouds 19 1014 59 10000 4 290 17:43 09.07.2020
83 Clouds 19 1014 59 10000 4 290 17:23 09.07.2020
84 Clouds 19 1014 63 10000 4 310 16:56 09.07.2020
85 Clouds 20 1013 59 10000 4 280 16:38 09.07.2020
86 Clouds 20 1013 59 10000 4 280 16:19 09.07.2020
87 Rain 20 1013 67 10000 6 250 15:58 09.07.2020
88 Clouds 20 1013 48 10000 4 260 15:37 09.07.2020
89 Rain 21 1013 63 10000 6 260 15:18 09.07.2020
90 Rain 21 1013 63 10000 6 260 14:57 09.07.2020
91 Clouds 20 1013 52 10000 5 240 14:39 09.07.2020
92 Clouds 20 1013 52 10000 5 240 14:20 09.07.2020
93 Clouds 20 1013 52 10000 3 310 13:56 09.07.2020
94 Clear 20 1013 49 10000 3 300 13:38 09.07.2020
95 Clouds 20 1012 55 10000 3 300 13:19 09.07.2020
96 Clouds 19 1012 59 10000 4 310 12:42 09.07.2020
97 Clouds 19 1012 59 10000 4 310 12:23 09.07.2020
98 Clouds 19 1012 59 10000 5 280 11:57 09.07.2020
99 Clouds 18 1012 55 10000 3 320 11:39 09.07.2020
100 Clouds 18 1012 55 10000 3 320 11:19 09.07.2020
101 Clouds 18 1012 63 10000 4 280 10:56 09.07.2020
102 Clouds 17 1012 67 10000 5 300 10:38 09.07.2020
103 Clouds 17 1012 67 10000 5 300 10:19 09.07.2020
104 Clouds 16 1011 72 10000 4 300 09:43 09.07.2020
105 Clouds 16 1011 76 10000 5 310 09:23 09.07.2020
106 Clouds 15 1010 82 10000 5 290 08:52 09.07.2020
107 Clouds 15 1010 82 10000 5 290 08:27 09.07.2020
108 Clouds 14 1010 82 10000 5 300 07:58 09.07.2020
109 Rain 14 1009 87 10000 5 300 07:40 09.07.2020
110 Rain 14 1009 87 10000 5 300 07:21 09.07.2020
111 Rain 13 1009 93 10000 4 300 06:21 09.07.2020
112 Rain 13 1009 93 10000 4 300 05:57 09.07.2020
113 Rain 13 1008 93 10000 5 300 04:29 09.07.2020
114 Rain 13 1008 93 9000 6 300 03:24 09.07.2020
115 Rain 14 1007 100 10000 4 340 01:56 09.07.2020
116 Rain 14 1007 100 10000 5 320 01:21 09.07.2020
117 Rain 14 1008 93 8000 4 320 00:41 09.07.2020
118 Rain 14 1008 93 8000 4 320 00:23 09.07.2020
119 Clouds 15 1007 93 9000 7 310 23:44 08.07.2020
120 Clouds 15 1007 93 9000 7 310 23:25 08.07.2020
121 Clouds 15 1007 93 10000 5 300 22:57 08.07.2020
122 Clouds 15 1006 93 10000 5 310 22:38 08.07.2020
123 Clouds 16 1006 93 10000 5 310 22:38 08.07.2020
124 Clouds 16 1006 93 10000 5 310 22:20 08.07.2020
125 Rain 16 1005 93 10000 6 310 21:57 08.07.2020
126 Rain 16 1005 100 10000 5 320 21:38 08.07.2020
127 Rain 16 1005 100 10000 5 320 21:20 08.07.2020
128 Rain 17 1006 93 6000 6 300 20:45 08.07.2020
129 Rain 17 1006 93 6000 6 300 20:26 08.07.2020
130 Rain 18 1005 88 10000 7 310 19:58 08.07.2020
131 Thunderstorm 19 1005 93 10000 6 300 19:40 08.07.2020
132 Thunderstorm 19 1005 93 10000 6 300 19:21 08.07.2020
133 Clouds 20 1004 93 10000 7 310 18:56 08.07.2020
134 Clouds 21 1005 93 10000 7 300 18:38 08.07.2020
135 Clouds 23 1004 83 10000 7 300 18:19 08.07.2020
136 Clouds 22 1004 83 10000 7 300 17:55 08.07.2020
137 Rain 23 1005 78 10000 4 310 17:37 08.07.2020
138 Clouds 23 1005 78 10000 5 300 17:18 08.07.2020
139 Rain 24 1004 78 10000 4 310 16:39 08.07.2020
140 Rain 25 1004 78 10000 4 310 16:20 08.07.2020
141 Clouds 25 1005 78 10000 5 280 15:58 08.07.2020
142 Clouds 25 1005 73 10000 4 300 15:40 08.07.2020
143 Clouds 25 1005 73 10000 4 300 15:19 08.07.2020
144 Clouds 26 1004 69 10000 3 260 14:49 08.07.2020
145 Clouds 26 1004 69 10000 3 260 14:30 08.07.2020
146 Rain 26 1004 65 10000 1 0 13:59 08.07.2020
147 Rain 27 1004 65 10000 2 300 13:41 08.07.2020
148 Rain 26 1004 65 10000 2 300 13:22 08.07.2020
149 Rain 24 1004 73 10000 2 310 12:45 08.07.2020
150 Clouds 25 1004 73 10000 3 260 12:21 08.07.2020
151 Clouds 25 1004 73 10000 3 260 11:59 08.07.2020
152 Clouds 25 1004 78 10000 4 250 11:38 08.07.2020
153 Clouds 25 1004 78 10000 4 250 11:20 08.07.2020
154 Clouds 25 1003 78 10000 3 250 10:45 08.07.2020
155 Clouds 24 1003 78 10000 3 250 10:26 08.07.2020
156 Clouds 24 1003 73 10000 2 230 09:59 08.07.2020
157 Clouds 24 1003 78 10000 2 240 09:41 08.07.2020
158 Clouds 23 1003 78 10000 2 240 09:21 08.07.2020
159 Rain 21 1002 77 10000 4 90 08:43 08.07.2020
160 Rain 21 1002 77 10000 4 90 08:24 08.07.2020
161 Clouds 20 1002 82 10000 4 90 07:47 08.07.2020
162 Clouds 20 1002 82 10000 4 90 07:24 08.07.2020
163 Clouds 20 1003 77 10000 5 90 06:55 08.07.2020
164 Clouds 20 1003 77 10000 4 70 06:35 08.07.2020
165 Clouds 20 1003 77 10000 4 50 05:55 08.07.2020
166 Clouds 20 1003 82 10000 3 60 05:24 08.07.2020
167 Clouds 19 1004 88 10000 4 300 04:36 08.07.2020
168 Clouds 19 1004 88 10000 3 60 02:48 08.07.2020
169 Clouds 19 1004 88 9000 5 40 01:52 08.07.2020
170 Rain 19 1006 88 10000 2 60 01:32 08.07.2020
171 Rain 20 1006 88 10000 2 130 00:28 08.07.2020
172 Clouds 20 1006 82 10000 2 340 23:59 07.07.2020
173 Clouds 20 1005 93 10000 6 30 23:41 07.07.2020
174 Clouds 20 1005 93 10000 6 30 23:19 07.07.2020
175 Thunderstorm 20 1007 93 2400 3 360 22:44 07.07.2020
176 Thunderstorm 20 1007 93 2400 3 360 22:24 07.07.2020
177 Thunderstorm 21 1005 82 9000 2 60 21:59 07.07.2020
178 Rain 20 1005 82 10000 4 70 21:40 07.07.2020
179 Rain 20 1005 82 10000 4 70 21:21 07.07.2020
180 Clouds 21 1006 77 10000 4 10 20:57 07.07.2020
181 Clouds 21 1006 82 10000 3 60 20:39 07.07.2020
182 Clear 21 1006 82 10000 3 60 20:21 07.07.2020
183 Clouds 21 1006 77 10000 4 360 19:42 07.07.2020
184 Clouds 20 1007 77 10000 2 40 19:21 07.07.2020
185 Clouds 21 1007 77 10000 2 40 18:59 07.07.2020
186 Clouds 20 1006 77 10000 3 20 18:41 07.07.2020
187 Thunderstorm 19 1006 82 10000 3 360 18:23 07.07.2020
188 Thunderstorm 19 1006 82 10000 3 360 17:59 07.07.2020
189 Thunderstorm 19 1008 82 6000 7 260 17:40 07.07.2020
190 Thunderstorm 19 1008 82 6000 7 260 17:22 07.07.2020
191 Rain 25 1008 56 9000 14 240 16:58 07.07.2020
192 Rain 30 1005 54 10000 5 120 16:40 07.07.2020
193 Clouds 30 1005 54 10000 5 120 16:20 07.07.2020
194 Clouds 30 1005 45 10000 5 160 15:42 07.07.2020
195 Clouds 30 1005 45 10000 5 160 15:21 07.07.2020
196 Clear 30 1006 45 10000 6 180 14:56 07.07.2020
197 Clouds 31 1006 48 10000 4 180 14:38 07.07.2020
198 Clouds 29 1006 48 10000 4 180 14:19 07.07.2020
199 Clouds 29 1007 48 10000 5 150 13:40 07.07.2020
200 Clouds 30 1007 48 10000 5 150 13:19 07.07.2020
201 Clouds 29 1007 48 10000 5 170 12:41 07.07.2020
202 Clouds 29 1007 48 10000 5 170 12:22 07.07.2020
203 Clouds 29 1007 48 10000 5 150 12:22 07.07.2020
204 Clouds 29 1007 48 10000 5 150 11:58 07.07.2020
205 Clouds 29 1007 48 10000 5 160 11:40 07.07.2020
206 Clouds 28 1007 48 10000 5 160 11:20 07.07.2020
207 Clouds 28 1008 48 10000 5 180 10:57 07.07.2020
208 Clouds 28 1008 48 10000 5 170 10:37 07.07.2020
209 Clouds 28 1008 48 10000 5 170 10:18 07.07.2020
210 Clouds 27 1008 54 10000 5 200 09:41 07.07.2020
211 Clouds 27 1008 54 10000 5 200 09:21 07.07.2020
212 Clouds 26 1008 54 10000 4 160 08:42 07.07.2020
213 Clouds 26 1008 54 10000 4 160 08:24 07.07.2020
214 Clear 25 1008 57 10000 3 170 07:47 07.07.2020
215 Clear 25 1008 57 10000 3 170 07:25 07.07.2020
216 Clear 24 1009 64 10000 2 120 06:50 07.07.2020
217 Clear 24 1009 64 10000 2 120 06:50 07.07.2020
218 Clear 24 1009 64 10000 2 120 06:31 07.07.2020
219 Clear 23 1009 69 10000 1 0 05:58 07.07.2020
220 Clear 22 1009 77 10000 2 80 05:23 07.07.2020
221 Clear 21 1008 77 10000 1 0 04:42 07.07.2020
222 Clear 19 1008 82 10000 1 100 03:41 07.07.2020
223 Clear 20 1009 82 10000 2 90 02:41 07.07.2020
224 Clear 21 1009 77 10000 1 110 01:28 07.07.2020
225 Clear 21 1009 77 10000 2 90 00:56 07.07.2020
226 Clear 21 1009 73 10000 1 0 00:38 07.07.2020
227 Clear 21 1009 73 10000 1 0 00:19 07.07.2020
228 Clear 21 1009 68 10000 2 120 23:42 06.07.2020
229 Clear 21 1009 68 10000 2 120 23:23 06.07.2020
230 Clear 22 1009 68 10000 2 110 22:55 06.07.2020
231 Clear 23 1009 60 10000 2 170 22:37 06.07.2020
232 Clear 23 1009 60 10000 2 170 22:18 06.07.2020
233 Clear 23 1009 68 10000 1 0 21:55 06.07.2020
234 Clear 24 1009 60 10000 1 0 21:36 06.07.2020
235 Clear 24 1009 60 10000 1 0 21:18 06.07.2020
236 Clear 25 1009 53 10000 2 220 20:40 06.07.2020
237 Clear 26 1009 53 10000 3 200 20:20 06.07.2020
238 Clear 26 1009 53 10000 3 200 19:58 06.07.2020
239 Clear 27 1009 53 10000 4 240 19:58 06.07.2020
240 Clear 27 1009 53 10000 4 240 19:39 06.07.2020
241 Clear 27 1009 57 10000 4 250 19:21 06.07.2020
242 Clear 25 1009 57 10000 4 250 18:57 06.07.2020
243 Clouds 28 1009 50 10000 5 250 18:39 06.07.2020
244 Clear 28 1009 44 10000 3 210 18:21 06.07.2020
245 Clear 27 1009 50 10000 4 200 17:44 06.07.2020
246 Clear 28 1009 50 10000 4 200 17:24 06.07.2020
247 Clear 28 1009 47 10000 4 210 16:59 06.07.2020
248 Clouds 28 1009 47 10000 4 200 16:41 06.07.2020
249 Clouds 28 1009 47 10000 4 200 16:21 06.07.2020
250 Clear 28 1009 44 10000 5 210 15:44 06.07.2020
251 Clear 28 1009 44 10000 5 210 15:25 06.07.2020
252 Clear 28 1009 50 10000 4 240 14:57 06.07.2020
253 Clear 29 1010 50 10000 6 240 14:38 06.07.2020
254 Clear 29 1010 47 10000 5 250 14:20 06.07.2020
255 Clear 28 1010 47 10000 5 250 13:58 06.07.2020
256 Clear 29 1010 47 10000 5 250 13:39 06.07.2020
257 Clear 28 1010 47 10000 5 250 13:20 06.07.2020
258 Clouds 27 1010 51 10000 5 230 12:43 06.07.2020
259 Clouds 27 1010 51 10000 5 230 12:19 06.07.2020
260 Clouds 27 1010 47 10000 5 220 11:58 06.07.2020
261 Clear 27 1010 50 10000 6 250 11:39 06.07.2020
262 Clear 26 1010 50 10000 6 250 11:21 06.07.2020
263 Clouds 26 1010 47 10000 6 240 10:57 06.07.2020
264 Clear 26 1010 47 10000 4 210 10:39 06.07.2020
265 Clear 25 1010 47 10000 5 220 10:18 06.07.2020
266 Clear 25 1010 50 10000 5 210 09:42 06.07.2020
267 Clear 25 1010 50 10000 5 210 09:22 06.07.2020
268 Clear 25 1010 57 10000 4 230 08:58 06.07.2020
269 Clear 24 1010 60 10000 4 240 08:39 06.07.2020
270 Clear 24 1010 60 10000 4 240 08:20 06.07.2020
271 Clear 24 1010 64 10000 3 200 07:47 06.07.2020
272 Clear 23 1010 68 10000 2 230 07:29 06.07.2020
273 Clear 21 1010 77 10000 3 230 06:45 06.07.2020
274 Clear 20 1011 82 10000 3 200 06:27 06.07.2020
275 Clear 20 1010 82 10000 2 200 05:44 06.07.2020
276 Clear 20 1010 82 10000 2 200 05:22 06.07.2020
277 Clouds 18 1010 88 10000 2 250 03:52 06.07.2020
278 Clouds 19 1010 88 10000 1 230 02:24 06.07.2020
279 Clouds 19 1010 88 10000 2 230 01:44 06.07.2020
280 Clouds 20 1010 88 10000 3 260 00:39 06.07.2020
281 Clouds 20 1010 88 10000 3 260 00:21 06.07.2020
282 Clouds 20 1010 82 10000 3 210 23:45 05.07.2020
283 Clouds 20 1010 82 10000 3 210 23:27 05.07.2020
284 Clouds 21 1010 77 10000 3 230 22:59 05.07.2020
285 Clouds 21 1010 72 10000 3 220 22:41 05.07.2020
286 Clouds 21 1010 72 10000 3 220 22:41 05.07.2020
287 Clouds 22 1010 73 10000 3 230 22:20 05.07.2020
288 Clouds 22 1010 73 10000 3 230 21:58 05.07.2020
289 Clear 22 1010 68 10000 3 220 21:40 05.07.2020
290 Clear 22 1010 68 10000 3 220 21:19 05.07.2020
291 Clear 22 1010 68 10000 3 220 20:58 05.07.2020
292 Clear 23 1010 64 10000 5 240 20:39 05.07.2020
293 Clouds 23 1010 64 10000 5 240 20:21 05.07.2020
294 Clouds 23 1010 64 10000 5 240 19:55 05.07.2020
295 Clouds 23 1010 68 10000 3 250 19:37 05.07.2020
296 Clouds 24 1010 60 10000 4 220 19:18 05.07.2020
297 Clouds 25 1010 57 10000 6 240 18:42 05.07.2020
298 Clouds 25 1010 53 10000 3 210 18:22 05.07.2020
299 Clouds 25 1010 53 10000 3 210 17:56 05.07.2020
300 Clouds 25 1010 53 10000 3 210 17:38 05.07.2020
301 Clouds 25 1010 53 10000 3 210 17:19 05.07.2020
302 Clouds 25 1010 47 10000 4 190 16:44 05.07.2020
303 Clouds 25 1010 47 10000 4 190 16:25 05.07.2020
304 Clouds 25 1010 47 10000 4 190 15:56 05.07.2020
305 Clouds 25 1011 47 10000 4 200 15:37 05.07.2020
306 Clouds 25 1011 47 10000 4 200 15:18 05.07.2020
307 Clouds 26 1011 53 10000 4 200 14:41 05.07.2020
308 Clouds 25 1011 53 10000 4 200 14:23 05.07.2020
309 Clouds 24 1011 57 10000 4 190 13:54 05.07.2020
310 Clouds 24 1011 57 10000 4 200 13:36 05.07.2020
311 Clouds 24 1011 53 10000 3 220 13:18 05.07.2020
312 Clouds 24 1012 69 10000 4 220 12:38 05.07.2020
313 Rain 24 1012 69 10000 4 200 12:20 05.07.2020
314 Rain 24 1012 69 10000 4 200 11:55 05.07.2020
315 Rain 24 1012 64 10000 3 210 11:36 05.07.2020
316 Rain 24 1012 64 10000 3 210 11:18 05.07.2020
317 Clouds 24 1012 60 10000 3 220 10:42 05.07.2020
318 Clouds 24 1012 60 10000 3 220 10:20 05.07.2020
319 Clouds 24 1012 69 10000 3 230 09:59 05.07.2020
320 Clouds 24 1012 69 10000 2 240 09:40 05.07.2020
321 Clouds 24 1012 69 10000 2 240 09:20 05.07.2020
322 Clouds 23 1012 68 10000 2 200 08:51 05.07.2020
323 Clouds 23 1012 73 10000 1 0 08:33 05.07.2020
324 Clouds 22 1012 77 10000 2 220 07:51 05.07.2020
325 Clouds 21 1012 77 10000 1 0 07:30 05.07.2020
326 Clouds 21 1012 77 10000 1 0 06:53 05.07.2020
327 Fog 20 1012 93 1200 1 0 05:58 05.07.2020
328 Fog 19 1012 93 50 1 250 03:37 05.07.2020
329 Fog 19 1012 88 150 1.46 319 02:47 05.07.2020
330 Fog 19 1012 93 300 1.13 297 02:29 05.07.2020
331 Fog 19 1012 88 3900 2 200 01:42 05.07.2020
332 Fog 20 1012 88 3900 2 200 01:20 05.07.2020
333 Clouds 19 1012 88 10000 3 260 00:42 05.07.2020
334 Clouds 19 1012 88 10000 3 260 00:24 05.07.2020
335 Clouds 20 1012 88 10000 3 230 23:54 04.07.2020
336 Clouds 20 1012 88 10000 3 260 23:31 04.07.2020
337 Clouds 20 1012 88 10000 3 260 22:59 04.07.2020
338 Clouds 20 1012 88 10000 3 250 22:40 04.07.2020
339 Clouds 20 1012 88 10000 3 250 22:22 04.07.2020
340 Clouds 20 1012 82 10000 3 260 21:58 04.07.2020
341 Clouds 21 1012 82 10000 3 260 21:39 04.07.2020
342 Clouds 21 1012 82 10000 3 260 21:20 04.07.2020
343 Clouds 21 1012 77 10000 4 240 20:42 04.07.2020
344 Clouds 22 1012 77 10000 4 240 20:21 04.07.2020
345 Clouds 22 1012 77 10000 4 240 19:56 04.07.2020
346 Clouds 22 1011 78 10000 4 230 19:37 04.07.2020
347 Clouds 23 1011 78 10000 4 230 19:19 04.07.2020
348 Clouds 23 1011 73 10000 5 220 18:43 04.07.2020
349 Clouds 23 1011 73 10000 3 230 18:22 04.07.2020
350 Clouds 24 1012 78 10000 5 230 17:45 04.07.2020
351 Clouds 24 1012 78 10000 5 230 17:26 04.07.2020
352 Clouds 23 1012 73 10000 5 220 16:59 04.07.2020
353 Rain 23 1012 73 9000 4 210 16:39 04.07.2020
354 Rain 23 1012 73 9000 4 210 16:21 04.07.2020
355 Clouds 23 1012 78 10000 3 210 15:58 04.07.2020
356 Clouds 23 1012 83 10000 3 250 15:40 04.07.2020
357 Clouds 24 1012 83 10000 3 250 15:21 04.07.2020
358 Clouds 24 1012 73 10000 3 220 14:56 04.07.2020
359 Clouds 24 1012 73 10000 2 210 14:36 04.07.2020
360 Clouds 24 1012 73 10000 2 210 14:18 04.07.2020
361 Rain 24 1013 83 9000 3 270 13:41 04.07.2020
362 Rain 24 1013 83 9000 3 270 13:19 04.07.2020
363 Rain 25 1013 73 10000 3 260 12:56 04.07.2020
364 Clouds 25 1013 69 10000 2 230 12:38 04.07.2020
365 Clouds 24 1013 73 10000 3 170 12:18 04.07.2020
366 Rain 24 1013 73 10000 2 230 11:43 04.07.2020
367 Rain 24 1013 73 10000 2 230 11:23 04.07.2020
368 Clouds 24 1013 78 10000 3 270 10:56 04.07.2020
369 Clouds 24 1013 78 10000 2 250 10:37 04.07.2020
370 Clouds 24 1013 78 10000 2 250 10:19 04.07.2020
371 Clouds 24 1013 69 10000 2 270 09:41 04.07.2020
372 Clouds 24 1013 69 10000 2 270 09:22 04.07.2020
373 Rain 24 1013 73 10000 2 230 08:58 04.07.2020
374 Rain 23 1013 73 10000 2 160 08:39 04.07.2020
375 Clouds 23 1013 73 10000 2 160 08:21 04.07.2020
376 Clouds 23 1013 73 10000 2 150 07:41 04.07.2020
377 Clouds 22 1013 77 10000 2 140 07:18 04.07.2020
378 Clouds 21 1013 77 10000 2 150 06:38 04.07.2020
379 Clouds 20 1013 82 10000 1 0 06:19 04.07.2020
380 Clouds 19 1013 88 10000 2 200 05:29 04.07.2020
381 Clouds 18 1013 88 9000 2.15 192 04:22 04.07.2020
382 Rain 18 1013 88 8000 2 60 02:45 04.07.2020
383 Rain 18 1013 88 9000 1 0 01:42 04.07.2020
384 Clouds 18 1013 88 10000 2 210 00:59 04.07.2020
385 Rain 18 1013 88 10000 2 170 00:40 04.07.2020
386 Rain 18 1013 88 10000 2 170 00:21 04.07.2020
387 Clouds 18 1013 88 10000 1 0 23:39 03.07.2020
388 Clouds 18 1013 88 10000 1 0 23:18 03.07.2020
389 Clouds 18 1013 88 10000 1 0 23:18 03.07.2020
390 Clouds 18 1013 88 10000 1 0 23:18 03.07.2020
391 Rain 18 1013 88 10000 2 160 22:42 03.07.2020
392 Rain 18 1013 88 10000 2 160 22:24 03.07.2020
393 Rain 18 1013 88 10000 3 170 21:59 03.07.2020
394 Rain 18 1013 88 10000 3 170 21:59 03.07.2020
395 Rain 18 1012 88 10000 6 100 21:39 03.07.2020
396 Rain 18 1012 88 10000 6 100 21:19 03.07.2020
397 Rain 18 1013 88 9000 2 130 20:46 03.07.2020
398 Rain 18 1013 88 9000 3 110 20:27 03.07.2020
399 Thunderstorm 18 1014 88 10000 4 180 19:59 03.07.2020
400 Rain 19 1014 88 8000 1 0 19:40 03.07.2020
401 Rain 19 1014 88 8000 1 0 19:19 03.07.2020
402 Rain 20 1014 88 8000 1 0 18:54 03.07.2020
403 Rain 22 1013 82 9000 1 0 18:36 03.07.2020
404 Clouds 22 1013 88 10000 2 160 18:18 03.07.2020
405 Rain 23 1013 82 8000 3 220 17:41 03.07.2020
406 Rain 24 1013 82 8000 3 220 17:21 03.07.2020
407 Thunderstorm 25 1013 78 10000 5 190 16:41 03.07.2020
408 Thunderstorm 25 1013 78 10000 5 190 16:41 03.07.2020
409 Thunderstorm 25 1013 78 10000 5 190 16:41 03.07.2020
410 Thunderstorm 26 1013 78 10000 5 190 16:23 03.07.2020
411 Rain 27 1013 61 10000 4 210 15:47 03.07.2020
412 Clouds 27 1013 57 10000 3 250 15:25 03.07.2020
413 Clouds 27 1013 54 10000 3 200 14:58 03.07.2020
414 Clouds 27 1013 54 10000 3 210 14:40 03.07.2020
415 Rain 27 1013 50 10000 5 240 14:21 03.07.2020
416 Rain 28 1013 57 10000 3 220 13:48 03.07.2020
417 Clouds 27 1013 57 10000 3 220 13:29 03.07.2020
418 Rain 26 1013 57 10000 4 220 12:57 03.07.2020
419 Rain 26 1013 57 10000 4 190 12:39 03.07.2020
420 Rain 26 1013 61 10000 3 200 12:20 03.07.2020
421 Clouds 25 1013 64 10000 3 210 11:43 03.07.2020
422 Clouds 25 1013 64 10000 3 210 11:25 03.07.2020
423 Clouds 25 1013 69 10000 3 230 10:59 03.07.2020
424 Clouds 24 1013 73 10000 3 220 10:40 03.07.2020
425 Clouds 24 1013 73 10000 3 220 10:21 03.07.2020
426 Clouds 23 1013 73 10000 4 220 09:56 03.07.2020
427 Clouds 22 1013 77 10000 4 230 09:37 03.07.2020
428 Clouds 22 1013 77 10000 4 230 09:18 03.07.2020
429 Clouds 22 1013 82 10000 3 200 08:40 03.07.2020
430 Clouds 22 1013 82 10000 3 200 08:19 03.07.2020
431 Clouds 21 1013 82 10000 3 230 07:50 03.07.2020
432 Clouds 20 1012 88 10000 3 240 07:28 03.07.2020
433 Clouds 20 1012 88 10000 3 240 06:59 03.07.2020
434 Clouds 20 1012 82 10000 4 250 06:25 03.07.2020
435 Clouds 20 1012 82 10000 4 250 06:25 03.07.2020
436 Clouds 19 1012 88 10000 4 230 05:23 03.07.2020
437 Clear 18 1011 88 10000 3 210 03:54 03.07.2020
438 Clear 18 1011 88 9000 2 210 02:50 03.07.2020
439 Rain 18 1011 88 10000 3 210 02:30 03.07.2020
440 Rain 19 1011 82 10000 2 210 01:30 03.07.2020
441 Rain 18 1011 82 10000 3 180 00:58 03.07.2020
442 Rain 18 1011 88 10000 2 180 00:40 03.07.2020
443 Rain 19 1011 88 10000 3 170 23:53 02.07.2020
444 Rain 19 1011 88 10000 3 170 23:53 02.07.2020
445 Rain 19 1011 88 10000 2 170 23:21 02.07.2020
446 Rain 19 1011 88 10000 2 170 22:59 02.07.2020
447 Rain 19 1011 88 10000 1 0 22:41 02.07.2020
448 Rain 19 1011 88 10000 1 0 22:21 02.07.2020
449 Rain 19 1011 88 10000 2 160 22:00 02.07.2020
450 Rain 19 1011 82 9000 3 160 21:41 02.07.2020
451 Rain 20 1011 82 9000 3 160 21:19 02.07.2020
452 Rain 20 1011 88 9000 4 140 20:58 02.07.2020
453 Rain 20 1011 82 10000 3 150 20:39 02.07.2020
454 Rain 20 1011 82 10000 3 150 20:19 02.07.2020
455 Rain 20 1012 88 4900 2 170 19:43 02.07.2020
456 Rain 20 1011 88 9000 3 140 19:24 02.07.2020
457 Rain 20 1011 88 9000 3 140 18:59 02.07.2020
458 Clouds 20 1011 82 10000 3 120 18:40 02.07.2020
459 Rain 20 1012 88 9000 3 240 18:22 02.07.2020
460 Rain 20 1012 88 9000 3 240 17:57 02.07.2020
461 Rain 21 1012 82 9000 3 210 17:38 02.07.2020
462 Rain 21 1012 82 9000 3 210 17:18 02.07.2020
463 Rain 21 1012 82 7000 6 210 16:42 02.07.2020
464 Rain 22 1012 82 7000 6 210 16:21 02.07.2020
465 Rain 22 1011 60 10000 4 190 15:59 02.07.2020
466 Rain 23 1011 60 10000 4 190 15:38 02.07.2020
467 Rain 23 1011 60 10000 4 190 15:20 02.07.2020
468 Rain 23 1011 53 10000 5 230 14:46 02.07.2020
469 Rain 23 1011 53 10000 5 230 14:23 02.07.2020
470 Rain 24 1011 53 10000 7 230 13:57 02.07.2020
471 Rain 24 1011 53 10000 7 230 13:57 02.07.2020
472 Clouds 25 1011 53 10000 7 250 13:39 02.07.2020
473 Rain 25 1011 47 10000 7 230 13:19 02.07.2020
474 Rain 25 1011 47 10000 7 230 12:57 02.07.2020
475 Clouds 24 1011 56 10000 6 260 12:38 02.07.2020
476 Clouds 24 1011 56 10000 6 260 12:19 02.07.2020
477 Rain 25 1011 53 10000 4 240 11:42 02.07.2020
478 Clouds 25 1011 53 10000 4 240 11:24 02.07.2020
479 Clouds 24 1011 53 10000 4 220 10:47 02.07.2020
480 Clouds 24 1011 56 10000 5 220 10:27 02.07.2020
481 Clouds 24 1011 64 10000 4 260 09:57 02.07.2020
482 Clouds 23 1011 64 10000 4 260 09:39 02.07.2020
483 Clouds 23 1011 64 10000 4 260 09:20 02.07.2020
484 Clouds 22 1011 68 10000 4 260 08:44 02.07.2020
485 Clouds 22 1011 72 10000 4 260 08:24 02.07.2020
486 Clouds 21 1011 68 10000 4 250 07:56 02.07.2020
487 Clouds 21 1011 72 10000 4 240 07:37 02.07.2020
488 Clouds 20 1011 72 10000 4 240 07:18 02.07.2020
489 Clouds 18 1010 82 10000 3 230 06:40 02.07.2020
490 Clouds 18 1010 82 10000 3 230 06:20 02.07.2020
491 Rain 17 1010 87 10000 3 210 05:44 02.07.2020
492 Clouds 17 1010 82 10000 4 230 03:57 02.07.2020
493 Clear 16 1010 82 10000 3 220 03:31 02.07.2020
494 Rain 17 1010 87 8000 3 260 00:54 02.07.2020
495 Rain 17 1009 82 10000 3 230 00:25 02.07.2020
496 Rain 16 1009 87 10000 3 210 23:48 01.07.2020
497 Rain 16 1009 87 10000 3 210 23:30 01.07.2020
498 Rain 17 1009 87 10000 3 210 22:57 01.07.2020
499 Rain 17 1009 82 10000 3 210 22:38 01.07.2020
500 Rain 17 1009 82 10000 3 210 22:38 01.07.2020
501 Rain 17 1009 82 10000 3 210 22:19 01.07.2020
502 Rain 19 1009 87 10000 3 250 21:59 01.07.2020
503 Rain 20 1009 82 8000 8 250 21:40 01.07.2020
504 Rain 19 1009 82 8000 8 250 21:22 01.07.2020
505 Clouds 19 1008 82 10000 3 120 20:59 01.07.2020
506 Rain 19 1008 77 10000 2 80 20:41 01.07.2020
507 Rain 20 1008 77 10000 2 80 20:23 01.07.2020
508 Clouds 20 1008 77 10000 3 20 19:56 01.07.2020
509 Rain 20 1008 87 6000 5 320 19:38 01.07.2020
510 Rain 20 1008 87 6000 5 320 19:19 01.07.2020
511 Clouds 22 1008 56 10000 6 230 18:42 01.07.2020
512 Clouds 23 1008 52 10000 6 220 18:21 01.07.2020
513 Clouds 23 1008 52 10000 6 220 18:21 01.07.2020
514 Clouds 23 1008 52 10000 6 220 17:59 01.07.2020
515 Rain 23 1008 49 10000 6 220 17:39 01.07.2020
516 Rain 22 1008 49 10000 6 220 17:19 01.07.2020
517 Rain 20 1008 56 10000 8 260 16:47 01.07.2020
518 Rain 21 1008 56 10000 8 260 16:28 01.07.2020
519 Clouds 23 1007 49 10000 6 240 15:57 01.07.2020
520 Clouds 24 1008 43 10000 5 240 15:39 01.07.2020
521 Clouds 24 1008 43 10000 5 240 15:20 01.07.2020
522 Clouds 24 1007 46 10000 6 270 14:44 01.07.2020
523 Clouds 24 1007 46 10000 6 270 14:22 01.07.2020
524 Clouds 25 1008 46 10000 7 240 13:59 01.07.2020
525 Clouds 24 1007 49 10000 6 250 13:39 01.07.2020
526 Clouds 24 1007 43 10000 6 240 13:20 01.07.2020
527 Rain 24 1007 43 10000 5 250 12:58 01.07.2020
528 Clouds 23 1007 43 10000 5 250 12:39 01.07.2020
529 Clouds 23 1007 43 10000 5 250 12:20 01.07.2020
530 Clouds 23 1007 46 10000 5 260 11:44 01.07.2020
531 Clouds 23 1007 46 10000 5 260 11:44 01.07.2020
532 Clouds 24 1007 41 10000 6 240 11:44 01.07.2020
533 Clouds 24 1007 41 10000 6 240 11:44 01.07.2020
534 Clouds 24 1007 41 10000 6 240 11:44 01.07.2020
535 Clouds 24 1007 41 10000 6 240 11:44 01.07.2020
536 Clouds 23 1007 46 10000 5 260 11:25 01.07.2020
537 Clouds 23 1008 46 10000 7 250 10:59 01.07.2020
538 Clouds 23 1007 46 10000 6 250 10:41 01.07.2020
539 Clouds 22 1007 46 10000 6 250 10:22 01.07.2020
540 Dust 22 1007 56 10000 6 260 09:58 01.07.2020
541 Clouds 21 1007 52 10000 5 250 09:37 01.07.2020
542 Clouds 21 1007 56 10000 5 240 09:18 01.07.2020
543 Clouds 20 1007 64 10000 4 250 08:41 01.07.2020
544 Clouds 21 1007 64 10000 4 250 08:23 01.07.2020
545 Clouds 20 1007 68 10000 5 260 07:58 01.07.2020
546 Clouds 20 1007 68 10000 4 290 07:39 01.07.2020
547 Clouds 20 1007 68 10000 4 290 07:20 01.07.2020
548 Clouds 19 1007 77 10000 3 280 06:50 01.07.2020
549 Clouds 18 1007 77 10000 3 280 06:28 01.07.2020
550 Clouds 17 1006 82 10000 4 300 04:56 01.07.2020
551 Clouds 17 1005 87 10000 5 290 03:48 01.07.2020
552 Rain 17 1005 87 10000 4 280 03:27 01.07.2020
553 Rain 17 1005 87 8000 4 260 02:41 01.07.2020
554 Rain 17 1005 87 4600 3 250 01:47 01.07.2020
555 Rain 18 1005 72 10000 5 190 00:43 01.07.2020
556 Rain 18 1005 72 10000 5 190 00:24 01.07.2020
557 Rain 19 1004 56 10000 4 180 23:42 30.06.2020
558 Rain 20 1004 56 10000 4 180 23:22 30.06.2020
559 Rain 20 1004 55 10000 3 160 22:58 30.06.2020
560 Rain 20 1004 59 10000 4 160 22:39 30.06.2020
561 Rain 20 1004 59 10000 4 160 22:18 30.06.2020
562 Clouds 20 1005 49 10000 5 160 21:41 30.06.2020
563 Clouds 20 1005 49 10000 5 160 21:19 30.06.2020
564 Clouds 20 1005 46 10000 5 160 20:44 30.06.2020
565 Clouds 21 1005 46 10000 5 160 20:22 30.06.2020
566 Clouds 21 1005 46 10000 5 150 20:00 30.06.2020
567 Clouds 22 1005 46 10000 5 150 19:41 30.06.2020
568 Clouds 21 1006 40 10000 5 160 19:19 30.06.2020
569 Clouds 22 1006 43 10000 6 170 18:43 30.06.2020
570 Clouds 22 1006 43 10000 6 170 18:21 30.06.2020
571 Clouds 22 1006 40 10000 7 150 17:58 30.06.2020
572 Clouds 22 1006 38 10000 6 150 17:37 30.06.2020
573 Clouds 22 1006 38 10000 6 150 17:18 30.06.2020
574 Clouds 22 1006 38 10000 6 150 17:18 30.06.2020
575 Clouds 23 1007 40 10000 5 170 16:43 30.06.2020
576 Clouds 23 1007 40 10000 5 170 16:23 30.06.2020
577 Clouds 22 1007 38 10000 5 170 15:57 30.06.2020
578 Clouds 23 1007 40 10000 6 160 15:39 30.06.2020
579 Clouds 23 1007 40 10000 6 160 15:21 30.06.2020
580 Clouds 22 1007 40 10000 5 170 14:47 30.06.2020
581 Clouds 22 1007 38 10000 5 160 14:23 30.06.2020
582 Clouds 22 1008 40 10000 5 150 13:59 30.06.2020
583 Clouds 22 1008 40 10000 6 130 13:39 30.06.2020
584 Clouds 22 1008 40 10000 6 130 13:20 30.06.2020
585 Clouds 23 1009 40 10000 5 160 12:57 30.06.2020
586 Clouds 23 1009 40 10000 5 160 12:39 30.06.2020
587 Clouds 22 1009 43 10000 5 160 12:20 30.06.2020
588 Clouds 22 1009 43 10000 5 160 11:57 30.06.2020
589 Clouds 22 1009 40 10000 4 150 11:38 30.06.2020
590 Clouds 22 1009 40 10000 4 150 11:19 30.06.2020
591 Clouds 21 1010 42 10000 5 150 10:56 30.06.2020
592 Rain 23 1009 53 10000 6 20 16:38 28.06.2020
593 Rain 23 1009 53 10000 6 20 16:20 28.06.2020
594 Rain 23 1009 56 10000 5 40 15:56 28.06.2020
595 Rain 23 1009 56 10000 5 40 15:56 28.06.2020
596 Clouds 24 1009 56 10000 4 40 15:37 28.06.2020
597 Clouds 25 1009 49 10000 6 20 15:18 28.06.2020
598 Clouds 25 1008 50 10000 7 20 14:44 28.06.2020
599 Clouds 25 1008 50 10000 7 20 14:25 28.06.2020
600 Clouds 27 1008 36 10000 2 320 13:57 28.06.2020
601 Clear 28 1008 42 10000 3 340 13:37 28.06.2020
602 Clear 28 1008 37 10000 2 20 13:18 28.06.2020
603 Clear 28 1008 37 10000 2 20 12:55 28.06.2020
604 Clear 27 1009 39 10000 2 230 12:37 28.06.2020
605 Clear 27 1009 42 10000 2 300 12:18 28.06.2020
606 Clear 27 1009 42 10000 2 300 11:55 28.06.2020
607 Clear 27 1009 39 10000 2 280 11:37 28.06.2020
608 Clear 27 1009 39 10000 2 280 11:37 28.06.2020
609 Clear 26 1009 44 10000 2 220 11:19 28.06.2020
610 Clouds 26 1010 44 10000 2 290 10:41 28.06.2020
611 Clear 25 1010 47 10000 1 0 10:23 28.06.2020
612 Clear 25 1010 47 10000 1 0 09:57 28.06.2020
613 Clear 25 1010 50 10000 2 230 09:39 28.06.2020
614 Clear 24 1010 50 10000 1 0 09:20 28.06.2020
615 Clear 24 1011 53 10000 1 0 08:42 28.06.2020
616 Clear 24 1011 53 10000 1 0 08:22 28.06.2020
617 Clear 23 1011 60 10000 2 130 07:40 28.06.2020
618 Clear 22 1011 64 10000 2 120 07:20 28.06.2020
619 Clear 20 1011 68 10000 2 80 06:34 28.06.2020
620 Clear 20 1011 68 10000 2 100 05:55 28.06.2020
621 Clear 19 1011 68 10000 1 0 05:25 28.06.2020
622 Clear 19 1011 77 10000 1 0 03:23 28.06.2020
623 Clouds 19 1011 82 10000 3 340 02:28 28.06.2020
624 Clouds 20 1011 77 10000 2 320 01:48 28.06.2020
625 Clouds 20 1011 77 10000 2 320 01:25 28.06.2020
626 Clouds 21 1011 72 10000 3 310 00:43 28.06.2020
627 Clouds 21 1012 68 10000 3 300 00:22 28.06.2020
628 Clouds 21 1011 68 10000 4 300 23:40 27.06.2020
629 Clouds 21 1011 68 10000 4 300 23:22 27.06.2020
630 Clouds 22 1011 64 10000 5 290 22:58 27.06.2020
631 Clouds 23 1011 60 10000 4 280 22:39 27.06.2020
632 Clouds 23 1011 60 10000 4 280 22:19 27.06.2020
633 Clouds 24 1011 53 10000 5 270 21:42 27.06.2020
634 Clouds 24 1011 53 10000 5 270 21:20 27.06.2020
635 Clouds 25 1011 50 10000 5 280 20:57 27.06.2020
636 Clouds 25 1011 47 10000 5 280 20:37 27.06.2020
637 Clouds 25 1011 47 10000 5 280 20:18 27.06.2020
638 Clouds 26 1012 50 10000 3 310 19:54 27.06.2020
639 Clouds 26 1012 50 10000 3 310 19:36 27.06.2020
640 Clouds 27 1011 44 10000 6 290 19:18 27.06.2020
641 Clouds 27 1011 39 10000 7 290 18:42 27.06.2020
642 Clouds 29 1012 39 10000 7 280 18:21 27.06.2020
643 Clouds 29 1012 39 10000 7 280 17:54 27.06.2020
644 Clouds 29 1012 37 10000 8 280 17:36 27.06.2020
645 Clouds 29 1012 37 10000 8 280 17:18 27.06.2020
646 Clouds 29 1013 37 10000 8 270 16:41 27.06.2020
647 Clouds 29 1013 37 10000 8 270 16:23 27.06.2020
648 Clouds 29 1013 34 9000 8 280 15:46 27.06.2020
649 Clear 29 1013 34 8000 8 280 15:25 27.06.2020
650 Clear 29 1014 34 10000 8 280 14:59 27.06.2020
651 Clear 29 1014 35 10000 7 280 14:41 27.06.2020
652 Clouds 29 1014 35 10000 7 280 14:22 27.06.2020
653 Clear 29 1014 37 10000 8 270 13:57 27.06.2020
654 Clear 29 1015 34 9000 8 300 13:37 27.06.2020
655 Clear 28 1015 39 10000 7 280 13:19 27.06.2020
656 Clear 27 1015 39 10000 7 290 12:43 27.06.2020
657 Clear 28 1015 39 10000 7 290 12:22 27.06.2020
658 Clear 28 1015 37 9000 8 300 11:59 27.06.2020
659 Clear 27 1016 34 10000 7 280 11:40 27.06.2020
660 Clear 28 1016 45 10000 7 270 11:22 27.06.2020
661 Clear 28 1016 45 10000 7 270 10:55 27.06.2020
662 Clear 27 1016 44 9000 7 280 10:37 27.06.2020
663 Clear 27 1016 44 9000 7 280 10:18 27.06.2020
664 Clear 27 1017 54 10000 4 280 09:40 27.06.2020
665 Clear 26 1017 54 10000 4 280 09:21 27.06.2020
666 Clear 25 1017 50 10000 5 260 08:46 27.06.2020
667 Clear 25 1017 50 10000 5 260 08:23 27.06.2020
668 Clear 24 1018 60 10000 5 260 07:50 27.06.2020
669 Clear 23 1018 64 10000 6 250 07:30 27.06.2020
670 Clear 23 1018 64 10000 6 250 06:55 27.06.2020
671 Clear 21 1019 68 10000 5 250 06:34 27.06.2020
672 Clear 19 1019 72 10000 4 240 05:33 27.06.2020
673 Clear 18 1020 72 10000 3 240 04:19 27.06.2020
674 Clear 18 1020 72 10000 4 250 03:51 27.06.2020
675 Clear 19 1020 72 10000 4 250 02:47 27.06.2020
676 Clear 19 1020 72 10000 5 250 02:27 27.06.2020
677 Clear 19 1020 77 10000 4 250 01:40 27.06.2020
678 Clear 20 1020 68 10000 4 250 00:52 27.06.2020
679 Clear 20 1021 72 10000 5 250 23:59 26.06.2020
680 Clear 20 1021 68 10000 4 260 23:41 26.06.2020
681 Clear 21 1021 68 10000 4 250 23:21 26.06.2020
682 Clear 20 1021 68 10000 4 250 22:55 26.06.2020
683 Clear 21 1021 68 10000 4 250 22:36 26.06.2020
684 Clear 21 1021 68 10000 4 250 22:18 26.06.2020
685 Clear 22 1021 56 10000 4 280 21:56 26.06.2020
686 Clear 22 1021 64 10000 4 250 21:36 26.06.2020
687 Clear 23 1021 60 10000 4 270 21:18 26.06.2020
688 Clear 24 1022 49 10000 3 280 20:41 26.06.2020
689 Clear 24 1022 47 10000 4 280 20:19 26.06.2020
690 Clear 25 1022 47 10000 4 290 19:41 26.06.2020
691 Clear 25 1022 47 10000 4 290 19:23 26.06.2020
692 Clear 25 1022 47 10000 4 310 18:44 26.06.2020
693 Clear 25 1022 47 10000 4 310 18:26 26.06.2020
694 Clear 25 1022 47 10000 4 300 17:58 26.06.2020
695 Clear 27 1023 44 10000 4 270 17:40 26.06.2020
696 Clear 25 1023 41 10000 3 350 17:22 26.06.2020
697 Clear 25 1023 41 10000 3 350 16:46 26.06.2020
698 Clear 27 1023 41 10000 4 330 16:25 26.06.2020
699 Clear 25 1024 44 10000 3 330 15:54 26.06.2020
700 Clear 26 1024 44 10000 3 10 15:36 26.06.2020
701 Clear 27 1024 44 10000 3 10 15:18 26.06.2020
702 Clear 26 1025 41 10000 3 350 14:41 26.06.2020
703 Clear 26 1025 41 10000 3 350 14:22 26.06.2020
704 Clear 25 1025 41 10000 3 350 13:59 26.06.2020
705 Clouds 25 1025 47 10000 3 340 13:41 26.06.2020
706 Clouds 25 1025 47 10000 4 340 13:18 26.06.2020
707 Clouds 24 1025 46 10000 3 330 12:41 26.06.2020
708 Clouds 24 1025 46 10000 2 360 12:23 26.06.2020
709 Clouds 24 1025 46 10000 2 360 12:23 26.06.2020
710 Clouds 24 1025 46 10000 2 360 11:59 26.06.2020
711 Clouds 23 1026 49 10000 3 340 11:39 26.06.2020
712 Clouds 23 1026 49 10000 3 340 11:21 26.06.2020
713 Clouds 23 1026 53 10000 3 20 10:58 26.06.2020
714 Clouds 23 1026 53 10000 4 30 10:39 26.06.2020
715 Clouds 23 1026 53 10000 4 30 10:19 26.06.2020
716 Clouds 22 1026 53 10000 2 30 09:44 26.06.2020
717 Clouds 22 1026 53 10000 2 30 09:26 26.06.2020
718 Clouds 21 1026 56 10000 3 350 08:57 26.06.2020
719 Clouds 20 1026 63 10000 3 360 08:37 26.06.2020
720 Clouds 20 1026 63 10000 3 360 08:19 26.06.2020
721 Clouds 20 1026 60 10000 1 0 07:44 26.06.2020
722 Clouds 20 1026 64 10000 1 0 07:21 26.06.2020
723 Clouds 19 1026 68 10000 1 0 06:44 26.06.2020
724 Clouds 19 1026 68 10000 1 0 06:26 26.06.2020
725 Clouds 18 1025 77 10000 1 10 05:48 26.06.2020
726 Mist 17 1025 87 7000 1 20 04:39 26.06.2020
727 Clouds 18 1025 82 10000 2 30 02:22 26.06.2020
728 Clouds 18 1024 88 10000 4 30 01:22 26.06.2020
729 Clouds 19 1024 82 10000 4 10 00:42 26.06.2020
730 Clouds 19 1024 88 10000 2 350 00:20 26.06.2020
731 Clouds 19 1023 82 10000 3 330 23:45 25.06.2020
732 Clouds 19 1023 82 10000 3 330 23:20 25.06.2020
733 Clouds 19 1023 82 10000 3 320 22:57 25.06.2020
734 Clouds 19 1023 82 10000 4 290 22:38 25.06.2020
735 Rain 19 1023 82 10000 4 290 22:19 25.06.2020
736 Rain 19 1023 82 10000 3 290 21:56 25.06.2020
737 Rain 19 1022 82 10000 1 0 21:38 25.06.2020
738 Rain 19 1023 82 8000 2 360 21:19 25.06.2020
739 Rain 19 1023 82 9000 2 310 20:45 25.06.2020
740 Rain 19 1023 82 9000 2 310 20:24 25.06.2020
741 Rain 20 1023 77 9000 5 30 19:59 25.06.2020
742 Rain 20 1023 77 9000 5 30 19:41 25.06.2020
743 Rain 20 1023 72 9000 4 40 19:19 25.06.2020
744 Clouds 20 1022 64 10000 5 60 18:58 25.06.2020
745 Clouds 20 1022 64 10000 5 60 18:38 25.06.2020
746 Clouds 21 1022 60 10000 5 80 18:19 25.06.2020
747 Clouds 23 1022 56 9000 8 60 17:44 25.06.2020
748 Clouds 23 1022 56 9000 8 60 17:20 25.06.2020
749 Dust 25 1021 32 9000 7 330 16:58 25.06.2020
750 Rain 29 1021 32 9000 10 320 16:37 25.06.2020
751 Clouds 28 1021 34 8000 10 310 16:19 25.06.2020
752 Clouds 28 1021 32 7000 10 310 15:42 25.06.2020
753 Clouds 27 1021 32 7000 10 310 15:22 25.06.2020
754 Clouds 27 1022 37 9000 9 310 14:46 25.06.2020
755 Clouds 27 1022 37 9000 9 310 14:25 25.06.2020
756 Clouds 27 1022 36 9000 7 310 13:59 25.06.2020
757 Clouds 26 1022 39 10000 8 310 13:41 25.06.2020
758 Clouds 26 1022 39 10000 8 310 13:19 25.06.2020
759 Clouds 25 1023 41 10000 8 280 12:57 25.06.2020
760 Clouds 25 1023 41 10000 8 280 12:39 25.06.2020
761 Clouds 25 1023 41 10000 7 290 12:19 25.06.2020
762 Clouds 25 1024 39 10000 6 280 11:42 25.06.2020
763 Clouds 24 1024 33 10000 6 260 11:21 25.06.2020
764 Clouds 24 1024 38 10000 6 270 10:44 25.06.2020
765 Clouds 24 1024 38 10000 6 270 10:26 25.06.2020
766 Clouds 23 1024 38 10000 6 270 09:58 25.06.2020
767 Clouds 22 1024 37 10000 6 260 09:40 25.06.2020
768 Clouds 22 1024 37 10000 6 260 09:18 25.06.2020
769 Clouds 21 1025 43 10000 5 250 08:43 25.06.2020
770 Clouds 21 1025 43 10000 5 250 08:19 25.06.2020
771 Clouds 20 1025 42 10000 5 250 07:44 25.06.2020
772 Clouds 19 1025 52 10000 3 260 07:26 25.06.2020
773 Clouds 18 1026 48 10000 2 250 06:46 25.06.2020
774 Clouds 15 1026 55 10000 2 250 06:26 25.06.2020
775 Clouds 15 1026 67 10000 2 280 05:40 25.06.2020
776 Clouds 14 1026 66 10000 1 0 03:56 25.06.2020
777 Clouds 14 1026 71 10000 1 300 03:26 25.06.2020
778 Clouds 14 1026 71 10000 2 290 02:41 25.06.2020
779 Clear 14 1025 62 10000 1 0 01:47 25.06.2020
780 Clear 15 1025 58 10000 1 0 01:19 25.06.2020
781 Clear 15 1025 54 10000 2 340 00:42 25.06.2020
782 Clear 16 1025 54 10000 2 320 00:20 25.06.2020
783 Clear 16 1025 54 10000 2 360 23:44 24.06.2020
784 Clear 16 1025 54 10000 2 360 23:25 24.06.2020
785 Clear 16 1024 51 10000 2 330 22:57 24.06.2020
786 Clear 17 1024 48 10000 3 20 22:38 24.06.2020
787 Clear 17 1024 48 10000 3 20 22:19 24.06.2020
788 Clear 17 1024 48 10000 3 30 21:55 24.06.2020
789 Clear 17 1024 45 10000 3 20 21:36 24.06.2020
790 Clear 17 1024 45 10000 3 20 21:18 24.06.2020
791 Clear 18 1024 39 10000 3 10 20:57 24.06.2020
792 Clear 19 1023 37 10000 3 10 20:38 24.06.2020
793 Clear 19 1023 37 10000 3 10 20:19 24.06.2020
794 Clear 20 1023 32 10000 4 10 19:55 24.06.2020
795 Clear 22 1023 30 10000 4 20 19:36 24.06.2020
796 Clear 23 1023 28 10000 5 10 19:18 24.06.2020
797 Clear 22 1023 28 10000 5 10 18:57 24.06.2020
798 Clear 23 1022 25 10000 6 20 18:38 24.06.2020
799 Clear 23 1022 31 10000 7 10 18:19 24.06.2020
800 Clear 24 1022 25 10000 6 350 17:43 24.06.2020
801 Clear 25 1022 25 10000 6 350 17:21 24.06.2020
802 Clear 25 1022 27 10000 6 340 16:58 24.06.2020
803 Clear 26 1021 25 10000 7 350 16:40 24.06.2020
804 Clear 26 1021 25 10000 7 350 16:21 24.06.2020
805 Clear 25 1021 23 10000 7 360 15:58 24.06.2020
806 Clear 25 1021 22 10000 7 350 15:39 24.06.2020
807 Clear 25 1021 22 10000 7 350 15:39 24.06.2020
808 Clear 25 1021 23 10000 7 360 15:20 24.06.2020
809 Clear 25 1021 22 10000 7 350 15:20 24.06.2020
810 Clear 25 1021 23 10000 7 360 14:54 24.06.2020
811 Clouds 25 1021 25 10000 8 340 14:36 24.06.2020
812 Clouds 25 1021 25 10000 8 340 14:18 24.06.2020
813 Clouds 25 1021 38 10000 6 360 13:41 24.06.2020
814 Clouds 25 1021 44 10000 6 350 13:20 24.06.2020
815 Clouds 25 1021 44 10000 5 360 12:42 24.06.2020
816 Clouds 25 1021 44 10000 5 340 12:21 24.06.2020
817 Clouds 25 1021 41 10000 6 330 11:57 24.06.2020
818 Clouds 25 1021 41 10000 6 330 11:39 24.06.2020
819 Clouds 25 1020 44 10000 5 340 11:21 24.06.2020
820 Clouds 25 1020 44 10000 5 340 10:45 24.06.2020
821 Clouds 24 1020 47 10000 3 340 10:19 24.06.2020
822 Clouds 24 1020 49 10000 4 330 09:46 24.06.2020
823 Clear 24 1020 49 10000 4 330 09:24 24.06.2020
824 Clear 23 1020 56 10000 3 350 08:59 24.06.2020
825 Clear 23 1020 53 10000 3 340 08:40 24.06.2020
826 Clear 22 1020 52 10000 2 340 08:18 24.06.2020
827 Clear 21 1020 56 10000 3 350 07:46 24.06.2020
828 Clear 21 1020 52 10000 3 350 07:25 24.06.2020
829 Clear 20 1020 55 10000 2 320 06:45 24.06.2020
830 Clear 17 1019 63 10000 2 290 06:24 24.06.2020
831 Clear 16 1019 63 10000 3 310 05:39 24.06.2020
832 Clear 14 1019 67 10000 3 310 04:38 24.06.2020
833 Clear 15 1019 67 10000 3 320 03:38 24.06.2020
834 Clear 15 1019 67 10000 1 0 02:54 24.06.2020
835 Clear 15 1019 62 10000 2 330 02:21 24.06.2020
836 Clear 16 1018 67 10000 1 0 00:52 24.06.2020
837 Clear 16 1018 67 10000 1 0 00:33 24.06.2020
838 Clear 17 1018 63 10000 2 330 23:49 23.06.2020
839 Clear 17 1018 63 10000 2 330 23:23 23.06.2020
840 Clear 17 1018 59 10000 2 330 22:59 23.06.2020
841 Clear 17 1018 63 9000 2 320 22:41 23.06.2020
842 Clear 18 1018 59 10000 2 340 22:19 23.06.2020
843 Clear 18 1018 59 10000 2 340 21:57 23.06.2020
844 Clear 18 1018 55 10000 2 10 21:38 23.06.2020
845 Clear 19 1018 52 10000 3 20 21:18 23.06.2020
846 Clear 19 1018 52 10000 3 20 20:55 23.06.2020
847 Clouds 20 1017 46 10000 3 10 20:36 23.06.2020
848 Clouds 20 1017 46 10000 3 10 20:36 23.06.2020
849 Clouds 20 1017 43 10000 3 10 20:18 23.06.2020
850 Clouds 21 1017 46 10000 2 200 19:42 23.06.2020
851 Clouds 21 1016 46 10000 3 130 19:23 23.06.2020
852 Clouds 21 1016 49 10000 3 90 18:39 23.06.2020
853 Clouds 22 1016 46 10000 1 0 18:19 23.06.2020
854 Clouds 23 1016 43 10000 4 120 17:44 23.06.2020
855 Rain 22 1016 43 10000 4 120 17:25 23.06.2020
856 Rain 21 1016 46 10000 3 120 16:57 23.06.2020
857 Rain 24 1016 46 10000 3 300 16:39 23.06.2020
858 Rain 22 1016 46 10000 3 300 16:20 23.06.2020
859 Rain 22 1016 43 10000 3 240 15:59 23.06.2020
860 Rain 23 1016 43 10000 2 60 15:41 23.06.2020
861 Rain 23 1016 43 10000 2 60 15:23 23.06.2020
862 Rain 22 1016 46 10000 2 340 14:54 23.06.2020
863 Rain 23 1017 52 10000 1 0 14:36 23.06.2020
864 Rain 23 1017 43 10000 2 220 14:18 23.06.2020
865 Rain 24 1017 43 10000 3 170 13:42 23.06.2020
866 Clouds 22 1017 46 10000 2 180 13:23 23.06.2020
867 Clouds 23 1017 46 10000 2 180 13:23 23.06.2020
868 Clouds 22 1017 46 10000 4 150 12:46 23.06.2020
869 Clouds 22 1017 46 10000 4 150 12:46 23.06.2020
870 Clouds 21 1017 49 10000 4 160 12:23 23.06.2020
871 Clouds 21 1017 49 10000 4 160 11:59 23.06.2020
872 Clouds 21 1016 49 10000 4 180 11:40 23.06.2020
873 Clouds 21 1016 49 10000 4 180 11:21 23.06.2020
874 Clouds 21 1016 53 10000 4 190 10:58 23.06.2020
875 Clouds 20 1016 53 10000 3 120 10:39 23.06.2020
876 Clouds 20 1016 53 10000 3 120 10:21 23.06.2020
877 Clouds 20 1016 49 10000 3 140 09:55 23.06.2020
878 Clouds 20 1016 43 10000 2 100 09:37 23.06.2020
879 Clouds 20 1016 43 10000 2 100 09:18 23.06.2020
880 Clear 20 1017 52 10000 1 0 08:42 23.06.2020
881 Clouds 20 1017 52 10000 1 0 08:22 23.06.2020
882 Clouds 19 1017 56 10000 1 0 07:45 23.06.2020
883 Clouds 19 1017 55 10000 2 60 07:24 23.06.2020
884 Clouds 18 1017 63 10000 2 70 06:52 23.06.2020
885 Clouds 17 1017 63 10000 2 70 06:32 23.06.2020
886 Clouds 16 1017 67 10000 2 70 05:48 23.06.2020
887 Clouds 16 1017 71 10000 2 60 04:42 23.06.2020
888 Clouds 15 1016 76 10000 2 60 03:21 23.06.2020
889 Clouds 15 1016 81 10000 2 70 02:47 23.06.2020
890 Clouds 15 1016 81 10000 2 70 02:28 23.06.2020
891 Clouds 15 1017 71 10000 2 60 01:45 23.06.2020
892 Clear 16 1017 71 10000 3 70 01:21 23.06.2020
893 Clear 16 1017 67 10000 3 70 00:40 23.06.2020
894 Clear 17 1017 59 10000 2 40 00:19 23.06.2020
895 Clear 17 1017 67 10000 1 0 23:39 22.06.2020
896 Clear 17 1017 63 10000 1 0 23:19 22.06.2020
897 Clear 17 1017 63 10000 1 0 22:59 22.06.2020
898 Clear 18 1016 55 10000 1 0 22:40 22.06.2020
899 Clear 18 1016 55 10000 1 0 22:20 22.06.2020
900 Clear 18 1016 55 10000 1 0 21:58 22.06.2020
901 Clear 18 1016 55 10000 2 130 21:40 22.06.2020
902 Clear 19 1016 55 10000 3 100 21:21 22.06.2020
903 Clear 19 1016 55 10000 3 100 20:58 22.06.2020
904 Clear 20 1016 48 10000 3 100 20:39 22.06.2020
905 Clear 21 1016 48 10000 4 70 20:20 22.06.2020
906 Clear 21 1016 45 10000 4 70 19:44 22.06.2020
907 Clear 22 1016 45 10000 4 70 19:19 22.06.2020
908 Clear 21 1016 35 10000 3 80 18:57 22.06.2020
909 Clear 21 1016 35 10000 3 80 18:37 22.06.2020
910 Clear 22 1016 37 10000 4 90 18:18 22.06.2020
911 Clear 22 1017 37 10000 3 90 17:55 22.06.2020
912 Clear 22 1017 37 10000 3 90 17:37 22.06.2020
913 Clear 22 1017 37 10000 2 100 17:18 22.06.2020
914 Clear 22 1017 37 10000 2 160 16:43 22.06.2020
915 Clear 22 1017 30 10000 4 110 16:19 22.06.2020
916 Clear 22 1017 33 10000 4 110 15:57 22.06.2020
917 Clear 22 1017 33 10000 4 110 15:39 22.06.2020
918 Clear 22 1017 33 10000 3 90 15:21 22.06.2020
919 Clear 24 1017 35 10000 4 60 14:39 22.06.2020
920 Clear 21 1018 37 10000 5 70 14:20 22.06.2020
921 Clear 21 1018 37 10000 5 70 13:58 22.06.2020
922 Clear 23 1018 37 10000 4 110 13:38 22.06.2020
923 Clear 22 1018 40 10000 4 100 13:20 22.06.2020
924 Clear 22 1018 37 10000 3 70 12:43 22.06.2020
925 Clear 22 1018 37 10000 3 70 12:23 22.06.2020
926 Clear 21 1018 40 10000 4 120 11:58 22.06.2020
927 Clear 20 1018 40 10000 3 130 11:37 22.06.2020
928 Clear 20 1018 40 10000 3 130 11:37 22.06.2020
929 Clear 20 1018 45 10000 4 100 11:18 22.06.2020
930 Clear 20 1018 45 10000 4 100 11:18 22.06.2020
931 Clear 20 1018 45 10000 4 100 10:55 22.06.2020
932 Clear 20 1018 42 10000 4 110 10:36 22.06.2020
933 Clear 19 1018 45 10000 4 90 10:18 22.06.2020
934 Clear 19 1018 45 10000 4 90 09:54 22.06.2020
935 Clear 19 1018 42 10000 4 110 09:36 22.06.2020
936 Clear 19 1018 42 10000 5 90 09:18 22.06.2020
937 Clear 19 1018 42 10000 5 110 08:39 22.06.2020
938 Clear 18 1018 48 10000 4 90 08:21 22.06.2020
939 Clear 18 1018 48 10000 4 90 07:53 22.06.2020
940 Clear 18 1018 55 10000 4 90 07:33 22.06.2020
941 Clear 17 1019 63 10000 2 70 06:55 22.06.2020
942 Clear 16 1019 67 10000 2 70 06:36 22.06.2020
943 Clear 14 1019 71 10000 2 90 06:18 22.06.2020
944 Clear 14 1019 76 10000 3 70 05:33 22.06.2020
945 Clear 11 1018 87 10000 3 70 02:58 22.06.2020
946 Clear 12 1018 81 10000 3 70 01:37 22.06.2020
947 Clear 13 1018 76 10000 2 50 00:41 22.06.2020
948 Clear 13 1018 81 10000 2 40 00:18 22.06.2020
949 Clear 13 1018 81 10000 2 40 23:55 21.06.2020
950 Clear 13 1018 76 10000 3 70 23:36 21.06.2020
951 Clear 14 1018 76 10000 3 70 23:18 21.06.2020
952 Clear 14 1018 76 10000 3 70 22:54 21.06.2020
953 Clear 14 1018 76 10000 3 70 22:36 21.06.2020
954 Clear 14 1018 76 10000 3 70 22:36 21.06.2020
955 Clear 15 1018 67 10000 3 90 22:18 21.06.2020
956 Clear 15 1017 62 10000 3 80 21:42 21.06.2020
957 Clear 15 1017 62 10000 3 80 21:22 21.06.2020
958 Clear 16 1017 62 10000 4 90 20:59 21.06.2020
959 Clear 16 1017 62 10000 4 80 20:39 21.06.2020
960 Clear 17 1017 59 10000 4 80 20:19 21.06.2020
961 Clear 17 1017 59 10000 4 80 19:57 21.06.2020
962 Clear 18 1017 55 10000 5 70 19:39 21.06.2020
963 Clear 18 1017 55 10000 5 70 19:20 21.06.2020
964 Clear 18 1017 48 10000 5 60 18:55 21.06.2020
965 Clear 21 1017 48 10000 5 60 18:37 21.06.2020
966 Clear 21 1017 48 10000 5 60 18:37 21.06.2020
967 Clear 21 1017 52 10000 5 50 18:19 21.06.2020
968 Clear 18 1017 52 10000 5 50 18:19 21.06.2020
969 Clear 18 1017 48 10000 5 90 17:40 21.06.2020
970 Clear 18 1017 48 10000 5 90 17:21 21.06.2020
971 Clear 18 1017 48 10000 5 80 16:57 21.06.2020
972 Clear 20 1018 45 10000 6 90 16:39 21.06.2020
973 Clouds 20 1018 42 10000 6 80 16:20 21.06.2020
974 Clouds 19 1018 48 10000 5 80 15:40 21.06.2020
975 Clouds 19 1018 55 10000 5 70 15:21 21.06.2020
976 Clouds 18 1018 55 10000 5 70 14:58 21.06.2020
977 Clouds 18 1018 48 10000 5 70 14:37 21.06.2020
978 Clouds 17 1018 51 10000 5 70 14:18 21.06.2020
979 Clouds 17 1018 59 10000 6 70 13:43 21.06.2020
980 Clouds 16 1018 59 10000 6 70 13:25 21.06.2020
981 Clouds 16 1018 63 10000 5 70 12:59 21.06.2020
982 Clouds 16 1018 59 10000 6 60 12:41 21.06.2020
983 Clouds 15 1018 62 10000 6 60 12:23 21.06.2020
984 Clouds 15 1018 67 10000 5 70 11:43 21.06.2020
985 Clouds 15 1018 67 10000 5 70 11:24 21.06.2020
986 Clouds 14 1018 67 10000 5 60 10:59 21.06.2020
987 Clouds 14 1018 71 10000 6 70 10:40 21.06.2020
988 Clouds 14 1018 71 10000 6 70 10:22 21.06.2020
989 Clouds 13 1018 76 10000 4 60 09:55 21.06.2020
990 Clouds 13 1018 76 10000 4 60 09:36 21.06.2020
991 Clouds 13 1018 76 10000 5 60 09:18 21.06.2020
992 Clouds 13 1018 76 10000 5 60 08:54 21.06.2020
993 Clouds 13 1018 81 10000 6 70 08:36 21.06.2020
994 Rain 13 1018 81 10000 5 80 08:18 21.06.2020
995 Rain 13 1018 81 10000 6 100 07:40 21.06.2020
996 Rain 12 1018 81 10000 6 100 07:21 21.06.2020
997 Rain 13 1017 87 10000 6 90 06:48 21.06.2020
998 Rain 13 1017 87 10000 7 80 05:59 21.06.2020
999 Rain 13 1017 87 9000 7 60 05:25 21.06.2020
1000 Clouds 15 1017 87 10000 5 60 03:21 21.06.2020
1001 Rain 15 1017 87 10000 5 60 02:59 21.06.2020
1002 Rain 16 1017 93 5000 6 50 01:54 21.06.2020
1003 Clouds 17 1016 77 10000 6 60 01:21 21.06.2020
1004 Clouds 17 1016 77 10000 6 60 00:56 21.06.2020
1005 Clouds 17 1016 77 10000 6 40 00:38 21.06.2020
1006 Clouds 18 1016 77 10000 6 50 00:19 21.06.2020
1007 Clouds 18 1016 72 10000 6 50 23:44 20.06.2020
1008 Clouds 18 1016 77 10000 5 40 23:22 20.06.2020
1009 Clouds 19 1016 77 10000 5 40 22:56 20.06.2020
1010 Clouds 19 1016 77 10000 5 40 22:37 20.06.2020
1011 Clouds 19 1016 72 10000 5 50 22:18 20.06.2020
1012 Clouds 19 1016 72 10000 5 50 21:56 20.06.2020
1013 Clouds 19 1016 77 10000 6 50 21:38 20.06.2020
1014 Clouds 20 1015 72 10000 5 40 21:19 20.06.2020
1015 Clouds 20 1015 73 10000 6 30 20:56 20.06.2020
1016 Clouds 20 1015 73 10000 6 30 20:38 20.06.2020
1017 Clouds 21 1015 73 10000 6 30 20:19 20.06.2020
1018 Clouds 21 1014 60 10000 4 30 19:43 20.06.2020
1019 Clouds 21 1014 60 10000 4 30 19:23 20.06.2020
1020 Clouds 22 1014 60 10000 4 10 18:55 20.06.2020
1021 Clouds 22 1014 56 10000 3 30 18:37 20.06.2020
1022 Clouds 22 1014 60 10000 4 60 18:19 20.06.2020
1023 Clouds 21 1014 60 10000 4 60 17:56 20.06.2020
1024 Clouds 20 1014 64 10000 5 80 17:37 20.06.2020
1025 Clouds 21 1015 68 10000 5 110 17:18 20.06.2020
1026 Thunderstorm 20 1015 64 10000 6 140 16:40 20.06.2020
1027 Clouds 21 1014 53 10000 5 160 16:19 20.06.2020
1028 Clouds 22 1014 44 10000 5 40 15:57 20.06.2020
1029 Clouds 22 1014 44 10000 5 40 15:38 20.06.2020
1030 Clouds 22 1014 42 10000 5 40 15:18 20.06.2020
1031 Clouds 24 1014 42 10000 5 40 14:42 20.06.2020
1032 Clouds 24 1014 42 10000 5 40 14:20 20.06.2020
1033 Clouds 27 1014 45 10000 3 20 13:42 20.06.2020
1034 Clouds 27 1014 51 10000 3 20 13:20 20.06.2020
1035 Clouds 27 1014 51 10000 3 20 12:57 20.06.2020
1036 Clouds 27 1014 51 10000 4 40 12:38 20.06.2020
1037 Clouds 28 1014 51 10000 4 40 12:19 20.06.2020
1038 Clouds 27 1014 57 10000 3 30 11:41 20.06.2020
1039 Clear 26 1014 54 10000 3 10 11:21 20.06.2020
1040 Clear 26 1014 54 10000 3 10 10:59 20.06.2020
1041 Clear 25 1014 54 10000 2 330 10:41 20.06.2020
1042 Rain 25 1014 54 10000 4 330 10:20 20.06.2020
1043 Clouds 24 1014 54 10000 3 300 09:43 20.06.2020
1044 Clouds 24 1014 54 10000 3 300 09:25 20.06.2020
1045 Clouds 24 1014 53 10000 4 290 08:59 20.06.2020
1046 Clouds 24 1014 57 10000 2 280 08:40 20.06.2020
1047 Clouds 24 1014 57 10000 2 280 08:22 20.06.2020
1048 Clouds 23 1014 60 10000 2 320 07:51 20.06.2020
1049 Clouds 24 1014 57 10000 3 280 07:51 20.06.2020
1050 Clouds 23 1014 60 10000 2 320 07:26 20.06.2020
1051 Clouds 22 1014 60 10000 3 320 06:49 20.06.2020
1052 Clouds 21 1014 68 10000 2 300 06:22 20.06.2020
1053 Clouds 21 1014 64 10000 2 250 05:48 20.06.2020
1054 Clear 21 1014 68 10000 3 160 04:29 20.06.2020
1055 Clouds 21 1015 64 10000 7 100 02:20 20.06.2020
1056 Clouds 21 1015 68 10000 3 50 01:45 20.06.2020
1057 Rain 21 1014 68 10000 3 220 00:52 20.06.2020
1058 Rain 21 1014 68 10000 3 220 00:21 20.06.2020
1059 Rain 22 1014 60 10000 3 210 23:49 19.06.2020
1060 Rain 22 1014 60 10000 3 210 23:21 19.06.2020
1061 Rain 23 1014 56 10000 2 210 22:59 19.06.2020
1062 Rain 23 1014 53 10000 2 200 22:40 19.06.2020
1063 Rain 23 1014 50 10000 2 190 22:22 19.06.2020
1064 Rain 23 1014 50 10000 2 190 21:58 19.06.2020
1065 Clouds 23 1014 47 10000 3 200 21:38 19.06.2020
1066 Rain 24 1014 53 10000 3 200 21:18 19.06.2020
1067 Rain 24 1014 53 10000 3 200 20:58 19.06.2020
1068 Rain 24 1014 50 10000 4 200 20:39 19.06.2020
1069 Rain 24 1014 50 10000 4 200 20:20 19.06.2020
1070 Clouds 25 1014 50 10000 4 190 19:55 19.06.2020
1071 Clouds 25 1014 47 10000 3 200 19:37 19.06.2020
1072 Clouds 25 1014 47 10000 3 200 19:37 19.06.2020
1073 Clouds 25 1013 51 10000 3 210 19:18 19.06.2020
1074 Clouds 26 1013 48 10000 4 180 18:41 19.06.2020
1075 Clouds 27 1013 48 10000 4 180 18:21 19.06.2020
1076 Clouds 26 1013 51 10000 3 170 17:58 19.06.2020
1077 Rain 27 1013 51 10000 3 190 17:38 19.06.2020
1078 Rain 27 1013 51 10000 3 190 17:20 19.06.2020
1079 Rain 27 1013 51 10000 3 190 17:20 19.06.2020
1080 Rain 27 1014 54 10000 4 180 16:54 19.06.2020
1081 Clouds 26 1014 54 10000 4 180 16:36 19.06.2020
1082 Clouds 26 1015 54 10000 4 150 16:18 19.06.2020
1083 Clouds 26 1015 51 10000 3 160 15:42 19.06.2020
1084 Rain 26 1015 54 10000 3 130 15:20 19.06.2020
1085 Rain 26 1015 54 10000 3 130 14:56 19.06.2020
1086 Rain 25 1015 61 10000 5 90 14:38 19.06.2020
1087 Rain 26 1015 48 10000 5 170 14:18 19.06.2020
1088 Clouds 27 1015 45 10000 4 140 13:43 19.06.2020
1089 Clouds 28 1015 45 10000 4 140 13:25 19.06.2020
1090 Clouds 29 1016 45 10000 3 210 12:48 19.06.2020
1091 Clouds 29 1016 45 10000 3 210 12:23 19.06.2020
1092 Clouds 29 1016 48 10000 3 200 11:58 19.06.2020
1093 Clouds 29 1016 48 10000 3 220 11:39 19.06.2020
1094 Rain 28 1016 48 10000 1 0 11:18 19.06.2020
1095 Rain 28 1016 48 10000 1 0 11:18 19.06.2020
1096 Rain 27 1016 54 10000 2 190 10:46 19.06.2020
1097 Rain 27 1016 57 10000 2 190 10:27 19.06.2020
1098 Rain 27 1016 57 10000 2 190 09:59 19.06.2020
1099 Rain 27 1016 57 10000 2 190 09:59 19.06.2020
1100 Rain 26 1016 61 10000 2 180 09:41 19.06.2020
1101 Clouds 25 1016 65 10000 3 160 09:20 19.06.2020
1102 Clouds 25 1017 65 10000 2 200 08:45 19.06.2020
1103 Rain 25 1017 65 10000 2 200 08:27 19.06.2020
1104 Rain 24 1017 69 10000 3 160 07:57 19.06.2020
1105 Rain 23 1017 73 10000 3 190 07:39 19.06.2020
1106 Rain 23 1017 73 10000 3 190 07:39 19.06.2020
1107 Rain 23 1017 69 10000 2 180 07:20 19.06.2020
1108 Rain 22 1017 78 10000 3 150 06:28 19.06.2020
1109 Rain 21 1017 82 10000 3 110 05:50 19.06.2020
1110 Rain 20 1017 88 10000 3 80 04:27 19.06.2020
1111 Rain 20 1017 82 10000 3 110 02:52 19.06.2020
1112 Rain 21 1017 77 10000 3 100 00:59 19.06.2020
1113 Rain 21 1017 82 10000 4 90 00:41 19.06.2020
1114 Rain 21 1017 82 10000 4 90 00:21 19.06.2020
1115 Rain 22 1017 77 10000 4 110 23:42 18.06.2020
1116 Rain 22 1017 77 10000 4 110 23:24 18.06.2020
1117 Rain 23 1017 77 10000 4 100 22:59 18.06.2020
1118 Rain 23 1017 77 10000 5 100 22:39 18.06.2020
1119 Clear 23 1017 73 10000 5 100 22:19 18.06.2020
1120 Clear 24 1017 73 10000 5 100 21:55 18.06.2020
1121 Clear 24 1017 73 10000 5 100 21:36 18.06.2020
1122 Rain 24 1017 73 10000 4 90 21:18 18.06.2020
1123 Rain 25 1017 68 10000 4 80 20:40 18.06.2020
1124 Clouds 25 1017 64 10000 3 70 20:20 18.06.2020
1125 Clouds 25 1017 64 10000 3 70 19:56 18.06.2020
1126 Clouds 26 1017 56 10000 3 90 19:37 18.06.2020
1127 Rain 26 1016 60 10000 3 70 19:18 18.06.2020
1128 Rain 27 1016 56 10000 4 70 18:38 18.06.2020
1129 Clouds 27 1016 56 10000 3 110 18:19 18.06.2020
1130 Clouds 26 1016 64 10000 3 80 17:45 18.06.2020
1131 Clouds 26 1016 64 10000 3 80 17:26 18.06.2020
1132 Clouds 26 1016 57 10000 3 120 16:57 18.06.2020
1133 Clouds 27 1016 50 10000 2 90 16:39 18.06.2020
1134 Thunderstorm 28 1016 57 10000 1 0 16:20 18.06.2020
1135 Thunderstorm 28 1016 57 10000 1 0 15:57 18.06.2020
1136 Clouds 30 1017 45 10000 2 260 15:39 18.06.2020
1137 Clouds 30 1017 45 10000 2 260 15:19 18.06.2020
1138 Clouds 30 1017 45 10000 2 260 14:56 18.06.2020
1139 Clouds 30 1017 42 10000 2 110 14:37 18.06.2020
1140 Clouds 30 1017 42 10000 2 210 14:19 18.06.2020
1141 Clouds 30 1017 45 10000 1 0 13:47 18.06.2020
1142 Clouds 30 1017 45 10000 1 0 13:28 18.06.2020
1143 Clouds 30 1017 51 10000 2 90 12:57 18.06.2020
1144 Clouds 30 1017 48 10000 3 100 12:39 18.06.2020
1145 Clouds 30 1017 48 10000 3 100 12:20 18.06.2020
1146 Clouds 29 1017 51 10000 4 90 11:57 18.06.2020
1147 Clouds 29 1017 51 10000 4 110 11:37 18.06.2020
1148 Clouds 29 1017 57 10000 3 100 11:18 18.06.2020
1149 Clouds 29 1017 57 10000 2 130 10:39 18.06.2020
1150 Clouds 28 1017 57 10000 1 0 10:18 18.06.2020
1151 Clouds 28 1017 54 10000 1 0 09:45 18.06.2020
1152 Clouds 28 1017 54 10000 1 0 09:27 18.06.2020
1153 Clouds 28 1017 54 10000 1 0 08:57 18.06.2020
1154 Clouds 26 1017 61 10000 2 130 08:36 18.06.2020
1155 Clouds 25 1017 64 10000 1 0 08:18 18.06.2020
1156 Clouds 25 1017 69 10000 2 110 07:44 18.06.2020
1157 Clouds 25 1017 69 10000 2 110 07:23 18.06.2020
1158 Clouds 22 1017 82 10000 1 0 06:37 18.06.2020
1159 Clear 21 1017 82 9000 1 0 05:25 18.06.2020
1160 Clear 19 1017 82 8000 1.45 289 04:18 18.06.2020
1161 Clouds 19 1017 88 10000 2 80 01:44 18.06.2020
1162 Clouds 20 1017 88 10000 2 80 01:22 18.06.2020
1163 Clouds 21 1017 82 10000 3 70 00:52 18.06.2020
1164 Clouds 21 1017 82 10000 3 70 00:30 18.06.2020
1165 Clouds 22 1017 77 10000 3 70 23:56 17.06.2020
1166 Clouds 23 1016 56 10000 2 50 23:37 17.06.2020
1167 Rain 23 1016 64 10000 1 0 23:19 17.06.2020
1168 Rain 23 1016 64 10000 1 0 22:55 17.06.2020
1169 Rain 23 1016 60 10000 2 180 22:37 17.06.2020
1170 Clouds 24 1016 60 10000 2 250 22:19 17.06.2020
1171 Rain 24 1016 56 10000 3 260 21:40 17.06.2020
1172 Rain 25 1016 53 10000 3 260 21:21 17.06.2020
1173 Rain 25 1016 53 10000 3 260 20:56 17.06.2020
1174 Rain 26 1016 50 10000 3 260 20:37 17.06.2020
1175 Clouds 26 1016 50 10000 3 250 20:19 17.06.2020
1176 Clouds 27 1016 47 10000 3 250 19:43 17.06.2020
1177 Clouds 27 1016 47 10000 3 250 19:22 17.06.2020
1178 Clouds 28 1016 47 10000 3 260 19:22 17.06.2020
1179 Clouds 28 1016 47 10000 3 260 18:56 17.06.2020
1180 Clouds 29 1016 44 10000 4 250 18:38 17.06.2020
1181 Clouds 29 1016 44 10000 4 250 18:38 17.06.2020
1182 Clouds 29 1016 44 10000 4 250 18:19 17.06.2020
1183 Clouds 30 1016 37 10000 4 260 17:42 17.06.2020
1184 Clouds 30 1016 35 10000 4 260 17:22 17.06.2020
1185 Clouds 30 1016 35 10000 4 260 16:57 17.06.2020
1186 Clouds 31 1016 33 10000 4 220 16:38 17.06.2020
1187 Clouds 31 1016 33 10000 4 220 16:20 17.06.2020
1188 Clouds 31 1017 35 10000 4 230 15:56 17.06.2020
1189 Clouds 31 1017 35 10000 4 230 15:38 17.06.2020
1190 Clouds 31 1017 37 10000 4 240 15:18 17.06.2020
1191 Clouds 30 1017 37 10000 4 240 14:55 17.06.2020
1192 Clouds 31 1017 37 10000 4 240 14:36 17.06.2020
1193 Clouds 29 1017 37 10000 4 240 14:18 17.06.2020
1194 Clouds 30 1017 35 10000 4 220 13:41 17.06.2020
1195 Clouds 30 1017 35 10000 4 220 13:21 17.06.2020
1196 Clouds 29 1017 39 10000 3 210 12:56 17.06.2020
1197 Clouds 29 1017 37 10000 2 230 12:37 17.06.2020
1198 Clouds 29 1018 39 10000 3 230 12:19 17.06.2020
1199 Clouds 29 1018 37 10000 3 230 11:44 17.06.2020
1200 Clouds 29 1018 37 10000 3 230 11:24 17.06.2020
1201 Clouds 28 1018 42 10000 3 210 10:55 17.06.2020
1202 Clouds 28 1018 44 10000 3 190 10:37 17.06.2020
1203 Clouds 28 1018 39 10000 1 0 10:18 17.06.2020
1204 Clouds 27 1018 44 10000 2 260 09:54 17.06.2020
1205 Clouds 26 1018 44 10000 2 260 09:36 17.06.2020
1206 Clouds 26 1018 41 10000 2 250 09:18 17.06.2020
1207 Clouds 25 1018 50 10000 2 240 08:41 17.06.2020
1208 Clouds 24 1018 53 10000 3 250 08:19 17.06.2020
1209 Clouds 24 1018 53 10000 3 260 07:43 17.06.2020
1210 Clouds 24 1018 56 10000 2 250 07:23 17.06.2020
1211 Clouds 24 1018 56 10000 2 250 06:57 17.06.2020
1212 Clouds 21 1018 56 10000 2 250 06:39 17.06.2020
1213 Clouds 20 1018 56 10000 2 220 06:21 17.06.2020
1214 Clouds 21 1018 64 10000 2 210 05:45 17.06.2020
1215 Clouds 20 1017 68 10000 1 0 04:36 17.06.2020
1216 Clouds 20 1017 63 10000 2 250 01:55 17.06.2020
1217 Clouds 20 1017 52 10000 3 220 00:48 17.06.2020
1218 Rain 22 1017 52 10000 3 220 00:28 17.06.2020
1219 Rain 20 1017 53 10000 3 210 23:57 16.06.2020
1220 Rain 21 1017 46 10000 4 210 23:39 16.06.2020
1221 Clouds 21 1017 49 10000 3 200 23:21 16.06.2020
1222 Clouds 21 1017 49 10000 3 200 22:57 16.06.2020
1223 Clouds 23 1017 53 10000 3 220 22:38 16.06.2020
1224 Clouds 24 1017 50 10000 2 210 22:19 16.06.2020
1225 Clouds 24 1017 47 10000 3 220 21:57 16.06.2020
1226 Clouds 24 1017 47 10000 3 220 21:39 16.06.2020
1227 Clear 24 1017 53 10000 2 210 21:20 16.06.2020
1228 Clear 25 1017 47 10000 2 210 20:43 16.06.2020
1229 Clouds 26 1017 47 10000 3 230 20:22 16.06.2020
1230 Clouds 26 1016 47 10000 3 220 19:58 16.06.2020
1231 Clouds 26 1016 47 10000 3 220 19:40 16.06.2020
1232 Clouds 27 1016 42 10000 4 210 19:22 16.06.2020
1233 Clouds 26 1016 42 10000 4 210 18:58 16.06.2020
1234 Clouds 27 1016 42 10000 4 200 18:39 16.06.2020
1235 Clear 27 1016 42 10000 4 200 18:20 16.06.2020
1236 Clear 27 1016 42 10000 3 190 17:56 16.06.2020
1237 Clear 28 1016 39 10000 4 190 17:37 16.06.2020
1238 Clear 28 1016 39 10000 4 190 17:19 16.06.2020
1239 Clear 28 1016 39 10000 4 190 16:55 16.06.2020
1240 Clear 29 1017 39 10000 4 190 16:37 16.06.2020
1241 Clear 28 1017 42 10000 4 170 16:18 16.06.2020
1242 Clear 28 1017 42 10000 4 170 15:56 16.06.2020
1243 Clear 28 1017 42 10000 4 170 15:56 16.06.2020
1244 Clear 29 1017 42 10000 4 190 15:37 16.06.2020
1245 Clear 28 1017 42 10000 3 190 15:19 16.06.2020
1246 Clouds 28 1018 48 10000 2 200 14:43 16.06.2020
1247 Clouds 28 1018 48 10000 2 200 14:25 16.06.2020
1248 Clouds 28 1018 44 10000 3 190 13:57 16.06.2020
1249 Clouds 28 1018 42 10000 4 170 13:39 16.06.2020
1250 Clouds 27 1018 44 10000 3 170 13:20 16.06.2020
1251 Clouds 27 1018 54 10000 3 90 12:42 16.06.2020
1252 Clouds 27 1018 54 10000 3 90 12:42 16.06.2020
1253 Clouds 27 1018 54 10000 3 90 12:21 16.06.2020
1254 Clouds 26 1018 50 10000 4 110 11:56 16.06.2020
1255 Clouds 26 1018 50 10000 2 130 11:38 16.06.2020
1256 Clouds 25 1018 60 10000 2 90 11:19 16.06.2020
1257 Clouds 25 1018 60 10000 2 90 10:55 16.06.2020
1258 Clouds 24 1018 56 10000 1 0 10:37 16.06.2020
1259 Clouds 23 1018 56 10000 2 160 10:18 16.06.2020
1260 Clouds 22 1018 56 10000 2 190 09:43 16.06.2020
1261 Clouds 22 1019 60 10000 2 230 09:22 16.06.2020
1262 Clouds 22 1019 56 10000 2 200 08:48 16.06.2020
1263 Rain 22 1019 56 10000 2 200 08:30 16.06.2020
1264 Rain 21 1019 68 10000 2 100 07:51 16.06.2020
1265 Rain 21 1019 68 10000 2 100 07:28 16.06.2020
1266 Clouds 20 1019 77 10000 2 100 06:56 16.06.2020
1267 Clouds 17 1019 77 10000 2 100 06:29 16.06.2020
1268 Clouds 17 1019 77 10000 2 90 05:47 16.06.2020
1269 Rain 18 1019 77 10000 3 110 04:54 16.06.2020
1270 Rain 18 1019 72 10000 3 90 03:53 16.06.2020
1271 Clouds 17 1019 72 10000 2 100 02:28 16.06.2020
1272 Clouds 17 1019 72 10000 2 100 01:32 16.06.2020
1273 Clouds 18 1020 72 10000 3 90 00:52 16.06.2020
1274 Clouds 18 1020 72 10000 3 90 00:22 16.06.2020
1275 Clouds 17 1020 67 10000 3 120 23:43 15.06.2020
1276 Clouds 17 1020 67 10000 3 120 23:24 15.06.2020
1277 Clouds 18 1020 63 10000 3 120 22:59 15.06.2020
1278 Clouds 18 1020 59 10000 2 150 22:41 15.06.2020
1279 Clouds 18 1020 59 10000 2 150 22:41 15.06.2020
1280 Clouds 18 1020 55 10000 3 150 22:22 15.06.2020
1281 Clouds 18 1020 55 10000 3 150 21:57 15.06.2020
1282 Clouds 19 1020 52 10000 3 140 21:38 15.06.2020
1283 Clouds 19 1020 52 10000 3 140 21:19 15.06.2020
1284 Clouds 19 1020 52 10000 3 140 20:57 15.06.2020
1285 Clouds 21 1020 49 10000 5 130 20:38 15.06.2020
1286 Clouds 20 1020 49 10000 4 130 20:19 15.06.2020
1287 Clouds 20 1020 49 10000 4 130 19:57 15.06.2020
1288 Clouds 22 1020 46 10000 5 130 19:38 15.06.2020
1289 Clouds 22 1020 49 10000 5 130 19:20 15.06.2020
1290 Clouds 21 1020 49 10000 5 130 18:56 15.06.2020
1291 Clouds 22 1020 43 10000 5 130 18:37 15.06.2020
1292 Clouds 22 1020 43 10000 5 130 18:19 15.06.2020
1293 Clouds 22 1020 43 10000 5 130 17:56 15.06.2020
1294 Clouds 22 1020 40 10000 5 140 17:37 15.06.2020
1295 Clouds 22 1021 38 10000 7 130 17:18 15.06.2020
1296 Clouds 22 1021 40 10000 5 160 16:41 15.06.2020
1297 Clouds 22 1021 40 10000 6 100 16:19 15.06.2020
1298 Clouds 22 1021 40 10000 6 100 15:57 15.06.2020
1299 Clouds 22 1021 43 10000 5 110 15:39 15.06.2020
1300 Clouds 24 1021 46 10000 5 100 15:19 15.06.2020
1301 Clouds 23 1022 43 10000 5 110 14:42 15.06.2020
1302 Clouds 23 1022 40 10000 6 100 14:22 15.06.2020
1303 Clouds 22 1022 40 10000 6 100 13:59 15.06.2020
1304 Clouds 22 1022 40 10000 6 100 13:59 15.06.2020
1305 Clouds 23 1022 43 10000 5 120 13:41 15.06.2020
1306 Clouds 23 1022 43 10000 5 120 13:41 15.06.2020
1307 Clouds 23 1022 43 10000 5 120 13:23 15.06.2020
1308 Clouds 22 1022 40 10000 5 120 12:58 15.06.2020
1309 Clouds 22 1022 40 10000 5 120 12:39 15.06.2020
1310 Clouds 23 1022 40 10000 6 110 12:21 15.06.2020
1311 Clouds 22 1022 35 10000 5 140 11:45 15.06.2020
1312 Clear 22 1022 35 10000 5 140 11:26 15.06.2020
1313 Clear 22 1022 35 10000 5 140 11:26 15.06.2020
1314 Clear 21 1023 40 10000 4 140 10:57 15.06.2020
1315 Clear 21 1023 40 10000 4 140 10:38 15.06.2020
1316 Clear 21 1023 37 10000 5 140 10:19 15.06.2020
1317 Clear 21 1023 40 10000 6 130 09:42 15.06.2020
1318 Clear 20 1023 45 10000 6 150 09:22 15.06.2020
1319 Clear 19 1023 52 10000 6 130 08:43 15.06.2020
1320 Clouds 19 1023 52 10000 6 130 08:25 15.06.2020
1321 Clouds 19 1023 59 10000 4 100 07:51 15.06.2020
1322 Clouds 17 1022 59 10000 5 110 07:33 15.06.2020
1323 Clouds 18 1022 59 10000 5 100 06:57 15.06.2020
1324 Clouds 18 1022 59 10000 5 100 06:57 15.06.2020
1325 Clouds 16 1022 63 10000 6 100 06:27 15.06.2020
1326 Clouds 16 1022 67 10000 4 100 05:50 15.06.2020
1327 Clouds 15 1022 67 10000 4 100 05:28 15.06.2020
1328 Clouds 14 1022 76 10000 5 90 04:22 15.06.2020
1329 Clouds 14 1022 71 10000 5 90 03:48 15.06.2020
1330 Clear 14 1023 76 10000 4 80 02:56 15.06.2020
1331 Clouds 15 1022 71 10000 4 70 02:24 15.06.2020
1332 Clouds 15 1023 62 10000 3 80 01:44 15.06.2020
1333 Clouds 15 1023 62 10000 3 80 01:24 15.06.2020
1334 Clouds 15 1023 62 10000 3 110 00:44 15.06.2020
1335 Clouds 15 1023 62 10000 3 110 00:23 15.06.2020
1336 Clouds 16 1023 58 10000 4 130 23:57 14.06.2020
1337 Clouds 16 1022 54 10000 3 100 23:39 14.06.2020
1338 Clouds 16 1022 54 10000 3 100 23:20 14.06.2020
1339 Clouds 17 1022 58 10000 4 110 22:56 14.06.2020
1340 Clouds 17 1022 58 10000 4 100 22:37 14.06.2020
1341 Clouds 18 1022 51 10000 4 110 22:18 14.06.2020
1342 Clouds 18 1022 51 10000 4 110 21:56 14.06.2020
1343 Clouds 17 1022 48 10000 4 100 21:37 14.06.2020
1344 Clouds 18 1022 48 10000 4 110 21:18 14.06.2020
1345 Clouds 19 1022 39 10000 5 100 20:56 14.06.2020
1346 Clouds 19 1022 39 10000 5 100 20:37 14.06.2020
1347 Clouds 20 1022 39 10000 6 110 20:18 14.06.2020
1348 Clouds 20 1022 39 10000 6 110 19:56 14.06.2020
1349 Clouds 20 1022 34 10000 6 110 19:37 14.06.2020
1350 Clouds 21 1022 34 10000 7 100 19:18 14.06.2020
1351 Clouds 20 1022 34 10000 7 100 18:55 14.06.2020
1352 Clouds 21 1022 37 10000 6 120 18:37 14.06.2020
1353 Clouds 21 1022 35 10000 7 120 18:18 14.06.2020
1354 Clouds 21 1022 35 10000 7 120 18:18 14.06.2020
1355 Clouds 21 1022 35 10000 7 120 17:55 14.06.2020
1356 Clouds 21 1022 35 10000 7 100 17:37 14.06.2020
1357 Clouds 21 1022 40 10000 6 120 17:18 14.06.2020
1358 Clouds 21 1022 35 10000 7 100 16:40 14.06.2020
1359 Clouds 21 1022 37 10000 7 100 16:20 14.06.2020
1360 Clouds 21 1022 37 10000 7 100 15:57 14.06.2020
1361 Clouds 22 1022 35 10000 7 110 15:39 14.06.2020
1362 Clouds 22 1023 37 10000 7 100 15:18 14.06.2020
1363 Clouds 22 1023 37 10000 7 100 14:57 14.06.2020
1364 Clouds 22 1023 37 10000 7 110 14:37 14.06.2020
1365 Clouds 21 1023 37 10000 7 90 14:18 14.06.2020
1366 Clouds 21 1023 40 10000 7 100 13:41 14.06.2020
1367 Clouds 20 1023 40 10000 7 100 13:22 14.06.2020
1368 Clouds 20 1023 42 10000 8 100 12:59 14.06.2020
1369 Clouds 20 1023 42 10000 9 80 12:41 14.06.2020
1370 Clouds 20 1023 42 10000 9 80 12:41 14.06.2020
1371 Clouds 20 1023 42 10000 9 80 12:23 14.06.2020
1372 Clouds 20 1023 40 10000 8 100 11:59 14.06.2020
1373 Clouds 20 1023 45 10000 8 80 11:40 14.06.2020
1374 Clouds 19 1023 45 10000 9 100 11:22 14.06.2020
1375 Clouds 19 1023 45 10000 9 100 10:59 14.06.2020
1376 Clouds 19 1023 45 10000 8 70 10:39 14.06.2020
1377 Clouds 18 1023 48 10000 8 80 10:18 14.06.2020
1378 Clouds 18 1023 48 10000 9 80 09:43 14.06.2020
1379 Clear 17 1022 48 10000 9 80 09:23 14.06.2020
1380 Clear 17 1023 55 10000 9 90 08:42 14.06.2020
1381 Clouds 16 1023 55 10000 9 90 08:22 14.06.2020
1382 Clouds 16 1023 55 10000 9 80 07:55 14.06.2020
1383 Clouds 15 1023 58 10000 7 90 07:35 14.06.2020
1384 Clouds 15 1023 62 10000 7 90 06:59 14.06.2020
1385 Clouds 13 1023 66 10000 8 90 05:56 14.06.2020
1386 Clouds 13 1022 71 10000 7 70 05:34 14.06.2020
1387 Clouds 12 1022 76 10000 5 70 04:41 14.06.2020
1388 Clouds 12 1022 76 10000 5 80 03:55 14.06.2020
1389 Clouds 12 1022 81 10000 4 70 02:44 14.06.2020
1390 Clouds 12 1022 81 10000 4 70 02:23 14.06.2020
1391 Clouds 13 1022 81 10000 4 80 01:31 14.06.2020
1392 Clouds 13 1022 81 10000 5 70 00:49 14.06.2020
1393 Clear 13 1022 81 10000 5 70 00:30 14.06.2020
1394 Clear 14 1021 81 10000 5 60 23:56 13.06.2020
1395 Clear 14 1021 81 10000 4 60 23:38 13.06.2020
1396 Clear 14 1021 81 10000 4 60 23:20 13.06.2020
1397 Clear 14 1021 71 10000 4 60 22:54 13.06.2020
1398 Clear 14 1021 71 10000 4 60 22:36 13.06.2020
1399 Clear 15 1021 71 10000 3 70 22:18 13.06.2020
1400 Clouds 15 1021 71 10000 3 80 21:43 13.06.2020
1401 Clouds 15 1021 71 10000 3 80 21:24 13.06.2020
1402 Clouds 15 1021 71 10000 4 110 20:57 13.06.2020
1403 Clear 15 1021 62 10000 4 70 20:39 13.06.2020
1404 Clouds 16 1021 59 10000 5 70 20:19 13.06.2020
1405 Clouds 16 1021 59 10000 5 60 19:42 13.06.2020
1406 Clouds 17 1020 55 10000 6 70 19:20 13.06.2020
1407 Clouds 17 1020 55 10000 6 70 18:59 13.06.2020
1408 Clouds 16 1020 55 10000 5 70 18:40 13.06.2020
1409 Clouds 16 1020 51 10000 6 70 18:20 13.06.2020
1410 Clouds 16 1020 51 10000 6 70 17:59 13.06.2020
1411 Clouds 16 1020 48 10000 7 90 17:40 13.06.2020
1412 Clouds 17 1020 48 10000 7 80 17:22 13.06.2020
1413 Clouds 16 1020 48 10000 7 80 16:56 13.06.2020
1414 Clouds 16 1020 51 10000 8 80 16:37 13.06.2020
1415 Clouds 16 1020 51 10000 8 80 16:19 13.06.2020
1416 Clouds 16 1020 55 10000 9 80 15:44 13.06.2020
1417 Clouds 16 1020 55 10000 9 80 15:26 13.06.2020
1418 Clouds 15 1021 59 10000 8 70 14:56 13.06.2020
1419 Clouds 15 1020 63 10000 8 70 14:38 13.06.2020
1420 Clouds 15 1020 67 10000 8 70 14:20 13.06.2020
1421 Clouds 14 1020 67 10000 9 70 13:42 13.06.2020
1422 Clouds 14 1020 67 10000 8 80 13:24 13.06.2020
1423 Clouds 14 1020 67 10000 8 90 12:44 13.06.2020
1424 Clouds 14 1020 67 10000 8 90 12:26 13.06.2020
1425 Clouds 13 1020 71 10000 7 80 11:59 13.06.2020
1426 Clouds 13 1020 71 10000 8 60 11:40 13.06.2020
1427 Clouds 13 1020 71 10000 8 60 11:19 13.06.2020
1428 Clouds 13 1020 71 10000 8 60 11:19 13.06.2020
1429 Clouds 13 1020 71 10000 8 60 10:57 13.06.2020
1430 Clouds 13 1019 82 10000 6 60 10:38 13.06.2020
1431 Clouds 13 1019 82 10000 7 60 10:19 13.06.2020
1432 Clouds 13 1019 82 10000 8 70 09:45 13.06.2020
1433 Clouds 13 1019 82 10000 8 70 09:27 13.06.2020
1434 Clouds 13 1019 82 10000 6 70 08:55 13.06.2020
1435 Clouds 13 1019 82 10000 6 70 08:37 13.06.2020
1436 Clouds 13 1019 93 10000 6 60 08:19 13.06.2020
1437 Clouds 13 1018 87 10000 5 70 07:42 13.06.2020
1438 Clouds 12 1018 93 10000 5 70 07:22 13.06.2020
1439 Clouds 12 1018 93 10000 6 80 06:38 13.06.2020
1440 Clouds 12 1018 93 10000 6 80 06:19 13.06.2020
1441 Rain 14 1018 93 9000 7 70 05:27 13.06.2020
1442 Rain 12 1018 100 10000 6 50 03:57 13.06.2020
1443 Rain 14 1018 93 10000 5 40 02:55 13.06.2020
1444 Rain 14 1018 93 10000 5 40 02:55 13.06.2020
1445 Rain 14 1018 93 10000 5 40 02:36 13.06.2020
1446 Rain 13 1018 93 10000 5 110 01:47 13.06.2020
1447 Rain 14 1017 87 10000 7 70 01:21 13.06.2020
1448 Rain 14 1017 93 10000 8 60 00:44 13.06.2020
1449 Rain 14 1017 93 10000 9 50 00:26 13.06.2020
1450 Rain 14 1018 100 10000 7 50 23:55 12.06.2020
1451 Rain 14 1018 100 10000 7 50 23:37 12.06.2020
1452 Rain 14 1019 93 8000 6 60 23:18 12.06.2020
1453 Rain 15 1019 87 9000 3 360 22:41 12.06.2020
1454 Rain 17 1018 87 10000 6 40 22:19 12.06.2020
1455 Rain 17 1017 87 10000 6 60 21:50 12.06.2020
1456 Rain 17 1017 87 10000 6 60 21:27 12.06.2020
1457 Clouds 17 1017 82 10000 7 60 20:59 12.06.2020
1458 Rain 18 1017 77 10000 6 60 20:41 12.06.2020
1459 Rain 19 1017 77 10000 6 70 20:22 12.06.2020
1460 Rain 19 1017 77 10000 6 70 19:57 12.06.2020
1461 Clouds 18 1017 77 10000 6 60 19:57 12.06.2020
1462 Clouds 18 1017 77 10000 6 60 19:39 12.06.2020
1463 Clouds 19 1017 77 10000 7 40 19:19 12.06.2020
1464 Clouds 19 1017 77 10000 6 70 18:39 12.06.2020
1465 Clouds 19 1017 77 10000 7 40 18:19 12.06.2020
1466 Clouds 20 1017 77 10000 6 50 17:59 12.06.2020
1467 Clouds 20 1017 77 10000 6 50 17:39 12.06.2020
1468 Clouds 21 1017 77 10000 7 50 17:21 12.06.2020
1469 Clouds 21 1017 77 10000 7 40 16:45 12.06.2020
1470 Clouds 22 1016 77 10000 6 60 16:21 12.06.2020
1471 Clouds 23 1016 73 10000 6 70 15:49 12.06.2020
1472 Clouds 23 1016 73 10000 7 60 15:27 12.06.2020
1473 Clouds 23 1016 73 10000 7 60 14:58 12.06.2020
1474 Clouds 23 1016 73 10000 6 70 14:39 12.06.2020
1475 Rain 23 1016 73 10000 5 90 14:21 12.06.2020
1476 Rain 22 1016 73 10000 4 80 13:43 12.06.2020
1477 Rain 23 1016 68 10000 5 80 13:22 12.06.2020
1478 Rain 23 1016 68 10000 5 80 12:55 12.06.2020
1479 Rain 23 1017 73 10000 6 70 12:37 12.06.2020
1480 Rain 22 1017 73 10000 7 90 12:18 12.06.2020
1481 Rain 22 1017 88 10000 6 80 11:42 12.06.2020
1482 Clouds 22 1017 82 10000 6 70 11:23 12.06.2020
1483 Clouds 22 1017 82 10000 7 70 10:49 12.06.2020
1484 Clouds 22 1017 82 10000 7 70 10:26 12.06.2020
1485 Clouds 21 1017 88 10000 7 30 09:58 12.06.2020
1486 Thunderstorm 23 1017 93 10000 9 360 09:39 12.06.2020
1487 Clouds 24 1016 78 10000 4 30 09:19 12.06.2020
1488 Clouds 24 1015 73 10000 3 80 08:41 12.06.2020
1489 Rain 24 1015 73 10000 3 80 08:22 12.06.2020
1490 Rain 23 1015 83 10000 4 90 07:41 12.06.2020
1491 Rain 23 1015 83 10000 5 80 07:23 12.06.2020
1492 Rain 23 1015 88 10000 5 70 06:41 12.06.2020
1493 Rain 21 1015 93 10000 5 80 06:20 12.06.2020
1494 Rain 20 1015 88 10000 5 90 05:49 12.06.2020
1495 Rain 20 1015 88 10000 5 90 05:23 12.06.2020
1496 Rain 19 1016 93 10000 2 10 03:52 12.06.2020
1497 Clouds 19 1015 88 10000 2 50 02:25 12.06.2020
1498 Clouds 19 1015 93 10000 1 0 01:39 12.06.2020
1499 Clouds 20 1015 88 10000 2 330 00:59 12.06.2020
1500 Clouds 20 1015 88 10000 1 0 00:39 12.06.2020
1501 Rain 20 1015 82 10000 3 100 00:20 12.06.2020
1502 Rain 20 1015 82 10000 3 100 23:57 11.06.2020
1503 Rain 20 1015 82 10000 3 80 23:38 11.06.2020
1504 Rain 21 1015 88 10000 3 90 23:19 11.06.2020
1505 Rain 20 1015 88 10000 3 90 22:54 11.06.2020
1506 Rain 20 1015 77 10000 2 70 22:36 11.06.2020
1507 Rain 20 1016 72 10000 4 350 22:18 11.06.2020
1508 Rain 22 1015 60 10000 2 160 21:42 11.06.2020
1509 Clear 23 1015 64 10000 2 160 21:20 11.06.2020
1510 Clear 23 1015 64 10000 2 160 21:20 11.06.2020
1511 Clear 23 1015 64 10000 2 160 20:57 11.06.2020
1512 Clouds 24 1015 56 10000 4 120 20:39 11.06.2020
1513 Clouds 25 1015 46 10000 2 20 20:20 11.06.2020
1514 Clouds 25 1015 49 10000 5 340 19:43 11.06.2020
1515 Clouds 25 1015 49 10000 5 340 19:22 11.06.2020
1516 Clouds 28 1016 50 10000 6 320 18:57 11.06.2020
1517 Clouds 28 1016 50 10000 6 320 18:39 11.06.2020
1518 Clouds 29 1015 51 10000 3 260 18:19 11.06.2020
1519 Clouds 27 1015 51 10000 3 260 17:55 11.06.2020
1520 Clouds 28 1015 48 10000 4 250 17:37 11.06.2020
1521 Rain 29 1015 39 10000 4 210 17:18 11.06.2020
1522 Rain 29 1015 39 10000 4 230 16:43 11.06.2020
1523 Clear 29 1015 39 10000 4 210 16:25 11.06.2020
1524 Clear 30 1015 39 10000 4 210 15:58 11.06.2020
1525 Rain 31 1015 45 10000 5 260 15:39 11.06.2020
1526 Rain 30 1016 45 10000 5 250 15:21 11.06.2020
1527 Clear 30 1016 45 10000 5 210 14:46 11.06.2020
1528 Clear 30 1016 45 10000 5 210 14:21 11.06.2020
1529 Clear 29 1016 42 10000 5 230 13:57 11.06.2020
1530 Clear 29 1016 48 10000 5 210 13:39 11.06.2020
1531 Clouds 29 1016 45 10000 5 190 13:21 11.06.2020
1532 Clouds 29 1016 51 10000 4 220 12:58 11.06.2020
1533 Clouds 29 1016 51 10000 4 220 12:39 11.06.2020
1534 Clear 28 1017 54 10000 4 220 12:20 11.06.2020
1535 Clear 28 1017 54 10000 4 220 11:57 11.06.2020
1536 Clear 29 1017 57 10000 4 230 11:39 11.06.2020
1537 Clear 28 1017 54 10000 3 190 11:20 11.06.2020
1538 Clear 28 1017 54 10000 3 190 10:57 11.06.2020
1539 Clear 27 1017 57 10000 5 180 10:38 11.06.2020
1540 Clear 27 1017 61 10000 6 150 10:18 11.06.2020
1541 Clear 26 1017 64 10000 4 150 09:42 11.06.2020
1542 Clear 25 1017 64 10000 4 150 09:23 11.06.2020
1543 Clouds 24 1018 64 10000 1 0 08:44 11.06.2020
1544 Clear 24 1018 68 10000 2 50 08:20 11.06.2020
1545 Clear 24 1018 68 10000 2 50 07:58 11.06.2020
1546 Clear 24 1018 73 10000 3 10 07:40 11.06.2020
1547 Clear 23 1018 73 10000 1 0 07:20 11.06.2020
1548 Clouds 20 1018 82 10000 2 360 06:29 11.06.2020
1549 Clear 20 1019 93 10000 5 330 05:46 11.06.2020
1550 Clear 19 1018 100 10000 1 60 03:56 11.06.2020
1551 Clear 18 1017 93 10000 2.25 213 03:24 11.06.2020
1552 Clear 18 1017 100 10000 1 0 02:32 11.06.2020
1553 Clear 19 1018 100 10000 1 350 01:53 11.06.2020
1554 Clouds 19 1018 100 10000 1 350 01:31 11.06.2020
1555 Clouds 20 1017 93 10000 1.97 204 00:51 11.06.2020
1556 Clouds 20 1017 93 10000 1 270 00:30 11.06.2020
1557 Clouds 20 1017 93 10000 1 0 23:50 10.06.2020
1558 Clouds 20 1017 93 10000 1 0 23:27 10.06.2020
1559 Clouds 19 1017 93 10000 2 220 22:59 10.06.2020
1560 Clouds 19 1017 93 10000 2 220 22:39 10.06.2020
1561 Clouds 20 1017 88 10000 2 90 22:20 10.06.2020
1562 Clouds 20 1017 88 10000 1 0 21:58 10.06.2020
1563 Clouds 20 1017 88 10000 1 0 21:40 10.06.2020
1564 Clouds 20 1018 93 10000 2 30 21:19 10.06.2020
1565 Clouds 21 1018 93 10000 2 30 20:57 10.06.2020
1566 Clouds 21 1018 93 10000 3 70 20:39 10.06.2020
1567 Rain 21 1018 88 10000 2 270 20:21 10.06.2020
1568 Rain 21 1018 88 10000 2 270 20:21 10.06.2020
1569 Rain 21 1017 82 10000 1 0 19:56 10.06.2020
1570 Rain 21 1017 82 10000 1 0 19:37 10.06.2020
1571 Clouds 21 1017 77 10000 4 280 19:18 10.06.2020
1572 Clouds 20 1018 82 10000 2 300 18:41 10.06.2020
1573 Clouds 21 1018 77 10000 3 360 18:20 10.06.2020
1574 Clouds 21 1018 77 10000 3 360 17:59 10.06.2020
1575 Rain 21 1016 72 10000 4 130 17:41 10.06.2020
1576 Rain 21 1016 77 10000 6 150 17:20 10.06.2020
1577 Rain 21 1016 77 10000 6 150 16:58 10.06.2020
1578 Rain 23 1017 77 10000 7 150 16:40 10.06.2020
1579 Rain 23 1018 77 10000 6 140 16:20 10.06.2020
1580 Rain 23 1018 77 10000 6 140 16:20 10.06.2020
1581 Thunderstorm 23 1018 77 10000 6 140 16:20 10.06.2020
1582 Thunderstorm 23 1018 77 10000 6 140 15:56 10.06.2020
1583 Thunderstorm 24 1019 88 10000 5 170 15:37 10.06.2020
1584 Thunderstorm 23 1020 82 9000 4 180 15:18 10.06.2020
1585 Thunderstorm 25 1021 82 4200 4 330 14:40 10.06.2020
1586 Thunderstorm 26 1019 60 9000 7 330 14:21 10.06.2020
1587 Thunderstorm 26 1019 60 9000 7 330 13:56 10.06.2020
1588 Clouds 26 1018 56 10000 10 60 13:38 10.06.2020
1589 Clouds 27 1018 42 10000 5 110 13:20 10.06.2020
1590 Clouds 28 1018 45 10000 4 180 12:41 10.06.2020
1591 Clear 28 1018 44 10000 4 140 12:18 10.06.2020
1592 Clear 28 1018 45 10000 4 140 11:46 10.06.2020
1593 Clear 27 1018 47 10000 4 200 11:20 10.06.2020
1594 Clear 28 1018 44 10000 4 200 10:59 10.06.2020
1595 Clear 27 1018 44 10000 4 200 10:41 10.06.2020
1596 Clear 27 1018 44 10000 4 160 10:22 10.06.2020
1597 Clear 26 1018 47 10000 4 150 09:57 10.06.2020
1598 Clear 25 1018 47 10000 4 150 09:37 10.06.2020
1599 Clear 25 1019 50 10000 3 160 09:19 10.06.2020
1600 Clear 25 1019 50 10000 4 180 08:42 10.06.2020
1601 Clear 25 1019 53 10000 4 180 08:23 10.06.2020
1602 Clear 24 1019 57 10000 3 190 07:43 10.06.2020
1603 Clear 24 1019 53 10000 3 190 07:23 10.06.2020
1604 Clear 23 1018 60 10000 3 180 06:59 10.06.2020
1605 Clear 22 1018 60 10000 3 180 06:38 10.06.2020
1606 Clear 21 1018 68 10000 1 0 06:18 10.06.2020
1607 Clear 22 1018 68 10000 1 0 05:49 10.06.2020
1608 Clear 19 1018 88 10000 1 120 05:18 10.06.2020
1609 Clear 19 1019 82 10000 1 0 04:28 10.06.2020
1610 Clear 20 1018 77 10000 2 200 02:34 10.06.2020
1611 Clouds 20 1019 77 10000 1 0 01:47 10.06.2020
1612 Clouds 22 1019 73 10000 2 80 01:21 10.06.2020
1613 Clouds 21 1019 77 10000 2 150 00:38 10.06.2020
1614 Clouds 22 1019 77 10000 2 140 00:20 10.06.2020
1615 Clouds 21 1019 77 10000 2 130 23:42 09.06.2020
1616 Clouds 21 1019 77 10000 2 130 23:23 09.06.2020
1617 Clouds 22 1019 73 10000 2 100 22:57 09.06.2020
1618 Clouds 23 1019 64 10000 1 0 22:39 09.06.2020
1619 Clouds 23 1019 64 10000 1 0 22:20 09.06.2020
1620 Clouds 23 1018 60 10000 3 150 21:57 09.06.2020
1621 Clouds 23 1018 64 10000 2 150 21:39 09.06.2020
1622 Clear 23 1018 64 10000 2 150 21:21 09.06.2020
1623 Clear 24 1018 60 10000 2 160 20:58 09.06.2020
1624 Clouds 24 1018 50 10000 2 150 20:39 09.06.2020
1625 Clouds 25 1018 50 10000 3 160 20:21 09.06.2020
1626 Clouds 25 1018 50 10000 3 160 19:59 09.06.2020
1627 Clouds 25 1017 50 10000 4 140 19:39 09.06.2020
1628 Clouds 26 1017 47 10000 4 140 19:20 09.06.2020
1629 Clouds 26 1017 50 10000 4 160 18:59 09.06.2020
1630 Clouds 27 1017 50 10000 4 160 18:41 09.06.2020
1631 Clouds 27 1018 50 10000 3 150 18:23 09.06.2020
1632 Clouds 27 1018 50 10000 3 150 17:56 09.06.2020
1633 Clouds 26 1018 47 10000 4 150 17:38 09.06.2020
1634 Clear 26 1018 47 10000 4 150 17:20 09.06.2020
1635 Clear 27 1018 44 10000 5 150 16:43 09.06.2020
1636 Clear 27 1018 44 10000 4 160 16:25 09.06.2020
1637 Clear 27 1018 44 10000 4 160 15:57 09.06.2020
1638 Clouds 28 1018 39 10000 4 160 15:38 09.06.2020
1639 Clouds 28 1018 39 10000 4 160 15:20 09.06.2020
1640 Clouds 28 1018 39 10000 4 150 14:55 09.06.2020
1641 Clouds 28 1018 45 10000 5 140 14:37 09.06.2020
1642 Clouds 28 1018 45 10000 5 140 14:18 09.06.2020
1643 Clouds 28 1018 45 10000 6 130 13:43 09.06.2020
1644 Clouds 27 1019 45 10000 5 140 13:21 09.06.2020
1645 Clouds 27 1019 45 10000 5 140 12:58 09.06.2020
1646 Clouds 27 1019 45 10000 5 130 12:40 09.06.2020
1647 Clouds 28 1019 51 10000 6 120 12:18 09.06.2020
1648 Clouds 28 1019 51 10000 6 120 11:55 09.06.2020
1649 Clouds 28 1019 51 10000 4 130 11:37 09.06.2020
1650 Clouds 28 1019 54 10000 5 130 11:19 09.06.2020
1651 Clouds 27 1019 57 10000 4 130 10:44 09.06.2020
1652 Clouds 27 1019 57 10000 4 130 10:25 09.06.2020
1653 Clouds 26 1019 65 10000 4 160 09:44 09.06.2020
1654 Clouds 26 1019 65 10000 4 160 09:25 09.06.2020
1655 Clouds 26 1018 61 10000 4 130 08:58 09.06.2020
1656 Clear 25 1019 69 10000 3 130 08:39 09.06.2020
1657 Clear 25 1019 69 10000 3 130 08:20 09.06.2020
1658 Clear 24 1018 73 10000 3 140 07:40 09.06.2020
1659 Clear 24 1018 78 10000 3 140 07:21 09.06.2020
1660 Clear 23 1018 83 10000 3 140 06:55 09.06.2020
1661 Clear 22 1018 83 10000 3 140 06:35 09.06.2020
1662 Clear 21 1018 88 10000 2 110 05:36 09.06.2020
1663 Clear 19 1018 93 10000 2 90 03:52 09.06.2020
1664 Clear 20 1018 88 10000 2 100 01:54 09.06.2020
1665 Clear 20 1018 88 10000 2 90 01:36 09.06.2020
1666 Clear 20 1018 88 10000 2 100 01:18 09.06.2020
1667 Clear 21 1018 88 10000 2 90 00:39 09.06.2020
1668 Clear 21 1018 88 10000 2 90 00:18 09.06.2020
1669 Clear 21 1017 88 10000 2 100 23:41 08.06.2020
1670 Clear 21 1017 88 10000 2 100 23:20 08.06.2020
1671 Clear 22 1017 82 10000 3 90 22:56 08.06.2020
1672 Clear 22 1017 82 10000 3 90 22:56 08.06.2020
1673 Clear 23 1017 77 10000 3 80 22:38 08.06.2020
1674 Clear 23 1017 77 10000 3 80 22:19 08.06.2020
1675 Clear 23 1017 68 10000 3 100 21:55 08.06.2020
1676 Clear 23 1017 68 10000 3 100 21:36 08.06.2020
1677 Clear 23 1017 68 10000 3 100 21:36 08.06.2020
1678 Clear 24 1017 68 10000 3 100 21:18 08.06.2020
1679 Clear 25 1017 60 10000 4 120 20:54 08.06.2020
1680 Clear 25 1017 60 10000 4 120 20:36 08.06.2020
1681 Clear 25 1017 57 10000 4 110 20:18 08.06.2020
1682 Clear 25 1017 57 10000 4 120 19:43 08.06.2020
1683 Clear 27 1016 50 10000 4 130 19:21 08.06.2020
1684 Clear 27 1016 47 10000 4 120 18:43 08.06.2020
1685 Clouds 27 1016 47 10000 4 130 18:21 08.06.2020
1686 Clouds 27 1016 37 10000 2 150 17:57 08.06.2020
1687 Clouds 27 1016 37 10000 2 150 17:39 08.06.2020
1688 Rain 28 1016 32 10000 3 150 17:21 08.06.2020
1689 Rain 28 1016 32 10000 3 150 16:58 08.06.2020
1690 Rain 28 1016 32 10000 3 150 16:58 08.06.2020
1691 Rain 28 1017 37 10000 2 200 16:39 08.06.2020
1692 Rain 28 1017 37 10000 2 200 16:21 08.06.2020
1693 Rain 28 1017 35 10000 3 200 15:42 08.06.2020
1694 Clear 28 1017 35 10000 3 200 15:21 08.06.2020
1695 Clear 28 1017 39 10000 2 240 14:58 08.06.2020
1696 Rain 28 1017 39 10000 2 240 14:38 08.06.2020
1697 Rain 28 1018 39 10000 2 160 14:19 08.06.2020
1698 Clouds 28 1018 39 10000 2 100 13:42 08.06.2020
1699 Clouds 27 1018 42 10000 3 180 13:23 08.06.2020
1700 Clouds 28 1018 47 10000 2 160 12:43 08.06.2020
1701 Clouds 27 1018 51 10000 3 130 12:20 08.06.2020
1702 Clouds 27 1018 51 10000 3 130 11:59 08.06.2020
1703 Clouds 27 1018 57 10000 3 100 11:40 08.06.2020
1704 Clouds 26 1018 57 10000 4 80 11:21 08.06.2020
1705 Clouds 26 1018 57 10000 4 80 11:21 08.06.2020
1706 Clouds 26 1018 57 10000 4 80 10:58 08.06.2020
1707 Clouds 26 1018 61 10000 4 120 10:38 08.06.2020
1708 Clouds 26 1018 61 10000 4 120 10:20 08.06.2020
1709 Clouds 26 1018 65 10000 4 110 09:57 08.06.2020
1710 Clouds 26 1018 65 10000 4 110 09:39 08.06.2020
1711 Rain 25 1018 65 10000 4 110 09:20 08.06.2020
1712 Clouds 24 1018 69 10000 3 120 08:41 08.06.2020
1713 Clear 23 1018 69 10000 3 120 08:20 08.06.2020
1714 Clear 23 1018 78 10000 3 120 07:42 08.06.2020
1715 Clear 22 1018 83 10000 3 130 07:21 08.06.2020
1716 Clear 20 1018 88 10000 3 90 06:48 08.06.2020
1717 Clear 18 1018 93 9000 3 90 06:28 08.06.2020
1718 Clear 19 1018 93 8000 4 100 05:43 08.06.2020
1719 Clear 17 1017 100 8000 1 0 03:43 08.06.2020
1720 Clear 17 1017 100 8000 2 90 02:32 08.06.2020
1721 Clear 18 1017 93 8000 1.64 110 01:45 08.06.2020
1722 Clear 18 1017 93 8000 1.28 125 01:25 08.06.2020
1723 Clear 18 1017 88 10000 3 110 00:28 08.06.2020
1724 Clear 19 1017 88 10000 3 100 00:28 08.06.2020
1725 Clear 19 1017 82 10000 4 100 23:41 07.06.2020
1726 Clear 19 1017 82 10000 4 100 23:19 07.06.2020
1727 Clear 20 1017 82 10000 4 110 22:59 07.06.2020
1728 Clear 20 1017 82 10000 4 110 22:59 07.06.2020
1729 Clear 20 1017 82 10000 4 110 22:39 07.06.2020
1730 Clear 20 1017 72 10000 5 80 22:19 07.06.2020
1731 Clear 21 1017 72 10000 5 80 21:58 07.06.2020
1732 Clear 21 1017 64 10000 4 70 21:37 07.06.2020
1733 Clear 21 1017 64 10000 4 70 21:37 07.06.2020
1734 Clear 22 1017 64 10000 4 70 21:19 07.06.2020
1735 Clear 23 1017 64 10000 4 60 20:54 07.06.2020
1736 Clear 23 1017 60 10000 3 20 20:36 07.06.2020
1737 Clouds 24 1017 57 10000 2 360 20:18 07.06.2020
1738 Clear 24 1017 60 10000 3 20 19:54 07.06.2020
1739 Clear 25 1017 60 10000 3 20 19:36 07.06.2020
1740 Clear 25 1016 60 9000 3 10 19:18 07.06.2020
1741 Clear 26 1016 60 10000 3 20 18:40 07.06.2020
1742 Clear 26 1016 57 9000 3 20 18:21 07.06.2020
1743 Clear 26 1016 57 9000 3 20 17:59 07.06.2020
1744 Clear 26 1016 57 10000 4 20 17:40 07.06.2020
1745 Clouds 26 1016 57 10000 4 20 17:21 07.06.2020
1746 Clouds 26 1016 41 9000 2 310 16:44 07.06.2020
1747 Clouds 26 1016 41 9000 2 310 16:22 07.06.2020
1748 Clouds 26 1016 41 9000 2 310 16:22 07.06.2020
1749 Clouds 28 1016 42 10000 3 320 15:44 07.06.2020
1750 Rain 26 1016 42 10000 3 320 15:23 07.06.2020
1751 Rain 26 1016 42 10000 2 320 14:59 07.06.2020
1752 Rain 26 1016 44 10000 2 230 14:36 07.06.2020
1753 Clouds 26 1016 57 10000 2 270 14:18 07.06.2020
1754 Clouds 25 1016 57 10000 2 250 13:44 07.06.2020
1755 Clouds 25 1016 57 10000 2 250 13:44 07.06.2020
1756 Clouds 25 1016 57 10000 2 250 13:44 07.06.2020
1757 Clouds 26 1017 61 10000 2 270 13:19 07.06.2020
1758 Clouds 25 1017 64 10000 2 270 12:44 07.06.2020
1759 Clouds 25 1017 69 10000 3 230 12:26 07.06.2020
1760 Clouds 24 1017 78 10000 3 220 11:56 07.06.2020
1761 Clouds 24 1017 78 10000 3 220 11:38 07.06.2020
1762 Clouds 24 1017 78 10000 3 220 11:38 07.06.2020
1763 Clouds 24 1017 78 10000 3 220 11:20 07.06.2020
1764 Clouds 24 1017 78 10000 2 220 10:58 07.06.2020
1765 Clouds 23 1017 78 10000 2 200 10:39 07.06.2020
1766 Clouds 23 1016 78 10000 1 0 10:19 07.06.2020
1767 Clouds 23 1016 78 10000 1 0 10:19 07.06.2020
1768 Clouds 23 1016 78 10000 1 0 09:56 07.06.2020
1769 Clouds 22 1016 83 10000 1 0 09:37 07.06.2020
1770 Clouds 22 1016 83 10000 1 0 09:19 07.06.2020
1771 Clouds 21 1016 88 10000 2 230 08:44 07.06.2020
1772 Clouds 21 1016 88 10000 2 230 08:23 07.06.2020
1773 Clouds 21 1016 88 10000 2 230 08:23 07.06.2020
1774 Clouds 21 1015 82 10000 2 190 07:46 07.06.2020
1775 Clouds 21 1015 82 10000 2 190 07:28 07.06.2020
1776 Clouds 18 1015 100 10000 1 0 06:25 07.06.2020
1777 Clouds 18 1015 100 10000 1 0 05:34 07.06.2020
1778 Fog 17 1014 100 7000 1 0 04:19 07.06.2020
1779 Rain 18 1014 100 4000 3 160 02:31 07.06.2020
1780 Rain 18 1014 100 4000 3 160 02:31 07.06.2020
1781 Rain 17 1014 100 6000 3 180 01:44 07.06.2020
1782 Rain 18 1014 93 10000 1 0 01:24 07.06.2020
1783 Clear 18 1013 93 10000 3 100 00:41 07.06.2020
1784 Clear 18 1013 93 10000 3 90 00:18 07.06.2020
1785 Clear 18 1013 93 10000 3 90 23:56 06.06.2020
1786 Clear 18 1013 93 10000 3 100 23:36 06.06.2020
1787 Clear 18 1013 93 10000 3 100 23:18 06.06.2020
1788 Clear 18 1013 93 10000 2 90 22:55 06.06.2020
1789 Clear 18 1013 93 10000 2 80 22:37 06.06.2020
1790 Rain 18 1013 93 10000 2 80 22:18 06.06.2020
1791 Rain 19 1013 88 10000 2 120 21:43 06.06.2020
1792 Rain 19 1013 88 10000 2 120 21:22 06.06.2020
1793 Rain 19 1013 82 10000 2 120 20:56 06.06.2020
1794 Rain 19 1013 82 10000 2 120 20:37 06.06.2020
1795 Rain 20 1013 77 10000 2 110 20:18 06.06.2020
1796 Rain 20 1013 77 10000 2 110 19:56 06.06.2020
1797 Rain 20 1013 68 10000 2 180 19:36 06.06.2020
1798 Rain 21 1013 68 10000 2 200 19:18 06.06.2020
1799 Rain 21 1012 60 10000 3 160 18:42 06.06.2020
1800 Rain 21 1013 60 10000 3 160 18:24 06.06.2020
1801 Rain 21 1013 60 10000 3 160 17:57 06.06.2020
1802 Clouds 21 1012 60 10000 3 160 17:39 06.06.2020
1803 Clouds 22 1012 56 10000 4 180 17:18 06.06.2020
1804 Clouds 22 1012 56 10000 4 160 16:40 06.06.2020
1805 Clouds 23 1012 56 10000 4 160 16:21 06.06.2020
1806 Clouds 22 1012 60 10000 4 170 15:55 06.06.2020
1807 Clouds 22 1012 60 10000 5 160 15:37 06.06.2020
1808 Clouds 20 1013 60 10000 4 190 15:18 06.06.2020
1809 Clouds 22 1012 52 10000 4 170 14:40 06.06.2020
1810 Clouds 22 1012 52 10000 4 180 14:22 06.06.2020
1811 Clouds 22 1012 52 10000 4 180 13:55 06.06.2020
1812 Clouds 22 1012 49 10000 3 200 13:37 06.06.2020
1813 Clouds 22 1012 49 10000 3 180 13:18 06.06.2020
1814 Clouds 22 1012 49 10000 4 180 12:42 06.06.2020
1815 Clouds 21 1012 52 10000 4 140 12:23 06.06.2020
1816 Clouds 21 1012 52 10000 4 140 11:58 06.06.2020
1817 Clouds 21 1012 49 10000 4 150 11:38 06.06.2020
1818 Clouds 21 1012 49 10000 4 150 11:20 06.06.2020
1819 Clouds 20 1012 52 10000 4 170 10:58 06.06.2020
1820 Clouds 20 1012 55 10000 2 180 10:39 06.06.2020
1821 Clouds 20 1012 63 10000 3 170 10:21 06.06.2020
1822 Clouds 19 1012 68 10000 2 150 09:46 06.06.2020
1823 Clouds 18 1012 68 10000 2 150 09:28 06.06.2020
1824 -273 0 0 0 0 0 08:58 06.06.2020
1825 Clouds 16 1012 82 10000 3 100 08:40 06.06.2020
1826 Clouds 16 1012 82 10000 2 110 08:19 06.06.2020
1827 Clouds 15 1012 82 10000 2 110 07:45 06.06.2020
1828 Clouds 15 1012 87 10000 1 0 07:22 06.06.2020
1829 Clouds 13 1012 93 10000 2 180 06:47 06.06.2020
1830 Clouds 13 1012 93 10000 2 180 06:29 06.06.2020
1831 Clouds 12 1012 100 9000 2 150 05:54 06.06.2020
1832 Clouds 12 1011 93 9000 1 0 05:28 06.06.2020
1833 Clouds 11 1011 100 9000 2 160 04:43 06.06.2020
1834 Clouds 12 1011 93 9000 2 200 02:52 06.06.2020
1835 Clouds 12 1011 100 10000 2 210 01:56 06.06.2020
1836 Clouds 12 1011 100 10000 2 180 01:19 06.06.2020
1837 Clouds 12 1011 100 10000 3 180 00:45 06.06.2020
1838 Clouds 12 1011 100 10000 3 180 00:27 06.06.2020
1839 Clouds 12 1010 100 10000 2 160 23:56 05.06.2020
1840 Clouds 12 1010 100 9000 3 160 23:37 05.06.2020
1841 Clouds 12 1010 100 8000 2 150 23:18 05.06.2020
1842 Clouds 12 1010 100 8000 2 150 22:55 05.06.2020
1843 Clouds 12 1010 100 9000 2 170 22:37 05.06.2020
1844 Clouds 12 1010 100 8000 2 160 22:18 05.06.2020
1845 Clouds 13 1010 100 9000 2 150 21:41 05.06.2020
1846 Clouds 13 1010 100 10000 2 140 21:22 05.06.2020
1847 Clouds 13 1010 100 10000 2 140 20:57 05.06.2020
1848 Rain 13 1009 100 9000 2 150 20:38 05.06.2020
1849 Rain 13 1009 100 10000 3 130 20:20 05.06.2020
1850 Rain 13 1009 100 9000 4 160 19:42 05.06.2020
1851 Rain 13 1009 87 10000 3 170 19:23 05.06.2020
1852 Rain 13 1009 93 10000 4 130 18:57 05.06.2020
1853 Rain 13 1009 93 10000 4 130 18:38 05.06.2020
1854 Rain 14 1009 93 10000 3 120 18:19 05.06.2020
1855 Rain 14 1009 93 10000 3 120 17:57 05.06.2020
1856 Clouds 14 1009 87 10000 3 110 17:39 05.06.2020
1857 Clouds 14 1009 87 10000 3 110 17:18 05.06.2020
1858 Rain 14 1010 87 10000 3 120 16:39 05.06.2020
1859 Rain 14 1010 100 10000 3 180 16:20 05.06.2020
1860 Rain 14 1010 93 7000 7 200 15:47 05.06.2020
1861 Rain 14 1010 93 7000 7 200 15:24 05.06.2020
1862 Rain 14 1009 77 10000 3 150 14:59 05.06.2020
1863 Rain 15 1009 77 10000 4 130 14:40 05.06.2020
1864 Rain 16 1009 77 10000 4 130 14:22 05.06.2020
1865 Clouds 17 1009 82 10000 5 140 13:59 05.06.2020
1866 Thunderstorm 17 1009 87 8000 8 150 13:40 05.06.2020
1867 Thunderstorm 16 1009 77 10000 3 210 13:22 05.06.2020
1868 Rain 15 1008 59 8000 7 140 12:42 05.06.2020
1869 Rain 17 1008 59 8000 7 140 12:20 05.06.2020
1870 Clouds 19 1009 52 10000 6 170 11:57 05.06.2020
1871 Clouds 19 1009 52 10000 6 170 11:39 05.06.2020
1872 Clouds 20 1009 52 10000 6 170 11:20 05.06.2020
1873 Clouds 19 1009 52 10000 6 150 10:54 05.06.2020
1874 Clouds 19 1009 52 10000 5 150 10:36 05.06.2020
1875 Clouds 19 1009 52 10000 5 150 10:18 05.06.2020
1876 Clouds 19 1009 55 10000 5 190 09:55 05.06.2020
1877 Clouds 18 1009 55 10000 6 160 09:36 05.06.2020
1878 Clouds 18 1009 55 10000 6 160 09:18 05.06.2020
1879 Clouds 17 1009 67 10000 5 170 08:41 05.06.2020
1880 Clouds 17 1009 67 10000 5 170 08:20 05.06.2020
1881 Clouds 17 1008 67 10000 5 160 07:57 05.06.2020
1882 Clouds 16 1008 72 10000 4 170 07:38 05.06.2020
1883 Clouds 15 1008 82 10000 3 150 06:56 05.06.2020
1884 Clear 13 1008 87 10000 3 140 05:50 05.06.2020
1885 Clear 13 1008 87 10000 3 140 05:19 05.06.2020
1886 Clear 11 1008 100 10000 2 100 03:53 05.06.2020
1887 Clear 11 1007 93 10000 2 120 02:45 05.06.2020
1888 Clear 11 1007 100 10000 2 170 02:21 05.06.2020
1889 Clear 11 1007 100 10000 2 170 01:52 05.06.2020
1890 Clear 11 1007 93 10000 2 150 01:26 05.06.2020
1891 Clear 12 1006 93 10000 3 200 00:42 05.06.2020
1892 Clear 12 1006 93 10000 4 210 00:20 05.06.2020
1893 Clear 12 1006 93 10000 4 200 23:46 04.06.2020
1894 Clear 12 1006 93 10000 4 200 23:27 04.06.2020
1895 Clouds 14 1006 87 10000 3 190 22:55 04.06.2020
1896 Clouds 13 1006 87 10000 3 190 22:36 04.06.2020
1897 Clouds 13 1006 87 10000 3 190 22:36 04.06.2020
1898 Clouds 13 1005 93 10000 2 190 22:18 04.06.2020
1899 Clouds 13 1005 93 10000 2 190 21:56 04.06.2020
1900 Clouds 14 1005 93 10000 2 210 21:36 04.06.2020
1901 Clear 14 1005 93 10000 2 200 21:18 04.06.2020
1902 Clear 14 1005 93 10000 2 190 20:54 04.06.2020
1903 Clouds 16 1004 87 10000 3 170 20:36 04.06.2020
1904 Clouds 16 1004 87 10000 3 170 20:18 04.06.2020
1905 Clouds 17 1004 87 10000 3 170 19:39 04.06.2020
1906 Clouds 17 1004 93 10000 4 170 19:39 04.06.2020
1907 Clouds 17 1004 87 10000 3 170 19:21 04.06.2020
1908 Clouds 16 1004 87 10000 2 140 18:56 04.06.2020
1909 Rain 16 1003 87 10000 3 160 18:38 04.06.2020
1910 Rain 16 1003 87 10000 3 160 18:38 04.06.2020
1911 Rain 16 1003 87 10000 3 160 18:19 04.06.2020
1912 Thunderstorm 17 1003 87 9000 5 120 17:42 04.06.2020
1913 Thunderstorm 18 1003 82 10000 3 120 17:21 04.06.2020
1914 Rain 18 1003 82 10000 3 100 16:56 04.06.2020
1915 Rain 18 1003 82 10000 3 100 16:38 04.06.2020
1916 Rain 18 1003 77 10000 2 140 16:18 04.06.2020
1917 Rain 18 1003 87 10000 2 100 15:43 04.06.2020
1918 Rain 18 1003 93 10000 4 120 15:24 04.06.2020
1919 Rain 18 1003 87 10000 2 150 14:41 04.06.2020
1920 Rain 17 1003 87 10000 2 150 14:22 04.06.2020
1921 Rain 18 1003 82 8000 5 210 13:57 04.06.2020
1922 Clouds 19 1003 63 10000 4 200 13:38 04.06.2020
1923 Clouds 20 1003 63 10000 4 200 13:20 04.06.2020
1924 Clouds 19 1003 63 10000 4 200 12:58 04.06.2020
1925 Clouds 19 1003 63 10000 4 200 12:58 04.06.2020
1926 Clouds 19 1003 63 10000 5 190 12:40 04.06.2020
1927 Clouds 19 1003 72 10000 3 200 12:21 04.06.2020
1928 Clouds 19 1002 68 10000 4 180 11:54 04.06.2020
1929 Clouds 19 1002 68 10000 4 180 11:36 04.06.2020
1930 Clouds 18 1002 72 10000 4 200 11:18 04.06.2020
1931 Clouds 17 1002 72 10000 5 180 10:39 04.06.2020
1932 Clouds 17 1002 72 10000 5 180 10:21 04.06.2020
1933 Clouds 17 1002 72 10000 5 180 09:56 04.06.2020
1934 Clouds 16 1002 87 10000 5 200 09:38 04.06.2020
1935 Clouds 15 1001 93 10000 4 200 09:19 04.06.2020
1936 Clouds 15 1001 93 10000 4 200 09:19 04.06.2020
1937 Clouds 16 1001 93 10000 4 190 08:41 04.06.2020
1938 Clouds 14 1001 93 10000 4 210 08:22 04.06.2020
1939 Clouds 15 1001 93 10000 4 210 07:42 04.06.2020
1940 Clouds 14 1000 100 9000 5 200 07:21 04.06.2020
1941 Clouds 13 999 100 10000 3 200 06:40 04.06.2020
1942 Clouds 13 999 100 10000 3 200 06:22 04.06.2020
1943 Rain 13 999 100 3000 3 240 05:33 04.06.2020
1944 Rain 14 1000 100 3700 3 40 03:51 04.06.2020
1945 Rain 13 1001 100 6000 3 40 02:38 04.06.2020
1946 Rain 13 1002 93 7000 4 40 01:39 04.06.2020
1947 Rain 13 1003 100 5000 4 40 01:19 04.06.2020
1948 Rain 13 1004 100 3700 5 50 00:28 04.06.2020
1949 Rain 13 1005 100 8000 4 50 23:40 03.06.2020
1950 Rain 14 1006 100 6000 5 60 23:20 03.06.2020
1951 Rain 14 1006 100 6000 5 60 22:57 03.06.2020
1952 Rain 14 1006 93 7000 4 60 22:38 03.06.2020
1953 Rain 14 1007 93 10000 5 60 22:18 03.06.2020
1954 Rain 15 1007 93 10000 5 60 21:56 03.06.2020
1955 Rain 15 1007 93 10000 4 70 21:37 03.06.2020
1956 Drizzle 14 1007 100 8000 4 70 21:19 03.06.2020
1957 Drizzle 14 1008 100 5000 3 70 20:43 03.06.2020
1958 Clouds 14 1008 100 7000 4 70 20:22 03.06.2020
1959 Clouds 14 1008 100 7000 4 70 19:58 03.06.2020
1960 Clouds 14 1008 100 7000 3 70 19:40 03.06.2020
1961 Mist 14 1009 100 5000 5 80 19:22 03.06.2020
1962 Mist 14 1009 100 5000 5 80 18:59 03.06.2020
1963 Clouds 14 1009 100 6000 5 80 18:41 03.06.2020
1964 Clouds 14 1009 100 9000 6 90 18:20 03.06.2020
1965 Clouds 14 1009 100 9000 6 90 17:54 03.06.2020
1966 Clouds 14 1009 100 10000 6 90 17:36 03.06.2020
1967 Drizzle 14 1009 100 5000 4 80 17:18 03.06.2020
1968 Drizzle 14 1009 100 7000 5 80 16:41 03.06.2020
1969 Drizzle 14 1009 100 5000 6 80 16:20 03.06.2020
1970 Clouds 14 1009 100 9000 6 80 15:55 03.06.2020
1971 Drizzle 14 1009 100 5000 6 80 15:55 03.06.2020
1972 Clouds 13 1009 100 9000 6 80 15:37 03.06.2020
1973 Clouds 13 1010 100 10000 6 80 15:19 03.06.2020
1974 Rain 14 1010 93 5000 5 70 14:45 03.06.2020
1975 Mist 14 1010 93 5000 5 70 14:24 03.06.2020
1976 Clouds 14 1010 93 10000 7 70 14:24 03.06.2020
1977 Clouds 14 1010 93 10000 7 70 13:55 03.06.2020
1978 Clouds 14 1010 100 10000 6 80 13:37 03.06.2020
1979 Clouds 14 1010 93 9000 6 80 13:18 03.06.2020
1980 Clouds 14 1011 93 9000 5 70 12:42 03.06.2020
1981 Drizzle 13 1011 100 5000 6 90 12:21 03.06.2020
1982 Clouds 13 1011 93 10000 6 80 11:45 03.06.2020
1983 Clouds 13 1011 93 10000 6 80 11:26 03.06.2020
1984 Clouds 13 1011 100 10000 6 90 10:56 03.06.2020
1985 Rain 13 1011 100 9000 6 80 10:38 03.06.2020
1986 Rain 12 1011 100 8000 5 70 10:20 03.06.2020
1987 Rain 12 1011 100 9000 6 70 09:42 03.06.2020
1988 Rain 12 1011 100 9000 6 70 09:19 03.06.2020
1989 Rain 12 1011 100 9000 4 70 08:47 03.06.2020
1990 Rain 12 1011 100 6000 5 60 08:24 03.06.2020
1991 Rain 12 1011 100 6000 5 60 07:58 03.06.2020
1992 Rain 11 1011 100 9000 6 70 07:39 03.06.2020
1993 Rain 11 1011 100 9000 6 70 07:18 03.06.2020
1994 Rain 11 1011 100 9000 5 70 06:45 03.06.2020
1995 Rain 11 1011 100 9000 5 70 06:27 03.06.2020
1996 Rain 11 1011 100 9000 5 70 05:45 03.06.2020
1997 Drizzle 11 1012 100 10000 5 70 04:33 03.06.2020
1998 Mist 11 1012 100 3800 4 80 03:42 03.06.2020
1999 Drizzle 11 1012 100 4700 5 70 02:46 03.06.2020
2000 Clouds 11 1012 100 10000 5 70 01:47 03.06.2020
2001 Clouds 11 1013 100 10000 5 60 00:41 03.06.2020
2002 Clouds 11 1013 100 10000 5 60 00:22 03.06.2020
2003 Clouds 11 1013 93 6000 5 80 23:49 02.06.2020
2004 Clouds 11 1013 93 6000 5 80 23:27 02.06.2020
2005 Clouds 11 1013 93 10000 5 80 22:56 02.06.2020
2006 Clouds 11 1013 87 10000 6 80 22:37 02.06.2020
2007 Clouds 11 1013 87 10000 7 80 22:18 02.06.2020
2008 Clouds 11 1013 87 10000 7 80 21:55 02.06.2020
2009 Clouds 11 1014 81 10000 6 80 21:36 02.06.2020
2010 Clouds 11 1014 81 10000 6 80 21:18 02.06.2020
2011 Clouds 11 1014 81 10000 7 80 20:55 02.06.2020
2012 Clouds 11 1014 81 10000 7 70 20:36 02.06.2020
2013 Clouds 11 1014 81 10000 8 70 20:18 02.06.2020
2014 Clouds 11 1014 81 10000 8 70 19:41 02.06.2020
2015 Clouds 11 1014 81 10000 8 70 19:41 02.06.2020
2016 Clouds 11 1014 81 10000 7 80 19:23 02.06.2020
2017 Clouds 11 1014 81 10000 7 80 18:56 02.06.2020
2018 Clouds 11 1014 81 10000 8 90 18:38 02.06.2020
2019 Clouds 11 1014 87 10000 7 80 18:19 02.06.2020
2020 Clouds 11 1014 81 10000 6 70 17:42 02.06.2020
2021 Clouds 10 1014 81 10000 7 70 17:23 02.06.2020
2022 Clouds 10 1014 81 10000 7 70 16:57 02.06.2020
2023 Clouds 10 1015 81 10000 7 80 16:39 02.06.2020
2024 Clouds 11 1015 81 10000 7 80 16:20 02.06.2020
2025 Clouds 10 1015 81 10000 8 70 15:54 02.06.2020
2026 Clouds 11 1015 87 10000 7 70 15:36 02.06.2020
2027 Clouds 11 1015 87 10000 7 70 15:18 02.06.2020
2028 Clouds 10 1015 93 10000 8 60 14:42 02.06.2020
2029 Rain 10 1015 93 6000 8 70 14:22 02.06.2020
2030 Clouds 11 1015 93 10000 8 70 13:40 02.06.2020
2031 Clouds 11 1015 81 10000 9 70 13:19 02.06.2020
2032 Rain 11 1015 81 10000 9 70 12:59 02.06.2020
2033 Rain 10 1015 81 10000 9 70 12:40 02.06.2020
2034 Rain 10 1015 81 10000 8 70 12:21 02.06.2020
2035 Rain 10 1015 81 10000 8 70 11:56 02.06.2020
2036 Rain 10 1015 81 10000 9 70 11:38 02.06.2020
2037 Rain 10 1015 81 10000 9 70 11:20 02.06.2020
2038 Rain 10 1014 81 10000 10 60 10:47 02.06.2020
2039 Rain 10 1014 81 10000 10 60 10:28 02.06.2020
2040 Rain 10 1014 81 10000 10 70 09:58 02.06.2020
2041 Rain 10 1014 81 10000 8 70 09:38 02.06.2020
2042 Rain 10 1014 81 10000 8 70 09:20 02.06.2020
2043 Rain 10 1014 71 10000 9 70 08:48 02.06.2020
2044 Rain 10 1014 76 10000 9 70 08:22 02.06.2020
2045 Rain 9 1014 76 10000 7 70 07:52 02.06.2020
2046 Rain 10 1014 76 10000 7 70 07:26 02.06.2020
2047 Rain 10 1014 76 10000 7 70 06:47 02.06.2020
2048 Clouds 10 1014 76 10000 6 60 06:18 02.06.2020
2049 Clouds 10 1013 76 10000 6 50 05:21 02.06.2020
2050 Clouds 10 1014 81 10000 6 50 03:25 02.06.2020
2051 Clouds 10 1014 76 10000 6 50 02:30 02.06.2020
2052 Clouds 11 1015 81 10000 5 40 01:33 02.06.2020
2053 Clouds 11 1015 81 10000 6 50 00:26 02.06.2020
2054 Clouds 11 1015 81 10000 6 50 23:58 01.06.2020
2055 Clouds 11 1015 81 10000 5 60 23:37 01.06.2020
2056 Clouds 11 1015 87 10000 6 50 23:18 01.06.2020
2057 Clouds 11 1015 87 10000 6 50 22:54 01.06.2020
2058 Clouds 11 1015 87 10000 5 50 22:36 01.06.2020
2059 Clouds 11 1015 87 10000 4 50 22:18 01.06.2020
2060 Clouds 12 1015 87 10000 5 50 21:41 01.06.2020
2061 Clouds 12 1015 87 10000 5 60 21:20 01.06.2020
2062 Clouds 12 1015 87 10000 5 60 20:58 01.06.2020
2063 Clouds 12 1015 93 10000 5 60 20:39 01.06.2020
2064 Clouds 11 1015 93 10000 5 60 20:19 01.06.2020
2065 Clouds 11 1015 93 10000 5 60 19:56 01.06.2020
2066 Clouds 12 1015 87 10000 4 70 19:38 01.06.2020
2067 Rain 12 1015 87 10000 6 70 19:19 01.06.2020
2068 Clouds 12 1015 93 10000 6 70 18:55 01.06.2020
2069 Clouds 12 1015 93 10000 6 70 18:37 01.06.2020
2070 Rain 12 1015 93 10000 6 80 18:18 01.06.2020
2071 Rain 13 1015 87 10000 5 80 17:40 01.06.2020
2072 Rain 13 1014 87 10000 6 80 17:20 01.06.2020
2073 Rain 13 1014 87 10000 7 80 16:42 01.06.2020
2074 Rain 13 1014 87 10000 7 80 16:42 01.06.2020
2075 Rain 13 1014 87 10000 7 80 16:24 01.06.2020
2076 Rain 13 1014 87 10000 7 70 15:59 01.06.2020
2077 Rain 11 1014 87 9000 6 90 15:40 01.06.2020
2078 Rain 11 1014 87 10000 5 100 15:21 01.06.2020
2079 Rain 11 1014 87 10000 5 100 14:59 01.06.2020
2080 Rain 11 1013 87 9000 5 90 14:41 01.06.2020
2081 Rain 11 1013 87 9000 5 90 14:21 01.06.2020
2082 Rain 11 1013 81 10000 7 50 13:55 01.06.2020
2083 Rain 11 1013 81 10000 7 50 13:55 01.06.2020
2084 Rain 11 1013 81 10000 7 50 13:37 01.06.2020
2085 Rain 11 1013 87 10000 7 50 13:19 01.06.2020
2086 Rain 11 1013 87 10000 7 50 12:57 01.06.2020
2087 Rain 11 1013 81 10000 8 30 12:38 01.06.2020
2088 Clouds 11 1013 76 10000 7 30 12:20 01.06.2020
2089 Clouds 11 1013 81 10000 8 40 11:40 01.06.2020
2090 Clouds 11 1013 81 10000 8 40 11:22 01.06.2020
2091 Clouds 11 1013 81 10000 8 40 10:58 01.06.2020
2092 Clouds 10 1013 81 10000 7 40 10:39 01.06.2020
2093 Clouds 10 1013 81 10000 7 40 10:20 01.06.2020
2094 Clouds 10 1013 81 10000 7 50 09:56 01.06.2020
2095 Clouds 10 1013 81 10000 7 50 09:38 01.06.2020
2096 Clouds 10 1012 87 10000 7 30 09:19 01.06.2020
2097 Clouds 10 1012 87 10000 8 40 08:46 01.06.2020
2098 Clouds 10 1012 87 10000 8 40 08:25 01.06.2020
2099 Rain 9 1012 93 10000 7 40 07:45 01.06.2020
2100 Rain 9 1012 93 10000 7 40 07:27 01.06.2020
2101 Rain 9 1011 93 10000 7 40 06:57 01.06.2020
2102 Rain 8 1011 93 9000 6 30 06:20 01.06.2020
2103 Clouds 9 1011 93 10000 6 20 05:50 01.06.2020
2104 Rain 8 1011 93 10000 5 20 04:25 01.06.2020
2105 Rain 9 1011 93 8000 5 20 03:47 01.06.2020
2106 Rain 9 1011 93 8000 5 20 03:24 01.06.2020
2107 Clouds 9 1011 93 10000 5 20 01:50 01.06.2020
2108 Clouds 9 1011 93 10000 5 20 01:30 01.06.2020
2109 Clouds 9 1011 93 10000 6 10 00:58 01.06.2020
2110 Rain 9 1011 93 10000 5 360 00:39 01.06.2020
2111 Rain 9 1011 93 10000 5 360 00:21 01.06.2020
2112 Rain 9 1011 93 10000 5 360 00:21 01.06.2020
2113 Rain 9 1011 93 10000 5 360 23:56 31.05.2020
2114 Rain 9 1011 93 10000 5 360 23:38 31.05.2020
2115 Rain 9 1012 93 10000 5 360 23:20 31.05.2020
2116 Rain 9 1012 87 10000 5 360 22:44 31.05.2020
2117 Rain 9 1012 87 10000 5 360 22:26 31.05.2020
2118 Rain 10 1012 87 10000 4 10 21:58 31.05.2020
2119 Rain 10 1012 93 10000 5 360 21:40 31.05.2020
2120 Rain 10 1012 93 10000 3 360 21:22 31.05.2020
2121 Rain 10 1012 93 10000 3 360 20:57 31.05.2020
2122 Rain 10 1012 87 10000 4 10 20:38 31.05.2020
2123 Rain 10 1012 87 10000 4 10 20:19 31.05.2020
2124 Rain 10 1012 87 10000 4 20 19:55 31.05.2020
2125 Rain 10 1012 87 10000 4 20 19:36 31.05.2020
2126 Rain 10 1012 87 10000 5 20 19:18 31.05.2020
2127 Rain 10 1012 87 10000 7 20 18:43 31.05.2020
2128 Rain 11 1012 87 10000 7 20 18:25 31.05.2020
2129 Rain 11 1011 93 10000 6 10 17:46 31.05.2020
2130 Rain 11 1011 93 10000 6 10 17:26 31.05.2020
2131 Clouds 11 1011 87 10000 7 20 17:00 31.05.2020
2132 Clouds 12 1011 87 10000 6 10 16:40 31.05.2020
2133 Clouds 12 1011 87 10000 6 10 16:21 31.05.2020
2134 Clouds 12 1011 87 10000 4 20 15:40 31.05.2020
2135 Clouds 12 1011 87 10000 4 20 15:40 31.05.2020
2136 Clouds 12 1011 87 10000 4 20 15:21 31.05.2020
2137 Clouds 11 1011 93 10000 5 10 15:21 31.05.2020
2138 Rain 11 1011 93 10000 5 10 14:56 31.05.2020
2139 Rain 11 1011 76 10000 7 40 14:38 31.05.2020
2140 Rain 11 1011 81 10000 7 40 14:18 31.05.2020
2141 Rain 11 1011 81 10000 7 40 13:54 31.05.2020
2142 Rain 11 1011 81 10000 7 60 13:36 31.05.2020
2143 Rain 11 1011 81 10000 7 50 13:18 31.05.2020
2144 Rain 11 1011 93 10000 7 50 12:41 31.05.2020
2145 Rain 11 1011 93 10000 7 50 12:22 31.05.2020
2146 Rain 11 1011 93 10000 8 30 11:49 31.05.2020
2147 Rain 11 1011 93 10000 8 30 11:25 31.05.2020
2148 Rain 11 1011 93 10000 8 30 11:25 31.05.2020
2149 Rain 11 1011 100 9000 7 20 10:59 31.05.2020
2150 Rain 12 1011 93 8000 7 20 10:41 31.05.2020
2151 Rain 12 1011 93 8000 7 20 10:23 31.05.2020
2152 Rain 12 1011 93 8000 7 20 10:23 31.05.2020
2153 Rain 12 1011 93 9000 6 20 09:56 31.05.2020
2154 Rain 12 1010 93 9000 6 20 09:38 31.05.2020
2155 Rain 12 1010 93 9000 6 20 09:38 31.05.2020
2156 Rain 12 1010 93 9000 6 20 09:19 31.05.2020
2157 Rain 12 1010 93 8000 6 20 08:42 31.05.2020
2158 Rain 12 1010 93 8000 6 20 08:23 31.05.2020
2159 Rain 12 1010 93 9000 6 20 07:48 31.05.2020
2160 Rain 11 1010 93 9000 7 30 07:22 31.05.2020
2161 Rain 11 1010 93 9000 7 30 06:57 31.05.2020
2162 Rain 12 1010 93 7000 7 30 06:34 31.05.2020
2163 Rain 12 1010 93 4500 7 40 05:49 31.05.2020
2164 Rain 12 1010 93 4500 7 40 05:31 31.05.2020
2165 Rain 13 1010 93 10000 8 30 03:57 31.05.2020
2166 Rain 13 1010 93 10000 9 30 03:29 31.05.2020
2167 Clouds 14 1010 93 10000 8 30 02:46 31.05.2020
2168 Rain 14 1010 93 10000 8 20 01:46 31.05.2020
2169 Rain 14 1011 100 10000 6 20 00:41 31.05.2020
2170 Rain 15 1011 93 7000 5 50 00:23 31.05.2020
2171 Rain 15 1011 87 9000 6 60 23:42 30.05.2020
2172 Rain 15 1011 87 9000 6 60 23:23 30.05.2020
2173 Rain 15 1011 82 10000 6 70 22:56 30.05.2020
2174 Clouds 16 1010 82 10000 6 40 22:37 30.05.2020
2175 Clouds 17 1010 82 10000 6 40 22:19 30.05.2020
2176 Clouds 17 1010 82 10000 8 40 21:42 30.05.2020
2177 Clouds 17 1010 82 10000 8 40 21:22 30.05.2020
2178 Clouds 17 1010 82 10000 9 30 20:57 30.05.2020
2179 Clouds 17 1010 82 10000 9 30 20:39 30.05.2020
2180 Clouds 18 1010 82 10000 8 30 20:21 30.05.2020
2181 Clouds 18 1010 82 10000 8 30 19:55 30.05.2020
2182 Clouds 19 1011 82 10000 8 30 19:37 30.05.2020
2183 Clouds 18 1011 82 10000 8 30 19:18 30.05.2020
2184 Clouds 19 1011 82 10000 9 30 18:43 30.05.2020
2185 Clouds 20 1011 82 10000 9 30 18:19 30.05.2020
2186 Clouds 21 1011 82 10000 9 30 17:42 30.05.2020
2187 Clouds 21 1011 82 10000 9 30 17:24 30.05.2020
2188 Clouds 21 1011 77 9000 10 30 16:58 30.05.2020
2189 Clouds 22 1010 72 10000 8 20 16:39 30.05.2020
2190 Clouds 22 1010 68 9000 9 30 16:21 30.05.2020
2191 Clouds 23 1010 68 10000 8 30 15:42 30.05.2020
2192 Clouds 23 1010 68 10000 8 30 15:24 30.05.2020
2193 Clouds 22 1011 68 10000 8 30 14:45 30.05.2020
2194 Clouds 22 1011 68 10000 8 30 14:26 30.05.2020
2195 Clouds 22 1011 64 10000 8 30 13:44 30.05.2020
2196 Clouds 21 1011 64 10000 8 30 13:25 30.05.2020
2197 Clouds 20 1012 77 10000 8 20 12:42 30.05.2020
2198 Clouds 19 1012 77 10000 7 30 12:22 30.05.2020
2199 Clouds 19 1012 82 10000 6 30 11:58 30.05.2020
2200 Clouds 19 1012 82 10000 6 30 11:40 30.05.2020
2201 Clouds 18 1012 77 10000 6 50 11:22 30.05.2020
2202 Clouds 19 1012 88 10000 5 60 10:55 30.05.2020
2203 Clouds 19 1012 88 10000 5 60 10:37 30.05.2020
2204 Clouds 18 1012 87 10000 6 60 10:19 30.05.2020
2205 Clouds 18 1013 87 10000 5 60 09:42 30.05.2020
2206 Clouds 17 1013 87 10000 5 60 09:24 30.05.2020
2207 Clouds 17 1013 93 10000 6 50 08:41 30.05.2020
2208 Clouds 17 1013 93 10000 6 50 08:21 30.05.2020
2209 Clouds 16 1013 93 10000 6 60 07:39 30.05.2020
2210 Clouds 16 1013 93 10000 6 50 07:18 30.05.2020
2211 Clouds 15 1013 100 10000 5 60 06:28 30.05.2020
2212 Clouds 15 1014 93 10000 6 60 05:49 30.05.2020
2213 Clouds 15 1014 100 10000 5 50 04:47 30.05.2020
2214 Clouds 15 1014 100 10000 5 40 02:41 30.05.2020
2215 Rain 15 1015 100 10000 5 30 02:19 30.05.2020
2216 Rain 15 1016 100 10000 3 40 00:45 30.05.2020
2217 Rain 15 1016 100 10000 3 40 00:24 30.05.2020
2218 Rain 15 1016 100 9000 4 30 23:59 29.05.2020
2219 Rain 15 1016 100 5000 4 30 23:38 29.05.2020
2220 Rain 16 1016 100 5000 4 30 23:19 29.05.2020
2221 Thunderstorm 16 1016 100 2900 2 40 23:19 29.05.2020
2222 Thunderstorm 16 1016 100 3700 2 300 22:55 29.05.2020
2223 Thunderstorm 16 1016 100 3700 2 300 22:36 29.05.2020
2224 Thunderstorm 16 1016 100 4400 3 20 22:18 29.05.2020
2225 Rain 16 1015 100 5000 4 350 21:41 29.05.2020
2226 Rain 16 1015 100 5000 4 350 21:21 29.05.2020
2227 Mist 16 1015 100 4300 3 340 20:58 29.05.2020
2228 Mist 16 1015 100 4000 4 40 20:39 29.05.2020
2229 Mist 16 1015 100 4000 4 40 20:19 29.05.2020
2230 Mist 17 1015 100 4200 3 30 19:43 29.05.2020
2231 Mist 17 1015 100 5000 2 30 19:25 29.05.2020
2232 Rain 17 1015 93 5000 3 50 18:48 29.05.2020
2233 Rain 17 1016 93 5000 3 100 18:23 29.05.2020
2234 Rain 17 1016 93 5000 3 100 17:59 29.05.2020
2235 Rain 17 1016 93 2000 5 90 17:39 29.05.2020
2236 Rain 16 1016 93 2000 5 90 17:20 29.05.2020
2237 Clouds 16 1016 100 9000 5 100 16:55 29.05.2020
2238 Clouds 16 1016 100 9000 5 100 16:37 29.05.2020
2239 Clouds 16 1016 100 9000 5 100 16:19 29.05.2020
2240 Rain 16 1016 100 10000 5 90 15:42 29.05.2020
2241 Rain 16 1016 100 10000 5 90 15:21 29.05.2020
2242 Rain 15 1017 93 10000 5 100 14:58 29.05.2020
2243 Rain 15 1016 100 9000 4 80 14:38 29.05.2020
2244 Rain 15 1017 100 9000 5 90 14:19 29.05.2020
2245 Rain 15 1017 100 8000 4 80 13:43 29.05.2020
2246 Rain 15 1017 100 8000 4 80 13:23 29.05.2020
2247 Rain 15 1017 100 7000 4 70 12:58 29.05.2020
2248 Rain 15 1017 100 7000 4 80 12:39 29.05.2020
2249 Rain 15 1016 100 7000 4 80 12:20 29.05.2020
2250 Rain 15 1016 100 9000 4 70 11:44 29.05.2020
2251 Rain 15 1016 100 9000 4 70 11:25 29.05.2020
2252 Rain 15 1017 93 9000 4 90 10:55 29.05.2020
2253 Rain 15 1016 100 9000 6 80 10:36 29.05.2020
2254 Rain 14 1016 100 7000 6 80 10:18 29.05.2020
2255 Rain 13 1016 100 5000 7 70 09:41 29.05.2020
2256 Rain 13 1017 100 10000 6 50 09:19 29.05.2020
2257 Rain 13 1017 100 7000 5 60 08:48 29.05.2020
2258 Rain 13 1017 100 7000 5 60 08:26 29.05.2020
2259 Rain 13 1017 100 7000 5 60 08:26 29.05.2020
2260 Rain 13 1017 93 6000 7 30 07:58 29.05.2020
2261 Rain 13 1018 93 3800 5 20 07:37 29.05.2020
2262 Rain 13 1018 93 3800 5 20 07:18 29.05.2020
2263 Rain 13 1018 93 6000 4 30 06:46 29.05.2020
2264 Rain 13 1018 93 6000 4 30 06:26 29.05.2020
2265 Rain 13 1018 82 10000 3 340 05:45 29.05.2020
2266 Clouds 14 1019 82 10000 2 90 02:35 29.05.2020
2267 Clouds 14 1020 76 10000 1 360 01:29 29.05.2020
2268 Clouds 14 1020 76 10000 1 0 00:54 29.05.2020
2269 Clouds 14 1020 76 10000 1 0 00:33 29.05.2020
2270 Clouds 14 1021 71 10000 2 170 23:59 28.05.2020
2271 Clouds 15 1021 62 10000 2 170 23:39 28.05.2020
2272 Clouds 15 1021 51 10000 2 200 23:18 28.05.2020
2273 Clouds 16 1021 51 10000 2 190 22:42 28.05.2020
2274 Clouds 16 1021 51 10000 2 190 22:24 28.05.2020
2275 Clouds 17 1021 51 10000 2 190 21:57 28.05.2020
2276 Clouds 17 1021 51 10000 3 190 21:38 28.05.2020
2277 Clouds 18 1021 48 10000 3 180 21:20 28.05.2020
2278 Clouds 18 1021 48 10000 3 180 20:57 28.05.2020
2279 Clouds 18 1021 48 10000 3 180 20:57 28.05.2020
2280 Clouds 18 1021 48 10000 4 160 20:38 28.05.2020
2281 Clouds 18 1021 48 10000 4 160 20:18 28.05.2020
2282 Clouds 19 1020 39 10000 3 190 19:55 28.05.2020
2283 Clouds 19 1020 39 10000 3 190 19:37 28.05.2020
2284 Clouds 19 1020 37 10000 2 190 19:18 28.05.2020
2285 Clouds 20 1020 37 10000 3 170 18:42 28.05.2020
2286 Clouds 21 1020 37 10000 3 170 18:22 28.05.2020
2287 Clouds 21 1021 32 10000 3 180 17:43 28.05.2020
2288 Clouds 21 1021 32 10000 3 180 17:23 28.05.2020
2289 Clouds 20 1021 34 10000 4 190 16:58 28.05.2020
2290 Clouds 20 1021 35 10000 3 210 16:39 28.05.2020
2291 Clouds 20 1021 35 10000 3 210 16:20 28.05.2020
2292 Clouds 20 1021 35 10000 2 180 15:45 28.05.2020
2293 Clouds 20 1021 35 10000 2 180 15:24 28.05.2020
2294 Clouds 21 1022 32 10000 4 190 14:57 28.05.2020
2295 Clouds 21 1022 35 10000 4 190 14:39 28.05.2020
2296 Clouds 21 1022 35 10000 4 190 14:21 28.05.2020
2297 Clouds 20 1022 37 10000 5 200 13:43 28.05.2020
2298 Clear 21 1022 37 10000 5 200 13:25 28.05.2020
2299 Clear 20 1022 37 10000 4 180 12:43 28.05.2020
2300 Clear 21 1022 37 10000 4 170 12:19 28.05.2020
2301 Clear 20 1022 42 10000 5 150 11:45 28.05.2020
2302 Clear 20 1022 42 10000 5 150 11:26 28.05.2020
2303 Clear 20 1022 34 10000 4 160 10:58 28.05.2020
2304 Clear 20 1022 34 10000 4 160 10:40 28.05.2020
2305 Clear 19 1022 34 10000 4 160 10:22 28.05.2020
2306 Clear 19 1023 42 10000 3 200 09:40 28.05.2020
2307 Clear 19 1023 42 10000 3 200 09:22 28.05.2020
2308 Clear 18 1023 45 10000 4 200 08:52 28.05.2020
2309 Clear 18 1023 45 10000 4 200 08:52 28.05.2020
2310 Clouds 17 1023 48 10000 4 210 08:32 28.05.2020
2311 Clouds 17 1023 48 10000 4 190 07:59 28.05.2020
2312 Clouds 17 1023 55 10000 3 200 07:41 28.05.2020
2313 Clouds 17 1023 55 10000 3 200 07:22 28.05.2020
2314 Clouds 14 1023 71 10000 2 210 06:39 28.05.2020
2315 Clouds 13 1023 71 10000 2 210 06:21 28.05.2020
2316 Clouds 13 1023 81 10000 2 210 05:38 28.05.2020
2317 Clouds 10 1023 87 10000 3 240 04:35 28.05.2020
2318 Clouds 10 1023 87 10000 2 210 03:52 28.05.2020
2319 Clouds 10 1023 87 10000 2 200 02:52 28.05.2020
2320 Clouds 12 1023 81 10000 1 280 01:57 28.05.2020
2321 Clouds 12 1023 81 10000 2 260 01:35 28.05.2020
2322 Clouds 13 1023 71 10000 3 230 00:47 28.05.2020
2323 Clouds 13 1023 71 10000 3 230 00:19 28.05.2020
2324 Clouds 13 1023 71 10000 3 220 23:55 27.05.2020
2325 Clouds 13 1023 71 10000 3 220 23:36 27.05.2020
2326 Clouds 13 1023 76 10000 3 240 23:18 27.05.2020
2327 Clouds 14 1023 71 10000 1 0 22:41 27.05.2020
2328 Clouds 14 1023 71 10000 1 0 22:23 27.05.2020
2329 Clouds 14 1023 62 10000 2 150 21:56 27.05.2020
2330 Clouds 14 1023 62 10000 2 150 21:37 27.05.2020
2331 Clouds 15 1023 62 10000 2 160 21:19 27.05.2020
2332 Clouds 15 1023 62 10000 2 160 20:57 27.05.2020
2333 Clouds 15 1023 58 10000 3 140 20:38 27.05.2020
2334 Clouds 16 1023 58 10000 2 100 20:18 27.05.2020
2335 Clouds 16 1023 48 10000 1 0 19:43 27.05.2020
2336 Rain 16 1023 48 10000 1 0 19:20 27.05.2020
2337 Rain 17 1022 45 10000 1 0 18:45 27.05.2020
2338 Rain 17 1022 45 10000 2 320 18:20 27.05.2020
2339 Rain 17 1022 45 10000 2 320 17:59 27.05.2020
2340 Rain 17 1023 42 10000 2 300 17:40 27.05.2020
2341 Rain 17 1023 42 10000 2 300 17:21 27.05.2020
2342 Rain 18 1023 48 10000 2 260 16:56 27.05.2020
2343 Rain 18 1023 51 10000 2 250 16:38 27.05.2020
2344 Clouds 18 1023 51 10000 2 250 16:19 27.05.2020
2345 Clouds 18 1023 48 10000 3 260 15:47 27.05.2020
2346 Clouds 19 1023 51 10000 3 230 15:22 27.05.2020
2347 Clouds 19 1023 51 10000 2 280 14:47 27.05.2020
2348 Clouds 19 1023 51 10000 2 280 14:23 27.05.2020
2349 Clouds 18 1023 55 10000 2 190 13:59 27.05.2020
2350 Clouds 17 1023 55 10000 2 280 13:41 27.05.2020
2351 Rain 17 1023 55 10000 2 270 13:22 27.05.2020
2352 Rain 17 1023 55 10000 2 280 12:42 27.05.2020
2353 Clouds 16 1023 55 10000 2 280 12:23 27.05.2020
2354 Clouds 17 1024 55 10000 2 250 11:56 27.05.2020
2355 Clouds 17 1024 58 10000 1 0 11:37 27.05.2020
2356 Clouds 16 1024 58 10000 1 0 11:19 27.05.2020
2357 Clouds 16 1024 62 10000 2 90 10:43 27.05.2020
2358 Clouds 16 1024 62 10000 2 90 10:24 27.05.2020
2359 Clouds 15 1024 72 10000 1.49 148 09:57 27.05.2020
2360 Rain 14 1024 76 10000 1 160 09:39 27.05.2020
2361 Rain 15 1024 76 10000 1 160 09:20 27.05.2020
2362 Rain 14 1024 87 10000 2 240 08:42 27.05.2020
2363 Rain 14 1024 87 10000 2 240 08:24 27.05.2020
2364 Rain 13 1024 87 10000 3 240 07:53 27.05.2020
2365 Rain 14 1024 93 10000 3 200 07:35 27.05.2020
2366 Rain 14 1024 93 10000 3 200 07:35 27.05.2020
2367 Rain 13 1024 93 8000 3 180 06:56 27.05.2020
2368 Rain 12 1024 93 10000 2 200 06:31 27.05.2020
2369 Rain 11 1024 93 8000 2 220 05:55 27.05.2020
2370 Rain 11 1024 93 10000 2 110 05:35 27.05.2020
2371 Rain 11 1024 93 10000 2 70 04:19 27.05.2020
2372 Rain 11 1024 87 10000 1 0 02:30 27.05.2020
2373 Clouds 12 1025 76 10000 2 100 01:51 27.05.2020
2374 Rain 12 1025 76 10000 1 0 01:20 27.05.2020
2375 Clouds 13 1025 62 10000 2 200 00:44 27.05.2020
2376 Clouds 13 1025 71 10000 2 190 00:19 27.05.2020
2377 Clouds 13 1025 66 10000 3 160 23:43 26.05.2020
2378 Clouds 13 1025 66 10000 3 160 23:25 26.05.2020
2379 Clouds 13 1025 66 10000 2 140 22:59 26.05.2020
2380 Clouds 14 1025 58 10000 3 140 22:38 26.05.2020
2381 Clouds 14 1025 58 10000 4 100 22:20 26.05.2020
2382 Clouds 14 1025 58 10000 4 100 21:57 26.05.2020
2383 Rain 14 1025 58 10000 1 0 21:39 26.05.2020
2384 Rain 14 1025 58 10000 1 0 21:20 26.05.2020
2385 Clouds 13 1026 54 10000 1 30 20:42 26.05.2020
2386 Clouds 15 1026 54 10000 1 0 20:21 26.05.2020
2387 Clouds 15 1026 54 10000 1 0 19:57 26.05.2020
2388 Clouds 16 1026 51 10000 2 160 19:37 26.05.2020
2389 Clouds 17 1026 48 10000 3 150 19:18 26.05.2020
2390 Clouds 16 1026 44 10000 3 110 18:43 26.05.2020
2391 Clouds 16 1026 44 10000 3 110 18:22 26.05.2020
2392 Clouds 17 1026 45 10000 2 20 17:57 26.05.2020
2393 Clouds 17 1026 45 10000 4 20 17:38 26.05.2020
2394 Clouds 17 1026 45 10000 4 20 17:20 26.05.2020
2395 Rain 18 1026 45 10000 2 60 16:42 26.05.2020
2396 Clouds 18 1026 32 10000 2 110 16:19 26.05.2020
2397 Clouds 18 1026 32 10000 2 110 15:54 26.05.2020
2398 Clouds 18 1027 34 10000 2 60 15:36 26.05.2020
2399 Rain 18 1027 34 10000 3 100 15:18 26.05.2020
2400 Rain 18 1027 39 10000 3 110 14:43 26.05.2020
2401 Clouds 19 1027 39 10000 3 100 14:22 26.05.2020
2402 Clouds 19 1027 39 10000 3 100 13:55 26.05.2020
2403 Clouds 19 1027 36 10000 3 90 13:37 26.05.2020
2404 Rain 19 1027 37 10000 2 80 13:18 26.05.2020
2405 Rain 18 1028 31 10000 3 100 12:41 26.05.2020
2406 Clouds 17 1028 36 10000 2 50 12:20 26.05.2020
2407 Clouds 17 1028 36 10000 2 50 11:57 26.05.2020
2408 Clouds 17 1028 36 10000 2 100 11:39 26.05.2020
2409 Clouds 17 1028 42 10000 3 110 11:18 26.05.2020
2410 Clouds 17 1028 42 10000 4 90 10:41 26.05.2020
2411 Clouds 16 1028 48 10000 4 80 10:19 26.05.2020
2412 Clouds 16 1028 51 10000 4 90 09:40 26.05.2020
2413 Clouds 16 1028 45 10000 4 90 09:20 26.05.2020
2414 Clouds 16 1028 51 10000 3 70 08:43 26.05.2020
2415 Clouds 16 1028 51 10000 3 70 08:43 26.05.2020
2416 Clouds 16 1028 51 10000 3 70 08:22 26.05.2020
2417 Clouds 16 1028 59 10000 2 80 07:57 26.05.2020
2418 Clouds 16 1028 59 10000 2 80 07:37 26.05.2020
2419 Clouds 15 1028 67 10000 1 0 07:18 26.05.2020
2420 Clouds 14 1028 76 10000 2 80 06:45 26.05.2020
2421 Clouds 13 1028 76 10000 2 80 06:19 26.05.2020
2422 Clouds 10 1028 87 10000 1 0 05:35 26.05.2020
2423 Clouds 9 1028 87 10000 1 0 04:55 26.05.2020
2424 Clouds 8 1027 93 10000 2 340 04:34 26.05.2020
2425 Clouds 8 1027 93 10000 1 0 03:59 26.05.2020
2426 Clear 9 1027 87 10000 2 90 02:49 26.05.2020
2427 Clouds 9 1026 93 10000 1 350 01:49 26.05.2020
2428 Clouds 9 1026 93 10000 1 350 01:29 26.05.2020
2429 Clouds 10 1026 87 10000 2 20 00:39 26.05.2020
2430 Clear 11 1026 81 10000 2 10 00:19 26.05.2020
2431 Clear 11 1026 81 10000 2 10 23:56 25.05.2020
2432 Clear 12 1026 76 10000 1 0 23:38 25.05.2020
2433 Clear 12 1026 71 10000 1 0 23:19 25.05.2020
2434 Clear 12 1026 71 10000 1 0 23:19 25.05.2020
2435 Clear 12 1026 71 10000 1 0 22:55 25.05.2020
2436 Clear 12 1026 76 10000 2 120 22:37 25.05.2020
2437 Clear 12 1026 76 10000 2 120 22:37 25.05.2020
2438 Clear 13 1026 71 10000 2 60 22:18 25.05.2020
2439 Clear 13 1026 71 10000 2 60 21:57 25.05.2020
2440 Clear 14 1026 66 10000 3 40 21:36 25.05.2020
2441 Clouds 14 1026 66 9000 2 350 21:18 25.05.2020
2442 Clouds 14 1026 66 10000 2 260 20:43 25.05.2020
2443 Clouds 14 1026 66 10000 2 260 20:43 25.05.2020
2444 Clouds 15 1026 66 10000 2 260 20:22 25.05.2020
2445 Clouds 15 1025 66 10000 2 60 19:59 25.05.2020
2446 Clouds 16 1025 58 10000 3 30 19:41 25.05.2020
2447 Rain 15 1024 54 10000 2 60 19:19 25.05.2020
2448 Rain 16 1024 54 10000 2 60 18:58 25.05.2020
2449 Rain 16 1024 54 10000 4 60 18:40 25.05.2020
2450 Rain 18 1024 39 10000 1 300 18:20 25.05.2020
2451 Rain 18 1023 36 10000 2 280 17:44 25.05.2020
2452 Clouds 18 1023 36 10000 2 280 17:25 25.05.2020
2453 Clouds 18 1023 36 10000 2 290 16:58 25.05.2020
2454 Clouds 18 1023 45 9000 3 310 16:40 25.05.2020
2455 Clouds 19 1023 45 9000 3 310 16:21 25.05.2020
2456 Rain 17 1023 51 10000 4 280 15:45 25.05.2020
2457 Rain 17 1023 51 10000 4 280 15:21 25.05.2020
2458 Rain 17 1022 47 10000 7 250 14:59 25.05.2020
2459 Clouds 17 1022 39 10000 3 240 14:41 25.05.2020
2460 Clouds 17 1022 39 10000 3 240 14:23 25.05.2020
2461 Clouds 16 1021 42 9000 3 310 13:56 25.05.2020
2462 Clouds 18 1021 39 10000 2 310 13:37 25.05.2020
2463 Clouds 18 1021 39 10000 2 310 13:37 25.05.2020
2464 Clouds 18 1021 39 10000 2 310 13:37 25.05.2020
2465 Clouds 16 1022 45 10000 3 260 13:19 25.05.2020
2466 Clouds 17 1021 41 10000 3 220 12:40 25.05.2020
2467 Clouds 17 1021 45 10000 4 250 12:21 25.05.2020
2468 Clouds 17 1021 45 10000 4 250 11:58 25.05.2020
2469 Rain 16 1021 42 10000 3 210 11:38 25.05.2020
2470 Rain 15 1021 55 10000 2 260 11:18 25.05.2020
2471 Rain 15 1021 51 10000 2 280 10:43 25.05.2020
2472 Rain 14 1021 54 10000 2 250 10:21 25.05.2020
2473 Rain 14 1021 54 10000 2 250 09:57 25.05.2020
2474 Clouds 14 1020 62 10000 2 290 09:38 25.05.2020
2475 Clouds 13 1020 66 10000 1 0 09:19 25.05.2020
2476 Clouds 13 1020 66 10000 1 0 08:57 25.05.2020
2477 Clouds 13 1020 62 10000 1 0 08:36 25.05.2020
2478 Clouds 13 1020 62 10000 1 0 08:36 25.05.2020
2479 Clouds 13 1020 71 10000 2 250 08:18 25.05.2020
2480 Clouds 12 1020 76 10000 2 250 07:43 25.05.2020
2481 Clouds 12 1019 81 10000 3 240 07:21 25.05.2020
2482 Clouds 11 1019 81 10000 3 240 06:50 25.05.2020
2483 Clouds 9 1019 81 10000 2 250 06:31 25.05.2020
2484 Clouds 8 1018 93 10000 1 0 04:18 25.05.2020
2485 Clouds 8 1018 93 10000 2 160 03:23 25.05.2020
2486 Clouds 8 1018 93 10000 2 110 02:45 25.05.2020
2487 Clouds 8 1018 100 10000 1 90 01:54 25.05.2020
2488 Clouds 8 1018 100 10000 1 0 01:28 25.05.2020
2489 Clouds 8 1018 100 10000 1 0 01:28 25.05.2020
2490 Clouds 8 1018 93 8000 1 0 00:38 25.05.2020
2491 Clouds 8 1018 93 8000 1 0 00:19 25.05.2020
2492 Rain 8 1018 100 10000 1 0 23:55 24.05.2020
2493 Rain 8 1018 93 10000 2 130 23:36 24.05.2020
2494 Rain 8 1018 87 10000 1 0 23:18 24.05.2020
2495 Rain 8 1018 87 10000 1 0 23:18 24.05.2020
2496 Rain 8 1018 87 10000 2 220 22:41 24.05.2020
2497 Rain 9 1018 93 10000 2 250 22:19 24.05.2020
2498 Rain 9 1018 93 10000 2 250 21:56 24.05.2020
2499 Rain 9 1018 87 10000 2 250 21:38 24.05.2020
2500 Rain 9 1018 87 10000 2 250 21:20 24.05.2020
2501 Rain 9 1018 87 10000 2 250 20:56 24.05.2020
2502 Rain 9 1018 87 10000 3 250 20:38 24.05.2020
2503 Rain 9 1018 87 10000 3 260 20:18 24.05.2020
2504 Rain 10 1018 87 10000 3 300 19:42 24.05.2020
2505 Rain 11 1018 81 10000 3 290 19:20 24.05.2020
2506 Rain 10 1018 81 10000 3 290 18:59 24.05.2020
2507 Rain 10 1018 81 10000 2 290 18:40 24.05.2020
2508 Clouds 10 1017 81 10000 2 290 18:22 24.05.2020
2509 Rain 10 1017 81 10000 2 290 17:56 24.05.2020
2510 Rain 10 1017 81 10000 1 0 17:37 24.05.2020
2511 Rain 10 1017 81 10000 1 0 17:37 24.05.2020
2512 Rain 10 1017 81 10000 2 360 17:18 24.05.2020
2513 Rain 10 1017 81 10000 3 360 16:39 24.05.2020
2514 Rain 10 1017 81 10000 3 360 16:21 24.05.2020
2515 Rain 10 1017 81 10000 4 350 15:59 24.05.2020
2516 Rain 10 1017 76 10000 3 330 15:40 24.05.2020
2517 Rain 10 1017 76 10000 3 330 15:20 24.05.2020
2518 Rain 10 1017 76 10000 1 0 14:55 24.05.2020
2519 Rain 11 1017 76 10000 2 200 14:37 24.05.2020
2520 Rain 10 1017 76 10000 2 250 14:18 24.05.2020
2521 Clouds 10 1017 76 10000 2 250 13:55 24.05.2020
2522 Rain 10 1017 76 10000 4 280 13:36 24.05.2020
2523 Rain 10 1017 76 10000 4 280 13:36 24.05.2020
2524 Rain 10 1017 70 10000 2 310 13:18 24.05.2020
2525 Rain 11 1017 70 10000 2 310 12:54 24.05.2020
2526 Clouds 10 1017 76 10000 2 310 12:36 24.05.2020
2527 Clouds 10 1017 76 10000 3 330 12:18 24.05.2020
2528 Clouds 10 1017 81 10000 3 350 11:45 24.05.2020
2529 Clouds 9 1017 81 10000 3 350 11:26 24.05.2020
2530 Clouds 10 1017 76 10000 4 330 10:59 24.05.2020
2531 Clouds 10 1017 81 10000 4 340 10:40 24.05.2020
2532 Clouds 10 1017 81 10000 3 350 10:22 24.05.2020
2533 Clouds 10 1017 81 10000 3 350 09:55 24.05.2020
2534 Clouds 9 1018 81 10000 4 350 09:37 24.05.2020
2535 Clouds 10 1018 81 10000 2 360 09:18 24.05.2020
2536 Clouds 9 1018 87 10000 3 320 08:41 24.05.2020
2537 Clouds 9 1018 87 10000 3 320 08:23 24.05.2020
2538 Clouds 8 1018 93 10000 2 320 07:58 24.05.2020
2539 Clouds 8 1018 100 10000 3 320 07:39 24.05.2020
2540 Clouds 9 1018 100 10000 3 320 07:20 24.05.2020
2541 Clouds 9 1018 93 10000 2 350 06:39 24.05.2020
2542 Clouds 6 1018 100 10000 2 340 05:49 24.05.2020
2543 Clouds 6 1018 100 10000 2 350 03:56 24.05.2020
2544 Clouds 6 1018 100 10000 2 350 03:35 24.05.2020
2545 Clouds 7 1019 93 10000 2 360 02:24 24.05.2020
2546 Clouds 7 1019 93 10000 2 360 01:18 24.05.2020
2547 Clouds 6 1019 93 10000 4 20 00:37 24.05.2020
2548 Clouds 6 1019 93 10000 4 20 00:19 24.05.2020
2549 Clouds 7 1019 93 10000 3 10 23:39 23.05.2020
2550 Clouds 7 1019 93 10000 3 10 23:20 23.05.2020
2551 Clouds 7 1019 93 10000 3 10 22:55 23.05.2020
2552 Clouds 7 1019 93 10000 3 10 22:37 23.05.2020
2553 Clouds 8 1019 87 10000 3 20 22:19 23.05.2020
2554 Clouds 8 1019 87 10000 3 360 21:56 23.05.2020
2555 Clouds 8 1019 87 10000 3 360 21:37 23.05.2020
2556 Clouds 8 1019 87 10000 3 360 21:18 23.05.2020
2557 Clouds 8 1019 87 10000 3 360 20:54 23.05.2020
2558 Clouds 8 1020 87 10000 3 360 20:36 23.05.2020
2559 Clouds 8 1020 87 10000 3 10 20:18 23.05.2020
2560 Clouds 8 1019 87 10000 3 10 19:41 23.05.2020
2561 Clouds 8 1020 87 10000 3 350 19:19 23.05.2020
2562 Clouds 9 1020 87 10000 3 350 18:56 23.05.2020
2563 Rain 9 1020 81 10000 4 360 18:37 23.05.2020
2564 Clouds 9 1019 81 10000 5 360 18:19 23.05.2020
2565 Clouds 9 1019 81 10000 5 360 17:54 23.05.2020
2566 Clouds 9 1019 81 10000 5 360 17:54 23.05.2020
2567 Clouds 9 1019 81 10000 2 10 17:36 23.05.2020
2568 Clouds 9 1019 81 10000 3 360 17:18 23.05.2020
2569 Clouds 9 1019 81 10000 3 360 17:18 23.05.2020
2570 Clouds 9 1019 81 10000 3 360 16:55 23.05.2020
2571 Clouds 9 1019 76 10000 4 10 16:37 23.05.2020
2572 Clouds 9 1019 76 10000 3 10 16:18 23.05.2020
2573 Clouds 9 1019 81 10000 3 360 15:42 23.05.2020
2574 Clouds 9 1019 81 10000 3 360 15:23 23.05.2020
2575 Clouds 10 1019 87 10000 3 360 14:55 23.05.2020
2576 Clouds 9 1019 87 10000 3 360 14:36 23.05.2020
2577 Rain 9 1019 76 10000 3 360 14:18 23.05.2020
2578 Clouds 9 1019 81 10000 2 10 13:39 23.05.2020
2579 Rain 8 1019 87 10000 3 40 13:19 23.05.2020
2580 Rain 9 1019 87 10000 4 30 12:43 23.05.2020
2581 Rain 8 1019 87 9000 4 70 12:20 23.05.2020
2582 Rain 8 1019 87 9000 4 70 11:59 23.05.2020
2583 Rain 8 1019 87 10000 2 60 11:41 23.05.2020
2584 Rain 9 1018 81 9000 4 30 11:19 23.05.2020
2585 Rain 8 1018 81 9000 4 30 10:56 23.05.2020
2586 Clouds 8 1018 81 10000 3 70 10:38 23.05.2020
2587 Clouds 7 1018 87 10000 2 40 10:19 23.05.2020
2588 Clouds 7 1018 87 10000 2 40 09:55 23.05.2020
2589 Rain 7 1018 93 10000 2 30 09:37 23.05.2020
2590 Rain 7 1018 87 10000 2 70 09:18 23.05.2020
2591 Rain 6 1018 93 10000 3 50 08:41 23.05.2020
2592 Rain 6 1018 93 10000 3 40 08:19 23.05.2020
2593 Rain 6 1017 93 10000 3 80 07:46 23.05.2020
2594 Rain 6 1017 93 10000 3 80 07:27 23.05.2020
2595 Rain 5 1017 100 10000 2 360 06:45 23.05.2020
2596 Rain 5 1017 100 10000 2 10 06:19 23.05.2020
2597 Rain 4 1016 93 10000 2 30 04:40 23.05.2020
2598 Rain 4 1016 100 10000 2 10 03:27 23.05.2020
2599 Rain 4 1016 93 10000 1 320 02:48 23.05.2020
2600 Rain 4 1016 93 9000 1 0 01:53 23.05.2020
2601 Rain 5 1016 93 9000 2 350 01:20 23.05.2020
2602 Rain 5 1016 93 10000 2 350 00:45 23.05.2020
2603 Rain 5 1016 93 10000 3 360 00:23 23.05.2020
2604 Rain 5 1016 93 10000 3 360 23:56 22.05.2020
2605 Rain 5 1016 93 10000 3 360 23:38 22.05.2020
2606 Rain 5 1016 93 10000 3 360 23:18 22.05.2020
2607 Rain 5 1015 93 10000 3 360 22:42 22.05.2020
2608 Rain 5 1015 93 10000 3 360 22:21 22.05.2020
2609 Rain 5 1015 93 10000 4 10 21:56 22.05.2020
2610 Rain 5 1015 93 10000 4 10 21:56 22.05.2020
2611 Rain 5 1015 93 10000 4 10 21:38 22.05.2020
2612 Rain 5 1015 93 10000 4 10 21:20 22.05.2020
2613 Rain 6 1015 86 10000 3 10 20:45 22.05.2020
2614 Rain 7 1015 86 10000 4 360 20:21 22.05.2020
2615 Rain 7 1015 86 10000 4 360 19:59 22.05.2020
2616 Rain 7 1015 86 10000 5 20 19:37 22.05.2020
2617 Rain 7 1014 87 10000 5 350 19:18 22.05.2020
2618 Clouds 8 1014 81 10000 5 10 18:39 22.05.2020
2619 Clouds 8 1014 87 10000 5 20 18:19 22.05.2020
2620 Clouds 8 1014 75 10000 5 10 17:56 22.05.2020
2621 Clouds 8 1014 75 10000 5 10 17:36 22.05.2020
2622 Clouds 9 1014 75 10000 5 20 17:18 22.05.2020
2623 Clouds 9 1013 70 10000 4 10 16:43 22.05.2020
2624 Clouds 9 1013 70 10000 5 20 16:20 22.05.2020
2625 Clouds 9 1013 70 10000 5 20 15:58 22.05.2020
2626 Clouds 9 1013 70 10000 5 20 15:40 22.05.2020
2627 Clouds 9 1013 70 10000 5 20 15:40 22.05.2020
2628 Clouds 9 1013 70 10000 5 20 15:19 22.05.2020
2629 Clouds 9 1012 70 10000 4 20 14:43 22.05.2020
2630 Clouds 9 1012 70 10000 4 20 14:24 22.05.2020
2631 Clouds 9 1012 81 10000 5 350 13:46 22.05.2020
2632 Clouds 9 1012 81 10000 4 350 13:20 22.05.2020
2633 Clouds 9 1011 81 10000 5 340 12:54 22.05.2020
2634 Clouds 9 1011 81 10000 5 340 12:36 22.05.2020
2635 Rain 9 1011 87 10000 5 360 12:18 22.05.2020
2636 Rain 9 1011 81 10000 5 340 11:42 22.05.2020
2637 Rain 9 1011 81 10000 5 340 11:42 22.05.2020
2638 Clouds 9 1011 81 10000 4 10 11:20 22.05.2020
2639 Clouds 9 1011 81 10000 5 340 11:20 22.05.2020
2640 Clouds 9 1010 81 10000 5 340 10:55 22.05.2020
2641 Clouds 9 1010 81 10000 5 340 10:37 22.05.2020
2642 Clouds 9 1010 81 10000 5 340 10:37 22.05.2020
2643 Rain 9 1010 87 10000 4 330 10:18 22.05.2020
2644 Rain 9 1010 87 10000 5 290 09:42 22.05.2020
2645 Clouds 8 1010 87 10000 4 310 09:19 22.05.2020
2646 Clouds 8 1010 93 10000 3 320 08:44 22.05.2020
2647 Clouds 8 1010 93 10000 3 320 08:44 22.05.2020
2648 Clouds 8 1009 93 10000 4 340 08:22 22.05.2020
2649 Clouds 8 1009 93 10000 4 340 07:57 22.05.2020
2650 Clouds 7 1009 93 10000 4 330 07:27 22.05.2020
2651 Clouds 7 1009 93 10000 4 320 06:59 22.05.2020
2652 Clouds 7 1009 93 10000 3 310 06:40 22.05.2020
2653 Clouds 6 1009 100 10000 3 300 05:53 22.05.2020
2654 Clouds 6 1009 100 10000 3 300 05:32 22.05.2020
2655 Clouds 5 1009 93 10000 3 300 04:44 22.05.2020
2656 Clouds 5 1009 93 10000 4 300 03:49 22.05.2020
2657 Clouds 5 1009 93 10000 4 300 03:28 22.05.2020
2658 Rain 5 1009 93 10000 4 280 01:57 22.05.2020
2659 Rain 4 1009 93 10000 5 270 01:30 22.05.2020
2660 Rain 4 1009 100 10000 4 260 00:50 22.05.2020
2661 Rain 4 1009 100 10000 4 260 00:28 22.05.2020
2662 Rain 4 1009 100 9000 6 250 23:55 21.05.2020
2663 Rain 4 1009 93 9000 5 260 23:37 21.05.2020
2664 Rain 5 1009 93 5000 3 280 23:19 21.05.2020
2665 Rain 5 1009 93 5000 3 280 22:56 21.05.2020
2666 Rain 5 1009 100 7000 4 290 22:36 21.05.2020
2667 Rain 5 1009 100 9000 3 280 22:18 21.05.2020
2668 Rain 5 1009 93 9000 5 270 21:43 21.05.2020
2669 Rain 5 1009 93 9000 5 270 21:25 21.05.2020
2670 Rain 5 1009 93 8000 5 280 20:55 21.05.2020
2671 Rain 6 1009 93 5000 6 290 20:37 21.05.2020
2672 Rain 6 1009 93 5000 6 290 20:19 21.05.2020
2673 Rain 7 1009 86 7000 4 330 19:39 21.05.2020
2674 Rain 7 1009 86 10000 5 340 19:19 21.05.2020
2675 Rain 7 1009 86 10000 5 340 18:41 21.05.2020
2676 Clouds 7 1009 80 10000 5 340 18:21 21.05.2020
2677 Clouds 7 1009 80 10000 5 340 17:59 21.05.2020
2678 Clouds 7 1009 80 10000 5 340 17:59 21.05.2020
2679 Clouds 8 1009 75 10000 5 350 17:41 21.05.2020
2680 Clouds 8 1009 75 10000 5 350 17:22 21.05.2020
2681 Clouds 8 1009 75 10000 5 350 17:22 21.05.2020
2682 Clouds 8 1009 75 10000 5 350 17:22 21.05.2020
2683 Clouds 8 1009 70 10000 6 360 16:47 21.05.2020
2684 Clouds 9 1009 70 10000 6 360 16:25 21.05.2020
2685 Clouds 10 1009 70 10000 6 10 15:57 21.05.2020
2686 Clouds 9 1008 65 10000 5 360 15:38 21.05.2020
2687 Clouds 9 1008 70 10000 6 350 15:20 21.05.2020
2688 Clouds 9 1008 61 10000 5 350 14:41 21.05.2020
2689 Clouds 9 1008 65 10000 5 350 14:19 21.05.2020
2690 Clouds 9 1008 70 10000 6 360 13:42 21.05.2020
2691 Clouds 9 1008 70 10000 6 360 13:23 21.05.2020
2692 Clouds 9 1008 70 10000 5 360 12:59 21.05.2020
2693 Clouds 8 1008 75 10000 5 360 12:38 21.05.2020
2694 Clouds 8 1008 81 10000 5 340 12:19 21.05.2020
2695 Clouds 8 1008 81 10000 5 340 11:55 21.05.2020
2696 Clouds 8 1007 75 10000 5 10 11:37 21.05.2020
2697 Rain 6 1007 81 10000 5 360 11:19 21.05.2020
2698 Clouds 7 1007 87 10000 5 10 10:39 21.05.2020
2699 Rain 7 1007 81 10000 5 330 10:21 21.05.2020
2700 Rain 7 1007 81 10000 5 330 09:57 21.05.2020
2701 Rain 6 1007 86 10000 3 330 09:39 21.05.2020
2702 Rain 5 1006 86 10000 4 330 09:21 21.05.2020
2703 Clouds 5 1006 93 10000 4 350 08:50 21.05.2020
2704 Clouds 5 1006 93 10000 4 350 08:31 21.05.2020
2705 Clouds 5 1006 93 10000 5 350 07:54 21.05.2020
2706 Clouds 5 1006 93 10000 5 10 07:36 21.05.2020
2707 Clouds 4 1005 93 10000 5 10 07:18 21.05.2020
2708 Rain 5 1005 93 10000 5 10 06:26 21.05.2020
2709 Drizzle 5 1005 100 8000 5 320 05:49 21.05.2020
2710 Rain 5 1004 100 10000 4 320 03:47 21.05.2020
2711 Clouds 6 1004 93 10000 4 320 03:20 21.05.2020
2712 Clouds 6 1004 93 10000 3 280 02:31 21.05.2020
2713 Clouds 6 1005 93 10000 3 280 01:50 21.05.2020
2714 Clouds 6 1005 93 10000 3 290 01:24 21.05.2020
2715 Clouds 6 1005 93 10000 3 300 00:54 21.05.2020
2716 Clouds 6 1005 93 10000 3 300 00:26 21.05.2020
2717 Rain 5 1005 93 10000 4 300 23:59 20.05.2020
2718 Clouds 6 1005 93 10000 1 0 23:38 20.05.2020
2719 Clouds 6 1005 93 10000 2 200 23:18 20.05.2020
2720 Clouds 6 1005 93 10000 1 0 22:42 20.05.2020
2721 Clouds 6 1005 93 10000 1 0 22:24 20.05.2020
2722 Clouds 6 1005 93 10000 1 0 21:56 20.05.2020
2723 Clouds 6 1006 93 10000 2 90 21:38 20.05.2020
2724 Clouds 7 1006 93 10000 1 20 21:19 20.05.2020
2725 Clouds 7 1006 93 10000 2 340 20:44 20.05.2020
2726 Clouds 7 1006 93 10000 2 340 20:23 20.05.2020
2727 Rain 7 1005 87 8000 3 90 19:44 20.05.2020
2728 Rain 7 1006 93 9000 5 250 19:25 20.05.2020
2729 -273 0 0 0 0 0 18:59 20.05.2020
2730 Rain 7 1006 87 9000 5 270 18:40 20.05.2020
2731 Thunderstorm 8 1006 70 8000 3 300 18:20 20.05.2020
2732 Thunderstorm 8 1006 70 8000 3 300 18:20 20.05.2020
2733 Rain 10 1005 53 10000 3 360 17:40 20.05.2020
2734 Clouds 11 1005 53 10000 3 320 17:21 20.05.2020
2735 Clouds 11 1005 53 10000 3 320 16:55 20.05.2020
2736 Clouds 12 1005 54 10000 5 340 16:37 20.05.2020
2737 Clouds 12 1005 53 10000 7 320 16:18 20.05.2020
2738 Clouds 13 1005 46 10000 7 310 15:42 20.05.2020
2739 Clouds 13 1005 46 10000 7 310 15:23 20.05.2020
2740 Clouds 15 1005 35 10000 3 290 14:44 20.05.2020
2741 Clouds 14 1005 37 10000 6 280 14:22 20.05.2020
2742 Clouds 14 1005 37 10000 6 280 13:55 20.05.2020
2743 Clouds 13 1005 40 10000 4 250 13:37 20.05.2020
2744 Clouds 14 1005 30 10000 2 220 13:18 20.05.2020
2745 Clouds 13 1005 35 10000 3 70 12:42 20.05.2020
2746 Clouds 14 1006 36 10000 3 70 12:20 20.05.2020
2747 Rain 14 1006 40 9000 7 300 11:37 20.05.2020
2748 Clear 14 1006 37 10000 3 320 11:19 20.05.2020
2749 Clear 13 1006 34 10000 4 290 10:44 20.05.2020
2750 Clear 14 1006 37 10000 2 310 10:22 20.05.2020
2751 Clear 14 1006 37 10000 2 310 09:58 20.05.2020
2752 Clear 12 1006 40 10000 4 290 09:40 20.05.2020
2753 Clear 11 1006 43 10000 3 300 09:20 20.05.2020
2754 Clear 11 1007 50 10000 4 270 08:42 20.05.2020
2755 Clear 11 1007 50 10000 4 270 08:19 20.05.2020
2756 Clear 9 1007 61 10000 2 260 07:50 20.05.2020
2757 Clear 8 1007 70 10000 1 0 07:23 20.05.2020
2758 Clear 10 1007 70 10000 1 0 06:52 20.05.2020
2759 Clear 5 1007 75 10000 2 280 05:59 20.05.2020
2760 Clear 1 1007 67 10000 1 0 04:38 20.05.2020
2761 Clear 1 1007 67 10000 2 260 03:58 20.05.2020
2762 Clear 2 1008 67 10000 2 270 03:27 20.05.2020
2763 Clouds 2 1008 66 10000 2 260 01:41 20.05.2020
2764 Clouds 2 1008 65 10000 2 260 01:23 20.05.2020
2765 Clouds 2 1008 65 10000 3 250 00:40 20.05.2020
2766 Clouds 3 1008 80 10000 2 310 00:20 20.05.2020
2767 Clouds 3 1009 64 10000 2 280 23:36 19.05.2020
2768 Clouds 4 1009 62 10000 2 290 23:18 19.05.2020
2769 Clouds 4 1009 62 10000 2 290 22:54 19.05.2020
2770 Clouds 5 1009 62 10000 2 290 22:36 19.05.2020
2771 Clouds 5 1009 70 10000 3 280 22:18 19.05.2020
2772 Clouds 5 1009 70 10000 3 280 21:55 19.05.2020
2773 Clear 5 1009 75 10000 3 260 21:36 19.05.2020
2774 Clear 6 1009 70 10000 4 250 21:18 19.05.2020
2775 Clear 6 1009 70 10000 4 250 20:54 19.05.2020
2776 Clouds 7 1009 65 10000 4 260 20:36 19.05.2020
2777 Clouds 7 1009 65 10000 4 260 20:36 19.05.2020
2778 Clouds 7 1009 65 10000 3 250 20:18 19.05.2020
2779 Clouds 9 1009 57 10000 4 270 19:38 19.05.2020
2780 Clouds 9 1009 52 10000 6 250 19:19 19.05.2020
2781 Clouds 10 1009 46 10000 5 280 18:44 19.05.2020
2782 Clouds 11 1009 49 10000 4 320 18:23 19.05.2020
2783 Clouds 10 1010 49 10000 5 300 17:58 19.05.2020
2784 Clouds 10 1010 49 10000 5 300 17:39 19.05.2020
2785 Rain 10 1010 46 10000 5 300 17:20 19.05.2020
2786 Clouds 11 1010 46 10000 6 300 16:55 19.05.2020
2787 Rain 12 1010 46 10000 6 280 16:37 19.05.2020
2788 Clouds 11 1010 42 10000 7 260 16:18 19.05.2020
2789 Clouds 11 1009 42 10000 8 260 15:41 19.05.2020
2790 Clouds 11 1009 39 10000 6 270 15:20 19.05.2020
2791 Clouds 11 1009 39 10000 6 270 14:55 19.05.2020
2792 Clouds 11 1009 37 10000 8 300 14:36 19.05.2020
2793 Clouds 11 1009 43 10000 6 300 14:18 19.05.2020
2794 Clouds 11 1009 43 10000 6 300 13:55 19.05.2020
2795 Clouds 11 1010 43 10000 7 280 13:37 19.05.2020
2796 Clouds 12 1009 43 10000 5 300 13:18 19.05.2020
2797 Clouds 12 1009 43 10000 5 300 12:55 19.05.2020
2798 Clouds 11 1010 42 10000 6 270 12:36 19.05.2020
2799 Clouds 10 1010 46 10000 7 300 12:18 19.05.2020
2800 Clouds 10 1010 43 10000 7 280 11:41 19.05.2020
2801 Clouds 9 1010 57 10000 7 290 11:22 19.05.2020
2802 Clouds 10 1010 47 10000 7 280 11:22 19.05.2020
2803 Clouds 8 1010 66 10000 6 280 10:56 19.05.2020
2804 Clouds 8 1010 66 10000 6 280 10:38 19.05.2020
2805 Clouds 8 1010 61 10000 5 300 10:18 19.05.2020
2806 Clouds 7 1010 70 10000 6 310 09:43 19.05.2020
2807 Clouds 7 1010 70 10000 6 310 09:24 19.05.2020
2808 Clouds 6 1009 75 10000 6 290 08:47 19.05.2020
2809 Clouds 6 1009 75 10000 6 290 08:25 19.05.2020
2810 Rain 5 1009 75 10000 6 290 07:48 19.05.2020
2811 Rain 5 1009 75 10000 6 290 07:27 19.05.2020
2812 Rain 5 1009 80 10000 6 300 06:55 19.05.2020
2813 Rain 5 1009 80 10000 5 290 06:31 19.05.2020
2814 Clouds 4 1008 93 10000 5 280 05:43 19.05.2020
2815 Clouds 4 1008 86 10000 5 280 05:19 19.05.2020
2816 Clouds 4 1008 86 10000 5 280 04:36 19.05.2020
2817 Clouds 4 1008 86 10000 6 290 02:24 19.05.2020
2818 Clouds 3 1007 86 10000 5 280 00:48 19.05.2020
2819 Clouds 3 1007 86 10000 5 280 00:29 19.05.2020
2820 Clouds 3 1007 86 10000 5 280 23:59 18.05.2020
2821 Clear 3 1007 86 10000 4 280 23:40 18.05.2020
2822 Clear 4 1006 86 10000 6 280 23:20 18.05.2020
2823 Clear 4 1006 86 10000 6 280 22:55 18.05.2020
2824 Clear 4 1006 86 10000 6 280 22:37 18.05.2020
2825 Clear 3 1006 93 10000 6 270 22:19 18.05.2020
2826 Clear 4 1006 93 10000 4 270 21:42 18.05.2020
2827 Clear 4 1006 93 10000 4 270 21:21 18.05.2020
2828 Clear 4 1005 86 10000 4 260 20:57 18.05.2020
2829 Clear 4 1005 86 10000 4 270 20:37 18.05.2020
2830 Clouds 5 1005 93 10000 4 260 20:19 18.05.2020
2831 Clouds 5 1005 93 10000 4 260 19:54 18.05.2020
2832 Clouds 6 1005 86 10000 5 260 19:36 18.05.2020
2833 Clouds 7 1005 81 10000 4 280 19:18 18.05.2020
2834 Rain 6 1005 86 10000 6 320 18:43 18.05.2020
2835 Clouds 7 1004 75 10000 5 290 18:20 18.05.2020
2836 Clouds 8 1004 75 10000 5 280 17:39 18.05.2020
2837 Clouds 6 1003 87 10000 5 300 17:18 18.05.2020
2838 Clouds 6 1003 87 10000 5 300 16:56 18.05.2020
2839 Clouds 6 1003 87 10000 6 290 16:37 18.05.2020
2840 Clouds 6 1003 87 10000 6 300 16:18 18.05.2020
2841 Clouds 8 1003 93 10000 7 290 15:46 18.05.2020
2842 Clouds 8 1003 93 10000 7 290 15:25 18.05.2020
2843 Clouds 8 1002 87 10000 8 280 14:59 18.05.2020
2844 Rain 9 1002 87 10000 8 270 14:41 18.05.2020
2845 Rain 9 1002 87 10000 8 260 14:23 18.05.2020
2846 Rain 10 1001 93 6000 10 270 13:54 18.05.2020
2847 Rain 11 1001 93 6000 10 270 13:36 18.05.2020
2848 Rain 12 1000 50 10000 7 190 13:18 18.05.2020
2849 Rain 12 1000 50 10000 7 190 12:55 18.05.2020
2850 Clouds 12 1001 54 10000 6 190 12:37 18.05.2020
2851 Clouds 11 1002 50 10000 9 230 12:18 18.05.2020
2852 Clouds 11 1002 50 10000 7 230 11:46 18.05.2020
2853 Clouds 11 1002 50 10000 7 230 11:26 18.05.2020
2854 Clouds 12 1002 50 10000 6 230 10:55 18.05.2020
2855 Clouds 11 1003 50 10000 8 230 10:37 18.05.2020
2856 Clouds 11 1003 62 10000 8 240 10:19 18.05.2020
2857 Clouds 10 1003 71 10000 6 240 09:42 18.05.2020
2858 Clouds 10 1003 71 10000 6 240 09:23 18.05.2020
2859 Clouds 10 1004 81 10000 6 250 08:42 18.05.2020
2860 Rain 9 1004 87 10000 6 250 08:24 18.05.2020
2861 Clouds 8 1004 93 10000 4 240 07:50 18.05.2020
2862 Clouds 8 1004 93 10000 4 240 07:26 18.05.2020
2863 Clouds 8 1004 93 10000 4 240 07:26 18.05.2020
2864 Rain 8 1004 87 9000 6 260 06:50 18.05.2020
2865 Rain 9 1004 87 9000 6 260 06:32 18.05.2020
2866 Rain 9 1005 75 10000 5 240 05:49 18.05.2020
2867 Clouds 8 1005 81 10000 5 250 04:42 18.05.2020
2868 Clouds 9 1005 75 10000 6 240 03:30 18.05.2020
2869 Clouds 9 1005 70 10000 5 230 02:21 18.05.2020
2870 Clouds 9 1006 70 10000 5 210 00:55 18.05.2020
2871 Clouds 9 1006 70 10000 5 210 00:24 18.05.2020
2872 Clouds 9 1007 75 10000 6 210 23:57 17.05.2020
2873 Clouds 9 1007 75 10000 4 200 23:39 17.05.2020
2874 Clouds 9 1007 87 10000 3 170 23:20 17.05.2020
2875 Clouds 8 1007 87 10000 3 170 22:56 17.05.2020
2876 Clouds 8 1008 81 10000 3 170 22:37 17.05.2020
2877 Clouds 7 1008 87 10000 1 0 22:19 17.05.2020
2878 Clouds 8 1008 87 10000 1 0 21:55 17.05.2020
2879 Clouds 7 1008 93 10000 2 140 21:36 17.05.2020
2880 Clear 8 1008 87 10000 2 140 21:18 17.05.2020
2881 Clouds 9 1009 75 10000 2 260 20:41 17.05.2020
2882 Clouds 9 1009 81 10000 4 260 20:20 17.05.2020
2883 Clouds 9 1009 81 10000 4 260 19:57 17.05.2020
2884 Rain 10 1009 81 10000 4 260 19:38 17.05.2020
2885 Rain 10 1009 76 10000 6 270 19:19 17.05.2020
2886 Rain 10 1009 81 9000 7 280 18:42 17.05.2020
2887 Rain 10 1009 81 9000 7 280 18:23 17.05.2020
2888 Rain 10 1008 81 8000 10 220 17:59 17.05.2020
2889 Clouds 12 1009 76 10000 4 240 17:39 17.05.2020
2890 Clouds 12 1009 81 10000 5 300 17:21 17.05.2020
2891 Clouds 13 1009 43 10000 9 240 16:40 17.05.2020
2892 Clouds 13 1009 50 10000 7 250 16:21 17.05.2020
2893 Clouds 13 1009 50 10000 7 250 15:59 17.05.2020
2894 Clouds 13 1009 43 10000 7 270 15:39 17.05.2020
2895 Clouds 13 1009 43 10000 10 260 15:21 17.05.2020
2896 Clouds 13 1009 43 10000 10 260 14:56 17.05.2020
2897 Clouds 14 1009 41 10000 10 260 14:37 17.05.2020
2898 Clouds 14 1009 41 10000 9 250 14:19 17.05.2020
2899 Clouds 13 1009 50 10000 7 310 13:41 17.05.2020
2900 Rain 14 1009 44 10000 9 240 13:20 17.05.2020
2901 Clouds 5 1010 81 10000 5 220 04:53 17.05.2020
2902 Clouds 7 1010 75 10000 5 230 03:30 17.05.2020
2903 Clouds 8 1010 75 10000 5 250 02:24 17.05.2020
2904 Clouds 8 1010 70 10000 6 260 01:50 17.05.2020
2905 Clouds 9 1009 70 10000 5 250 00:45 17.05.2020
2906 Clouds 9 1009 70 10000 5 250 00:24 17.05.2020
2907 Clouds 9 1009 66 10000 6 220 23:42 16.05.2020
2908 Clouds 9 1009 70 10000 4 210 23:21 16.05.2020
2909 Clouds 9 1009 70 10000 4 210 22:59 16.05.2020
2910 Clouds 9 1009 75 10000 3 200 22:41 16.05.2020
2911 Clouds 9 1009 75 10000 3 200 22:21 16.05.2020
2912 Clouds 9 1009 75 10000 2 190 21:56 16.05.2020
2913 Clouds 9 1009 70 10000 4 200 21:37 16.05.2020
2914 Clouds 9 1009 70 10000 2 200 21:19 16.05.2020
2915 Clouds 9 1009 70 10000 2 200 20:55 16.05.2020
2916 Clouds 10 1009 70 10000 2 200 20:36 16.05.2020
2917 Clouds 10 1009 61 10000 2 280 20:18 16.05.2020
2918 Clouds 12 1009 66 10000 2 210 19:42 16.05.2020
2919 Clouds 10 1009 66 10000 2 210 19:23 16.05.2020
2920 Clouds 10 1009 66 10000 2 210 19:23 16.05.2020
2921 Clouds 10 1009 61 10000 3 210 18:57 16.05.2020
2922 Rain 11 1009 57 10000 5 260 18:38 16.05.2020
2923 Rain 12 1009 57 8000 7 280 18:20 16.05.2020
2924 Clouds 14 1009 46 10000 6 260 17:42 16.05.2020
2925 Clouds 14 1009 42 10000 6 260 17:21 16.05.2020
2926 Clouds 14 1009 37 10000 7 240 16:56 16.05.2020
2927 Clouds 14 1009 42 10000 7 250 16:37 16.05.2020
2928 Rain 13 1009 46 10000 8 230 16:18 16.05.2020
2929 Rain 13 1009 41 10000 6 250 15:42 16.05.2020
2930 Rain 12 1009 50 10000 6 220 15:21 16.05.2020
2931 Rain 13 1009 50 10000 6 220 14:59 16.05.2020
2932 Rain 13 1009 53 10000 8 220 14:40 16.05.2020
2933 Rain 12 1009 50 9000 6 270 14:20 16.05.2020
2934 Rain 11 1009 50 9000 6 270 13:55 16.05.2020
2935 Clouds 13 1009 40 10000 4 270 13:36 16.05.2020
2936 Clouds 13 1009 40 10000 4 270 13:18 16.05.2020
2937 Clouds 12 1009 40 10000 6 280 12:42 16.05.2020
2938 Clouds 14 1009 37 10000 5 270 12:19 16.05.2020
2939 Rain 13 1009 43 10000 7 250 11:42 16.05.2020
2940 Clouds 13 1009 39 10000 7 260 11:23 16.05.2020
2941 Clouds 13 1009 39 10000 7 260 10:59 16.05.2020
2942 Clouds 12 1009 43 10000 7 250 10:40 16.05.2020
2943 Rain 12 1009 43 10000 7 270 10:21 16.05.2020
2944 Rain 12 1009 43 10000 7 270 09:58 16.05.2020
2945 Clouds 12 1009 50 10000 6 260 09:38 16.05.2020
2946 Clouds 11 1010 53 10000 5 260 09:18 16.05.2020
2947 Clouds 11 1010 53 10000 5 260 09:18 16.05.2020
2948 Clouds 11 1009 53 10000 5 230 08:42 16.05.2020
2949 Clouds 11 1009 53 10000 5 230 08:21 16.05.2020
2950 Clouds 10 1010 57 10000 4 270 07:43 16.05.2020
2951 Clouds 10 1010 57 10000 4 270 07:24 16.05.2020
2952 Clouds 10 1010 60 10000 4 270 06:57 16.05.2020
2953 Clouds 9 1010 60 10000 4 260 06:36 16.05.2020
2954 Clouds 6 1010 62 10000 4 250 06:18 16.05.2020
2955 Clouds 5 1009 60 10000 4 240 05:31 16.05.2020
2956 Clouds 6 1009 56 10000 4 230 03:35 16.05.2020
2957 Clear 6 1009 56 10000 4 230 02:59 16.05.2020
2958 Clear 6 1009 52 10000 3 210 02:20 16.05.2020
2959 Clear 6 1009 56 10000 3 220 01:45 16.05.2020
2960 Clear 6 1009 56 10000 3 220 01:22 16.05.2020
2961 Clear 6 1009 56 10000 1 0 00:44 16.05.2020
2962 Clear 6 1010 60 10000 1 110 00:21 16.05.2020
2963 Clear 6 1010 60 10000 1 110 00:21 16.05.2020
2964 Clear 6 1010 56 10000 1 0 23:41 15.05.2020
2965 Clear 7 1010 48 10000 1 0 23:20 15.05.2020
2966 Clear 7 1010 48 10000 1 0 22:58 15.05.2020
2967 Clear 7 1010 48 10000 2 200 22:38 15.05.2020
2968 Clear 7 1010 52 10000 2 250 22:18 15.05.2020
2969 Clear 8 1010 42 9000 3 280 21:40 15.05.2020
2970 Clear 8 1010 42 9000 3 280 21:21 15.05.2020
2971 Clear 8 1010 48 10000 3 260 20:59 15.05.2020
2972 Clear 9 1010 42 10000 3 270 20:40 15.05.2020
2973 Clouds 9 1010 42 10000 3 270 20:22 15.05.2020
2974 Clouds 10 1009 36 10000 4 270 19:56 15.05.2020
2975 Clouds 11 1009 31 10000 5 280 19:37 15.05.2020
2976 Clouds 11 1009 29 10000 6 280 19:19 15.05.2020
2977 Clouds 12 1009 32 10000 7 280 18:45 15.05.2020
2978 Clouds 12 1009 32 10000 7 280 18:27 15.05.2020
2979 Rain 11 1009 34 10000 5 300 17:40 15.05.2020
2980 Clouds 13 1009 29 10000 4 290 17:20 15.05.2020
2981 Clouds 11 1009 29 10000 4 290 17:20 15.05.2020
2982 Clouds 12 1009 29 10000 4 290 16:58 15.05.2020
2983 Clouds 12 1009 32 10000 5 300 16:39 15.05.2020
2984 Clouds 13 1009 29 10000 7 310 16:19 15.05.2020
2985 Clouds 12 1009 32 10000 5 300 16:19 15.05.2020
2986 Clouds 12 1009 29 10000 7 310 15:58 15.05.2020
2987 Clouds 13 1009 34 10000 5 260 15:39 15.05.2020
2988 Clouds 13 1009 34 10000 5 260 15:19 15.05.2020
2989 Clouds 12 1009 39 10000 4 310 14:42 15.05.2020
2990 Clouds 12 1009 39 10000 4 310 14:24 15.05.2020
2991 Clouds 12 1009 37 10000 7 260 13:59 15.05.2020
2992 Clouds 11 1009 37 10000 5 290 13:39 15.05.2020
2993 Clouds 12 1009 39 9000 7 290 13:20 15.05.2020
2994 Clouds 12 1009 37 10000 8 300 12:40 15.05.2020
2995 Clouds 12 1008 29 10000 6 300 12:19 15.05.2020
2996 Clouds 12 1008 29 10000 6 300 11:57 15.05.2020
2997 Clouds 12 1008 27 10000 6 290 11:39 15.05.2020
2998 Clouds 12 1008 27 10000 6 290 11:21 15.05.2020
2999 Clouds 11 1008 29 10000 5 290 10:59 15.05.2020
3000 Clouds 11 1008 32 10000 6 310 10:40 15.05.2020
3001 Clouds 11 1008 32 10000 6 310 10:40 15.05.2020
3002 Clouds 11 1008 46 10000 3 330 10:21 15.05.2020
3003 Clouds 10 1008 46 10000 3 330 09:58 15.05.2020
3004 Clouds 11 1009 42 10000 2 330 09:37 15.05.2020
3005 Clouds 10 1009 61 10000 3 350 09:18 15.05.2020
3006 Clouds 10 1009 61 10000 3 350 08:56 15.05.2020
3007 Rain 10 1009 61 10000 5 340 08:37 15.05.2020
3008 Clouds 10 1008 49 10000 6 330 08:18 15.05.2020
3009 Clouds 10 1008 57 10000 4 340 07:42 15.05.2020
3010 Clouds 10 1008 57 10000 4 340 07:24 15.05.2020
3011 Clouds 8 1008 75 10000 3 330 06:38 15.05.2020
3012 Clouds 7 1007 70 10000 3 320 05:49 15.05.2020
3013 Clouds 7 1007 70 10000 2 330 04:27 15.05.2020
3014 Clouds 7 1007 81 10000 3 260 03:40 15.05.2020
3015 Clouds 8 1008 81 10000 3 260 02:30 15.05.2020
3016 Clouds 8 1008 70 10000 4 260 01:19 15.05.2020
3017 Clouds 8 1008 70 10000 4 260 00:46 15.05.2020
3018 Clouds 8 1008 70 10000 4 260 00:28 15.05.2020
3019 Clouds 9 1008 65 10000 4 250 23:44 14.05.2020
3020 Clouds 9 1008 61 10000 2 290 23:21 14.05.2020
3021 Clouds 9 1008 61 10000 2 290 22:57 14.05.2020
3022 Clouds 9 1008 53 10000 2 210 22:39 14.05.2020
3023 Clouds 9 1008 57 10000 1 0 22:19 14.05.2020
3024 Clouds 9 1008 46 10000 2 170 21:56 14.05.2020
3025 Clouds 9 1008 46 10000 2 170 21:37 14.05.2020
3026 Clouds 10 1008 30 10000 3 360 21:19 14.05.2020
3027 Clouds 10 1008 29 9000 2 360 20:43 14.05.2020
3028 Rain 10 1008 29 9000 2 360 20:21 14.05.2020
3029 Clouds 10 1008 27 10000 3 350 19:59 14.05.2020
3030 Clouds 11 1008 27 10000 3 350 19:40 14.05.2020
3031 Clouds 11 1008 27 10000 3 360 19:21 14.05.2020
3032 Clouds 11 1008 27 10000 3 360 18:58 14.05.2020
3033 Rain 13 1008 26 10000 4 330 18:38 14.05.2020
3034 Clouds 13 1008 26 10000 4 330 18:20 14.05.2020
3035 Clouds 13 1008 34 10000 3 250 17:59 14.05.2020
3036 Clouds 14 1008 50 10000 3 220 17:37 14.05.2020
3037 Clouds 13 1008 47 10000 5 200 17:19 14.05.2020
3038 Clouds 13 1008 47 10000 5 200 16:58 14.05.2020
3039 Clouds 14 1008 35 10000 6 260 16:38 14.05.2020
3040 Clouds 14 1008 35 10000 6 260 16:19 14.05.2020
3041 Clouds 14 1008 28 10000 6 250 15:56 14.05.2020
3042 Clouds 14 1008 28 10000 7 260 15:38 14.05.2020
3043 Clouds 14 1008 28 10000 8 240 15:19 14.05.2020
3044 Clouds 14 1008 28 10000 8 240 14:55 14.05.2020
3045 Clouds 13 1009 28 10000 8 260 14:36 14.05.2020
3046 Rain 13 1008 28 10000 8 250 14:18 14.05.2020
3047 Rain 13 1009 30 10000 10 250 13:44 14.05.2020
3048 Rain 12 1009 30 10000 8 240 13:20 14.05.2020
3049 Rain 12 1009 30 10000 8 240 12:59 14.05.2020
3050 Rain 11 1009 37 10000 5 260 12:40 14.05.2020
3051 Rain 12 1009 37 10000 5 260 12:21 14.05.2020
3052 Clouds 12 1009 61 10000 7 200 11:59 14.05.2020
3053 Rain 12 1009 43 10000 7 210 11:40 14.05.2020
3054 Rain 13 1009 43 10000 7 210 11:22 14.05.2020
3055 Rain 12 1009 46 9000 7 240 10:57 14.05.2020
3056 Clouds 11 1009 46 10000 5 200 10:38 14.05.2020
3057 Clouds 11 1009 46 10000 5 200 10:20 14.05.2020
3058 Clouds 11 1010 61 10000 8 210 09:42 14.05.2020
3059 Clouds 10 1010 50 10000 8 220 09:23 14.05.2020
3060 Rain 10 1010 46 10000 6 190 08:43 14.05.2020
3061 Clouds 10 1010 49 10000 5 200 08:21 14.05.2020
3062 Clouds 10 1010 49 10000 5 200 07:47 14.05.2020
3063 Clouds 10 1010 49 10000 5 200 07:26 14.05.2020
3064 Clouds 9 1010 49 10000 4 200 06:56 14.05.2020
3065 Clouds 8 1011 45 10000 5 210 06:34 14.05.2020
3066 Clouds 8 1011 52 10000 5 200 05:59 14.05.2020
3067 Clouds 8 1011 52 10000 4 210 05:37 14.05.2020
3068 Clouds 7 1011 56 10000 3 180 04:43 14.05.2020
3069 Clouds 7 1011 56 10000 3 190 03:32 14.05.2020
3070 Clouds 8 1012 52 10000 5 220 02:43 14.05.2020
3071 Clouds 8 1012 52 10000 5 220 02:20 14.05.2020
3072 Clouds 7 1012 52 10000 3 210 01:47 14.05.2020
3073 Clouds 8 1012 52 10000 4 230 00:51 14.05.2020
3074 Clouds 8 1012 52 10000 4 230 00:27 14.05.2020
3075 Clouds 9 1012 48 10000 3 210 23:45 13.05.2020
3076 Clouds 9 1012 48 10000 3 210 23:23 13.05.2020
3077 Clouds 9 1012 45 10000 4 210 22:59 13.05.2020
3078 Clouds 9 1012 45 10000 3 210 22:39 13.05.2020
3079 Clouds 9 1012 45 10000 3 210 22:21 13.05.2020
3080 Clouds 9 1012 45 10000 3 210 21:57 13.05.2020
3081 Clouds 9 1012 42 10000 3 210 21:39 13.05.2020
3082 Clouds 9 1012 42 10000 3 220 21:19 13.05.2020
3083 Clouds 10 1011 39 10000 5 240 20:41 13.05.2020
3084 Clouds 9 1011 45 10000 5 260 20:23 13.05.2020
3085 Clouds 10 1011 36 10000 6 260 19:57 13.05.2020
3086 Clouds 10 1011 36 10000 6 260 19:39 13.05.2020
3087 Clouds 11 1011 31 10000 6 280 19:21 13.05.2020
3088 Clouds 11 1011 34 10000 5 260 18:42 13.05.2020
3089 Clouds 11 1011 34 10000 5 260 18:21 13.05.2020
3090 Clouds 11 1010 31 10000 8 260 17:57 13.05.2020
3091 Clouds 11 1010 31 10000 8 260 17:37 13.05.2020
3092 Clouds 12 1010 29 10000 7 280 17:18 13.05.2020
3093 Clouds 12 1010 29 10000 7 280 17:18 13.05.2020
3094 Clouds 12 1010 27 10000 8 270 16:40 13.05.2020
3095 Clouds 11 1010 27 10000 8 260 16:19 13.05.2020
3096 Clouds 12 1010 27 10000 8 260 15:55 13.05.2020
3097 Clouds 12 1010 27 10000 8 260 15:36 13.05.2020
3098 Clouds 13 1010 25 10000 7 290 15:18 13.05.2020
3099 Clouds 11 1010 25 10000 7 290 14:42 13.05.2020
3100 Clouds 11 1010 25 10000 7 290 14:42 13.05.2020
3101 Clouds 12 1009 25 10000 9 280 14:23 13.05.2020
3102 Clouds 12 1009 25 10000 9 280 13:58 13.05.2020
3103 Clouds 11 1009 29 10000 10 290 13:40 13.05.2020
3104 Clouds 11 1009 29 10000 10 290 13:21 13.05.2020
3105 Clouds 11 1009 29 10000 7 290 12:58 13.05.2020
3106 Clouds 10 1009 34 10000 9 280 12:39 13.05.2020
3107 Clouds 10 1008 36 10000 9 300 12:20 13.05.2020
3108 Clouds 10 1008 36 10000 9 300 11:56 13.05.2020
3109 Clouds 10 1008 36 10000 9 300 11:56 13.05.2020
3110 Clouds 9 1008 36 10000 9 290 11:37 13.05.2020
3111 Clouds 9 1008 42 10000 9 290 11:19 13.05.2020
3112 Clouds 9 1007 45 10000 10 300 10:56 13.05.2020
3113 Clouds 9 1007 45 10000 10 300 10:38 13.05.2020
3114 Clouds 8 1007 56 10000 7 300 10:19 13.05.2020
3115 Clouds 7 1007 60 9000 8 300 09:46 13.05.2020
3116 Clouds 7 1007 60 9000 8 300 09:24 13.05.2020
3117 Clouds 5 1005 60 10000 8 300 08:58 13.05.2020
3118 Clouds 5 1005 60 10000 8 300 08:39 13.05.2020
3119 Clouds 5 1005 67 10000 9 300 08:20 13.05.2020
3120 Clouds 4 1004 86 10000 8 290 07:51 13.05.2020
3121 Clouds 4 1004 86 10000 8 290 07:31 13.05.2020
3122 Rain 4 1003 86 10000 8 290 06:52 13.05.2020
3123 Rain 4 1003 86 10000 8 290 06:33 13.05.2020
3124 Rain 3 1001 93 10000 8 290 05:34 13.05.2020
3125 Rain 4 999 86 10000 8 290 03:37 13.05.2020
3126 Clouds 4 998 86 10000 9 280 02:37 13.05.2020
3127 Clouds 5 997 86 10000 9 280 01:46 13.05.2020
3128 Rain 6 996 86 10000 8 280 00:56 13.05.2020
3129 Rain 7 995 93 6000 7 280 00:23 13.05.2020
3130 Rain 8 995 93 6000 7 280 23:58 12.05.2020
3131 Rain 8 994 93 10000 9 270 23:39 12.05.2020
3132 Clouds 14 993 82 10000 9 260 23:18 12.05.2020
3133 Rain 15 992 87 9000 5 210 22:42 12.05.2020
3134 Rain 16 992 87 9000 5 210 22:22 12.05.2020
3135 Clouds 16 992 87 10000 5 210 21:57 12.05.2020
3136 Clouds 16 992 82 10000 6 210 21:38 12.05.2020
3137 Clouds 16 992 82 10000 6 210 21:38 12.05.2020
3138 Clouds 16 992 82 10000 6 210 21:20 12.05.2020
3139 Clouds 17 992 82 10000 6 200 20:59 12.05.2020
3140 Clouds 16 993 82 10000 7 200 20:40 12.05.2020
3141 Clouds 16 993 82 10000 6 190 20:21 12.05.2020
3142 Rain 16 993 82 10000 6 190 19:58 12.05.2020
3143 Rain 16 993 82 10000 8 180 19:40 12.05.2020
3144 Rain 17 992 72 10000 7 180 19:21 12.05.2020
3145 Rain 17 992 72 10000 7 180 18:56 12.05.2020
3146 Rain 17 993 77 10000 6 200 18:38 12.05.2020
3147 Rain 17 993 77 10000 6 200 18:20 12.05.2020
3148 Rain 18 993 72 10000 6 220 17:43 12.05.2020
3149 Rain 18 993 72 10000 6 220 17:24 12.05.2020
3150 Rain 20 993 40 10000 7 190 16:47 12.05.2020
3151 Rain 20 993 40 10000 7 190 16:26 12.05.2020
3152 Rain 21 993 35 10000 6 190 15:57 12.05.2020
3153 Clouds 22 993 35 10000 8 190 15:39 12.05.2020
3154 Clouds 22 993 35 10000 8 190 15:39 12.05.2020
3155 Clouds 22 993 35 10000 8 190 15:19 12.05.2020
3156 Clouds 21 993 35 10000 6 200 14:58 12.05.2020
3157 Rain 22 993 33 10000 8 170 14:39 12.05.2020
3158 Clouds 22 993 33 10000 8 170 14:20 12.05.2020
3159 Rain 22 993 33 10000 8 170 13:59 12.05.2020
3160 Rain 21 993 36 10000 7 180 13:41 12.05.2020
3161 Rain 21 994 33 10000 7 160 13:20 12.05.2020
3162 Rain 21 994 33 10000 7 160 12:58 12.05.2020
3163 Rain 24 994 36 10000 8 170 12:40 12.05.2020
3164 Rain 24 994 36 10000 8 170 12:40 12.05.2020
3165 Rain 24 994 36 10000 8 170 12:40 12.05.2020
3166 Rain 23 994 36 10000 7 180 12:22 12.05.2020
3167 Rain 23 994 36 10000 7 180 11:58 12.05.2020
3168 Rain 24 995 33 10000 6 180 11:39 12.05.2020
3169 Rain 23 995 33 10000 8 170 11:21 12.05.2020
3170 Rain 23 995 33 10000 8 170 10:59 12.05.2020
3171 Rain 23 995 33 10000 8 170 10:59 12.05.2020
3172 Rain 24 995 31 10000 8 160 10:41 12.05.2020
3173 Clear 23 995 31 10000 7 170 10:22 12.05.2020
3174 Clear 21 995 31 10000 7 170 09:59 12.05.2020
3175 Clouds 21 996 33 10000 6 160 09:40 12.05.2020
3176 Clouds 21 996 33 10000 6 160 09:21 12.05.2020
3177 Clouds 21 996 33 10000 6 160 09:21 12.05.2020
3178 Clouds 20 996 33 10000 7 170 08:59 12.05.2020
3179 Clouds 19 996 40 10000 6 150 08:38 12.05.2020
3180 Clouds 19 996 40 10000 6 150 08:19 12.05.2020
3181 Clouds 18 997 39 10000 4 150 07:42 12.05.2020
3182 Clouds 18 997 39 10000 4 150 07:24 12.05.2020
3183 Clouds 17 998 45 10000 6 160 06:50 12.05.2020
3184 Clouds 16 998 45 10000 6 160 06:29 12.05.2020
3185 Clouds 15 998 48 10000 4 170 05:54 12.05.2020
3186 Clouds 14 998 48 10000 4 160 05:35 12.05.2020
3187 Clouds 14 999 47 10000 3 160 03:43 12.05.2020
3188 Clouds 15 1000 44 10000 3 170 02:53 12.05.2020
3189 Clouds 15 1000 44 10000 3 170 02:25 12.05.2020
3190 Clear 15 1001 38 10000 4 170 01:27 12.05.2020
3191 Clear 15 1001 36 10000 4 170 00:37 12.05.2020
3192 Clear 15 1002 74 10000 4 180 00:18 12.05.2020
3193 Clear 15 1002 31 10000 4 170 23:42 11.05.2020
3194 Clear 15 1002 31 10000 4 170 23:22 11.05.2020
3195 Clear 16 1002 31 10000 4 180 22:59 11.05.2020
3196 Clear 16 1002 31 10000 4 180 22:59 11.05.2020
3197 Clear 16 1002 33 10000 3 170 22:41 11.05.2020
3198 Clear 16 1002 33 10000 3 170 22:21 11.05.2020
3199 Clear 16 1002 29 10000 3 170 21:59 11.05.2020
3200 Clear 16 1003 29 10000 3 170 21:40 11.05.2020
3201 Clouds 17 1003 26 10000 2 160 21:20 11.05.2020
3202 Clouds 17 1003 26 10000 2 160 20:59 11.05.2020
3203 Clouds 17 1003 25 10000 3 160 20:40 11.05.2020
3204 Clouds 18 1003 23 10000 3 180 20:21 11.05.2020
3205 Clouds 17 1003 23 10000 3 180 19:58 11.05.2020
3206 Clear 18 1003 20 10000 3 210 19:40 11.05.2020
3207 Clear 18 1003 20 10000 4 220 19:21 11.05.2020
3208 Clear 18 1003 18 10000 5 230 18:56 11.05.2020
3209 Clear 18 1003 18 10000 5 230 18:38 11.05.2020
3210 Clear 18 1003 16 10000 6 230 18:18 11.05.2020
3211 Clear 18 1003 16 10000 6 230 17:57 11.05.2020
3212 Clear 19 1004 19 10000 5 240 17:38 11.05.2020
3213 Clear 19 1004 20 10000 7 240 17:19 11.05.2020
3214 Clear 19 1004 16 10000 6 220 16:42 11.05.2020
3215 Clear 19 1004 16 10000 6 220 16:23 11.05.2020
3216 Clear 19 1004 18 10000 5 210 15:59 11.05.2020
3217 Clear 19 1004 22 10000 4 220 15:40 11.05.2020
3218 Clear 19 1004 22 10000 4 220 15:19 11.05.2020
3219 Clear 19 1005 20 10000 4 250 14:57 11.05.2020
3220 Clear 20 1005 20 10000 4 230 14:39 11.05.2020
3221 Clear 19 1005 20 10000 4 230 14:21 11.05.2020
3222 Clear 19 1005 22 10000 3 200 13:42 11.05.2020
3223 Clear 19 1005 22 10000 3 200 13:22 11.05.2020
3224 Clear 19 1006 24 10000 2 260 12:59 11.05.2020
3225 Clear 18 1006 23 10000 3 230 12:41 11.05.2020
3226 Rain 18 1006 23 10000 3 230 12:22 11.05.2020
3227 Rain 18 1006 25 10000 4 270 11:57 11.05.2020
3228 Clear 18 1006 27 10000 2 280 11:39 11.05.2020
3229 Clear 18 1006 27 10000 2 280 11:21 11.05.2020
3230 Clear 17 1007 22 10000 3 280 10:57 11.05.2020
3231 Clear 17 1007 25 10000 4 260 10:38 11.05.2020
3232 Clear 17 1007 25 10000 4 260 10:38 11.05.2020
3233 Clear 17 1007 31 10000 3 250 10:20 11.05.2020
3234 Clear 17 1007 31 10000 3 250 09:57 11.05.2020
3235 Clear 16 1007 26 10000 4 300 09:39 11.05.2020
3236 Clear 16 1007 29 10000 4 290 09:19 11.05.2020
3237 Clear 15 1007 30 10000 4 340 08:44 11.05.2020
3238 Clouds 15 1007 30 10000 4 340 08:25 11.05.2020
3239 Clouds 15 1007 33 10000 3 300 07:59 11.05.2020
3240 Clouds 15 1007 35 10000 2 300 07:41 11.05.2020
3241 Clouds 14 1007 35 10000 2 330 07:23 11.05.2020
3242 Clouds 13 1007 50 10000 2 290 06:39 11.05.2020
3243 Clouds 10 1007 53 10000 2 290 05:54 11.05.2020
3244 Clouds 11 1007 58 10000 2 300 05:23 11.05.2020
3245 Clouds 9 1007 58 10000 2 320 03:56 11.05.2020
3246 Clouds 11 1007 43 10000 2 320 02:37 11.05.2020
3247 Clouds 11 1007 59 10000 2 330 02:19 11.05.2020
3248 Clouds 11 1007 59 10000 2 350 01:23 11.05.2020
3249 Clouds 11 1007 46 10000 2 340 00:42 11.05.2020
3250 Clouds 12 1007 46 10000 2 320 00:19 11.05.2020
3251 Clouds 12 1007 46 10000 2 340 23:42 10.05.2020
3252 Clouds 12 1007 46 10000 2 340 23:20 10.05.2020
3253 Clouds 13 1007 55 10000 2 360 22:55 10.05.2020
3254 Clouds 13 1007 55 10000 3 350 22:37 10.05.2020
3255 Clouds 13 1007 43 10000 2 340 22:18 10.05.2020
3256 Clouds 13 1007 53 10000 3 350 21:43 10.05.2020
3257 Clouds 14 1007 50 10000 2 350 21:19 10.05.2020
3258 Rain 14 1007 53 10000 3 360 20:43 10.05.2020
3259 Rain 14 1007 35 10000 3 20 20:25 10.05.2020
3260 Rain 14 1007 35 10000 3 20 20:25 10.05.2020
3261 Rain 14 1007 35 10000 3 20 19:59 10.05.2020
3262 Clouds 14 1007 33 10000 3 10 19:40 10.05.2020
3263 Clouds 14 1007 33 10000 3 10 19:22 10.05.2020
3264 Clouds 15 1007 33 10000 2 340 18:57 10.05.2020
3265 Clouds 15 1006 56 10000 4 350 18:37 10.05.2020
3266 Clouds 15 1006 33 10000 4 350 18:19 10.05.2020
3267 Clouds 15 1006 58 10000 4 360 17:58 10.05.2020
3268 Clouds 15 1006 58 10000 4 360 17:40 10.05.2020
3269 Clouds 16 1006 58 10000 5 360 17:21 10.05.2020
3270 Clouds 16 1006 58 10000 5 360 16:56 10.05.2020
3271 Clouds 16 1006 58 10000 5 10 16:38 10.05.2020
3272 Clouds 16 1005 61 10000 6 360 16:19 10.05.2020
3273 Clouds 16 1005 61 10000 7 350 15:44 10.05.2020
3274 Clouds 16 1005 64 10000 7 350 15:25 10.05.2020
3275 Clouds 15 1005 36 10000 7 360 14:58 10.05.2020
3276 Rain 15 1005 64 10000 6 350 14:38 10.05.2020
3277 Rain 15 1005 64 10000 6 350 14:38 10.05.2020
3278 Rain 15 1005 58 10000 6 350 14:20 10.05.2020
3279 Rain 15 1005 38 10000 6 360 13:59 10.05.2020
3280 Clouds 15 1005 58 10000 8 360 13:38 10.05.2020
3281 Rain 15 1005 58 10000 8 360 13:20 10.05.2020
3282 Rain 16 1005 36 10000 9 350 12:57 10.05.2020
3283 Rain 15 1005 31 10000 7 360 12:39 10.05.2020
3284 Rain 15 1005 38 10000 8 360 12:21 10.05.2020
3285 Rain 15 1005 38 10000 8 360 11:57 10.05.2020
3286 Rain 15 1005 33 10000 8 360 11:39 10.05.2020
3287 Rain 15 1005 33 10000 8 360 11:20 10.05.2020
3288 Clouds 16 1005 51 10000 9 360 10:47 10.05.2020
3289 Clouds 15 1005 48 10000 9 360 10:29 10.05.2020
3290 Clouds 15 1005 38 10000 9 360 09:59 10.05.2020
3291 Clouds 15 1005 41 10000 8 360 09:40 10.05.2020
3292 Clouds 13 1005 41 10000 7 360 09:21 10.05.2020
3293 Clouds 14 1004 47 10000 8 350 08:51 10.05.2020
3294 Clouds 13 1004 47 10000 8 350 08:24 10.05.2020
3295 Clouds 13 1005 50 10000 6 350 07:45 10.05.2020
3296 Clouds 13 1005 50 10000 6 350 07:21 10.05.2020
3297 Clouds 13 1005 50 10000 6 340 06:58 10.05.2020
3298 Clouds 13 1005 50 10000 5 350 06:37 10.05.2020
3299 Clouds 11 1005 53 10000 5 350 06:18 10.05.2020
3300 Clouds 11 1005 53 10000 6 350 05:41 10.05.2020
3301 Clouds 11 1005 53 10000 4 350 04:39 10.05.2020
3302 Clouds 12 1005 57 10000 5 350 04:20 10.05.2020
3303 Rain 11 1005 57 10000 5 350 03:39 10.05.2020
3304 Clouds 11 1006 58 10000 3 350 02:53 10.05.2020
3305 Clouds 12 1006 58 10000 3 350 02:24 10.05.2020
3306 Clouds 12 1006 62 10000 3 340 01:43 10.05.2020
3307 Clouds 12 1006 66 10000 3 320 01:23 10.05.2020
3308 Clouds 12 1006 66 10000 3 320 00:57 10.05.2020
3309 Clouds 11 1007 66 10000 3 330 00:36 10.05.2020
3310 Clouds 11 1007 66 10000 3 330 00:18 10.05.2020
3311 Clouds 11 1007 66 10000 2 330 23:39 09.05.2020
3312 Clouds 11 1007 66 10000 2 330 23:20 09.05.2020
3313 Clouds 12 1007 66 10000 2 310 22:54 09.05.2020
3314 Clouds 12 1007 66 10000 2 310 22:36 09.05.2020
3315 Clouds 13 1008 62 10000 2 350 22:18 09.05.2020
3316 Clouds 13 1008 62 10000 2 360 21:55 09.05.2020
3317 Clouds 13 1008 62 10000 2 360 21:36 09.05.2020
3318 Clouds 12 1008 62 10000 2 20 21:18 09.05.2020
3319 Clouds 12 1008 62 10000 2 20 20:54 09.05.2020
3320 Clouds 14 1008 58 10000 3 40 20:36 09.05.2020
3321 Clouds 14 1008 54 10000 4 40 20:18 09.05.2020
3322 Clouds 14 1008 58 10000 2 40 19:39 09.05.2020
3323 Clouds 14 1008 58 10000 2 40 19:20 09.05.2020
3324 Clouds 14 1008 54 10000 2 70 18:55 09.05.2020
3325 Clouds 14 1008 58 10000 2 80 18:37 09.05.2020
3326 Clouds 14 1008 58 10000 2 80 18:37 09.05.2020
3327 Clouds 15 1008 58 10000 3 70 18:18 09.05.2020
3328 Clouds 15 1008 54 10000 4 30 17:41 09.05.2020
3329 Clouds 15 1008 51 10000 4 60 17:22 09.05.2020
3330 Clouds 15 1008 54 10000 4 40 16:41 09.05.2020
3331 Clouds 14 1008 47 10000 5 50 16:20 09.05.2020
3332 Clouds 15 1008 47 10000 5 50 15:54 09.05.2020
3333 Clouds 15 1009 51 10000 4 10 15:36 09.05.2020
3334 Clouds 14 1009 50 10000 5 10 15:18 09.05.2020
3335 Clouds 14 1009 54 10000 4 20 14:42 09.05.2020
3336 Clouds 14 1009 54 10000 4 20 14:20 09.05.2020
3337 Clouds 14 1009 50 10000 5 40 13:58 09.05.2020
3338 Clouds 14 1009 54 10000 4 10 13:40 09.05.2020
3339 Clouds 14 1009 54 10000 4 350 13:20 09.05.2020
3340 Clouds 15 1009 54 10000 4 350 12:55 09.05.2020
3341 Clouds 14 1010 58 10000 6 10 12:37 09.05.2020
3342 Clouds 14 1010 58 10000 6 10 12:19 09.05.2020
3343 Clouds 13 1010 62 10000 5 20 11:42 09.05.2020
3344 Clouds 13 1010 62 10000 5 10 11:19 09.05.2020
3345 Rain 13 1010 71 10000 5 20 10:48 09.05.2020
3346 Rain 13 1010 71 10000 5 20 10:26 09.05.2020
3347 Clouds 13 1011 66 10000 6 10 09:58 09.05.2020
3348 Clouds 12 1011 71 10000 5 10 09:40 09.05.2020
3349 Clouds 11 1011 71 10000 5 10 09:19 09.05.2020
3350 Rain 11 1011 76 10000 5 360 08:51 09.05.2020
3351 Clouds 11 1011 76 10000 5 360 08:33 09.05.2020
3352 Clouds 11 1011 76 10000 5 350 07:55 09.05.2020
3353 Clouds 11 1011 76 10000 3 360 07:36 09.05.2020
3354 Clouds 10 1011 81 10000 3 10 07:18 09.05.2020
3355 Clouds 10 1011 81 10000 3 360 06:26 09.05.2020
3356 Clouds 10 1011 81 10000 3 10 05:49 09.05.2020
3357 Clouds 10 1011 81 10000 3 350 04:53 09.05.2020
3358 Clouds 10 1011 81 10000 3 350 03:39 09.05.2020
3359 Clouds 10 1011 81 10000 3 360 02:53 09.05.2020
3360 Clouds 10 1012 81 10000 3 350 02:23 09.05.2020
3361 Clouds 10 1012 81 10000 3 360 01:47 09.05.2020
3362 Clouds 10 1012 81 10000 2 350 01:20 09.05.2020
3363 Clouds 10 1012 81 10000 3 350 00:40 09.05.2020
3364 Clouds 11 1012 76 10000 3 350 00:18 09.05.2020
3365 Clouds 11 1012 76 10000 3 340 23:43 08.05.2020
3366 Rain 11 1012 76 10000 3 340 23:24 08.05.2020
3367 Rain 11 1012 76 10000 2 340 22:55 08.05.2020
3368 Rain 11 1012 76 10000 2 20 22:37 08.05.2020
3369 Rain 11 1012 76 10000 2 360 22:19 08.05.2020
3370 Rain 11 1012 76 10000 2 360 21:54 08.05.2020
3371 Clouds 11 1012 71 10000 2 360 21:36 08.05.2020
3372 Clouds 11 1012 71 10000 1 0 21:18 08.05.2020
3373 Clouds 11 1012 71 10000 1 0 20:55 08.05.2020
3374 Clouds 11 1012 66 10000 1 0 20:36 08.05.2020
3375 Clouds 11 1012 66 10000 3 20 20:18 08.05.2020
3376 Clouds 11 1012 66 10000 4 20 19:41 08.05.2020
3377 Clouds 11 1012 71 10000 4 20 19:20 08.05.2020
3378 Clouds 11 1011 71 10000 3 360 18:45 08.05.2020
3379 Clouds 11 1011 71 10000 3 360 18:27 08.05.2020
3380 Rain 12 1011 66 10000 3 360 17:43 08.05.2020
3381 Rain 12 1011 71 10000 3 340 17:20 08.05.2020
3382 Clouds 11 1011 71 10000 3 340 16:56 08.05.2020
3383 Clouds 11 1011 66 10000 3 340 16:38 08.05.2020
3384 Rain 12 1011 66 10000 3 340 16:19 08.05.2020
3385 Clouds 11 1011 76 10000 3 350 15:43 08.05.2020
3386 Clouds 12 1011 76 10000 4 340 15:22 08.05.2020
3387 Clouds 12 1011 76 10000 4 340 14:57 08.05.2020
3388 Clouds 12 1011 81 10000 4 350 14:39 08.05.2020
3389 Clouds 12 1011 81 10000 5 350 14:19 08.05.2020
3390 Clouds 12 1011 87 10000 5 320 13:55 08.05.2020
3391 Clouds 12 1011 87 10000 5 320 13:37 08.05.2020
3392 Clouds 12 1010 93 10000 4 340 13:18 08.05.2020
3393 Rain 12 1010 87 10000 5 340 12:42 08.05.2020
3394 Rain 12 1010 87 10000 5 340 12:23 08.05.2020
3395 Clouds 12 1010 93 10000 5 330 11:54 08.05.2020
3396 Clouds 12 1010 100 10000 5 340 11:36 08.05.2020
3397 Rain 12 1010 93 9000 4 340 11:18 08.05.2020
3398 Rain 12 1010 100 9000 5 320 10:42 08.05.2020
3399 Rain 12 1010 87 9000 4 350 10:20 08.05.2020
3400 Rain 12 1010 87 9000 4 350 09:59 08.05.2020
3401 Clouds 12 1009 81 10000 4 310 09:40 08.05.2020
3402 Clouds 13 1009 81 10000 2 300 09:18 08.05.2020
3403 Clouds 12 1009 93 10000 2 320 08:45 08.05.2020
3404 Clouds 11 1009 93 10000 2 320 08:23 08.05.2020
3405 Clouds 10 1008 93 10000 1 0 07:44 08.05.2020
3406 Clouds 10 1008 93 10000 1 0 07:25 08.05.2020
3407 Clouds 9 1008 93 10000 2 270 06:51 08.05.2020
3408 Clouds 9 1008 93 10000 2 270 06:24 08.05.2020
3409 Clouds 9 1007 93 10000 2 240 05:58 08.05.2020
3410 Clouds 8 1006 100 10000 2 210 04:44 08.05.2020
3411 Clear 9 1006 100 10000 3 210 02:54 08.05.2020
3412 Clouds 9 1006 93 10000 3 250 02:21 08.05.2020
3413 Clouds 10 1006 87 10000 4 230 01:31 08.05.2020
3414 Rain 10 1006 93 10000 3 220 00:58 08.05.2020
3415 Rain 11 1005 93 10000 4 230 00:39 08.05.2020
3416 Clouds 11 1006 93 10000 3 260 00:21 08.05.2020
3417 Clouds 12 1005 93 10000 4 250 23:43 07.05.2020
3418 Clouds 12 1005 93 10000 4 250 23:23 07.05.2020
3419 Clouds 12 1005 93 10000 4 250 23:23 07.05.2020
3420 Clouds 12 1005 100 9000 4 260 22:57 07.05.2020
3421 Clouds 12 1005 100 10000 4 250 22:57 07.05.2020
3422 Clouds 12 1005 100 9000 4 260 22:39 07.05.2020
3423 Clouds 12 1005 100 9000 4 260 22:20 07.05.2020
3424 Mist 13 1004 93 10000 3 210 21:56 07.05.2020
3425 Mist 13 1004 93 10000 3 210 21:37 07.05.2020
3426 Mist 14 1004 93 9000 3 220 21:19 07.05.2020
3427 Clouds 14 1004 87 10000 2 210 20:43 07.05.2020
3428 Clouds 14 1004 87 10000 2 210 20:24 07.05.2020
3429 Clouds 14 1003 87 10000 2 220 19:59 07.05.2020
3430 Clouds 14 1003 87 10000 3 220 19:40 07.05.2020
3431 Rain 15 1003 82 10000 3 220 19:21 07.05.2020
3432 Rain 14 1003 87 10000 3 220 18:46 07.05.2020
3433 Rain 14 1003 87 10000 3 220 18:46 07.05.2020
3434 Rain 15 1003 87 10000 3 220 18:28 07.05.2020
3435 Clouds 16 1003 87 10000 3 220 17:57 07.05.2020
3436 Clouds 17 1002 87 10000 3 220 17:37 07.05.2020
3437 Rain 15 1002 87 10000 3 240 17:19 07.05.2020
3438 Clouds 16 1002 87 10000 3 250 16:41 07.05.2020
3439 Rain 15 1002 93 9000 6 240 16:19 07.05.2020
3440 Rain 15 1002 93 9000 6 240 15:57 07.05.2020
3441 Rain 17 1002 67 7000 8 190 15:37 07.05.2020
3442 Rain 18 1000 48 10000 6 180 15:18 07.05.2020
3443 Rain 18 1000 48 8000 7 190 14:46 07.05.2020
3444 Rain 18 1000 45 10000 5 160 14:23 07.05.2020
3445 Rain 17 1000 45 10000 5 160 13:58 07.05.2020
3446 Rain 18 1000 45 10000 6 150 13:40 07.05.2020
3447 Rain 18 1000 45 10000 6 150 13:40 07.05.2020
3448 Rain 17 1000 45 10000 5 170 13:21 07.05.2020
3449 Clouds 19 1000 48 10000 5 180 12:41 07.05.2020
3450 Clouds 20 1000 48 10000 6 190 12:20 07.05.2020
3451 Clouds 19 1001 52 10000 7 190 11:40 07.05.2020
3452 Clouds 19 1000 55 10000 6 200 11:21 07.05.2020
3453 Clouds 19 1000 55 10000 6 200 10:57 07.05.2020
3454 Clouds 19 1000 59 10000 7 210 10:38 07.05.2020
3455 Clouds 19 1000 63 10000 7 210 10:19 07.05.2020
3456 Clouds 17 1000 72 10000 7 190 09:39 07.05.2020
3457 Clouds 16 1000 77 10000 7 220 09:20 07.05.2020
3458 Clouds 16 1000 77 10000 7 220 09:20 07.05.2020
3459 Clouds 16 1000 77 10000 7 220 08:54 07.05.2020
3460 Clouds 16 1000 82 10000 5 210 08:36 07.05.2020
3461 Clouds 15 1000 87 10000 6 210 08:18 07.05.2020
3462 Clouds 15 1000 87 10000 6 200 07:41 07.05.2020
3463 Clouds 15 999 87 10000 6 200 07:21 07.05.2020
3464 Clouds 13 999 87 10000 6 190 06:38 07.05.2020
3465 Clouds 12 999 87 10000 5 190 06:19 07.05.2020
3466 Clouds 13 999 93 10000 3 180 04:41 07.05.2020
3467 Clouds 13 999 87 10000 3 190 03:50 07.05.2020
3468 Clouds 13 1000 100 10000 3 180 03:21 07.05.2020
3469 Clouds 13 1000 93 10000 3 160 02:41 07.05.2020
3470 Clouds 13 1000 93 10000 2 160 01:41 07.05.2020
3471 Clouds 13 1000 93 10000 2 160 01:23 07.05.2020
3472 Clouds 14 1000 93 10000 3 130 00:44 07.05.2020
3473 Clouds 14 1000 93 10000 3 130 00:25 07.05.2020
3474 Clouds 14 1001 93 10000 2 140 23:46 06.05.2020
3475 Clouds 14 1001 93 10000 2 140 23:24 06.05.2020
3476 Clouds 15 1001 93 9000 2 150 22:57 06.05.2020
3477 Clouds 15 1001 93 10000 3 150 22:39 06.05.2020
3478 Clouds 15 1001 93 10000 3 160 22:19 06.05.2020
3479 Clouds 15 1001 93 10000 3 160 21:56 06.05.2020
3480 Clouds 15 1001 93 10000 3 150 21:38 06.05.2020
3481 Clouds 15 1001 93 10000 3 150 21:38 06.05.2020
3482 Clouds 15 1001 87 10000 3 150 21:19 06.05.2020
3483 Clouds 16 1001 87 10000 3 130 20:42 06.05.2020
3484 Clouds 16 1001 87 10000 3 130 20:23 06.05.2020
3485 Clouds 16 1001 87 10000 3 130 20:23 06.05.2020
3486 Clouds 16 1001 93 10000 2 140 19:58 06.05.2020
3487 Clouds 17 1001 93 10000 2 150 19:39 06.05.2020
3488 Clouds 17 1001 93 10000 2 150 19:19 06.05.2020
3489 Clouds 16 1001 93 10000 2 150 18:59 06.05.2020
3490 Rain 17 1002 93 9000 3 140 18:39 06.05.2020
3491 Rain 17 1002 93 10000 3 120 18:21 06.05.2020
3492 Clouds 17 1002 93 10000 4 130 17:58 06.05.2020
3493 Clouds 17 1002 93 10000 4 130 17:39 06.05.2020
3494 Clouds 17 1002 93 10000 4 130 17:21 06.05.2020
3495 Rain 17 1002 93 10000 4 130 16:58 06.05.2020
3496 Rain 17 1002 93 10000 4 120 16:40 06.05.2020
3497 Rain 17 1002 93 10000 3 140 16:21 06.05.2020
3498 Rain 16 1002 93 10000 3 140 15:58 06.05.2020
3499 Rain 16 1002 93 9000 3 150 15:40 06.05.2020
3500 Rain 16 1002 93 9000 3 150 15:20 06.05.2020
3501 Rain 17 1002 72 10000 5 150 14:45 06.05.2020
3502 Rain 17 1002 68 10000 3 150 14:20 06.05.2020
3503 Clouds 17 1002 68 10000 3 150 13:59 06.05.2020
3504 Rain 17 1003 77 10000 2 160 13:41 06.05.2020
3505 Rain 17 1003 77 10000 2 160 13:22 06.05.2020
3506 Rain 18 1003 88 9000 5 140 12:54 06.05.2020
3507 Rain 18 1003 88 9000 5 140 12:36 06.05.2020
3508 Clouds 19 1003 64 10000 4 130 12:18 06.05.2020
3509 Clouds 18 1003 68 10000 6 140 11:40 06.05.2020
3510 Clouds 18 1003 68 10000 6 140 11:21 06.05.2020
3511 Clouds 19 1004 68 10000 5 120 10:57 06.05.2020
3512 Clouds 19 1004 72 10000 4 120 10:37 06.05.2020
3513 Clouds 19 1004 77 10000 5 110 10:18 06.05.2020
3514 Clouds 19 1004 77 10000 4 120 09:43 06.05.2020
3515 Clouds 18 1005 82 10000 4 130 09:22 06.05.2020
3516 Clouds 17 1005 82 10000 4 120 08:49 06.05.2020
3517 Clouds 16 1005 82 10000 4 140 08:23 06.05.2020
3518 Clouds 16 1005 82 10000 4 140 07:59 06.05.2020
3519 Clouds 17 1005 87 10000 4 140 07:39 06.05.2020
3520 Clouds 17 1005 87 10000 3 150 07:20 06.05.2020
3521 Clouds 16 1005 87 10000 3 150 06:53 06.05.2020
3522 Clouds 14 1005 93 10000 3 170 06:22 06.05.2020
3523 Clouds 14 1005 100 10000 3 190 05:55 06.05.2020
3524 Clouds 14 1004 93 9000 3 180 05:37 06.05.2020
3525 Clouds 14 1004 93 9000 3 180 05:37 06.05.2020
3526 Clouds 14 1005 100 9000 2 140 04:38 06.05.2020
3527 Clouds 14 1005 100 8000 2 140 03:42 06.05.2020
3528 Clouds 14 1005 100 8000 2 140 03:20 06.05.2020
3529 Clouds 14 1005 93 7000 3 100 02:30 06.05.2020
3530 Clouds 14 1005 100 10000 4 100 01:54 06.05.2020
3531 Clouds 14 1005 100 10000 4 100 01:32 06.05.2020
3532 Clouds 15 1005 100 10000 3 90 00:54 06.05.2020
3533 Clouds 15 1006 100 10000 3 100 00:27 06.05.2020
3534 Clouds 15 1006 100 10000 3 100 23:56 05.05.2020
3535 Clouds 15 1006 100 10000 3 100 23:37 05.05.2020
3536 Clouds 16 1006 93 10000 1 0 23:18 05.05.2020
3537 Rain 16 1007 87 10000 2 200 22:41 05.05.2020
3538 Rain 16 1007 87 9000 5 160 22:20 05.05.2020
3539 Rain 16 1007 87 9000 5 160 21:57 05.05.2020
3540 Rain 17 1007 63 10000 5 120 21:39 05.05.2020
3541 Rain 16 1007 67 10000 4 100 21:20 05.05.2020
3542 Rain 16 1007 67 10000 4 100 20:58 05.05.2020
3543 Clouds 17 1007 72 10000 3 100 20:39 05.05.2020
3544 Clouds 18 1007 59 10000 1 0 20:18 05.05.2020
3545 Clouds 19 1007 59 10000 1 0 19:54 05.05.2020
3546 Rain 19 1007 59 10000 1 0 19:36 05.05.2020
3547 Rain 19 1007 59 10000 2 190 19:18 05.05.2020
3548 Rain 21 1007 56 10000 2 170 18:54 05.05.2020
3549 Rain 21 1007 56 10000 2 170 18:36 05.05.2020
3550 Rain 20 1007 56 10000 3 160 18:18 05.05.2020
3551 Rain 21 1008 56 10000 2 200 17:41 05.05.2020
3552 Rain 21 1008 56 10000 2 200 17:23 05.05.2020
3553 Rain 21 1008 60 10000 3 190 16:57 05.05.2020
3554 Clouds 22 1008 63 10000 4 170 16:37 05.05.2020
3555 Clouds 21 1008 68 10000 4 160 16:18 05.05.2020
3556 Clouds 20 1008 68 10000 4 160 15:55 05.05.2020
3557 Rain 21 1008 68 10000 4 130 15:37 05.05.2020
3558 Rain 20 1008 77 10000 2 80 15:18 05.05.2020
3559 Rain 18 1008 87 10000 3 10 14:42 05.05.2020
3560 Rain 18 1008 87 10000 3 10 14:42 05.05.2020
3561 Thunderstorm 19 1009 93 10000 2 160 14:24 05.05.2020
3562 Rain 18 1009 93 10000 2 160 13:58 05.05.2020
3563 Rain 20 1009 46 10000 6 140 13:40 05.05.2020
3564 Rain 19 1009 46 10000 5 150 13:21 05.05.2020
3565 Rain 19 1009 46 10000 5 150 12:59 05.05.2020
3566 Rain 22 1009 49 10000 5 140 12:39 05.05.2020
3567 Rain 21 1009 52 10000 4 140 12:20 05.05.2020
3568 Rain 21 1009 52 10000 4 140 11:57 05.05.2020
3569 Rain 21 1010 64 10000 3 140 11:39 05.05.2020
3570 Rain 20 1010 72 10000 3 110 11:18 05.05.2020
3571 Rain 18 1010 72 10000 4 120 10:54 05.05.2020
3572 Rain 18 1010 72 10000 4 120 10:36 05.05.2020
3573 Clouds 20 1010 72 10000 3 120 10:18 05.05.2020
3574 Clouds 19 1010 77 10000 4 120 09:43 05.05.2020
3575 Clouds 19 1010 77 10000 4 120 09:43 05.05.2020
3576 Rain 18 1010 77 10000 4 120 09:25 05.05.2020
3577 Rain 17 1010 87 10000 3 100 08:42 05.05.2020
3578 Rain 17 1010 87 10000 3 100 08:21 05.05.2020
3579 Rain 17 1010 93 10000 4 90 07:59 05.05.2020
3580 Rain 17 1010 93 10000 4 90 07:41 05.05.2020
3581 Clouds 16 1010 93 10000 4 80 07:19 05.05.2020
3582 Clouds 16 1010 93 10000 3 70 06:50 05.05.2020
3583 Rain 14 1010 93 10000 3 70 06:29 05.05.2020
3584 Rain 14 1010 93 10000 3 70 06:29 05.05.2020
3585 Rain 14 1010 93 10000 3 70 06:29 05.05.2020
3586 Rain 14 1010 93 10000 3 70 06:29 05.05.2020
3587 Rain 14 1010 93 10000 4 80 06:29 05.05.2020
3588 Rain 14 1010 93 10000 4 70 05:50 05.05.2020
3589 Clouds 14 1011 100 10000 4 80 04:52 05.05.2020
3590 Rain 14 1012 87 9000 4 130 02:28 05.05.2020
3591 Mist 14 1012 100 3800 3 100 00:54 05.05.2020
3592 Mist 14 1012 100 4300 1 70 00:23 05.05.2020
3593 Mist 14 1012 100 4000 3 70 23:48 04.05.2020
3594 Mist 14 1012 100 4000 3 70 23:25 04.05.2020
3595 Mist 14 1012 100 4700 2 90 22:58 04.05.2020
3596 Mist 14 1013 93 4800 2 60 22:39 04.05.2020
3597 Rain 14 1013 100 3400 3 60 22:21 04.05.2020
3598 Rain 14 1013 100 3400 3 60 21:57 04.05.2020
3599 Rain 14 1013 100 3400 3 60 21:57 04.05.2020
3600 Mist 14 1013 93 3900 2 70 21:36 04.05.2020
3601 Rain 14 1013 93 6000 2 50 21:18 04.05.2020
3602 Rain 14 1013 100 6000 1 0 20:40 04.05.2020
3603 Rain 14 1013 100 6000 1 0 20:40 04.05.2020
3604 Rain 14 1013 100 6000 1 0 20:40 04.05.2020
3605 Rain 14 1013 100 6000 1 0 20:40 04.05.2020
3606 Rain 14 1013 100 6000 1 0 20:40 04.05.2020
3607 Rain 14 1013 100 3900 2 50 20:19 04.05.2020
3608 Rain 14 1014 100 4200 1 0 19:55 04.05.2020
3609 Rain 14 1014 100 4200 1 0 19:37 04.05.2020
3610 Rain 14 1013 93 7000 4 330 19:18 04.05.2020
3611 Rain 15 1013 93 4800 3 340 18:38 04.05.2020
3612 Rain 14 1013 93 4800 3 340 18:20 04.05.2020
3613 Rain 14 1013 93 7000 3 310 17:56 04.05.2020
3614 Rain 15 1013 87 7000 3 300 17:37 04.05.2020
3615 Rain 16 1013 93 10000 3 320 17:19 04.05.2020
3616 Rain 18 1013 87 10000 3 320 16:43 04.05.2020
3617 Rain 18 1013 87 10000 3 320 16:23 04.05.2020
3618 Rain 18 1013 87 10000 3 310 15:58 04.05.2020
3619 Rain 18 1013 87 10000 3 320 15:39 04.05.2020
3620 Rain 18 1013 82 10000 2 330 15:20 04.05.2020
3621 Rain 18 1013 82 10000 1 0 14:48 04.05.2020
3622 Rain 18 1013 82 10000 1 0 14:48 04.05.2020
3623 Clouds 17 1014 82 9000 2 30 14:20 04.05.2020
3624 Rain 16 1014 87 10000 2 70 13:21 04.05.2020
3625 Rain 16 1014 87 10000 2 70 13:21 04.05.2020
3626 Rain 16 1014 87 10000 2 70 13:21 04.05.2020
3627 Rain 16 1014 87 8000 1 160 12:44 04.05.2020
3628 Rain 16 1014 87 8000 1 160 12:44 04.05.2020
3629 Rain 16 1014 87 8000 1 160 12:44 04.05.2020
3630 Rain 16 1014 87 8000 1 160 12:43 04.05.2020
3631 Rain 15 1014 82 10000 4 120 11:01 04.05.2020
3632 Rain 15 1014 82 10000 4 120 11:01 04.05.2020
3633 Rain 15 1014 82 10000 4 120 11:01 04.05.2020
3634 Rain 15 1014 82 10000 4 120 11:01 04.05.2020
3635 Rain 15 1014 82 10000 4 120 11:01 04.05.2020
3636 Rain 16 1014 82 10000 4 140 09:26 04.05.2020
3637 Rain 16 1014 82 10000 4 140 09:26 04.05.2020
3638 Rain 16 1014 82 10000 4 140 09:26 04.05.2020
3639 Rain 15 1014 82 8000 5 170 07:53 04.05.2020
3640 Rain 15 1014 77 10000 5 170 07:33 04.05.2020
3641 Rain 15 1014 77 10000 5 170 07:33 04.05.2020
3642 Clouds 14 1014 72 10000 4 170 05:49 04.05.2020
3643 Clouds 14 1013 76 10000 3 180 04:51 04.05.2020
3644 Clear 13 1013 87 10000 1 0 02:42 04.05.2020
3645 Clouds 14 1013 93 10000 3.2 169 01:22 04.05.2020
3646 Clouds 15 1013 87 10000 2 260 00:18 04.05.2020
3647 Clouds 15 1012 87 10000 2 100 23:43 03.05.2020
3648 Clouds 15 1012 87 10000 2 100 23:42 03.05.2020
3649 Clouds 15 1012 93 9000 3 70 23:23 03.05.2020
3650 Clouds 16 1012 87 9000 3 90 22:43 03.05.2020
3651 Clouds 14 1012 87 9000 3 90 22:43 03.05.2020
3652 Clouds 16 1012 87 9000 3 90 22:25 03.05.2020
3653 Clouds 16 1012 87 9000 3 90 22:25 03.05.2020
3654 Clouds 15 1013 82 10000 2 360 21:43 03.05.2020
3655 Clouds 16 1013 82 10000 3 270 21:22 03.05.2020
3656 Clouds 17 1013 82 10000 3 270 20:58 03.05.2020
3657 Clouds 17 1013 82 10000 3 270 20:58 03.05.2020
3658 Clouds 17 1013 82 10000 3 270 20:58 03.05.2020
3659 Clouds 17 1013 82 10000 3 270 20:58 03.05.2020
3660 Clouds 17 1013 82 10000 3 270 20:58 03.05.2020
3661 Clouds 17 1012 82 10000 3 100 20:39 03.05.2020
3662 Clouds 17 1012 82 10000 3 110 20:20 03.05.2020
3663 Clouds 17 1012 82 10000 3 110 20:20 03.05.2020
3664 Clouds 17 1012 87 10000 4 100 19:48 03.05.2020
3665 Clouds 17 1012 87 10000 4 100 19:29 03.05.2020
3666 Clouds 18 1012 77 10000 3 20 18:56 03.05.2020
3667 Clouds 18 1012 77 10000 3 20 18:56 03.05.2020
3668 Clouds 18 1012 77 10000 3 20 18:37 03.05.2020
3669 Clouds 18 1012 77 10000 3 300 18:18 03.05.2020
3670 Clouds 18 1012 77 10000 3 300 18:18 03.05.2020
3671 Clouds 18 1012 77 10000 3 300 18:18 03.05.2020
3672 Clouds 18 1012 77 10000 3 300 18:18 03.05.2020
3673 Clouds 18 1012 77 10000 3 300 18:18 03.05.2020
3674 Thunderstorm 19 1013 77 8000 9 240 17:40 03.05.2020
3675 Thunderstorm 19 1013 77 8000 9 240 17:40 03.05.2020
3676 Clouds 21 1011 34 10000 9 230 17:21 03.05.2020
3677 Rain 23 1010 22 10000 8 170 16:45 03.05.2020
3678 Rain 23 1009 25 10000 5 180 16:20 03.05.2020
3679 Rain 23 1010 28 10000 6 160 15:58 03.05.2020
3680 Rain 23 1009 25 10000 5 180 15:58 03.05.2020
3681 Clouds 24 1010 28 10000 6 160 15:39 03.05.2020
3682 Clouds 24 1010 29 10000 6 150 15:20 03.05.2020
3683 Clouds 24 1010 29 10000 6 150 15:20 03.05.2020
3684 Clouds 24 1011 31 10000 6 130 14:58 03.05.2020
3685 Clouds 24 1011 31 10000 6 130 14:40 03.05.2020
3686 Clouds 24 1011 31 10000 6 130 14:40 03.05.2020
3687 Clouds 24 1011 31 10000 6 130 14:40 03.05.2020
3688 Rain 24 1011 31 10000 6 130 14:21 03.05.2020
3689 Clouds 23 1011 33 10000 5 150 14:21 03.05.2020
3690 Rain 23 1011 33 10000 6 140 13:53 03.05.2020
3691 Rain 23 1011 33 10000 6 140 13:53 03.05.2020
3692 Rain 23 1011 33 10000 6 140 13:53 03.05.2020
3693 Rain 23 1011 33 10000 6 140 13:51 03.05.2020
3694 Rain 22 1011 33 10000 6 130 13:19 03.05.2020
3695 Rain 22 1011 33 10000 6 130 13:19 03.05.2020
3696 Rain 22 1011 33 10000 6 130 13:19 03.05.2020
3697 Rain 22 1012 33 10000 7 150 12:43 03.05.2020
3698 Rain 22 1012 37 10000 6 140 12:18 03.05.2020
3699 Rain 21 1012 37 10000 6 130 11:55 03.05.2020
3700 Rain 21 1012 37 10000 6 130 11:55 03.05.2020
3701 Clouds 21 1012 37 10000 6 130 11:37 03.05.2020
3702 Clouds 21 1012 40 10000 3 120 11:18 03.05.2020
3703 Clouds 20 1012 42 10000 3 130 10:46 03.05.2020
3704 Clouds 20 1012 42 10000 3 130 10:46 03.05.2020
3705 Clouds 20 1012 42 10000 3 130 10:46 03.05.2020
3706 Clouds 20 1012 42 10000 3 130 10:46 03.05.2020
3707 Clouds 20 1012 42 10000 3 130 10:46 03.05.2020
3708 Clouds 19 1012 51 10000 5 120 09:57 03.05.2020
3709 Clouds 19 1012 51 10000 5 120 09:57 03.05.2020
3710 Clouds 19 1013 48 10000 4 140 09:57 03.05.2020
3711 Clouds 18 1012 51 10000 5 120 09:34 03.05.2020
3712 Clouds 18 1012 51 10000 5 120 09:34 03.05.2020
3713 Clouds 18 1012 51 10000 5 120 09:34 03.05.2020
3714 Clouds 18 1012 51 10000 5 120 09:34 03.05.2020
3715 Clouds 18 1012 51 10000 5 120 09:34 03.05.2020
3716 Clear 15 1012 58 10000 4 130 08:55 03.05.2020
3717 Clear 16 1012 51 10000 4 120 08:55 03.05.2020
3718 Clouds 15 1012 58 10000 4 130 08:26 03.05.2020
3719 Clouds 15 1012 58 10000 4 130 08:26 03.05.2020
3720 Clouds 15 1012 58 10000 4 130 08:26 03.05.2020
3721 Clouds 15 1012 58 10000 4 130 08:26 03.05.2020
3722 Clouds 15 1012 58 10000 4 130 08:26 03.05.2020
3723 Rain 15 1012 62 10000 2 110 07:39 03.05.2020
3724 Clouds 11 1012 66 10000 4 90 06:20 03.05.2020
3725 Clouds 11 1012 62 10000 3 100 05:47 03.05.2020
3726 Clouds 11 1012 66 10000 4 100 04:54 03.05.2020
3727 Clouds 11 1012 66 10000 4 110 04:26 03.05.2020
3728 Clouds 11 1012 57 10000 4 120 02:59 03.05.2020
3729 Clouds 12 1012 54 10000 4 130 02:59 03.05.2020
3730 Clouds 12 1012 54 10000 4 130 02:24 03.05.2020
3731 Clouds 12 1013 50 10000 4 110 01:44 03.05.2020
3732 Clouds 12 1013 50 10000 4 120 01:24 03.05.2020
3733 Clouds 12 1013 50 10000 4 120 00:55 03.05.2020
3734 Clouds 13 1013 50 10000 4 120 00:37 03.05.2020
3735 Clouds 13 1013 50 10000 4 120 00:37 03.05.2020
3736 Clouds 13 1013 50 10000 4 120 00:18 03.05.2020
3737 Clouds 13 1013 47 10000 3 100 23:43 02.05.2020
3738 Clouds 13 1013 43 10000 3 100 23:24 02.05.2020
3739 Clouds 13 1013 43 10000 4 130 22:43 02.05.2020
3740 Clouds 13 1013 43 10000 4 130 22:24 02.05.2020
3741 Clouds 13 1013 43 10000 4 130 22:24 02.05.2020
3742 Clouds 13 1013 43 10000 4 120 21:56 02.05.2020
3743 Clouds 14 1013 41 10000 4 120 21:38 02.05.2020
3744 Clouds 14 1013 41 10000 4 120 21:38 02.05.2020
3745 Clouds 14 1013 41 10000 4 130 21:19 02.05.2020
3746 Clouds 14 1013 38 10000 5 130 20:57 02.05.2020
3747 Clouds 14 1013 38 10000 5 130 20:37 02.05.2020
3748 Clouds 15 1013 61 10000 4 120 20:19 02.05.2020
3749 Clouds 15 1013 61 10000 4 120 19:57 02.05.2020
3750 Clouds 15 1013 61 10000 4 120 19:57 02.05.2020
3751 Clouds 15 1013 33 10000 5 120 19:38 02.05.2020
3752 Clouds 15 1013 33 10000 5 130 19:19 02.05.2020
3753 Clouds 15 1013 30 10000 6 130 18:41 02.05.2020
3754 Clouds 15 1013 30 10000 6 130 18:23 02.05.2020
3755 Clouds 15 1013 30 10000 6 130 17:58 02.05.2020
3756 Clouds 15 1013 26 10000 6 130 17:39 02.05.2020
3757 Clouds 15 1013 26 10000 6 130 17:20 02.05.2020
3758 Clouds 15 1013 26 10000 5 130 16:59 02.05.2020
3759 Clouds 15 1014 23 10000 4 130 16:39 02.05.2020
3760 Clouds 15 1014 23 10000 5 120 16:21 02.05.2020
3761 Clouds 15 1014 25 10000 5 130 15:43 02.05.2020
3762 Clouds 15 1014 24 10000 5 120 15:20 02.05.2020
3763 Clouds 15 1014 24 10000 5 120 14:58 02.05.2020
3764 Clouds 15 1014 23 10000 5 110 14:40 02.05.2020
3765 Clear 15 1014 23 10000 5 110 14:21 02.05.2020
3766 Clouds 15 1015 24 10000 6 130 13:40 02.05.2020
3767 Clear 14 1015 26 10000 7 120 13:22 02.05.2020
3768 Clear 14 1015 26 10000 7 120 12:55 02.05.2020
3769 Clear 14 1015 26 10000 5 120 12:37 02.05.2020
3770 Clear 14 1015 30 10000 5 90 12:19 02.05.2020
3771 Clear 13 1016 32 10000 5 100 11:42 02.05.2020
3772 Clear 13 1016 32 10000 5 100 11:23 02.05.2020
3773 Clear 13 1016 32 10000 5 100 10:59 02.05.2020
3774 Clear 12 1016 37 10000 7 110 10:39 02.05.2020
3775 Clouds 12 1016 37 10000 7 100 10:21 02.05.2020
3776 Clouds 11 1016 37 10000 7 100 09:58 02.05.2020
3777 Clear 10 1016 37 10000 7 100 09:39 02.05.2020
3778 Clear 10 1017 39 10000 6 110 09:20 02.05.2020
3779 Clear 9 1017 42 10000 6 120 08:51 02.05.2020
3780 Clear 9 1017 42 10000 6 120 08:31 02.05.2020
3781 Clear 9 1017 45 10000 4 90 07:49 02.05.2020
3782 Clear 8 1017 45 10000 4 90 07:30 02.05.2020
3783 Clear 8 1017 52 10000 3 80 06:53 02.05.2020
3784 Clear 5 1017 64 10000 4 90 06:23 02.05.2020
3785 Clear 4 1017 69 10000 4 80 05:27 02.05.2020
3786 Clear 3 1016 69 10000 4 80 04:26 02.05.2020
3787 Clear 4 1016 64 10000 4 80 03:36 02.05.2020
3788 Clear 4 1016 64 10000 3 90 02:39 02.05.2020
3789 Clear 5 1016 64 10000 3 70 01:52 02.05.2020
3790 Clear 5 1016 64 10000 4 70 01:18 02.05.2020
3791 Clear 6 1016 59 10000 4 80 00:41 02.05.2020
3792 Clear 5 1016 59 10000 4 80 00:19 02.05.2020
3793 Clear 5 1015 55 10000 4 70 23:40 01.05.2020
3794 Clear 5 1015 55 10000 5 80 23:20 01.05.2020
3795 Clear 6 1015 52 10000 4 90 22:58 01.05.2020
3796 Clear 7 1015 52 10000 4 90 22:38 01.05.2020
3797 Clear 7 1015 52 10000 4 90 22:19 01.05.2020
3798 Clear 7 1015 52 10000 4 90 21:57 01.05.2020
3799 Clear 7 1015 48 10000 4 80 21:39 01.05.2020
3800 Clear 8 1015 45 10000 4 80 21:19 01.05.2020
3801 Clear 8 1015 45 10000 4 80 20:57 01.05.2020
3802 Clear 8 1015 39 10000 4 70 20:38 01.05.2020
3803 Clear 10 1015 36 10000 4 70 20:19 01.05.2020
3804 Clear 10 1015 36 10000 4 70 19:54 01.05.2020
3805 Clear 11 1014 34 10000 5 70 19:36 01.05.2020
3806 Clear 12 1014 32 10000 5 70 19:18 01.05.2020
3807 Clear 12 1014 29 10000 5 70 18:54 01.05.2020
3808 Clear 12 1014 29 10000 5 70 18:36 01.05.2020
3809 Clear 13 1014 29 10000 4 70 18:18 01.05.2020
3810 Clear 12 1014 27 10000 4 80 17:39 01.05.2020
3811 Clear 12 1014 27 10000 4 90 17:21 01.05.2020
3812 Clear 12 1014 27 10000 4 80 16:57 01.05.2020
3813 Clear 12 1014 27 10000 4 80 16:38 01.05.2020
3814 Clear 13 1014 27 10000 4 100 16:20 01.05.2020
3815 Clear 13 1014 27 10000 4 100 15:57 01.05.2020
3816 Clear 12 1014 30 10000 4 110 15:38 01.05.2020
3817 Clear 12 1014 27 10000 3 90 15:19 01.05.2020
3818 Clear 12 1014 27 10000 4 80 14:43 01.05.2020
3819 Clouds 12 1014 27 10000 4 80 14:24 01.05.2020
3820 Clouds 12 1014 30 10000 3 110 13:54 01.05.2020
3821 Clouds 11 1015 29 10000 5 90 13:36 01.05.2020
3822 Clouds 12 1015 29 10000 4 90 13:18 01.05.2020
3823 Clouds 11 1015 29 10000 3 100 12:40 01.05.2020
3824 Clouds 11 1015 31 10000 5 100 12:21 01.05.2020
3825 Clouds 11 1015 31 10000 5 100 11:59 01.05.2020
3826 Clouds 11 1015 34 10000 6 100 11:41 01.05.2020
3827 Clouds 10 1015 36 10000 5 90 11:21 01.05.2020
3828 Clouds 10 1015 37 10000 5 90 10:56 01.05.2020
3829 Clouds 10 1015 37 10000 5 90 10:37 01.05.2020
3830 Clouds 9 1015 39 10000 6 70 10:19 01.05.2020
3831 Clouds 8 1015 42 10000 6 80 09:43 01.05.2020
3832 Clouds 8 1015 42 10000 6 80 09:19 01.05.2020
3833 Clouds 8 1015 45 10000 5 90 08:54 01.05.2020
3834 Clear 8 1015 52 10000 5 90 08:36 01.05.2020
3835 Clouds 7 1015 52 10000 3 90 08:18 01.05.2020
3836 Clouds 7 1015 56 10000 4 70 07:41 01.05.2020
3837 Clouds 6 1015 60 10000 4 70 07:21 01.05.2020
3838 Clouds 6 1015 60 10000 4 70 07:21 01.05.2020
3839 Clouds 5 1015 60 10000 4 70 06:39 01.05.2020
3840 Clouds 4 1015 64 10000 4 70 05:32 01.05.2020
3841 Clouds 4 1014 74 10000 3 60 04:20 01.05.2020
3842 Clouds 5 1014 64 10000 4 70 02:59 01.05.2020
3843 Clouds 5 1014 64 10000 4 80 02:40 01.05.2020
3844 Clouds 4 1014 64 10000 3 80 01:58 01.05.2020
3845 Clouds 5 1014 64 10000 3 70 01:28 01.05.2020
3846 Clouds 6 1014 64 10000 3 70 00:56 01.05.2020
3847 Clouds 5 1014 64 10000 3 70 00:36 01.05.2020
3848 Clouds 5 1014 64 10000 3 80 00:18 01.05.2020
3849 Clouds 5 1014 64 10000 3 80 23:54 30.04.2020
3850 Clouds 5 1014 64 10000 3 80 23:36 30.04.2020
3851 Clouds 6 1014 64 10000 3 80 23:18 30.04.2020
3852 Clouds 7 1013 60 10000 4 60 22:40 30.04.2020
3853 Clouds 7 1013 60 10000 4 60 22:19 30.04.2020
3854 Clouds 7 1013 52 10000 3 20 21:55 30.04.2020
3855 Clouds 7 1013 52 10000 3 20 21:37 30.04.2020
3856 Clouds 7 1013 52 10000 3 20 21:18 30.04.2020
3857 Clouds 8 1013 48 10000 3 20 20:42 30.04.2020
3858 Clouds 8 1013 48 10000 3 30 20:19 30.04.2020
3859 Clouds 8 1013 48 10000 3 20 19:58 30.04.2020
3860 Clouds 8 1013 48 10000 3 20 19:39 30.04.2020
3861 Clouds 9 1013 45 10000 4 10 19:20 30.04.2020
3862 Clouds 9 1012 42 10000 3 360 18:56 30.04.2020
3863 Clouds 9 1012 42 10000 3 360 18:37 30.04.2020
3864 Clouds 9 1012 42 10000 3 20 18:18 30.04.2020
3865 Clouds 9 1013 42 10000 2 40 17:41 30.04.2020
3866 Clouds 9 1013 42 10000 2 40 17:22 30.04.2020
3867 Clouds 9 1012 42 10000 3 360 16:59 30.04.2020
3868 Clouds 9 1012 39 10000 1 0 16:40 30.04.2020
3869 Clouds 9 1012 39 10000 1 0 16:20 30.04.2020
3870 Clouds 9 1012 34 10000 2 40 15:58 30.04.2020
3871 Clouds 10 1012 34 10000 2 40 15:40 30.04.2020
3872 Clouds 10 1012 39 10000 2 110 15:21 30.04.2020
3873 Clouds 10 1012 42 10000 3 60 14:41 30.04.2020
3874 Clouds 9 1012 42 10000 2 300 14:20 30.04.2020
3875 Clouds 9 1012 42 10000 2 300 14:20 30.04.2020
3876 Clouds 9 1012 42 10000 2 300 13:58 30.04.2020
3877 Clouds 9 1012 42 10000 3 340 13:39 30.04.2020
3878 Clouds 9 1012 42 10000 3 340 13:39 30.04.2020
3879 Clouds 9 1012 42 10000 3 340 13:39 30.04.2020
3880 Clouds 9 1012 45 10000 3 290 13:21 30.04.2020
3881 Clouds 9 1012 45 10000 3 290 12:58 30.04.2020
3882 Clouds 8 1012 48 10000 3 320 12:39 30.04.2020
3883 Clouds 8 1011 48 10000 4 320 12:18 30.04.2020
3884 Clouds 8 1011 52 10000 3 350 11:38 30.04.2020
3885 Clouds 7 1011 52 10000 3 330 11:19 30.04.2020
3886 Clouds 7 1011 52 10000 3 330 11:19 30.04.2020
3887 Clouds 7 1011 52 10000 3 330 10:57 30.04.2020
3888 Clouds 7 1011 52 10000 3 300 10:38 30.04.2020
3889 Clouds 7 1011 52 10000 4 310 10:18 30.04.2020
3890 Clouds 6 1011 52 10000 4 310 09:55 30.04.2020
3891 Clouds 5 1010 56 10000 3 320 09:36 30.04.2020
3892 Clouds 5 1010 64 10000 4 290 09:18 30.04.2020
3893 Clouds 4 1010 64 10000 5 300 08:42 30.04.2020
3894 Clouds 4 1010 69 10000 4 300 08:23 30.04.2020
3895 Clouds 4 1009 69 10000 5 290 07:43 30.04.2020
3896 Clouds 5 1009 69 10000 5 300 07:25 30.04.2020
3897 Clouds 3 1009 74 10000 6 300 06:48 30.04.2020
3898 Clouds 2 1008 74 10000 5 290 05:56 30.04.2020
3899 Clouds 2 1008 74 10000 6 290 05:36 30.04.2020
3900 Clouds 1 1007 80 10000 5 290 04:33 30.04.2020
3901 Clouds 2 1006 80 10000 5 280 03:54 30.04.2020
3902 Clouds 3 1005 69 10000 6 280 02:46 30.04.2020
3903 Clouds 3 1005 69 10000 6 280 02:24 30.04.2020
3904 Clouds 3 1005 69 10000 4 280 01:36 30.04.2020
3905 Clouds 4 1004 69 10000 6 290 00:42 30.04.2020
3906 Clouds 5 1004 60 10000 5 290 00:19 30.04.2020
3907 Clouds 5 1004 60 10000 5 290 23:57 29.04.2020
3908 Clouds 5 1004 60 10000 7 290 23:37 29.04.2020
3909 Clouds 6 1003 56 10000 7 280 23:19 29.04.2020
3910 Clouds 6 1003 56 10000 7 290 22:40 29.04.2020
3911 Clouds 6 1003 56 10000 7 290 22:21 29.04.2020
3912 Clouds 7 1003 60 10000 6 300 21:59 29.04.2020
3913 Clouds 7 1003 52 10000 7 300 21:37 29.04.2020
3914 Clouds 7 1002 48 10000 5 290 21:19 29.04.2020
3915 Clouds 8 1002 48 10000 5 290 20:56 29.04.2020
3916 Clouds 8 1002 45 10000 6 280 20:37 29.04.2020
3917 Clouds 9 1002 42 10000 8 290 20:18 29.04.2020
3918 Clouds 9 1001 45 10000 6 290 19:43 29.04.2020
3919 Clouds 10 1001 42 10000 9 290 19:22 29.04.2020
3920 Clouds 10 1001 42 10000 9 290 18:57 29.04.2020
3921 Clouds 11 1000 39 10000 9 290 18:38 29.04.2020
3922 Clouds 12 1000 37 10000 10 290 18:18 29.04.2020
3923 Clouds 13 999 34 10000 9 290 17:41 29.04.2020
3924 Clouds 13 999 34 10000 9 280 17:21 29.04.2020
3925 Clouds 13 999 34 10000 9 280 16:55 29.04.2020
3926 Clouds 13 999 37 10000 8 280 16:36 29.04.2020
3927 Clouds 13 998 35 10000 9 270 16:18 29.04.2020
3928 Clouds 13 998 35 10000 9 270 15:54 29.04.2020
3929 Clouds 14 998 37 10000 8 280 15:36 29.04.2020
3930 Clouds 14 998 37 10000 10 270 15:18 29.04.2020
3931 Clouds 13 998 40 10000 9 280 14:41 29.04.2020
3932 Clouds 14 998 40 10000 9 280 14:23 29.04.2020
3933 Clouds 14 997 37 10000 10 270 13:56 29.04.2020
3934 Clouds 14 997 40 10000 12 260 13:37 29.04.2020
3935 Clouds 14 996 43 10000 11 280 13:18 29.04.2020
3936 Clouds 14 995 47 10000 12 260 12:41 29.04.2020
3937 Clouds 14 995 43 10000 11 270 12:19 29.04.2020
3938 Rain 13 994 62 10000 10 250 11:58 29.04.2020
3939 Rain 14 994 62 10000 10 250 11:38 29.04.2020
3940 Rain 13 994 71 10000 8 270 11:19 29.04.2020
3941 Rain 13 994 66 10000 10 250 10:38 29.04.2020
3942 Rain 13 994 62 10000 11 250 10:20 29.04.2020
3943 Rain 12 994 62 10000 11 250 09:59 29.04.2020
3944 Clouds 11 994 71 10000 10 240 09:40 29.04.2020
3945 Clouds 10 994 76 10000 8 220 09:19 29.04.2020
3946 Rain 10 994 81 10000 8 210 08:43 29.04.2020
3947 Rain 9 994 81 10000 8 210 08:25 29.04.2020
3948 Rain 9 995 81 9000 6 200 07:53 29.04.2020
3949 Rain 9 995 81 9000 6 200 07:28 29.04.2020
3950 Rain 9 995 81 9000 3 180 06:52 29.04.2020
3951 Rain 9 995 81 9000 3 170 06:32 29.04.2020
3952 Rain 8 997 75 9000 4 180 05:43 29.04.2020
3953 Rain 9 998 80 9000 4 200 05:19 29.04.2020
3954 Rain 9 999 39 10000 3 190 04:19 29.04.2020
3955 Clouds 9 999 34 10000 4 150 02:58 29.04.2020
3956 Clouds 9 1001 36 10000 4 140 01:56 29.04.2020
3957 Clouds 9 1001 33 10000 5 140 01:28 29.04.2020
3958 Clouds 9 1002 31 10000 5 140 00:56 29.04.2020
3959 Rain 9 1003 34 10000 5 150 00:37 29.04.2020
3960 Rain 9 1004 36 10000 4 130 00:18 29.04.2020
3961 Rain 8 1004 36 10000 4 130 23:43 28.04.2020
3962 Rain 8 1004 36 10000 4 130 23:20 28.04.2020
3963 Rain 8 1005 39 10000 3 130 22:39 28.04.2020
3964 Rain 8 1005 39 10000 3 160 22:20 28.04.2020
3965 Rain 8 1005 39 10000 3 160 21:59 28.04.2020
3966 Clouds 9 1006 36 10000 2 150 21:40 28.04.2020
3967 Rain 9 1006 36 10000 2 150 21:40 28.04.2020
3968 Clouds 9 1007 36 10000 3 170 21:22 28.04.2020
3969 Clouds 9 1007 36 10000 3 170 20:58 28.04.2020
3970 Clouds 10 1007 34 10000 4 220 20:40 28.04.2020
3971 Clouds 10 1007 34 10000 4 220 20:40 28.04.2020
3972 Clouds 10 1007 34 10000 4 220 20:20 28.04.2020
3973 Clouds 10 1007 31 10000 5 240 19:56 28.04.2020
3974 Clouds 10 1007 29 10000 3 210 19:38 28.04.2020
3975 Clouds 10 1007 26 10000 3 210 19:19 28.04.2020
3976 Clouds 10 1007 29 10000 4 260 18:42 28.04.2020
3977 Clouds 10 1007 29 10000 4 260 18:20 28.04.2020
3978 Clouds 10 1007 26 10000 5 250 17:59 28.04.2020
3979 Clouds 10 1007 25 10000 3 290 17:37 28.04.2020
3980 Clouds 10 1007 27 10000 4 260 17:19 28.04.2020
3981 -273 0 0 0 0 0 17:19 28.04.2020
3982 Clouds 10 1007 27 10000 4 260 16:57 28.04.2020
3983 Clouds 10 1007 25 10000 2 260 16:38 28.04.2020
3984 Clouds 10 1007 25 10000 2 260 16:20 28.04.2020
3985 Clouds 10 1007 27 10000 5 260 15:55 28.04.2020
3986 Clouds 10 1007 29 10000 3 280 15:37 28.04.2020
3987 Clouds 11 1008 27 10000 5 290 15:18 28.04.2020
3988 Clouds 11 1008 27 10000 4 260 14:43 28.04.2020
3989 Clouds 11 1008 27 10000 4 260 14:43 28.04.2020
3990 Clouds 11 1008 29 10000 5 270 14:22 28.04.2020
3991 Clouds 10 1008 29 10000 5 270 13:59 28.04.2020
3992 Clouds 10 1008 29 10000 5 270 13:59 28.04.2020
3993 Clouds 9 1008 33 10000 5 300 13:40 28.04.2020
3994 Clouds 9 1008 31 10000 4 290 13:22 28.04.2020
3995 Clouds 9 1008 31 10000 4 290 12:58 28.04.2020
3996 Clouds 8 1008 33 10000 5 280 12:39 28.04.2020
3997 Clouds 8 1008 33 10000 5 280 12:21 28.04.2020
3998 Clouds 8 1008 42 10000 5 280 11:42 28.04.2020
3999 Rain 7 1008 45 10000 5 310 11:22 28.04.2020
4000 Rain 7 1008 45 10000 5 310 10:57 28.04.2020
4001 Clouds 6 1008 52 10000 4 300 10:38 28.04.2020
4002 Clouds 7 1008 52 10000 5 290 10:18 28.04.2020
4003 Clouds 6 1008 65 10000 5 280 09:44 28.04.2020
4004 Clouds 6 1008 65 10000 5 280 09:25 28.04.2020
4005 Clouds 5 1008 57 10000 5 290 08:57 28.04.2020
4006 Clouds 5 1008 57 10000 5 290 08:38 28.04.2020
4007 Clouds 5 1008 64 10000 5 290 08:20 28.04.2020
4008 Clouds 4 1008 64 10000 5 290 07:42 28.04.2020
4009 Clouds 4 1008 70 10000 5 300 07:19 28.04.2020
4010 Clouds 4 1007 70 10000 4 310 06:43 28.04.2020
4011 Clouds 2 1007 74 10000 4 300 05:53 28.04.2020
4012 Clouds 2 1007 74 10000 4 300 05:35 28.04.2020
4013 Clouds 4 1006 75 10000 4 320 04:35 28.04.2020
4014 Clouds 4 1006 74 10000 4 310 02:39 28.04.2020
4015 Clouds 4 1006 74 10000 4 300 01:58 28.04.2020
4016 Clouds 4 1006 74 10000 4 300 01:22 28.04.2020
4017 Clouds 4 1006 64 10000 4 310 00:45 28.04.2020
4018 Clouds 4 1006 64 10000 4 310 00:19 28.04.2020
4019 Clouds 5 1005 60 10000 4 330 23:43 27.04.2020
4020 Clouds 5 1005 60 10000 4 330 23:21 27.04.2020
4021 Clouds 5 1005 55 10000 3 300 22:43 27.04.2020
4022 Clouds 5 1005 55 10000 3 300 22:24 27.04.2020
4023 Clouds 6 1005 55 10000 3 300 21:58 27.04.2020
4024 Clouds 6 1005 52 10000 3 310 21:39 27.04.2020
4025 Clouds 7 1005 52 10000 3 300 21:20 27.04.2020
4026 Clouds 7 1005 52 10000 3 300 20:59 27.04.2020
4027 Clouds 7 1005 52 10000 3 290 20:40 27.04.2020
4028 Clouds 8 1005 48 10000 2 300 20:21 27.04.2020
4029 Clouds 8 1005 48 10000 2 300 19:57 27.04.2020
4030 Clouds 8 1005 48 10000 2 300 19:38 27.04.2020
4031 Clouds 9 1005 39 10000 4 310 19:19 27.04.2020
4032 Clouds 9 1005 39 10000 4 310 19:19 27.04.2020
4033 Clouds 9 1005 39 10000 4 310 18:56 27.04.2020
4034 Clouds 9 1004 39 10000 4 320 18:37 27.04.2020
4035 Clouds 9 1004 34 10000 5 300 18:18 27.04.2020
4036 Clouds 10 1004 31 10000 5 320 17:41 27.04.2020
4037 Rain 10 1004 31 10000 5 320 17:20 27.04.2020
4038 Rain 10 1004 34 9000 3 320 16:55 27.04.2020
4039 Rain 10 1004 34 10000 2 360 16:37 27.04.2020
4040 Clouds 10 1004 39 10000 7 310 16:19 27.04.2020
4041 Clouds 10 1004 39 10000 7 310 15:56 27.04.2020
4042 Rain 10 1003 29 10000 4 290 15:37 27.04.2020
4043 Rain 11 1003 27 10000 2 340 15:18 27.04.2020
4044 Rain 10 1003 29 10000 5 310 14:41 27.04.2020
4045 Rain 11 1003 34 10000 4 340 14:20 27.04.2020
4046 Rain 11 1003 34 10000 4 340 13:57 27.04.2020
4047 Rain 11 1003 29 10000 5 350 13:39 27.04.2020
4048 Rain 11 1003 27 10000 4 330 13:19 27.04.2020
4049 Rain 11 1003 23 10000 2 230 12:43 27.04.2020
4050 Clouds 11 1003 23 10000 2 230 12:22 27.04.2020
4051 Clouds 12 1003 23 10000 2 290 11:57 27.04.2020
4052 Clouds 11 1003 21 10000 2 320 11:38 27.04.2020
4053 Clouds 11 1003 23 10000 1 0 11:19 27.04.2020
4054 Clouds 10 1003 23 10000 2 310 10:42 27.04.2020
4055 Clouds 10 1003 23 10000 2 310 10:24 27.04.2020
4056 Clouds 10 1003 23 10000 1 0 09:58 27.04.2020
4057 Clouds 11 1003 23 10000 2 290 09:40 27.04.2020
4058 Clouds 10 1003 21 10000 2 120 09:18 27.04.2020
4059 Clouds 10 1002 25 10000 2 70 08:53 27.04.2020
4060 Clouds 10 1002 25 10000 2 70 08:33 27.04.2020
4061 Clouds 8 1003 42 10000 2 130 07:46 27.04.2020
4062 Clouds 8 1003 42 10000 2 130 07:27 27.04.2020
4063 Clouds 7 1003 38 10000 1 0 06:59 27.04.2020
4064 Clouds 6 1003 52 10000 1 0 06:37 27.04.2020
4065 Clouds 2 1003 64 10000 1 260 06:18 27.04.2020
4066 Clouds 1 1003 74 10000 1 0 05:21 27.04.2020
4067 Clouds 0 1003 74 10000 1 0 04:40 27.04.2020
4068 Clouds 0 1003 68 10000 0.73 122 03:47 27.04.2020
4069 Clouds 1 1003 75 10000 1 0 02:35 27.04.2020
4070 Clouds 2 1003 64 10000 1 0 01:20 27.04.2020
4071 Clouds 2 1003 59 10000 1 340 00:40 27.04.2020
4072 Clouds 3 1003 59 10000 1 0 00:19 27.04.2020
4073 Clouds 3 1003 59 10000 1 0 23:55 26.04.2020
4074 Clouds 3 1002 51 10000 1 0 23:37 26.04.2020
4075 Clouds 4 1003 51 10000 1 350 23:18 26.04.2020
4076 Clouds 4 1003 51 10000 1 350 22:54 26.04.2020
4077 Clouds 4 1003 51 10000 1 0 22:36 26.04.2020
4078 Clouds 5 1003 41 10000 1 0 22:18 26.04.2020
4079 Clouds 4 1003 47 10000 1 0 21:54 26.04.2020
4080 Clouds 5 1003 47 10000 1 0 21:36 26.04.2020
4081 Clouds 6 1003 41 10000 2 30 21:18 26.04.2020
4082 -273 0 0 0 0 0 20:39 26.04.2020
4083 Clouds 7 1003 38 10000 2 360 20:20 26.04.2020
4084 Clouds 8 1002 30 10000 2 360 19:58 26.04.2020
4085 Clouds 8 1002 28 10000 2 330 19:38 26.04.2020
4086 Clouds 9 1002 24 10000 2 320 19:19 26.04.2020
4087 Clouds 10 1002 24 10000 4 300 18:44 26.04.2020
4088 Clouds 10 1002 24 10000 4 300 18:25 26.04.2020
4089 Clouds 10 1002 25 10000 4 310 17:57 26.04.2020
4090 Clouds 10 1001 21 10000 3 300 17:39 26.04.2020
4091 Clouds 10 1001 23 10000 2 350 17:19 26.04.2020
4092 Clouds 11 1001 23 10000 2 50 16:42 26.04.2020
4093 Clouds 11 1001 23 10000 2 50 16:24 26.04.2020
4094 Clouds 10 1001 25 10000 3 300 15:59 26.04.2020
4095 Clouds 10 1001 26 10000 2 300 15:41 26.04.2020
4096 Clouds 10 1002 24 10000 3 300 15:21 26.04.2020
4097 Clouds 10 1002 27 10000 5 280 14:57 26.04.2020
4098 Clouds 11 1002 27 10000 5 280 14:38 26.04.2020
4099 Clouds 10 1002 26 10000 4 320 14:18 26.04.2020
4100 Clouds 10 1002 26 10000 4 320 13:56 26.04.2020
4101 Clouds 9 1002 28 10000 4 260 13:38 26.04.2020
4102 Clouds 9 1002 31 10000 4 240 13:18 26.04.2020
4103 Clouds 8 1002 28 10000 5 320 12:40 26.04.2020
4104 Clouds 8 1002 33 10000 5 270 12:21 26.04.2020
4105 Clouds 8 1002 33 10000 5 270 11:59 26.04.2020
4106 Clouds 8 1002 31 10000 4 300 11:40 26.04.2020
4107 Clouds 7 1002 33 10000 5 340 11:22 26.04.2020
4108 Clouds 8 1002 33 10000 5 340 10:57 26.04.2020
4109 Clouds 7 1002 33 10000 5 340 10:57 26.04.2020
4110 Clouds 7 1002 36 10000 3 300 10:39 26.04.2020
4111 Clouds 7 1001 36 10000 3 300 10:21 26.04.2020
4112 Clouds 8 1001 36 10000 3 300 09:57 26.04.2020
4113 Clouds 7 1001 35 10000 3 330 09:37 26.04.2020
4114 Clear 6 1001 44 10000 3 330 09:18 26.04.2020
4115 Clear 6 1001 52 10000 2 320 08:41 26.04.2020
4116 Clear 6 1001 52 10000 2 320 08:20 26.04.2020
4117 Clear 4 1001 69 10000 2 20 07:48 26.04.2020
4118 Clear 4 1001 69 10000 2 20 07:22 26.04.2020
4119 Clear 2 1000 74 10000 1 0 06:45 26.04.2020
4120 Clear 1 1000 85 10000 2.16 356 06:18 26.04.2020
4121 Clear 1 1000 86 10000 1 0 05:45 26.04.2020
4122 Clear 1 1000 86 10000 1 0 05:25 26.04.2020
4123 Clear 0 1000 92 10000 2.16 356 04:24 26.04.2020
4124 Clear 1 1000 86 10000 1 320 03:33 26.04.2020
4125 Clear 1 1000 86 10000 2.3 353 02:33 26.04.2020
4126 Clear 2 999 86 10000 1 0 01:54 26.04.2020
4127 Clear 3 999 86 10000 2 330 01:35 26.04.2020
4128 Clear 3 999 74 10000 2 340 00:41 26.04.2020
4129 Clear 3 999 74 10000 2 340 00:20 26.04.2020
4130 Clear 4 999 64 10000 2 340 23:40 25.04.2020
4131 Clear 4 999 64 10000 2 340 23:21 25.04.2020
4132 Clear 4 998 64 10000 2 360 22:59 25.04.2020
4133 Clear 4 998 64 10000 2 360 22:59 25.04.2020
4134 Clear 4 998 60 10000 3 360 22:41 25.04.2020
4135 Clear 4 998 64 10000 4 350 22:20 25.04.2020
4136 Clear 4 998 65 10000 2 350 21:58 25.04.2020
4137 Clear 4 998 65 10000 2 350 21:37 25.04.2020
4138 Clouds 5 998 74 10000 2 360 21:18 25.04.2020
4139 Clouds 6 998 60 10000 1 0 20:42 25.04.2020
4140 Clouds 6 998 60 10000 1 0 20:23 25.04.2020
4141 Clouds 6 997 74 10000 2 10 19:59 25.04.2020
4142 Clouds 6 997 75 10000 3 220 19:38 25.04.2020
4143 Clouds 6 997 75 10000 3 200 19:20 25.04.2020
4144 Clouds 6 997 70 10000 2 230 18:44 25.04.2020
4145 Rain 7 996 70 10000 3 210 18:22 25.04.2020
4146 Rain 7 996 70 10000 3 210 17:59 25.04.2020
4147 Rain 7 996 67 10000 1 0 17:40 25.04.2020
4148 Clouds 7 996 67 10000 4 330 17:22 25.04.2020
4149 Clouds 7 996 67 10000 4 330 16:59 25.04.2020
4150 Rain 7 996 67 10000 1 0 16:41 25.04.2020
4151 Rain 7 996 65 10000 1 0 16:23 25.04.2020
4152 Clouds 7 996 70 10000 2 330 15:55 25.04.2020
4153 Clouds 7 996 70 10000 2 330 15:37 25.04.2020
4154 Rain 7 997 70 10000 3 310 15:18 25.04.2020
4155 Rain 7 997 70 10000 3 310 14:56 25.04.2020
4156 Rain 6 996 73 10000 4 360 14:37 25.04.2020
4157 Clouds 7 996 49 10000 4 240 14:18 25.04.2020
4158 Rain 7 996 73 10000 4 200 13:41 25.04.2020
4159 Rain 7 996 73 10000 4 200 13:41 25.04.2020
4160 Rain 8 996 45 10000 3 220 13:19 25.04.2020
4161 Rain 7 996 45 10000 3 220 12:56 25.04.2020
4162 Rain 7 996 49 10000 3 280 12:38 25.04.2020
4163 Rain 8 996 49 10000 3 280 12:38 25.04.2020
4164 Rain 8 996 74 10000 4 260 12:19 25.04.2020
4165 Rain 8 996 52 10000 4 260 11:43 25.04.2020
4166 Rain 7 996 74 10000 4 290 11:25 25.04.2020
4167 Rain 7 996 70 10000 4 270 10:59 25.04.2020
4168 Rain 7 996 70 10000 4 270 10:41 25.04.2020
4169 Clouds 7 996 70 10000 5 280 10:21 25.04.2020
4170 Clouds 7 996 75 10000 6 270 09:45 25.04.2020
4171 Clouds 7 996 75 10000 6 270 09:26 25.04.2020
4172 Clouds 7 995 81 10000 5 250 08:57 25.04.2020
4173 Clouds 6 995 86 10000 5 260 08:38 25.04.2020
4174 Clouds 6 995 86 10000 5 280 08:20 25.04.2020
4175 Clouds 6 995 93 10000 4 260 07:45 25.04.2020
4176 Clouds 5 995 93 10000 4 250 07:23 25.04.2020
4177 Clouds 5 995 93 10000 3 270 06:44 25.04.2020
4178 Clouds 4 995 100 10000 3 280 05:48 25.04.2020
4179 Clouds 4 995 100 10000 3 280 05:30 25.04.2020
4180 Clouds 5 995 100 10000 3 260 04:29 25.04.2020
4181 Clouds 4 995 93 10000 3 290 02:59 25.04.2020
4182 Clouds 5 995 93 10000 3 300 02:20 25.04.2020
4183 Clouds 5 995 93 10000 3 300 01:51 25.04.2020
4184 Rain 6 995 86 9000 5 290 01:27 25.04.2020
4185 Rain 6 995 93 10000 2 250 00:50 25.04.2020
4186 Rain 5 995 93 10000 2 250 00:31 25.04.2020
4187 Clouds 5 996 86 10000 4 240 23:43 24.04.2020
4188 Clouds 5 996 86 10000 5 240 23:23 24.04.2020
4189 Clouds 5 996 86 10000 4 220 22:56 24.04.2020
4190 Clouds 5 996 86 10000 4 220 22:56 24.04.2020
4191 Clouds 5 996 86 10000 4 220 22:38 24.04.2020
4192 Clouds 5 996 86 10000 4 230 22:19 24.04.2020
4193 Clouds 5 996 86 10000 4 230 21:55 24.04.2020
4194 Clouds 5 996 86 10000 3 220 21:36 24.04.2020
4195 Clouds 5 996 86 10000 3 210 21:18 24.04.2020
4196 Clouds 6 997 81 10000 2 210 20:55 24.04.2020
4197 Clouds 6 997 81 10000 2 210 20:36 24.04.2020
4198 Clouds 6 997 81 10000 3 210 20:18 24.04.2020
4199 Clouds 6 997 81 10000 3 240 19:40 24.04.2020
4200 Clouds 7 997 75 10000 4 220 19:21 24.04.2020
4201 Clouds 6 997 81 10000 4 250 18:44 24.04.2020
4202 Clouds 6 997 81 10000 4 250 18:26 24.04.2020
4203 Clouds 6 998 75 10000 4 250 17:57 24.04.2020
4204 Rain 6 998 81 10000 6 240 17:37 24.04.2020
4205 Rain 6 999 81 10000 5 240 17:19 24.04.2020
4206 Rain 6 999 81 10000 5 240 16:57 24.04.2020
4207 Rain 6 999 81 10000 6 230 16:39 24.04.2020
4208 Rain 6 999 81 10000 6 230 16:20 24.04.2020
4209 Rain 6 999 70 10000 6 230 15:42 24.04.2020
4210 Rain 7 999 70 10000 6 230 15:21 24.04.2020
4211 Rain 8 1000 56 10000 5 220 14:57 24.04.2020
4212 Rain 8 1000 56 10000 5 220 14:38 24.04.2020
4213 Rain 8 1000 48 10000 2 170 14:19 24.04.2020
4214 Rain 8 1001 52 10000 5 250 13:41 24.04.2020
4215 Rain 8 1001 52 10000 5 250 13:21 24.04.2020
4216 Rain 9 1001 39 10000 6 230 12:58 24.04.2020
4217 Rain 9 1001 39 10000 6 230 12:40 24.04.2020
4218 Clouds 9 1001 33 10000 6 220 12:20 24.04.2020
4219 Clouds 8 1002 33 10000 4 200 11:43 24.04.2020
4220 Clouds 8 1002 31 10000 2 210 11:23 24.04.2020
4221 Clouds 8 1002 31 10000 2 210 10:59 24.04.2020
4222 Clouds 8 1003 33 10000 2 140 10:38 24.04.2020
4223 Clouds 6 1003 38 10000 2 150 10:20 24.04.2020
4224 Clouds 6 1003 38 10000 2 150 09:57 24.04.2020
4225 Clouds 6 1003 38 10000 3 150 09:37 24.04.2020
4226 Clouds 5 1004 41 10000 3 190 09:19 24.04.2020
4227 Clouds 4 1004 44 10000 3 140 08:42 24.04.2020
4228 Clouds 4 1004 44 10000 3 140 08:21 24.04.2020
4229 Clouds 3 1004 47 10000 4 150 07:58 24.04.2020
4230 Clouds 3 1004 47 10000 3 150 07:40 24.04.2020
4231 Clouds 3 1004 47 10000 3 150 07:21 24.04.2020
4232 Clouds 1 1005 59 10000 4 120 06:44 24.04.2020
4233 Clouds 1 1005 59 10000 4 120 06:23 24.04.2020
4234 Clouds 0 1005 68 10000 3 100 05:39 24.04.2020
4235 Clouds -1 1006 73 10000 4 90 03:41 24.04.2020
4236 Clouds 0 1006 74 10000 3 80 02:51 24.04.2020
4237 Clouds 0 1006 74 10000 3 80 02:31 24.04.2020
4238 Clouds 1 1006 68 10000 3 70 01:47 24.04.2020
4239 Clouds 1 1006 68 10000 3 80 00:55 24.04.2020
4240 Clouds 2 1006 59 10000 1 0 00:20 24.04.2020
4241 Clouds 3 1006 59 10000 2 340 23:48 23.04.2020
4242 Clouds 3 1006 55 10000 1 0 23:28 23.04.2020
4243 Clouds 3 1006 51 10000 1 0 22:59 23.04.2020
4244 Clouds 3 1006 51 10000 1 0 22:41 23.04.2020
4245 Clouds 3 1006 51 10000 1 0 22:41 23.04.2020
4246 Clouds 3 1006 51 10000 1 0 22:21 23.04.2020
4247 Clouds 4 1006 44 10000 2 110 21:58 23.04.2020
4248 Clouds 4 1006 44 10000 2 110 21:39 23.04.2020
4249 Clouds 4 1006 44 10000 2 110 21:39 23.04.2020
4250 Rain 5 1007 41 10000 3 70 21:20 23.04.2020
4251 Rain 5 1007 41 10000 4 60 20:58 23.04.2020
4252 Rain 5 1007 41 10000 4 60 20:40 23.04.2020
4253 Rain 6 1007 35 10000 4 60 20:20 23.04.2020
4254 Rain 7 1006 28 10000 5 360 19:56 23.04.2020
4255 Rain 8 1006 28 10000 5 360 19:38 23.04.2020
4256 Rain 8 1006 20 10000 5 330 19:20 23.04.2020
4257 Rain 8 1006 19 10000 7 310 18:43 23.04.2020
4258 Rain 9 1006 19 10000 7 310 18:25 23.04.2020
4259 Rain 9 1006 18 10000 7 320 17:59 23.04.2020
4260 Rain 9 1006 18 10000 6 320 17:59 23.04.2020
4261 Rain 9 1006 18 10000 7 320 17:39 23.04.2020
4262 Rain 10 1006 16 9000 9 310 17:21 23.04.2020
4263 Rain 10 1006 16 9000 9 310 16:57 23.04.2020
4264 Rain 10 1006 16 9000 8 310 16:38 23.04.2020
4265 Rain 10 1006 16 9000 8 330 16:18 23.04.2020
4266 Rain 10 1006 16 10000 8 320 15:42 23.04.2020
4267 Clouds 10 1006 15 9000 8 300 15:23 23.04.2020
4268 Clouds 11 1006 15 9000 8 300 14:57 23.04.2020
4269 Clouds 11 1006 15 10000 8 310 14:38 23.04.2020
4270 Rain 10 1007 16 10000 8 300 14:19 23.04.2020
4271 Rain 10 1007 16 10000 8 300 13:55 23.04.2020
4272 Rain 10 1007 18 9000 8 290 13:36 23.04.2020
4273 Rain 10 1007 18 10000 9 320 13:18 23.04.2020
4274 Rain 10 1007 16 10000 8 290 12:42 23.04.2020
4275 Clouds 10 1007 16 10000 8 290 12:24 23.04.2020
4276 Clouds 9 1007 18 10000 9 310 11:56 23.04.2020
4277 Clouds 9 1008 19 10000 7 320 11:38 23.04.2020
4278 Clouds 9 1008 19 10000 7 320 11:38 23.04.2020
4279 Clouds 9 1008 19 10000 8 320 11:18 23.04.2020
4280 Clouds 8 1008 19 10000 8 310 10:41 23.04.2020
4281 Clouds 8 1008 20 10000 7 310 10:22 23.04.2020
4282 Clouds 8 1008 20 10000 7 310 09:55 23.04.2020
4283 Clouds 7 1009 24 10000 7 310 09:37 23.04.2020
4284 Clouds 7 1009 28 10000 6 300 09:18 23.04.2020
4285 Clouds 6 1009 28 10000 7 290 08:42 23.04.2020
4286 Clouds 5 1010 30 10000 7 300 08:23 23.04.2020
4287 Clouds 5 1010 32 10000 6 300 07:42 23.04.2020
4288 Clouds 4 1010 37 10000 5 290 07:23 23.04.2020
4289 Clouds 3 1010 40 10000 5 290 06:49 23.04.2020
4290 Clouds 3 1010 40 10000 5 290 06:22 23.04.2020
4291 Clouds 2 1011 43 10000 4 280 05:29 23.04.2020
4292 Clouds 2 1011 43 10000 4 280 04:51 23.04.2020
4293 Clouds 2 1012 43 10000 4 300 02:24 23.04.2020
4294 Clouds 3 1012 37 10000 4 300 01:49 23.04.2020
4295 Clouds 3 1012 37 10000 4 300 01:25 23.04.2020
4296 Clouds 3 1013 37 10000 5 310 00:47 23.04.2020
4297 Clouds 3 1013 37 10000 5 320 00:20 23.04.2020
4298 Clouds 3 1013 34 10000 5 310 23:49 22.04.2020
4299 Clouds 3 1013 34 10000 5 310 23:23 22.04.2020
4300 Clouds 4 1013 34 10000 5 310 22:56 22.04.2020
4301 Clouds 4 1013 34 10000 5 300 22:37 22.04.2020
4302 Clouds 4 1013 34 10000 4 290 22:19 22.04.2020
4303 Clouds 4 1013 29 10000 4 300 21:56 22.04.2020
4304 Clouds 4 1013 29 10000 4 300 21:37 22.04.2020
4305 Clouds 5 1013 29 10000 3 280 21:19 22.04.2020
4306 Clouds 5 1013 27 10000 3 320 20:43 22.04.2020
4307 Clouds 6 1013 25 10000 4 320 20:19 22.04.2020
4308 Clouds 6 1013 25 10000 4 320 19:58 22.04.2020
4309 Clouds 6 1013 24 10000 5 340 19:39 22.04.2020
4310 Clouds 6 1013 24 10000 5 340 19:39 22.04.2020
4311 Clouds 6 1013 24 10000 7 340 19:19 22.04.2020
4312 Clouds 6 1013 24 10000 7 340 18:59 22.04.2020
4313 Clouds 7 1013 22 10000 9 340 18:41 22.04.2020
4314 Clouds 7 1013 20 10000 8 340 18:22 22.04.2020
4315 Clouds 7 1013 20 10000 8 340 17:57 22.04.2020
4316 Clouds 7 1013 20 10000 8 340 17:39 22.04.2020
4317 Clouds 7 1013 22 9000 12 340 17:20 22.04.2020
4318 Clouds 7 1013 20 10000 10 340 16:43 22.04.2020
4319 Clouds 7 1012 20 10000 11 350 16:25 22.04.2020
4320 Clouds 7 1012 20 10000 11 350 15:54 22.04.2020
4321 Clouds 7 1012 22 9000 10 330 15:36 22.04.2020
4322 Clouds 7 1012 20 9000 10 340 15:18 22.04.2020
4323 Clouds 7 1012 20 9000 10 340 15:18 22.04.2020
4324 Clouds 7 1012 24 8000 10 340 14:41 22.04.2020
4325 Clouds 7 1012 22 10000 11 340 14:21 22.04.2020
4326 Clouds 7 1012 22 10000 11 340 13:57 22.04.2020
4327 Clouds 7 1012 22 10000 11 340 13:57 22.04.2020
4328 Clouds 7 1012 22 9000 10 330 13:39 22.04.2020
4329 Clouds 6 1012 24 9000 11 350 13:19 22.04.2020
4330 Clouds 6 1012 26 9000 11 350 12:42 22.04.2020
4331 Clouds 6 1012 26 9000 11 350 12:23 22.04.2020
4332 Snow 5 1012 44 9000 10 360 11:57 22.04.2020
4333 Snow 5 1012 44 9000 10 360 11:36 22.04.2020
4334 Clouds 5 1012 35 8000 10 350 11:18 22.04.2020
4335 Clouds 4 1012 44 9000 10 340 10:41 22.04.2020
4336 Clouds 4 1012 44 9000 10 340 10:23 22.04.2020
4337 Clouds 5 1011 41 10000 10 350 09:42 22.04.2020
4338 Clouds 6 1011 41 10000 10 350 09:23 22.04.2020
4339 Clouds 6 1011 38 10000 9 340 08:59 22.04.2020
4340 Clouds 6 1011 44 9000 8 350 08:41 22.04.2020
4341 Clouds 6 1011 44 9000 8 350 08:22 22.04.2020
4342 Clouds 5 1011 48 10000 9 350 07:54 22.04.2020
4343 Clouds 5 1011 48 10000 9 350 07:33 22.04.2020
4344 Clouds 5 1011 52 10000 9 340 06:54 22.04.2020
4345 Clouds 5 1011 52 10000 7 340 06:34 22.04.2020
4346 Clouds 4 1011 60 10000 6 330 05:39 22.04.2020
4347 Clouds 5 1011 56 10000 5 340 04:34 22.04.2020
4348 Clouds 5 1012 56 10000 5 330 02:59 22.04.2020
4349 Clouds 5 1012 56 10000 5 340 01:56 22.04.2020
4350 Clouds 5 1012 48 10000 4 330 01:38 22.04.2020
4351 Clouds 5 1012 52 10000 5 330 01:19 22.04.2020
4352 Clouds 5 1013 52 10000 4 340 00:41 22.04.2020
4353 Clouds 5 1013 52 10000 5 330 00:20 22.04.2020
4354 Clouds 5 1013 45 10000 4 330 23:44 21.04.2020
4355 Clouds 5 1013 45 10000 5 330 23:21 21.04.2020
4356 Clouds 6 1013 45 10000 5 330 22:55 21.04.2020
4357 Clouds 6 1014 45 10000 5 340 22:37 21.04.2020
4358 Clouds 6 1014 45 10000 6 340 22:19 21.04.2020
4359 Clouds 6 1014 41 10000 5 350 21:43 21.04.2020
4360 Clouds 6 1014 41 10000 5 350 21:24 21.04.2020
4361 Clouds 7 1015 41 10000 7 350 20:59 21.04.2020
4362 Clouds 7 1015 41 10000 7 350 20:40 21.04.2020
4363 Clouds 7 1015 42 10000 6 350 20:22 21.04.2020
4364 Clouds 7 1015 42 10000 6 350 19:57 21.04.2020
4365 Clouds 7 1015 42 10000 5 350 19:37 21.04.2020
4366 Clouds 7 1015 39 10000 6 350 19:18 21.04.2020
4367 Clouds 7 1015 39 10000 6 350 18:54 21.04.2020
4368 Clouds 8 1016 36 10000 7 350 18:36 21.04.2020
4369 Clouds 8 1016 36 10000 7 350 18:18 21.04.2020
4370 Clouds 8 1016 36 10000 7 350 17:39 21.04.2020
4371 Clouds 9 1016 36 10000 8 330 17:19 21.04.2020
4372 Clouds 10 1016 36 10000 8 330 16:54 21.04.2020
4373 Clouds 9 1016 34 10000 7 350 16:36 21.04.2020
4374 Clouds 10 1016 34 10000 8 340 16:18 21.04.2020
4375 Clouds 10 1016 31 10000 7 350 15:55 21.04.2020
4376 Clouds 9 1016 31 10000 7 350 15:36 21.04.2020
4377 Clouds 10 1016 31 10000 7 350 15:18 21.04.2020
4378 Clouds 10 1016 34 10000 7 330 14:44 21.04.2020
4379 Clouds 10 1016 34 10000 7 330 14:23 21.04.2020
4380 Clouds 10 1016 31 10000 9 350 13:55 21.04.2020
4381 Clouds 10 1017 34 10000 8 350 13:37 21.04.2020
4382 Clouds 10 1017 36 10000 7 340 13:18 21.04.2020
4383 Clear 10 1017 36 10000 7 360 12:38 21.04.2020
4384 Clear 10 1017 36 10000 8 10 12:19 21.04.2020
4385 Clear 10 1017 36 10000 8 10 11:57 21.04.2020
4386 Clear 9 1018 36 10000 6 350 11:38 21.04.2020
4387 Clouds 9 1018 36 10000 7 360 11:19 21.04.2020
4388 Clouds 8 1018 36 10000 7 360 10:58 21.04.2020
4389 Clouds 8 1018 45 10000 8 10 10:39 21.04.2020
4390 Clouds 8 1018 48 10000 7 10 10:21 21.04.2020
4391 Clouds 7 1018 52 10000 8 10 09:55 21.04.2020
4392 Clouds 7 1018 52 10000 8 10 09:36 21.04.2020
4393 Clear 7 1018 60 10000 8 10 09:18 21.04.2020
4394 Clear 6 1018 60 10000 6 360 08:43 21.04.2020
4395 Clear 6 1018 60 10000 6 360 08:24 21.04.2020
4396 Clear 5 1019 74 10000 5 360 07:50 21.04.2020
4397 Clear 5 1019 74 10000 5 360 07:27 21.04.2020
4398 Clear 2 1019 86 10000 6 360 06:50 21.04.2020
4399 Clear 1 1019 86 10000 6 360 06:31 21.04.2020
4400 Clear 0 1019 83 10000 5 350 05:49 21.04.2020
4401 Clear 0 1018 83 10000 5 350 04:55 21.04.2020
4402 Clear 0 1018 83 10000 5 350 03:45 21.04.2020
4403 Clear 1 1018 80 10000 5 350 02:40 21.04.2020
4404 Clear 1 1018 80 10000 4 350 01:30 21.04.2020
4405 Clear 1 1018 74 10000 4 360 00:38 21.04.2020
4406 Clear 2 1018 74 10000 4 360 23:55 20.04.2020
4407 Clear 2 1018 69 10000 5 350 23:37 20.04.2020
4408 Clear 2 1018 69 10000 4 340 23:19 20.04.2020
4409 Clear 2 1018 69 10000 4 340 22:54 20.04.2020
4410 Clear 2 1018 69 10000 3 340 22:36 20.04.2020
4411 Clear 3 1018 64 10000 3 350 22:18 20.04.2020
4412 Clear 3 1018 64 10000 3 10 21:54 20.04.2020
4413 Clear 3 1018 64 10000 3 350 21:54 20.04.2020
4414 Clouds 3 1018 64 10000 3 10 21:36 20.04.2020
4415 Clouds 3 1018 64 10000 3 360 21:18 20.04.2020
4416 Clouds 4 1018 69 10000 2 330 20:40 20.04.2020
4417 Clouds 3 1018 64 10000 2 320 20:19 20.04.2020
4418 Clouds 3 1018 64 10000 2 320 19:59 20.04.2020
4419 Clouds 5 1018 65 10000 3 340 19:40 20.04.2020
4420 Clouds 5 1017 60 10000 3 340 19:20 20.04.2020
4421 Clouds 5 1017 60 10000 3 340 18:55 20.04.2020
4422 Clouds 6 1017 60 10000 3 340 18:37 20.04.2020
4423 Rain 6 1017 56 10000 4 360 18:19 20.04.2020
4424 Clouds 7 1017 60 10000 6 350 17:43 20.04.2020
4425 Clouds 6 1016 56 10000 5 30 17:23 20.04.2020
4426 Clouds 6 1016 56 10000 5 30 16:59 20.04.2020
4427 Clouds 7 1017 54 10000 4 20 16:40 20.04.2020
4428 Rain 8 1017 70 10000 5 50 16:19 20.04.2020
4429 Rain 8 1017 70 10000 5 50 15:55 20.04.2020
4430 Clouds 8 1017 60 10000 9 20 15:36 20.04.2020
4431 Clouds 8 1017 60 10000 9 20 15:36 20.04.2020
4432 Clouds 8 1016 45 10000 5 360 15:18 20.04.2020
4433 Clouds 7 1016 48 9000 6 350 14:41 20.04.2020
4434 Clouds 8 1016 48 10000 5 320 14:19 20.04.2020
4435 Rain 7 1016 56 10000 6 360 13:57 20.04.2020
4436 Rain 7 1016 56 10000 6 360 13:38 20.04.2020
4437 Clouds 7 1016 52 10000 4 360 13:20 20.04.2020
4438 Clouds 7 1016 48 10000 3 80 12:44 20.04.2020
4439 Clouds 7 1016 52 10000 3 80 12:22 20.04.2020
4440 Clouds 6 1016 75 10000 2 10 11:54 20.04.2020
4441 Clouds 6 1016 75 10000 2 10 11:36 20.04.2020
4442 Clouds 5 1016 75 10000 4 10 11:18 20.04.2020
4443 Clouds 5 1016 75 10000 4 10 10:54 20.04.2020
4444 Clouds 5 1016 75 10000 4 20 10:36 20.04.2020
4445 Clouds 5 1016 80 10000 4 20 10:18 20.04.2020
4446 Clouds 4 1016 86 10000 3 40 09:41 20.04.2020
4447 Clouds 4 1016 86 10000 3 40 09:23 20.04.2020
4448 Clouds 3 1016 100 10000 4 30 08:57 20.04.2020
4449 Clouds 3 1016 100 10000 4 30 08:39 20.04.2020
4450 Clouds 3 1016 93 10000 4 360 08:18 20.04.2020
4451 Clouds 2 1016 100 10000 4 20 07:42 20.04.2020
4452 Clouds 4 1015 100 10000 3 10 07:24 20.04.2020
4453 Clouds 1 1015 65 10000 2 20 06:38 20.04.2020
4454 Clouds 0 1015 87 10000 3 340 05:59 20.04.2020
4455 Mist 0 1014 87 2300 3 350 04:51 20.04.2020
4456 Clouds 1 1014 86 10000 2 350 02:52 20.04.2020
4457 Clouds 1 1014 86 10000 2 350 02:33 20.04.2020
4458 Clouds 1 1014 86 10000 2 360 01:30 20.04.2020
4459 Clouds 2 1013 93 10000 1 10 00:47 20.04.2020
4460 Clouds 2 1013 93 10000 1 10 00:25 20.04.2020
4461 Clouds 2 1013 93 10000 2 340 23:41 19.04.2020
4462 Clouds 4 1013 93 10000 2 350 23:22 19.04.2020
4463 Clouds 2 1013 93 10000 2 350 22:59 19.04.2020
4464 Clouds 2 1013 100 10000 1 0 22:39 19.04.2020
4465 Clouds 3 1013 93 10000 2 350 22:20 19.04.2020
4466 Clouds 5 1013 86 10000 2 340 21:44 19.04.2020
4467 Clouds 5 1013 86 10000 2 350 21:25 19.04.2020
4468 Clouds 5 1012 86 10000 2 30 20:59 19.04.2020
4469 Clouds 5 1012 86 10000 2 30 20:41 19.04.2020
4470 Clouds 4 1012 80 10000 2 100 20:20 19.04.2020
4471 Clouds 6 1012 80 10000 2 70 19:57 19.04.2020
4472 Clouds 6 1012 80 10000 2 70 19:39 19.04.2020
4473 Clouds 6 1012 75 10000 2 320 19:21 19.04.2020
4474 Clouds 6 1012 75 10000 2 320 18:58 19.04.2020
4475 Clouds 6 1011 72 10000 1 0 18:39 19.04.2020
4476 Clouds 7 1011 59 10000 1 0 18:19 19.04.2020
4477 Clouds 7 1011 59 10000 1 0 18:19 19.04.2020
4478 Clouds 5 1011 59 10000 2 360 17:56 19.04.2020
4479 Clouds 5 1011 59 10000 2 360 17:38 19.04.2020
4480 Clouds 5 1011 75 10000 4 330 17:20 19.04.2020
4481 Clouds 5 1011 75 10000 3 330 16:56 19.04.2020
4482 Clouds 5 1011 75 10000 3 330 16:37 19.04.2020
4483 Clouds 5 1011 59 10000 3 270 16:19 19.04.2020
4484 Rain 6 1011 59 10000 5 260 15:42 19.04.2020
4485 Rain 6 1011 59 10000 5 260 15:42 19.04.2020
4486 Clouds 6 1010 70 10000 2 150 15:22 19.04.2020
4487 Clouds 7 1010 70 10000 2 150 14:55 19.04.2020
4488 Clouds 6 1010 75 10000 2 120 14:36 19.04.2020
4489 Clouds 6 1010 80 10000 2 110 14:18 19.04.2020
4490 Clouds 4 1010 86 10000 1 0 13:39 19.04.2020
4491 Clouds 4 1010 86 7000 4 280 13:19 19.04.2020
4492 Clouds 5 1010 75 10000 1 0 12:50 19.04.2020
4493 Clouds 4 1009 86 10000 3 200 12:25 19.04.2020
4494 Clouds 4 1009 86 10000 3 200 11:59 19.04.2020
4495 Rain 4 1009 80 10000 4 280 11:37 19.04.2020
4496 Rain 4 1009 80 10000 4 280 11:37 19.04.2020
4497 Rain 5 1009 75 10000 3 200 11:19 19.04.2020
4498 Rain 5 1009 75 10000 3 200 10:56 19.04.2020
4499 Clouds 5 1009 75 10000 2 210 10:38 19.04.2020
4500 Clouds 4 1009 80 10000 2 220 10:19 19.04.2020
4501 Clouds 3 1009 86 10000 2 230 09:45 19.04.2020
4502 Clouds 3 1009 86 10000 2 230 09:27 19.04.2020
4503 Drizzle 3 1008 86 10000 3 240 08:41 19.04.2020
4504 Clouds 3 1008 86 10000 3 250 08:23 19.04.2020
4505 Clouds 3 1008 86 10000 3 250 07:59 19.04.2020
4506 Clouds 3 1008 100 10000 4 240 07:41 19.04.2020
4507 Clouds 3 1008 100 10000 4 240 07:22 19.04.2020
4508 Snow 2 1008 93 9000 3 230 06:29 19.04.2020
4509 Rain 1 1008 100 10000 4 240 05:55 19.04.2020
4510 Clouds 1 1007 100 10000 4 240 04:48 19.04.2020
4511 Snow 2 1007 93 10000 4 240 02:59 19.04.2020
4512 Clouds 2 1007 93 10000 4 220 02:21 19.04.2020
4513 Clouds 2 1007 93 10000 4 250 01:39 19.04.2020
4514 Clouds 2 1007 88 10000 4 260 00:49 19.04.2020
4515 Clouds 3 1007 84 10000 3 250 00:25 19.04.2020
4516 Clouds 3 1007 84 10000 4 260 23:56 18.04.2020
4517 Clouds 1 1007 84 10000 4 260 23:36 18.04.2020
4518 Clouds 1 1007 84 10000 5 260 23:18 18.04.2020
4519 Clouds 1 1007 84 10000 4 270 22:42 18.04.2020
4520 Clouds 2 1007 93 10000 4 240 22:21 18.04.2020
4521 Clouds 4 1007 93 10000 4 240 21:57 18.04.2020
4522 Clouds 4 1007 84 10000 4 250 21:38 18.04.2020
4523 Clouds 4 1007 73 10000 6 250 21:20 18.04.2020
4524 Clouds 5 1007 73 10000 4 280 20:42 18.04.2020
4525 Clouds 5 1007 73 10000 4 280 20:22 18.04.2020
4526 Clouds 2 1007 73 10000 4 250 19:59 18.04.2020
4527 Clouds 2 1006 80 10000 3 260 19:38 18.04.2020
4528 Clouds 6 1006 69 10000 5 280 19:20 18.04.2020
4529 Clouds 6 1006 60 10000 6 290 18:38 18.04.2020
4530 Clouds 6 1006 60 10000 6 290 18:38 18.04.2020
4531 Clouds 6 1006 65 10000 5 290 18:20 18.04.2020
4532 Clouds 7 1005 59 10000 7 290 17:55 18.04.2020
4533 Clouds 5 1005 59 10000 7 290 17:36 18.04.2020
4534 Clouds 5 1005 59 10000 6 270 17:18 18.04.2020
4535 Clouds 5 1005 59 10000 8 260 16:42 18.04.2020
4536 Clouds 6 1005 59 10000 5 290 16:22 18.04.2020
4537 Clouds 6 1005 59 10000 5 290 15:55 18.04.2020
4538 Clouds 4 1004 59 10000 5 300 15:37 18.04.2020
4539 Clouds 6 1004 70 10000 5 270 15:18 18.04.2020
4540 Clouds 6 1004 70 10000 6 260 14:41 18.04.2020
4541 Clouds 6 1004 70 10000 6 260 14:19 18.04.2020
4542 Clouds 5 1004 55 10000 6 290 13:43 18.04.2020
4543 Clouds 5 1004 55 10000 6 290 13:20 18.04.2020
4544 Snow 4 1003 80 9000 7 240 12:43 18.04.2020
4545 Snow 4 1003 80 9000 7 240 12:25 18.04.2020
4546 Snow 2 1003 93 9000 6 300 11:58 18.04.2020
4547 Snow 4 1003 86 10000 6 250 11:40 18.04.2020
4548 Snow 5 1003 86 10000 5 260 11:21 18.04.2020
4549 Snow 5 1003 86 10000 5 260 11:21 18.04.2020
4550 Snow 4 1003 86 10000 5 260 11:21 18.04.2020
4551 Snow 5 1003 86 10000 5 260 10:54 18.04.2020
4552 Snow 4 1003 86 10000 7 260 10:36 18.04.2020
4553 Clouds 3 1003 86 10000 7 270 10:18 18.04.2020
4554 Snow 3 1003 100 9000 6 260 09:40 18.04.2020
4555 Snow 3 1002 100 5000 6 260 09:20 18.04.2020
4556 Snow 1 1002 76 2500 6 260 08:43 18.04.2020
4557 Snow 2 1002 76 9000 6 260 08:23 18.04.2020
4558 Snow 2 1002 76 9000 6 260 07:49 18.04.2020
4559 Clouds 2 1002 76 10000 7 260 07:30 18.04.2020
4560 Clouds 2 1001 76 10000 5 250 06:50 18.04.2020
4561 Clear 0 1001 90 10000 5 260 05:50 18.04.2020
4562 Clear -1 1000 100 10000 5 260 04:57 18.04.2020
4563 Clouds 1 1000 92 10000 5 250 04:39 18.04.2020
4564 Clear 1 1000 100 10000 5 240 04:18 18.04.2020
4565 Clouds 1 1000 92 10000 4 250 02:45 18.04.2020
4566 Clouds 1 1000 92 10000 4 250 02:21 18.04.2020
4567 Clouds 1 1000 92 10000 4 250 02:21 18.04.2020
4568 Clouds 1 1000 92 10000 4 250 02:21 18.04.2020
4569 Clouds 1 1000 87 10000 4 260 01:51 18.04.2020
4570 Clouds 1 1000 87 10000 5 280 01:28 18.04.2020
4571 Clouds 2 1000 86 10000 6 270 00:38 18.04.2020
4572 Clouds 2 999 81 10000 5 260 00:20 18.04.2020
4573 Clouds 1 999 81 10000 5 260 23:54 17.04.2020
4574 Clouds 2 999 81 10000 5 260 23:36 17.04.2020
4575 Clouds 2 999 81 10000 5 250 23:18 17.04.2020
4576 Clouds 3 999 81 10000 5 250 22:41 17.04.2020
4577 Clouds 3 999 81 10000 4 260 22:21 17.04.2020
4578 Clouds 3 999 81 10000 4 260 21:59 17.04.2020
4579 Clouds 3 1000 86 10000 4 260 21:40 17.04.2020
4580 Clouds 3 1000 86 10000 5 250 21:20 17.04.2020
4581 Clouds 3 1000 86 10000 5 250 21:20 17.04.2020
4582 Clouds 3 1000 86 10000 5 250 20:56 17.04.2020
4583 Clouds 1 999 86 10000 4 260 20:37 17.04.2020
4584 Clouds 3 999 86 10000 4 260 20:18 17.04.2020
4585 Snow 3 999 76 8000 8 280 19:56 17.04.2020
4586 Snow 3 999 76 8000 8 280 19:38 17.04.2020
4587 Clouds 5 998 69 10000 3 290 19:19 17.04.2020
4588 Clouds 5 998 60 10000 6 290 18:42 17.04.2020
4589 Clouds 5 998 60 10000 3 270 18:22 17.04.2020
4590 Clouds 5 997 56 10000 4 290 17:38 17.04.2020
4591 Rain 5 997 60 10000 5 310 17:20 17.04.2020
4592 Rain 5 997 60 10000 5 310 16:59 17.04.2020
4593 Clouds 5 997 60 10000 4 320 16:41 17.04.2020
4594 Clouds 5 997 60 10000 4 320 16:22 17.04.2020
4595 Clouds 5 997 60 10000 7 300 15:40 17.04.2020
4596 Clouds 5 997 60 10000 7 300 15:22 17.04.2020
4597 Rain 6 997 58 10000 4 290 14:55 17.04.2020
4598 Clouds 4 997 80 10000 3 310 14:36 17.04.2020
4599 Rain 6 996 60 10000 10 270 14:18 17.04.2020
4600 Clouds 5 996 75 10000 5 300 13:40 17.04.2020
4601 Rain 5 996 70 10000 7 280 13:20 17.04.2020
4602 Rain 5 996 70 10000 7 280 12:57 17.04.2020
4603 Rain 5 996 59 9000 7 260 12:38 17.04.2020
4604 Clouds 4 996 75 10000 7 260 12:20 17.04.2020
4605 Clouds 5 996 70 10000 6 280 11:40 17.04.2020
4606 Clouds 5 996 75 10000 6 270 11:19 17.04.2020
4607 Clouds 4 996 80 10000 7 260 10:43 17.04.2020
4608 Snow 3 996 70 10000 8 270 10:22 17.04.2020
4609 Snow 3 996 70 10000 8 270 09:57 17.04.2020
4610 Clouds 3 996 73 10000 7 280 09:38 17.04.2020
4611 Clouds 2 995 73 10000 7 280 09:19 17.04.2020
4612 Clouds 2 995 73 10000 7 280 08:47 17.04.2020
4613 Clouds 2 995 73 10000 7 280 08:27 17.04.2020
4614 Snow 2 995 73 10000 6 280 07:58 17.04.2020
4615 Clouds 2 995 73 10000 6 290 07:39 17.04.2020
4616 Clouds 2 995 86 10000 7 290 07:19 17.04.2020
4617 Clouds 1 995 86 10000 7 280 06:44 17.04.2020
4618 Clouds 1 994 86 10000 7 290 05:58 17.04.2020
4619 Snow 1 993 86 10000 6 300 03:27 17.04.2020
4620 Clouds 2 993 78 10000 6 290 02:55 17.04.2020
4621 Clouds 2 990 93 10000 7 320 01:46 17.04.2020
4622 Rain 3 990 93 10000 6 320 01:22 17.04.2020
4623 Rain 3 988 93 10000 7 320 00:21 17.04.2020
4624 Rain 3 988 93 10000 7 320 23:55 16.04.2020
4625 Rain 3 987 93 9000 6 310 23:37 16.04.2020
4626 Rain 4 987 93 9000 6 300 23:19 16.04.2020
4627 Rain 4 986 93 9000 6 290 22:40 16.04.2020
4628 Rain 4 986 93 9000 6 290 22:22 16.04.2020
4629 Rain 4 986 93 9000 5 280 21:59 16.04.2020
4630 Clouds 4 985 93 10000 6 260 21:40 16.04.2020
4631 Clouds 4 985 93 10000 7 260 21:19 16.04.2020
4632 Clouds 4 985 93 10000 6 260 20:43 16.04.2020
4633 Clouds 5 985 93 10000 5 260 20:23 16.04.2020
4634 Clouds 5 985 93 10000 5 260 19:59 16.04.2020
4635 Rain 5 985 93 10000 5 250 19:39 16.04.2020
4636 Rain 5 985 100 10000 5 250 19:20 16.04.2020
4637 Rain 5 986 86 10000 4 230 18:57 16.04.2020
4638 Rain 5 985 100 10000 6 240 18:39 16.04.2020
4639 Rain 5 985 93 10000 4 210 18:20 16.04.2020
4640 Rain 5 985 93 10000 4 210 17:55 16.04.2020
4641 Rain 4 985 93 9000 5 200 17:37 16.04.2020
4642 Clouds 4 985 93 9000 5 200 17:18 16.04.2020
4643 Clouds 4 985 93 9000 5 190 16:41 16.04.2020
4644 Rain 4 986 93 9000 6 180 16:19 16.04.2020
4645 Clouds 4 986 93 9000 6 170 15:45 16.04.2020
4646 Rain 4 987 93 9000 6 170 15:19 16.04.2020
4647 Rain 4 987 93 9000 6 170 14:58 16.04.2020
4648 Rain 4 988 86 9000 6 180 14:39 16.04.2020
4649 Rain 4 989 86 10000 5 210 14:20 16.04.2020
4650 Rain 4 989 86 10000 5 210 13:57 16.04.2020
4651 Rain 5 989 86 10000 8 220 13:37 16.04.2020
4652 Rain 5 990 72 10000 9 240 13:19 16.04.2020
4653 Rain 5 990 72 10000 9 240 12:56 16.04.2020
4654 Clouds 6 990 72 10000 6 230 12:38 16.04.2020
4655 Rain 6 991 70 10000 7 240 12:19 16.04.2020
4656 Rain 6 991 70 10000 7 240 11:55 16.04.2020
4657 Rain 6 991 75 10000 7 240 11:37 16.04.2020
4658 Clouds 6 992 80 10000 7 260 11:18 16.04.2020
4659 Clouds 6 992 80 10000 7 260 11:18 16.04.2020
4660 Clouds 4 992 93 10000 6 220 10:40 16.04.2020
4661 Clouds 4 992 93 10000 6 220 10:19 16.04.2020
4662 Rain 4 993 93 10000 6 230 09:59 16.04.2020
4663 Snow 4 993 86 10000 5 230 09:38 16.04.2020
4664 Snow 3 994 86 10000 6 240 09:19 16.04.2020
4665 Clouds 3 994 75 10000 6 240 08:43 16.04.2020
4666 Clouds 3 994 75 10000 5 270 08:23 16.04.2020
4667 Clouds 2 995 93 10000 6 250 07:46 16.04.2020
4668 Clouds 2 995 93 10000 6 250 07:28 16.04.2020
4669 Clouds 2 995 75 10000 6 250 06:58 16.04.2020
4670 Clouds 2 995 75 10000 4 270 06:39 16.04.2020
4671 Snow 1 995 87 10000 5 270 06:21 16.04.2020
4672 Clouds 1 996 87 10000 4 280 04:48 16.04.2020
4673 Clouds 1 996 93 10000 4 290 03:25 16.04.2020
4674 Clouds 2 996 93 10000 5 270 02:57 16.04.2020
4675 Clouds 2 996 93 10000 5 270 02:33 16.04.2020
4676 Clouds 2 996 100 10000 5 260 01:23 16.04.2020
4677 Snow 2 996 100 9000 5 250 00:49 16.04.2020
4678 Snow 2 996 100 4600 6 260 00:21 16.04.2020
4679 Snow 2 996 93 10000 5 250 23:44 15.04.2020
4680 Snow 2 996 93 10000 5 250 23:24 15.04.2020
4681 Snow 2 996 100 10000 6 240 22:59 15.04.2020
4682 Snow 2 996 93 10000 6 240 22:38 15.04.2020
4683 Snow 1 996 100 6000 4 220 22:20 15.04.2020
4684 Snow 1 996 100 6000 4 220 21:55 15.04.2020
4685 Snow 1 996 100 10000 4 210 21:37 15.04.2020
4686 Snow 1 997 100 10000 3 210 21:18 15.04.2020
4687 Snow 1 997 100 10000 3 210 20:54 15.04.2020
4688 Snow 1 997 100 10000 3 230 20:36 15.04.2020
4689 Snow 1 998 74 6000 3 260 20:18 15.04.2020
4690 Snow 2 998 74 1600 7 250 19:40 15.04.2020
4691 Clouds 2 997 74 10000 4 220 19:20 15.04.2020
4692 Clouds 1 997 74 10000 4 230 18:41 15.04.2020
4693 Clouds 3 998 74 10000 6 250 18:23 15.04.2020
4694 Clouds 3 998 74 10000 6 250 17:58 15.04.2020
4695 Clouds 3 997 69 10000 7 250 17:39 15.04.2020
4696 Clouds 3 998 69 10000 7 250 17:20 15.04.2020
4697 Clouds 3 998 69 10000 7 250 16:56 15.04.2020
4698 Clouds 3 998 59 10000 5 250 16:37 15.04.2020
4699 Snow 3 998 100 4500 5 270 16:19 15.04.2020
4700 Snow 4 998 100 4500 5 270 15:57 15.04.2020
4701 Snow 5 998 48 10000 6 280 15:38 15.04.2020
4702 Snow 4 998 48 10000 6 280 15:19 15.04.2020
4703 Clouds 5 998 45 10000 8 250 14:57 15.04.2020
4704 Clouds 5 998 52 10000 7 260 14:38 15.04.2020
4705 Clouds 5 998 41 10000 4 240 14:20 15.04.2020
4706 Clouds 5 998 41 10000 4 240 13:57 15.04.2020
4707 Clouds 5 998 56 10000 5 270 13:38 15.04.2020
4708 Snow 5 998 56 10000 5 270 13:19 15.04.2020
4709 Snow 5 999 55 10000 7 260 12:42 15.04.2020
4710 Clouds 5 999 55 10000 6 270 12:23 15.04.2020
4711 Clouds 5 999 55 10000 6 270 12:23 15.04.2020
4712 Clouds 4 999 55 10000 6 270 11:59 15.04.2020
4713 Clouds 4 999 55 10000 6 270 11:59 15.04.2020
4714 Snow 5 999 55 10000 6 290 11:40 15.04.2020
4715 Snow 5 999 55 10000 6 290 11:22 15.04.2020
4716 Clouds 5 999 60 10000 4 290 10:40 15.04.2020
4717 Clouds 4 1000 60 10000 4 260 10:22 15.04.2020
4718 Clouds 4 1000 60 10000 4 260 09:58 15.04.2020
4719 Clouds 4 1000 64 10000 4 260 09:40 15.04.2020
4720 Clouds 4 1000 64 10000 4 260 09:22 15.04.2020
4721 Clouds 3 1000 69 10000 3 280 08:58 15.04.2020
4722 Clouds 2 1000 74 10000 3 280 08:40 15.04.2020
4723 Clouds 2 1001 69 10000 4 290 08:19 15.04.2020
4724 Clouds 2 1001 69 10000 4 290 07:53 15.04.2020
4725 Clouds 1 1001 74 10000 3 260 07:31 15.04.2020
4726 Clouds 1 1001 74 10000 3 240 06:33 15.04.2020
4727 Clouds 1 1002 74 10000 3 250 05:50 15.04.2020
4728 Clouds 1 1002 74 10000 3 250 05:18 15.04.2020
4729 Clouds 1 1002 74 10000 4 250 04:43 15.04.2020
4730 Clouds 1 1002 74 10000 4 250 03:26 15.04.2020
4731 Clouds 1 1002 74 10000 3 250 02:57 15.04.2020
4732 Clouds 2 1003 74 10000 2 250 01:57 15.04.2020
4733 Clouds 2 1003 69 10000 3 240 01:39 15.04.2020
4734 Clouds 2 1004 64 10000 4 240 01:18 15.04.2020
4735 Clouds 2 1004 69 10000 3 250 00:36 15.04.2020
4736 Clouds 2 1004 69 10000 4 250 00:18 15.04.2020
4737 Clouds 2 1004 69 10000 4 250 23:54 14.04.2020
4738 Clouds 3 1004 69 10000 3 250 23:36 14.04.2020
4739 Clouds 3 1004 69 10000 3 250 23:18 14.04.2020
4740 Clouds 3 1004 69 10000 3 250 22:54 14.04.2020
4741 Clouds 3 1004 64 10000 3 250 22:36 14.04.2020
4742 Clouds 3 1004 64 10000 4 250 22:18 14.04.2020
4743 Clouds 3 1004 64 10000 4 250 21:54 14.04.2020
4744 Clouds 3 1004 69 10000 4 260 21:36 14.04.2020
4745 Clouds 3 1004 74 10000 3 260 21:18 14.04.2020
4746 Clouds 3 1004 69 10000 3 260 20:40 14.04.2020
4747 Clouds 3 1004 69 10000 3 260 20:22 14.04.2020
4748 Clouds 3 1004 69 10000 4 260 19:57 14.04.2020
4749 Clouds 4 1004 65 10000 4 260 19:38 14.04.2020
4750 Clouds 4 1004 62 10000 4 250 19:20 14.04.2020
4751 Clouds 4 1004 62 10000 4 250 18:55 14.04.2020
4752 Clouds 5 1004 80 10000 3 250 18:37 14.04.2020
4753 Rain 5 1004 75 10000 4 260 18:18 14.04.2020
4754 Rain 5 1004 75 10000 4 260 17:55 14.04.2020
4755 Clouds 5 1004 75 10000 5 260 17:36 14.04.2020
4756 Clouds 5 1003 70 10000 5 260 17:18 14.04.2020
4757 Clouds 5 1003 60 10000 4 250 16:41 14.04.2020
4758 Clouds 5 1003 61 10000 4 250 16:22 14.04.2020
4759 Clouds 5 1003 81 10000 4 260 15:57 14.04.2020
4760 Clouds 6 1003 81 10000 4 260 15:38 14.04.2020
4761 Clouds 6 1003 81 10000 4 260 15:19 14.04.2020
4762 Clouds 6 1003 86 10000 3 260 14:57 14.04.2020
4763 Clouds 6 1003 80 10000 4 250 14:39 14.04.2020
4764 Clouds 6 1003 80 10000 4 250 14:39 14.04.2020
4765 Rain 6 1003 86 10000 5 270 14:21 14.04.2020
4766 Clouds 6 1003 80 10000 4 250 14:21 14.04.2020
4767 Rain 6 1002 86 10000 5 270 13:44 14.04.2020
4768 Rain 6 1002 87 10000 4 220 13:24 14.04.2020
4769 Rain 6 1002 87 10000 4 220 12:59 14.04.2020
4770 Clouds 6 1002 87 10000 4 220 12:39 14.04.2020
4771 Clouds 6 1002 87 10000 4 220 12:39 14.04.2020
4772 Clouds 7 1002 87 10000 4 250 12:20 14.04.2020
4773 Clouds 6 1002 87 10000 4 250 11:54 14.04.2020
4774 Rain 6 1001 93 10000 3 240 11:36 14.04.2020
4775 Rain 6 1001 93 10000 3 240 11:18 14.04.2020
4776 Rain 6 1001 86 10000 4 280 10:41 14.04.2020
4777 Rain 6 1001 86 10000 4 280 10:23 14.04.2020
4778 Rain 6 981 79 0 2.24 337 09:42 14.04.2020
4779 Rain 7 1000 93 10000 4 290 09:24 14.04.2020
4780 Rain 8 1000 93 6000 5 290 08:59 14.04.2020
4781 Rain 8 999 87 9000 5 290 08:40 14.04.2020
4782 Rain 8 999 87 9000 5 290 08:21 14.04.2020
4783 Rain 9 999 81 9000 7 290 07:53 14.04.2020
4784 Rain 10 998 65 10000 6 290 07:29 14.04.2020
4785 Rain 8 999 84 0 3.81 236 06:47 14.04.2020
4786 Clouds 7 999 79 0 4.64 191 05:55 14.04.2020
4787 Clouds 8 997 34 10000 5 180 03:52 14.04.2020
4788 Clouds 9 997 32 10000 5 190 02:53 14.04.2020
4789 Clouds 9 997 32 10000 4 180 01:39 14.04.2020
4790 Clouds 9 998 30 10000 5 180 01:18 14.04.2020
4791 Clouds 11 998 27 10000 5 180 00:36 14.04.2020
4792 Clouds 9 999 25 10000 6 170 00:18 14.04.2020
4793 Clouds 9 999 25 10000 6 170 23:40 13.04.2020
4794 Clouds 9 999 25 10000 6 170 23:22 13.04.2020
4795 Clouds 9 999 25 10000 5 170 22:57 13.04.2020
4796 Clouds 10 999 23 10000 5 170 22:39 13.04.2020
4797 Clouds 10 1000 22 10000 5 160 22:20 13.04.2020
4798 Clouds 10 1000 22 10000 5 160 21:55 13.04.2020
4799 Clouds 11 1000 20 10000 5 160 21:36 13.04.2020
4800 Clouds 11 1000 20 10000 5 160 21:18 13.04.2020
4801 Clouds 11 1001 19 10000 5 150 20:41 13.04.2020
4802 Clouds 11 1001 19 10000 5 150 20:20 13.04.2020
4803 Clouds 11 1001 18 10000 4 160 19:59 13.04.2020
4804 Clouds 12 1002 17 10000 5 160 19:38 13.04.2020
4805 Clouds 12 1002 19 10000 5 160 19:19 13.04.2020
4806 Clouds 12 1002 19 10000 5 160 19:19 13.04.2020
4807 Clouds 13 1002 19 10000 5 160 18:59 13.04.2020
4808 Clouds 14 1002 17 10000 5 170 18:39 13.04.2020
4809 Clouds 15 1002 16 10000 6 180 18:20 13.04.2020
4810 Clouds 15 1002 16 10000 6 180 17:58 13.04.2020
4811 Clouds 14 1003 17 10000 6 180 17:38 13.04.2020
4812 Clouds 15 1003 16 10000 7 190 17:19 13.04.2020
4813 Clouds 15 1003 16 10000 7 190 16:58 13.04.2020
4814 Clouds 15 1003 18 10000 7 190 16:40 13.04.2020
4815 Clouds 15 1003 18 10000 7 190 16:20 13.04.2020
4816 Clouds 15 1003 15 10000 8 180 15:58 13.04.2020
4817 Clouds 15 1003 15 10000 7 200 15:39 13.04.2020
4818 Clouds 15 1003 15 10000 7 200 15:21 13.04.2020
4819 Clouds 15 1004 15 10000 7 190 14:54 13.04.2020
4820 Clouds 15 1004 15 10000 7 180 14:36 13.04.2020
4821 Clouds 15 1005 16 10000 8 190 14:18 13.04.2020
4822 Clouds 14 1005 16 10000 7 190 13:55 13.04.2020
4823 Clouds 14 1005 16 10000 7 190 13:37 13.04.2020
4824 Clouds 14 1005 17 10000 8 210 13:18 13.04.2020
4825 Clouds 14 1007 24 10000 5 200 12:56 13.04.2020
4826 Clouds 14 1006 19 10000 8 220 12:38 13.04.2020
4827 Clouds 13 1006 20 10000 7 210 12:19 13.04.2020
4828 Clouds 13 1007 22 10000 7 200 11:42 13.04.2020
4829 Clouds 12 1007 23 10000 7 210 11:19 13.04.2020
4830 Clouds 12 1007 23 10000 7 210 10:56 13.04.2020
4831 Clouds 11 1009 27 10000 5 220 10:38 13.04.2020
4832 Clouds 11 1008 27 10000 5 190 10:19 13.04.2020
4833 Clouds 10 1008 29 10000 4 190 09:55 13.04.2020
4834 Clouds 9 1009 31 10000 5 170 09:36 13.04.2020
4835 Clouds 7 1009 35 10000 5 170 09:18 13.04.2020
4836 Clouds 7 1009 35 10000 3 170 08:42 13.04.2020
4837 Clouds 7 1009 35 10000 3 170 08:24 13.04.2020
4838 Clouds 5 1010 38 10000 3 200 07:42 13.04.2020
4839 Clouds 4 1010 41 10000 4 190 07:24 13.04.2020
4840 Clouds 3 1010 41 10000 4 190 06:47 13.04.2020
4841 Clouds 3 1011 44 10000 2 220 06:25 13.04.2020
4842 Clouds 2 1011 44 10000 2 190 05:32 13.04.2020
4843 Clouds 2 1011 40 10000 3 180 04:53 13.04.2020
4844 Clouds 1 1012 40 10000 3 180 04:24 13.04.2020
4845 Clouds 1 1012 40 10000 3 170 03:48 13.04.2020
4846 Clouds 1 1013 40 10000 3 180 02:59 13.04.2020
4847 Clouds 1 1013 37 10000 3 180 02:38 13.04.2020
4848 Clouds 1 1014 37 10000 4 180 01:44 13.04.2020
4849 Clouds 1 1015 40 10000 3 190 01:25 13.04.2020
4850 Clouds 1 1015 40 10000 3 180 00:43 13.04.2020
4851 Clouds 1 1015 40 10000 3 160 00:21 13.04.2020
4852 Clouds 1 1015 44 10000 2 160 23:49 12.04.2020
4853 Clouds 1 1015 44 10000 2 160 23:23 12.04.2020
4854 Clouds 1 1015 47 10000 2 150 22:59 12.04.2020
4855 Clouds 1 1016 47 10000 2 150 22:38 12.04.2020
4856 Clouds 2 1016 47 10000 3 140 22:19 12.04.2020
4857 Clouds 2 1016 47 10000 3 140 21:54 12.04.2020
4858 Clouds 2 1016 47 10000 3 140 21:36 12.04.2020
4859 Clouds 2 1016 47 10000 3 140 21:18 12.04.2020
4860 Clouds 3 1016 40 10000 3 110 20:41 12.04.2020
4861 Clouds 3 1017 38 10000 3 110 20:22 12.04.2020
4862 Clouds 3 1016 40 10000 3 110 20:22 12.04.2020
4863 Clouds 3 1017 38 10000 3 110 19:57 12.04.2020
4864 Clouds 4 1017 38 10000 3 80 19:38 12.04.2020
4865 Clouds 5 1017 32 10000 1 0 19:18 12.04.2020
4866 Clouds 6 1017 28 10000 2 320 18:41 12.04.2020
4867 Clouds 7 1017 24 10000 1 0 18:23 12.04.2020
4868 Clouds 7 1017 24 10000 1 0 17:59 12.04.2020
4869 Clouds 7 1017 26 10000 2 30 17:41 12.04.2020
4870 Clouds 7 1017 26 10000 2 30 17:23 12.04.2020
4871 Clouds 7 1018 26 10000 2 360 16:58 12.04.2020
4872 Clouds 7 1018 24 10000 2 340 16:39 12.04.2020
4873 Clouds 7 1018 24 10000 2 340 16:20 12.04.2020
4874 Clouds 7 1018 33 10000 4 360 15:48 12.04.2020
4875 Clouds 7 1018 33 10000 4 360 15:29 12.04.2020
4876 Clouds 7 1018 28 10000 4 300 14:55 12.04.2020
4877 Clouds 6 1018 28 10000 4 310 14:36 12.04.2020
4878 Clouds 6 1019 30 10000 4 340 14:18 12.04.2020
4879 Clouds 6 1019 28 10000 4 320 13:42 12.04.2020
4880 Clouds 6 1019 33 10000 4 340 13:23 12.04.2020
4881 Clouds 6 1019 33 10000 4 340 12:55 12.04.2020
4882 Clouds 5 1019 32 10000 3 360 12:37 12.04.2020
4883 Clouds 5 1020 38 10000 3 330 12:18 12.04.2020
4884 Clouds 5 1020 41 10000 4 330 11:55 12.04.2020
4885 Clouds 5 1020 41 10000 4 330 11:36 12.04.2020
4886 Clouds 4 1020 47 10000 5 350 11:18 12.04.2020
4887 Clouds 4 1020 55 10000 6 330 10:54 12.04.2020
4888 Clouds 4 1020 55 10000 6 330 10:36 12.04.2020
4889 Clouds 3 1020 59 9000 5 320 10:18 12.04.2020
4890 Clouds 3 1020 59 10000 6 320 09:40 12.04.2020
4891 Clouds 3 1020 59 10000 6 320 09:40 12.04.2020
4892 Clouds 3 1020 64 10000 4 330 09:21 12.04.2020
4893 Clouds 2 1020 64 10000 5 350 08:56 12.04.2020
4894 Clouds 2 1020 69 10000 5 330 08:38 12.04.2020
4895 Clouds 2 1020 74 10000 4 330 08:19 12.04.2020
4896 Clouds 1 1020 74 10000 4 290 07:42 12.04.2020
4897 Clouds 0 1020 72 10000 3 300 07:18 12.04.2020
4898 Clouds -1 1019 80 10000 3 300 06:35 12.04.2020
4899 Clouds -2 1019 86 10000 3 300 05:55 12.04.2020
4900 Clouds -2 1019 79 10000 3 300 05:36 12.04.2020
4901 Clouds -3 1019 86 10000 2 300 03:44 12.04.2020
4902 Clouds -3 1019 86 10000 2 300 03:44 12.04.2020
4903 Clear -3 1019 86 10000 2 300 03:24 12.04.2020
4904 Clear -3 1019 86 10000 3 280 02:34 12.04.2020
4905 Clear -2 1019 92 10000 3 290 01:51 12.04.2020
4906 Clear -2 1019 86 10000 3 300 00:59 12.04.2020
4907 Clear -2 1019 86 10000 3 300 00:41 12.04.2020
4908 Clear -1 1019 86 10000 3 300 00:20 12.04.2020
4909 Clear -1 1019 80 10000 3 310 23:46 11.04.2020
4910 Clear -1 1019 80 10000 3 310 23:26 11.04.2020
4911 Clear 0 1019 80 10000 3 320 22:55 11.04.2020
4912 Clear 0 1019 83 10000 3 320 22:36 11.04.2020
4913 Clear 1 1019 83 10000 3 320 22:18 11.04.2020
4914 Clear 1 1019 64 10000 4 330 21:54 11.04.2020
4915 Clear 1 1019 64 10000 4 330 21:36 11.04.2020
4916 Clouds 1 1018 64 10000 4 330 21:18 11.04.2020
4917 Clouds 1 1018 64 10000 4 330 21:18 11.04.2020
4918 Clouds 1 1018 64 10000 4 330 20:54 11.04.2020
4919 Clouds 1 1018 64 10000 4 330 20:36 11.04.2020
4920 Clouds 2 1018 64 10000 4 330 20:18 11.04.2020
4921 Clouds 3 1018 64 10000 4 330 19:54 11.04.2020
4922 Clouds 3 1017 59 10000 5 310 19:36 11.04.2020
4923 Clouds 3 1017 51 10000 7 310 19:18 11.04.2020
4924 Clouds 4 1016 35 10000 4 350 18:54 11.04.2020
4925 Snow 4 1016 35 10000 4 350 18:36 11.04.2020
4926 Snow 5 1016 30 10000 6 340 18:18 11.04.2020
4927 Snow 5 1016 30 10000 6 340 17:55 11.04.2020
4928 Snow 5 1015 30 10000 7 330 17:36 11.04.2020
4929 Snow 5 1015 30 10000 6 350 17:18 11.04.2020
4930 Snow 6 1015 30 9000 6 360 16:41 11.04.2020
4931 Snow 5 1015 32 10000 7 10 16:21 11.04.2020
4932 Snow 6 1015 32 10000 6 350 15:40 11.04.2020
4933 Snow 6 1015 32 10000 6 350 15:40 11.04.2020
4934 Snow 5 1015 30 10000 7 340 15:20 11.04.2020
4935 Snow 5 1015 30 10000 7 340 14:57 11.04.2020
4936 Snow 5 1014 32 10000 8 330 14:39 11.04.2020
4937 Snow 5 1014 32 10000 8 330 14:20 11.04.2020
4938 Snow 5 1014 35 10000 8 330 13:41 11.04.2020
4939 Clouds 4 1014 47 10000 6 330 13:23 11.04.2020
4940 Clouds 3 1014 55 10000 6 350 12:57 11.04.2020
4941 Clouds 3 1014 55 10000 6 350 12:37 11.04.2020
4942 Clouds 3 1014 64 10000 6 330 12:18 11.04.2020
4943 Snow 4 1014 74 10000 7 310 11:41 11.04.2020
4944 Snow 4 1014 80 10000 6 310 11:20 11.04.2020
4945 Snow 3 1014 80 10000 6 310 10:56 11.04.2020
4946 Snow 3 1013 80 2400 7 300 10:37 11.04.2020
4947 Snow 3 1013 80 2400 7 300 10:18 11.04.2020
4948 Clouds 3 1013 69 10000 6 300 09:55 11.04.2020
4949 Clouds 3 1013 69 10000 4 310 09:37 11.04.2020
4950 Clouds 3 1013 74 10000 6 310 09:18 11.04.2020
4951 Clouds 2 1013 74 10000 5 310 08:42 11.04.2020
4952 Clouds 2 1013 74 10000 5 310 08:23 11.04.2020
4953 Snow 1 1012 80 10000 4 310 07:43 11.04.2020
4954 Snow 1 1012 80 10000 4 310 07:24 11.04.2020
4955 Snow 0 1012 86 10000 4 290 06:37 11.04.2020
4956 Clouds -1 1012 86 10000 2 260 05:58 11.04.2020
4957 Clouds -2 1012 92 10000 2 250 04:31 11.04.2020
4958 Clear -2 1012 92 10000 3 250 03:30 11.04.2020
4959 Clear -1 1013 80 10000 1 270 01:41 11.04.2020
4960 Clear 0 1013 81 10000 3 300 01:18 11.04.2020
4961 Clear 0 1013 81 10000 3 300 00:42 11.04.2020
4962 Clear 1 1013 80 10000 2 300 00:18 11.04.2020
4963 Clear 1 1013 80 10000 2 300 23:54 10.04.2020
4964 Clear 1 1013 86 10000 2 290 23:36 10.04.2020
4965 Clear 2 1013 86 10000 2 270 23:18 10.04.2020
4966 Clear 3 1013 80 10000 2 300 22:42 10.04.2020
4967 Clear 3 1013 80 10000 3 290 22:20 10.04.2020
4968 Clear 4 1013 69 10000 3 310 21:42 10.04.2020
4969 Clouds 4 1013 69 10000 3 310 21:22 10.04.2020
4970 Clouds 5 1013 69 10000 3 330 20:59 10.04.2020
4971 Clouds 5 1013 60 10000 4 310 20:41 10.04.2020
4972 Clouds 5 1013 60 10000 4 310 20:23 10.04.2020
4973 Clouds 6 1012 52 10000 5 310 19:57 10.04.2020
4974 Clouds 6 1012 52 10000 5 310 19:57 10.04.2020
4975 Clouds 6 1012 56 10000 4 290 19:39 10.04.2020
4976 Clouds 6 1012 60 10000 6 260 19:20 10.04.2020
4977 Clouds 7 1012 60 10000 6 260 18:57 10.04.2020
4978 Clouds 7 1011 45 10000 4 300 18:38 10.04.2020
4979 Clouds 7 1011 42 10000 6 290 18:20 10.04.2020
4980 Clouds 7 1011 42 10000 6 290 17:58 10.04.2020
4981 Clouds 8 1011 39 10000 5 320 17:39 10.04.2020
4982 Clouds 8 1011 42 10000 4 320 17:20 10.04.2020
4983 Clouds 7 1011 42 10000 4 320 16:56 10.04.2020
4984 Clouds 8 1011 45 10000 4 340 16:37 10.04.2020
4985 Clouds 8 1011 45 10000 4 340 16:19 10.04.2020
4986 Clouds 9 1011 39 10000 5 340 15:55 10.04.2020
4987 Clouds 9 1010 36 10000 6 300 15:36 10.04.2020
4988 Clouds 9 1010 42 10000 6 310 15:18 10.04.2020
4989 Clouds 9 1010 42 10000 6 310 14:56 10.04.2020
4990 Clouds 8 1011 48 10000 5 320 14:37 10.04.2020
4991 Rain 9 1010 42 10000 6 310 14:18 10.04.2020
4992 Rain 9 1010 42 10000 6 310 14:18 10.04.2020
4993 Clouds 8 1010 52 10000 5 310 13:43 10.04.2020
4994 Rain 8 1010 48 10000 6 330 13:21 10.04.2020
4995 Clouds 8 1010 52 10000 6 310 12:43 10.04.2020
4996 Clouds 8 1010 52 10000 6 310 12:23 10.04.2020
4997 Rain 7 1009 53 10000 6 330 11:56 10.04.2020
4998 Rain 8 1009 53 10000 5 360 11:38 10.04.2020
4999 Rain 8 1009 53 10000 5 360 11:20 10.04.2020
5000 Clouds 7 1009 53 10000 5 310 10:46 10.04.2020
5001 Clouds 7 1009 53 10000 5 310 10:23 10.04.2020
5002 Clouds 6 1008 53 10000 7 310 09:57 10.04.2020
5003 Clouds 6 1008 70 10000 6 320 09:39 10.04.2020
5004 Clouds 6 1008 70 10000 6 320 09:20 10.04.2020
5005 Clouds 5 1008 86 10000 6 300 08:43 10.04.2020
5006 Clouds 5 1008 86 10000 6 300 08:24 10.04.2020
5007 Clouds 5 1007 86 10000 5 310 07:46 10.04.2020
5008 Clouds 5 1007 86 10000 4 310 07:24 10.04.2020
5009 Rain 6 1006 86 10000 5 320 06:52 10.04.2020
5010 Rain 6 1006 86 10000 5 320 06:29 10.04.2020
5011 Rain 6 1005 86 10000 6 320 05:43 10.04.2020
5012 Rain 7 1004 93 9000 7 330 05:18 10.04.2020
5013 Rain 8 1004 93 9000 6 290 03:53 10.04.2020
5014 Rain 8 1004 93 10000 4 270 03:32 10.04.2020
5015 Rain 10 1004 87 9000 6 290 02:49 10.04.2020
5016 Rain 10 1004 87 9000 6 290 02:31 10.04.2020
5017 Clouds 10 1003 57 10000 3 280 01:30 10.04.2020
5018 Rain 10 1003 53 10000 2 210 00:55 10.04.2020
5019 Rain 10 1003 53 10000 2 210 00:37 10.04.2020
5020 Rain 10 1004 57 10000 2 200 00:18 10.04.2020
5021 Rain 11 1004 57 10000 3 210 23:41 09.04.2020
5022 Rain 11 1004 57 10000 3 210 23:20 09.04.2020
5023 Rain 11 1005 53 10000 4 230 22:54 09.04.2020
5024 Rain 12 1005 73 10000 7 230 22:36 09.04.2020
5025 Rain 11 1006 34 10000 8 240 22:18 09.04.2020
5026 Rain 11 1006 27 10000 6 240 21:38 09.04.2020
5027 Clouds 11 1006 27 10000 6 240 21:19 09.04.2020
5028 Clouds 11 1006 27 10000 4 210 20:45 09.04.2020
5029 Clouds 11 1007 27 10000 4 220 20:22 09.04.2020
5030 Clouds 11 1007 27 10000 4 220 19:59 09.04.2020
5031 Clouds 12 1007 26 10000 5 220 19:38 09.04.2020
5032 Clouds 13 1007 28 10000 3 210 19:19 09.04.2020
5033 Clouds 14 1007 28 10000 5 240 18:42 09.04.2020
5034 Clouds 14 1008 26 10000 7 240 18:20 09.04.2020
5035 Clouds 15 1008 24 10000 8 230 17:43 09.04.2020
5036 Clouds 15 1008 24 10000 8 230 17:24 09.04.2020
5037 Clouds 15 1008 24 10000 8 220 17:00 09.04.2020
5038 Clouds 15 1009 25 10000 8 230 16:39 09.04.2020
5039 Clouds 15 1009 26 10000 7 230 16:19 09.04.2020
5040 Clouds 15 1009 26 10000 7 230 15:56 09.04.2020
5041 Clouds 15 1010 26 10000 9 240 15:37 09.04.2020
5042 Clouds 15 1010 28 10000 8 220 15:19 09.04.2020
5043 Clouds 15 1011 28 10000 7 230 14:42 09.04.2020
5044 Clouds 15 1011 28 10000 7 230 14:21 09.04.2020
5045 Clouds 15 1011 24 10000 7 210 13:58 09.04.2020
5046 Clouds 15 1012 26 10000 7 230 13:40 09.04.2020
5047 Clouds 15 1012 26 10000 7 240 13:21 09.04.2020
5048 Clouds 14 1013 30 10000 6 260 12:54 09.04.2020
5049 Clouds 14 1013 30 10000 6 260 12:36 09.04.2020
5050 Clouds 14 1013 28 10000 9 240 12:18 09.04.2020
5051 Clouds 14 1014 33 10000 9 250 11:42 09.04.2020
5052 Clouds 13 1014 35 10000 8 260 11:20 09.04.2020
5053 Clouds 13 1014 35 10000 8 260 11:20 09.04.2020
5054 Clouds 13 1014 35 10000 8 260 10:58 09.04.2020
5055 Clouds 12 1015 35 10000 7 240 10:40 09.04.2020
5056 Clouds 12 1015 37 10000 8 240 10:21 09.04.2020
5057 Clouds 12 1015 37 10000 8 240 09:56 09.04.2020
5058 Clouds 11 1015 43 10000 7 240 09:38 09.04.2020
5059 Clear 10 1016 46 10000 5 240 09:20 09.04.2020
5060 Clear 9 1016 61 10000 3 240 08:44 09.04.2020
5061 Clear 8 1016 61 10000 3 240 08:23 09.04.2020
5062 Clear 7 1016 75 10000 2 210 07:56 09.04.2020
5063 Clear 6 1017 86 10000 2 230 07:27 09.04.2020
5064 Clear 4 1017 86 10000 2 250 06:56 09.04.2020
5065 Clear 1 1017 86 9000 2 240 06:25 09.04.2020
5066 Clear 1 1017 86 10000 2.44 252 05:43 09.04.2020
5067 Clear 1 1017 100 10000 2 240 04:26 09.04.2020
5068 Clear 2 1018 85 10000 2 250 02:32 09.04.2020
5069 Clear 3 1018 86 9000 2 290 01:43 09.04.2020
5070 Clear 4 1018 80 10000 3 300 01:24 09.04.2020
5071 Clear 4 1018 80 10000 3 290 00:43 09.04.2020
5072 Clear 4 1018 80 10000 3 300 00:20 09.04.2020
5073 Clear 4 1018 80 10000 3 300 00:20 09.04.2020
5074 Clear 4 1018 80 10000 3 300 23:59 08.04.2020
5075 Clear 5 1018 75 10000 2 300 23:41 08.04.2020
5076 Clear 5 1018 80 10000 2 290 23:21 08.04.2020
5077 Clear 6 1018 75 10000 2 280 22:44 08.04.2020
5078 Clear 7 1018 75 10000 2 300 22:24 08.04.2020
5079 Clear 8 1018 70 10000 3 300 21:57 08.04.2020
5080 Clouds 8 1018 70 10000 3 300 21:39 08.04.2020
5081 Clouds 8 1018 70 10000 3 300 21:20 08.04.2020
5082 Clouds 8 1018 70 10000 3 320 20:58 08.04.2020
5083 Clouds 9 1018 65 10000 5 320 20:39 08.04.2020
5084 Clouds 10 1018 65 10000 5 320 20:20 08.04.2020
5085 Clouds 10 1018 66 10000 6 320 19:57 08.04.2020
5086 Clouds 10 1018 66 10000 6 320 19:37 08.04.2020
5087 Clouds 10 1018 66 10000 7 320 19:19 08.04.2020
5088 Clouds 11 1017 61 10000 7 320 18:42 08.04.2020
5089 Clouds 11 1017 66 10000 5 320 18:24 08.04.2020
5090 Clouds 11 1017 62 10000 6 330 17:56 08.04.2020
5091 Clouds 11 1017 62 10000 6 330 17:38 08.04.2020
5092 Clouds 11 1017 62 10000 6 330 17:38 08.04.2020
5093 Clouds 11 1017 62 10000 5 320 17:18 08.04.2020
5094 Clouds 12 1016 62 10000 6 320 16:42 08.04.2020
5095 Clouds 12 1016 62 10000 6 310 16:23 08.04.2020
5096 Clouds 12 1016 62 10000 6 310 15:58 08.04.2020
5097 Clouds 12 1016 62 10000 6 310 15:38 08.04.2020
5098 Clouds 12 1016 62 10000 6 310 15:20 08.04.2020
5099 Clouds 12 1015 58 10000 7 300 14:45 08.04.2020
5100 Clouds 12 1015 58 10000 7 300 14:25 08.04.2020
5101 Clouds 12 1015 66 10000 6 280 13:57 08.04.2020
5102 Clouds 12 1015 66 10000 6 280 13:39 08.04.2020
5103 Rain 12 1015 76 10000 5 300 13:20 08.04.2020
5104 Clouds 12 1015 87 10000 5 290 12:42 08.04.2020
5105 Rain 12 1015 75 9000 3 310 12:19 08.04.2020
5106 Rain 12 1015 75 9000 3 310 11:58 08.04.2020
5107 Clouds 12 1015 73 10000 6 330 11:40 08.04.2020
5108 Rain 13 1014 40 10000 5 300 11:21 08.04.2020
5109 Rain 12 1014 43 10000 5 300 10:56 08.04.2020
5110 Rain 12 1014 43 10000 5 300 10:37 08.04.2020
5111 Rain 11 1013 43 10000 4 290 10:19 08.04.2020
5112 Rain 10 1013 39 10000 3 280 09:55 08.04.2020
5113 Rain 10 1013 39 10000 3 280 09:37 08.04.2020
5114 Rain 10 1013 39 10000 3 270 09:18 08.04.2020
5115 Rain 9 1013 42 10000 4 270 08:42 08.04.2020
5116 Rain 8 1013 42 10000 6 250 08:23 08.04.2020
5117 Rain 7 1013 45 10000 4 260 07:45 08.04.2020
5118 Rain 7 1013 52 10000 3 250 07:25 08.04.2020
5119 Rain 7 1013 52 10000 3 250 06:59 08.04.2020
5120 Clouds 6 1013 55 10000 4 230 06:19 08.04.2020
5121 Clouds 6 1015 52 10000 4 230 04:19 08.04.2020
5122 Clouds 6 1017 56 10000 4 230 02:49 08.04.2020
5123 Clouds 6 1017 56 10000 4 230 02:20 08.04.2020
5124 Clouds 6 1018 56 10000 4 230 01:51 08.04.2020
5125 Clouds 6 1018 52 10000 4 230 01:27 08.04.2020
5126 Clouds 7 1020 52 10000 5 230 00:41 08.04.2020
5127 Clear 7 1020 56 10000 4 230 00:22 08.04.2020
5128 Clear 7 1021 52 10000 5 230 23:40 07.04.2020
5129 Clear 7 1021 52 10000 5 230 23:40 07.04.2020
5130 Clear 7 1021 52 10000 5 230 23:21 07.04.2020
5131 Clear 7 1021 52 10000 6 230 22:57 07.04.2020
5132 Clear 6 1022 52 10000 6 230 22:39 07.04.2020
5133 Clear 6 1022 52 10000 5 220 22:19 07.04.2020
5134 Clear 6 1022 52 10000 5 220 21:56 07.04.2020
5135 Clear 7 1022 49 10000 5 210 21:38 07.04.2020
5136 Clouds 7 1023 45 10000 3 190 21:20 07.04.2020
5137 Clouds 7 1023 45 10000 3 190 20:56 07.04.2020
5138 Clouds 7 1023 45 10000 3 190 20:38 07.04.2020
5139 Clouds 7 1024 42 10000 4 180 20:20 07.04.2020
5140 Clouds 8 1024 42 10000 4 190 19:56 07.04.2020
5141 Clouds 8 1025 39 10000 4 180 19:36 07.04.2020
5142 Clouds 8 1025 39 10000 4 180 19:18 07.04.2020
5143 Clouds 8 1025 39 10000 4 180 18:54 07.04.2020
5144 Clouds 9 1025 37 10000 4 190 18:36 07.04.2020
5145 Clouds 10 1026 37 10000 4 190 18:18 07.04.2020
5146 Clouds 11 1026 34 10000 4 200 17:43 07.04.2020
5147 Clouds 11 1027 34 10000 5 220 17:20 07.04.2020
5148 Clouds 10 1028 34 10000 5 220 16:46 07.04.2020
5149 Clouds 10 1028 34 10000 5 220 16:27 07.04.2020
5150 Clouds 10 1028 34 10000 5 220 16:27 07.04.2020
5151 Clouds 9 1029 39 10000 5 230 15:56 07.04.2020
5152 Clouds 9 1030 36 10000 5 230 15:38 07.04.2020
5153 Clear 9 1030 36 10000 5 230 15:19 07.04.2020
5154 Clear 9 1030 34 10000 4 220 14:41 07.04.2020
5155 Clear 9 1030 34 10000 4 220 14:22 07.04.2020
5156 Clear 8 1031 39 10000 5 220 13:56 07.04.2020
5157 Clouds 7 1031 36 10000 5 230 13:37 07.04.2020
5158 Clouds 6 1032 35 10000 6 230 13:18 07.04.2020
5159 Clouds 6 1033 32 10000 5 230 12:54 07.04.2020
5160 Clouds 6 1033 32 10000 5 230 12:36 07.04.2020
5161 Clouds 6 1033 35 10000 5 230 12:18 07.04.2020
5162 Clear 5 1034 35 10000 4 250 11:42 07.04.2020
5163 Clear 5 1034 35 10000 4 250 11:22 07.04.2020
5164 Clear 5 1034 35 10000 4 250 10:58 07.04.2020
5165 Clear 5 1034 29 10000 6 240 10:37 07.04.2020
5166 Clear 5 1034 29 10000 6 230 10:19 07.04.2020
5167 Clear 4 1035 27 10000 5 240 09:45 07.04.2020
5168 Clear 3 1035 32 10000 5 240 09:18 07.04.2020
5169 Clear 3 1035 32 10000 5 240 08:55 07.04.2020
5170 Clear 3 1035 34 10000 4 220 08:36 07.04.2020
5171 Clear 2 1035 37 10000 4 220 08:18 07.04.2020
5172 Clear 1 1035 72 10000 2 210 07:40 07.04.2020
5173 Clear 0 1035 68 10000 1 260 07:21 07.04.2020
5174 Clear -3 1035 79 10000 1 270 06:51 07.04.2020
5175 Clear -4 1035 79 10000 1 300 06:21 07.04.2020
5176 Clear -4 1035 73 10000 2 290 05:38 07.04.2020
5177 Clear -4 1035 73 9000 1 270 04:46 07.04.2020
5178 Clouds -4 1035 73 10000 1 0 03:26 07.04.2020
5179 Clouds -3 1035 68 10000 1 310 02:59 07.04.2020
5180 Clouds -3 1034 68 10000 1 260 01:50 07.04.2020
5181 Clouds -2 1034 68 10000 1 330 01:26 07.04.2020
5182 Snow -1 1033 68 10000 1 300 00:29 07.04.2020
5183 Snow -1 1033 63 10000 1 0 23:57 06.04.2020
5184 Snow 0 1033 58 10000 1 0 23:38 06.04.2020
5185 Snow 0 1033 50 10000 1 0 23:19 06.04.2020
5186 Snow 1 1032 46 10000 1 0 22:40 06.04.2020
5187 Snow 1 1032 46 10000 1 0 22:40 06.04.2020
5188 Snow 1 1032 46 10000 1 0 22:21 06.04.2020
5189 Snow 1 1032 96 10000 2 20 21:58 06.04.2020
5190 Snow 2 1032 96 10000 2 20 21:39 06.04.2020
5191 Snow 1 1032 93 10000 2 10 21:19 06.04.2020
5192 Snow 1 1032 93 10000 2 10 20:55 06.04.2020
5193 Snow 1 1032 93 10000 2 10 20:55 06.04.2020
5194 Snow 2 1032 43 10000 2 20 20:37 06.04.2020
5195 Snow 2 1031 37 9000 2 350 20:19 06.04.2020
5196 Snow 2 1031 37 10000 2 350 19:42 06.04.2020
5197 Snow 2 1031 34 10000 3 360 19:23 06.04.2020
5198 Snow 2 1031 34 10000 3 360 18:59 06.04.2020
5199 Clouds 3 1031 37 10000 3 360 18:41 06.04.2020
5200 Clouds 3 1031 34 10000 4 350 18:23 06.04.2020
5201 Clouds 3 1031 34 10000 4 350 17:55 06.04.2020
5202 Clouds 3 1030 34 10000 4 360 17:36 06.04.2020
5203 Clouds 3 1030 29 10000 6 330 17:18 06.04.2020
5204 Clouds 3 1030 29 10000 6 330 17:18 06.04.2020
5205 Clouds 4 1030 29 9000 8 310 16:45 06.04.2020
5206 Clouds 4 1030 29 9000 8 310 16:27 06.04.2020
5207 Clouds 4 1030 29 10000 7 320 14:45 06.04.2020
5208 Clouds 4 1030 29 10000 7 320 14:45 06.04.2020
5209 Clouds 4 1030 29 10000 7 320 14:45 06.04.2020
5210 Clouds 4 1030 29 10000 7 320 14:45 06.04.2020
5211 Clouds 4 1030 29 10000 7 320 14:45 06.04.2020
5212 Clouds 4 1030 25 10000 6 310 13:44 06.04.2020
5213 Clouds 4 1030 25 10000 6 310 13:44 06.04.2020
5214 Clouds 4 1030 25 10000 6 320 13:21 06.04.2020
5215 Clouds 4 1030 25 10000 6 320 13:21 06.04.2020
5216 Clouds 4 1030 25 10000 6 320 13:21 06.04.2020
5217 Clouds 5 1030 25 10000 6 320 13:21 06.04.2020
5218 Clouds 3 1030 21 10000 7 330 12:28 06.04.2020
5219 Clouds 3 1030 25 10000 7 320 12:02 06.04.2020
5220 Clouds 3 1030 25 10000 7 320 11:40 06.04.2020
5221 Clouds 3 1030 29 10000 7 330 11:40 06.04.2020
5222 Clouds 3 1030 25 10000 7 320 11:40 06.04.2020
5223 Clouds 3 1030 25 10000 7 320 11:40 06.04.2020
5224 Clouds 3 1030 25 10000 7 320 11:40 06.04.2020
5225 Clouds 3 1030 31 10000 7 350 10:53 06.04.2020
5226 Clouds 3 1030 31 10000 7 350 10:53 06.04.2020
5227 Clouds 3 1030 31 10000 7 350 10:53 06.04.2020
5228 Clouds 2 1030 34 10000 6 340 10:23 06.04.2020
5229 Clouds 2 1030 34 10000 6 340 10:23 06.04.2020
5230 Clouds 2 1030 34 10000 6 340 10:23 06.04.2020
5231 Clouds 2 1030 40 10000 5 320 10:01 06.04.2020
5232 Clouds 2 1030 40 10000 5 320 10:01 06.04.2020
5233 Clouds 2 1030 40 10000 5 320 10:00 06.04.2020
5234 Clouds 2 1030 40 10000 5 320 10:00 06.04.2020
5235 Clouds 2 1030 40 10000 5 310 09:26 06.04.2020
5236 Clear 1 1030 40 10000 5 300 08:55 06.04.2020
5237 Clear 1 1030 40 10000 6 320 08:36 06.04.2020
5238 Clear 1 1030 40 10000 6 320 08:36 06.04.2020
5239 Clear 1 1030 40 10000 6 320 08:36 06.04.2020
5240 Clear 1 1029 40 10000 5 320 07:56 06.04.2020
5241 Clear 1 1029 40 10000 5 320 07:56 06.04.2020
5242 Clear 1 1029 40 10000 5 320 07:56 06.04.2020
5243 Clear 0 1029 70 10000 5 330 07:19 06.04.2020
5244 Clear -1 1029 54 10000 5 300 06:26 06.04.2020
5245 Clear -2 1029 58 10000 4 300 05:40 06.04.2020
5246 Clear -2 1027 54 10000 5 300 03:29 06.04.2020
5247 Clouds -2 1027 54 10000 4 300 02:49 06.04.2020
5248 Clouds -2 1027 58 10000 5 300 01:52 06.04.2020
5249 Clouds -1 1026 54 10000 4 290 00:51 06.04.2020
5250 Clouds -1 1026 54 10000 4 300 00:27 06.04.2020
5251 Clouds -1 1026 54 10000 4 300 00:27 06.04.2020
5252 Clouds -1 1026 58 10000 4 300 23:50 05.04.2020
5253 Clouds -1 1026 58 10000 4 300 23:32 05.04.2020
5254 Clouds -1 1026 58 10000 4 300 23:32 05.04.2020
5255 Clouds -1 1026 58 10000 4 300 23:32 05.04.2020
5256 Clouds -1 1025 58 10000 4 300 22:57 05.04.2020
5257 Clouds -1 1025 58 10000 4 300 22:38 05.04.2020
5258 Clouds -1 1025 63 10000 4 300 22:38 05.04.2020
5259 Clouds -1 1025 63 10000 4 300 22:19 05.04.2020
5260 Clouds -1 1025 63 10000 3 300 21:58 05.04.2020
5261 Clouds -1 1025 68 10000 3 280 21:39 05.04.2020
5262 Clouds -1 1025 68 10000 3 280 21:39 05.04.2020
5263 Clouds 0 1025 68 10000 3 280 21:21 05.04.2020
5264 Clouds 0 1025 77 10000 3 290 20:21 05.04.2020
5265 Snow 1 1025 55 9000 7 310 19:41 05.04.2020
5266 Snow 1 1025 55 9000 7 310 19:22 05.04.2020
5267 Clouds 2 1024 40 10000 4 300 18:47 05.04.2020
5268 Clouds 3 1023 34 10000 7 320 17:59 05.04.2020
5269 Clouds 3 1023 34 10000 7 320 17:59 05.04.2020
5270 Clouds 3 1023 34 10000 7 320 17:59 05.04.2020
5271 Clouds 3 1023 34 10000 7 320 17:41 05.04.2020
5272 Clouds 3 1023 37 10000 7 300 17:41 05.04.2020
5273 Clouds 3 1023 37 10000 7 300 17:41 05.04.2020
5274 Clouds 3 1023 37 10000 7 300 17:41 05.04.2020
5275 Clouds 4 1023 37 10000 7 300 17:20 05.04.2020
5276 Clouds 4 1023 44 10000 6 330 16:47 05.04.2020
5277 Clouds 4 1023 34 10000 5 320 16:47 05.04.2020
5278 Clouds 4 1023 34 10000 5 320 16:47 05.04.2020
5279 Clouds 4 1023 44 10000 6 330 16:47 05.04.2020
5280 Clouds 4 1023 44 10000 6 330 16:47 05.04.2020
5281 Snow 4 1023 44 8000 8 330 16:18 05.04.2020
5282 Snow 4 1023 44 8000 8 330 15:45 05.04.2020
5283 Clouds 4 1022 27 9000 9 310 15:25 05.04.2020
5284 Clouds 4 1022 29 10000 8 290 14:48 05.04.2020
5285 Clouds 4 1022 29 10000 8 290 14:48 05.04.2020
5286 Clouds 4 1022 29 10000 8 290 14:48 05.04.2020
5287 Clouds 4 1021 35 10000 5 330 13:47 05.04.2020
5288 Clouds 4 1021 35 10000 5 330 13:47 05.04.2020
5289 Rain 2 1021 51 10000 4 270 13:01 05.04.2020
5290 Clouds 4 1020 32 10000 7 300 11:58 05.04.2020
5291 Snow 5 1020 38 8000 7 300 11:39 05.04.2020
5292 Snow 5 1020 38 8000 7 300 11:19 05.04.2020
5293 Rain 3 1021 44 10000 5 280 10:46 05.04.2020
5294 Rain 3 1021 44 10000 5 280 10:22 05.04.2020
5295 Rain 3 1021 55 10000 4 300 09:52 05.04.2020
5296 Rain 3 1021 55 10000 4 300 09:52 05.04.2020
5297 Snow 2 1021 64 10000 5 300 09:25 05.04.2020
5298 Snow 2 1021 64 10000 5 300 09:25 05.04.2020
5299 Snow 2 1021 64 10000 5 300 09:25 05.04.2020
5300 Snow 2 1021 64 10000 5 300 09:25 05.04.2020
5301 Snow 2 1021 64 10000 5 300 09:25 05.04.2020
5302 Clouds 1 1021 69 10000 4 270 07:58 05.04.2020
5303 Clouds -1 1020 86 10000 3 240 05:37 05.04.2020
5304 Clouds -1 1020 86 10000 3 240 05:36 05.04.2020
5305 Clouds -1 1020 79 10000 3 240 03:58 05.04.2020
5306 Clouds -3 1020 79 10000 4 250 03:24 05.04.2020
5307 Clear -2 1020 74 10000 3 240 01:57 05.04.2020
5308 Clear -2 1020 74 10000 3 250 01:39 05.04.2020
5309 Clear 0 1020 83 10000 3 280 00:52 05.04.2020
5310 Clear 0 1020 83 10000 3 280 00:52 05.04.2020
5311 Clear 1 1020 59 10000 4 280 00:23 05.04.2020
5312 Clear 1 1020 59 10000 4 280 23:58 04.04.2020
5313 Clear 1 1020 59 10000 4 280 23:39 04.04.2020
5314 Clear 1 1020 59 10000 4 280 23:21 04.04.2020
5315 Clear 1 1019 59 10000 4 280 22:56 04.04.2020
5316 Clear 0 1019 63 10000 3 250 22:38 04.04.2020
5317 Clear 0 1019 63 10000 3 250 22:19 04.04.2020
5318 Clear 1 1019 55 10000 3 280 21:57 04.04.2020
5319 Clear 1 1019 79 10000 3 260 21:38 04.04.2020
5320 Clouds 1 1019 70 10000 3 260 21:19 04.04.2020
5321 Clouds 2 1018 55 10000 3 270 20:54 04.04.2020
5322 Clouds 3 1018 51 10000 3 260 20:36 04.04.2020
5323 Clouds 3 1018 51 10000 3 260 20:18 04.04.2020
5324 Clouds 4 1017 41 10000 3 290 19:41 04.04.2020
5325 Clouds 5 1017 35 10000 4 300 19:21 04.04.2020
5326 Clouds 5 1017 35 10000 4 300 18:59 04.04.2020
5327 Clouds 5 1016 35 10000 5 310 18:40 04.04.2020
5328 Clouds 6 1016 35 10000 5 310 18:21 04.04.2020
5329 Clouds 6 1016 35 10000 5 310 18:21 04.04.2020
5330 Clouds 6 1016 28 10000 6 310 17:59 04.04.2020
5331 Clouds 7 1015 24 10000 8 300 17:39 04.04.2020
5332 Clouds 7 1015 24 10000 8 300 17:39 04.04.2020
5333 Clouds 7 1015 24 10000 8 300 17:19 04.04.2020
5334 Clouds 7 1015 22 10000 6 280 16:46 04.04.2020
5335 Clouds 7 1014 24 10000 6 290 16:27 04.04.2020
5336 Clouds 7 1014 20 10000 6 310 15:59 04.04.2020
5337 Clouds 7 1014 19 10000 8 270 15:39 04.04.2020
5338 Clouds 7 1014 19 10000 8 270 15:20 04.04.2020
5339 Rain 7 1013 48 10000 6 280 14:56 04.04.2020
5340 Rain 7 1013 36 10000 6 230 14:37 04.04.2020
5341 Clouds 6 1013 36 10000 6 230 14:18 04.04.2020
5342 Clouds 6 1013 41 10000 7 250 13:54 04.04.2020
5343 Snow 6 1013 52 10000 6 260 13:36 04.04.2020
5344 Snow 6 1013 52 10000 6 260 13:18 04.04.2020
5345 Clouds 5 1012 45 10000 6 230 12:42 04.04.2020
5346 Clouds 5 1012 45 10000 6 230 12:23 04.04.2020
5347 Clouds 5 1012 39 10000 7 250 11:54 04.04.2020
5348 Clouds 5 1012 39 10000 6 260 11:36 04.04.2020
5349 Clouds 5 1012 39 10000 6 260 11:18 04.04.2020
5350 Clouds 5 1011 39 10000 5 290 10:55 04.04.2020
5351 Clouds 6 1011 39 10000 6 280 10:37 04.04.2020
5352 Clouds 7 1011 38 10000 5 290 10:18 04.04.2020
5353 Clouds 7 1011 38 10000 5 290 09:42 04.04.2020
5354 Clear 6 1011 38 10000 6 300 09:24 04.04.2020
5355 Clear 6 1010 35 10000 6 300 08:56 04.04.2020
5356 Clear 5 1010 41 10000 6 280 08:37 04.04.2020
5357 Clear 5 1010 41 10000 6 280 08:19 04.04.2020
5358 Clear 4 1009 64 10000 5 260 07:40 04.04.2020
5359 Clear 4 1009 64 10000 5 260 07:22 04.04.2020
5360 Clear 3 1008 80 10000 5 250 06:40 04.04.2020
5361 Clear 1 1008 80 10000 3 250 05:54 04.04.2020
5362 Clear 2 1008 80 10000 4 260 05:33 04.04.2020
5363 Clear 2 1007 80 10000 4 250 04:40 04.04.2020
5364 Clear 3 1007 80 10000 4 250 04:20 04.04.2020
5365 Clear 3 1006 80 10000 5 250 03:45 04.04.2020
5366 Clouds 4 1006 74 10000 5 230 02:49 04.04.2020
5367 Clouds 4 1005 69 10000 4 240 02:30 04.04.2020
5368 Clouds 4 1005 69 10000 5 220 01:50 04.04.2020
5369 Clouds 5 1005 69 10000 5 240 01:22 04.04.2020
5370 Clouds 5 1005 69 10000 5 230 00:47 04.04.2020
5371 Clouds 6 1004 65 10000 5 220 00:26 04.04.2020
5372 Clouds 6 1004 52 10000 7 230 23:39 03.04.2020
5373 Clouds 6 1004 52 10000 7 230 23:20 03.04.2020
5374 Clouds 7 1004 52 10000 7 250 22:56 03.04.2020
5375 Clouds 7 1004 56 10000 6 260 22:37 03.04.2020
5376 Clouds 7 1004 56 10000 6 260 22:18 03.04.2020
5377 Rain 8 1003 48 10000 10 260 21:43 03.04.2020
5378 Clouds 8 1003 49 10000 7 270 21:22 03.04.2020
5379 Clouds 8 1002 42 10000 8 270 20:56 03.04.2020
5380 Clouds 8 1002 34 10000 4 220 20:37 03.04.2020
5381 Clouds 8 1002 34 10000 4 220 20:19 03.04.2020
5382 Clouds 8 1001 34 10000 5 200 19:56 03.04.2020
5383 Clouds 9 1001 31 10000 6 200 19:38 03.04.2020
5384 Clouds 9 1001 31 10000 6 200 19:19 03.04.2020
5385 Clouds 9 1001 29 10000 4 200 18:58 03.04.2020
5386 Clouds 9 1001 29 10000 6 210 18:40 03.04.2020
5387 Clouds 9 1001 29 10000 6 210 18:22 03.04.2020
5388 Clouds 10 1000 29 10000 7 210 17:43 03.04.2020
5389 Clouds 10 1000 29 10000 7 210 17:21 03.04.2020
5390 Clouds 10 1000 29 10000 8 210 16:58 03.04.2020
5391 Clouds 11 1000 29 10000 7 200 16:40 03.04.2020
5392 Clouds 11 1000 29 10000 7 200 16:21 03.04.2020
5393 Clouds 11 1000 29 10000 8 200 15:58 03.04.2020
5394 Clouds 10 1001 29 10000 8 210 15:38 03.04.2020
5395 Clouds 10 1001 29 10000 8 210 15:19 03.04.2020
5396 Clouds 10 983 35 0 4.92 157 14:41 03.04.2020
5397 Clouds 10 1001 34 10000 8 210 14:22 03.04.2020
5398 Clouds 9 1001 34 10000 8 210 13:59 03.04.2020
5399 Clouds 9 1001 34 10000 8 210 13:40 03.04.2020
5400 Clouds 9 1001 34 10000 8 210 13:22 03.04.2020
5401 Clouds 9 1002 39 10000 10 220 12:43 03.04.2020
5402 Clouds 9 1002 39 10000 10 220 12:20 03.04.2020
5403 Clouds 9 1002 39 10000 9 220 11:57 03.04.2020
5404 Clouds 9 1002 39 10000 10 220 11:39 03.04.2020
5405 Clouds 8 1002 39 10000 10 220 11:20 03.04.2020
5406 Clouds 8 1002 42 10000 9 210 10:59 03.04.2020
5407 Clouds 8 1002 52 10000 9 200 10:39 03.04.2020
5408 Clouds 6 1002 60 10000 7 200 10:20 03.04.2020
5409 Clouds 7 1002 60 10000 7 200 09:59 03.04.2020
5410 Clouds 6 1003 65 10000 6 200 09:40 03.04.2020
5411 Clouds 5 1003 65 10000 6 200 09:21 03.04.2020
5412 Clouds 5 1003 65 10000 6 200 09:21 03.04.2020
5413 Clouds 5 1003 65 10000 6 190 08:56 03.04.2020
5414 Clouds 4 1003 65 10000 5 190 08:37 03.04.2020
5415 Clouds 4 1003 69 10000 6 200 08:19 03.04.2020
5416 Clouds 4 1003 69 10000 6 200 07:46 03.04.2020
5417 Clouds 4 1003 69 10000 5 200 07:28 03.04.2020
5418 Clouds 4 1003 69 10000 6 200 06:40 03.04.2020
5419 Clouds 3 1003 69 10000 6 200 06:22 03.04.2020
5420 Clouds 3 1003 69 10000 5 200 05:39 03.04.2020
5421 Clouds 3 1003 88 10000 5 200 03:42 03.04.2020
5422 Clouds 4 1003 86 10000 5 220 02:55 03.04.2020
5423 Clouds 4 1003 86 10000 5 220 02:18 03.04.2020
5424 Clouds 4 1003 86 10000 5 210 01:20 03.04.2020
5425 Clouds 4 1003 86 10000 5 220 00:34 03.04.2020
5426 Clouds 4 1003 93 10000 5 220 23:58 02.04.2020
5427 Clouds 4 1003 93 10000 5 220 23:39 02.04.2020
5428 Clouds 4 1003 93 10000 6 230 23:21 02.04.2020
5429 Clouds 3 1003 93 10000 5 220 22:57 02.04.2020
5430 Clouds 3 1003 93 10000 6 230 22:37 02.04.2020
5431 Clouds 3 1003 93 10000 6 230 22:18 02.04.2020
5432 Drizzle 3 1003 93 7000 7 230 21:39 02.04.2020
5433 Drizzle 3 1003 93 7000 7 230 21:19 02.04.2020
5434 Rain 3 1003 93 10000 6 230 20:58 02.04.2020
5435 Clouds 3 1002 86 10000 7 220 20:40 02.04.2020
5436 Clouds 4 1002 86 10000 7 220 20:21 02.04.2020
5437 Rain 4 1002 86 10000 6 220 19:44 02.04.2020
5438 Rain 4 1002 86 10000 6 220 19:21 02.04.2020
5439 Rain 3 1002 86 8000 6 220 18:58 02.04.2020
5440 Rain 4 1002 80 9000 5 220 18:39 02.04.2020
5441 Snow 4 1002 80 10000 4 210 18:20 02.04.2020
5442 Snow 4 1002 80 10000 4 210 17:56 02.04.2020
5443 Snow 4 1002 80 10000 6 230 17:38 02.04.2020
5444 Snow 4 1002 80 10000 6 230 17:18 02.04.2020
5445 Rain 4 1002 80 10000 7 230 16:55 02.04.2020
5446 Rain 4 1002 86 10000 7 230 16:37 02.04.2020
5447 Rain 4 1002 86 10000 7 230 16:18 02.04.2020
5448 Clouds 4 1002 93 8000 8 240 15:44 02.04.2020
5449 Rain 4 1002 80 9000 7 220 15:21 02.04.2020
5450 Rain 5 1001 80 10000 7 220 14:58 02.04.2020
5451 Rain 4 1002 80 10000 9 240 14:40 02.04.2020
5452 Rain 4 1002 80 10000 9 240 14:19 02.04.2020
5453 Rain 5 1001 76 10000 9 230 13:57 02.04.2020
5454 Rain 5 1001 76 10000 7 230 13:38 02.04.2020
5455 Rain 5 1001 76 10000 7 230 13:38 02.04.2020
5456 Clouds 5 1001 65 10000 7 230 13:20 02.04.2020
5457 Clouds 5 1001 65 10000 7 230 12:55 02.04.2020
5458 Clouds 4 1001 65 10000 7 230 12:55 02.04.2020
5459 Clouds 4 1001 65 10000 8 240 12:36 02.04.2020
5460 Clouds 4 1001 65 10000 9 240 12:18 02.04.2020
5461 Clouds 4 1001 65 10000 9 240 11:55 02.04.2020
5462 Clouds 4 1001 65 10000 9 240 11:55 02.04.2020
5463 Clouds 3 1001 64 10000 8 250 11:36 02.04.2020
5464 Clouds 4 1001 64 10000 8 250 11:18 02.04.2020
5465 Clouds 4 1001 64 10000 8 240 10:54 02.04.2020
5466 Clouds 3 1001 74 10000 7 240 10:36 02.04.2020
5467 Clouds 3 1001 74 10000 7 240 10:18 02.04.2020
5468 Clouds 3 1001 74 10000 8 250 09:43 02.04.2020
5469 Clouds 3 1001 74 10000 8 250 09:24 02.04.2020
5470 Clouds 3 1001 74 10000 6 250 08:58 02.04.2020
5471 Clouds 3 1001 74 10000 6 250 08:40 02.04.2020
5472 Clouds 2 1001 80 10000 7 240 08:20 02.04.2020
5473 Clouds 2 1001 80 10000 7 240 07:43 02.04.2020
5474 Clouds 2 1001 80 10000 6 240 07:20 02.04.2020
5475 Clouds 2 1001 86 10000 6 240 06:57 02.04.2020
5476 Clouds 2 1001 86 10000 7 240 06:21 02.04.2020
5477 Clouds 1 1001 86 10000 7 240 05:42 02.04.2020
5478 Clouds 2 1000 86 10000 8 230 03:24 02.04.2020
5479 Clouds 1 1001 86 10000 7 240 01:31 02.04.2020
5480 Clouds 1 1001 86 10000 6 240 00:46 02.04.2020
5481 Clouds 1 1001 86 10000 6 250 00:26 02.04.2020
5482 Clouds 1 1001 86 10000 6 250 23:41 01.04.2020
5483 Clouds 1 1001 92 10000 7 250 23:20 01.04.2020
5484 Clouds 1 1001 92 10000 7 260 22:59 01.04.2020
5485 Snow 1 1001 92 10000 7 240 22:39 01.04.2020
5486 Snow 1 1001 92 10000 7 240 22:21 01.04.2020
5487 Snow 1 1001 92 10000 7 240 21:42 01.04.2020
5488 Snow 1 1001 92 10000 7 240 21:22 01.04.2020
5489 Snow 1 1001 92 10000 7 240 21:22 01.04.2020
5490 -273 0 0 0 0 0 21:21 01.04.2020
5491 Snow 1 1001 95 10000 7 240 21:21 01.04.2020
5492 Snow 1 1001 92 9000 7 250 20:57 01.04.2020
5493 Snow 1 1001 92 9000 7 240 20:39 01.04.2020
5494 Snow 1 1001 92 9000 7 240 20:21 01.04.2020
5495 Snow 1 1001 92 10000 8 240 19:59 01.04.2020
5496 Snow 1 1001 92 8000 7 240 19:41 01.04.2020
5497 Snow 1 1002 92 3100 7 230 19:20 01.04.2020
5498 Snow 1 1002 92 2500 6 230 18:44 01.04.2020
5499 Snow 2 1002 84 2500 6 230 18:26 01.04.2020
5500 Clouds 2 1003 64 10000 6 260 17:58 01.04.2020
5501 Snow 2 1002 80 8000 7 250 17:38 01.04.2020
5502 Snow 2 1002 80 8000 7 250 17:20 01.04.2020
5503 Snow 2 1002 69 9000 12 250 16:59 01.04.2020
5504 Snow 3 1002 59 10000 9 240 16:39 01.04.2020
5505 Snow 3 1002 59 10000 9 240 16:21 01.04.2020
5506 Snow 3 1002 59 9000 10 240 15:58 01.04.2020
5507 Snow 3 1002 55 10000 9 240 15:38 01.04.2020
5508 Snow 3 1002 55 10000 9 240 15:20 01.04.2020
5509 Clouds 3 1002 51 10000 8 240 14:56 01.04.2020
5510 Clouds 3 1002 51 10000 9 240 14:38 01.04.2020
5511 Clouds 3 1002 51 10000 9 240 14:19 01.04.2020
5512 Clouds 3 1002 47 10000 10 240 13:57 01.04.2020
5513 Clouds 3 1003 47 10000 10 250 13:37 01.04.2020
5514 Clouds 3 1003 47 10000 10 250 13:18 01.04.2020
5515 Clouds 2 1003 43 10000 8 240 12:43 01.04.2020
5516 Clouds 2 1003 43 10000 8 240 12:24 01.04.2020
5517 Clouds 2 1003 37 10000 8 240 11:59 01.04.2020
5518 Clouds 2 1003 37 10000 8 240 11:40 01.04.2020
5519 Clouds 2 1004 37 10000 9 240 11:21 01.04.2020
5520 Clouds 1 1004 40 10000 8 230 10:56 01.04.2020
5521 Clouds 0 1005 82 10000 7 220 10:37 01.04.2020
5522 Clouds 0 1005 82 10000 7 230 10:18 01.04.2020
5523 Clouds 0 1005 82 10000 7 230 09:40 01.04.2020
5524 Clouds -1 1006 33 10000 7 230 09:22 01.04.2020
5525 Clouds -2 1006 36 10000 6 230 08:59 01.04.2020
5526 Clouds -2 1006 36 10000 6 230 08:40 01.04.2020
5527 Clouds -2 1006 36 10000 6 230 08:40 01.04.2020
5528 Clouds -3 1007 38 10000 6 240 08:18 01.04.2020
5529 Clouds -4 1007 41 10000 6 240 07:42 01.04.2020
5530 Clouds -5 1008 49 10000 5 240 07:20 01.04.2020
5531 Clouds -6 1008 57 10000 4 240 06:47 01.04.2020
5532 Clouds -8 1008 57 10000 4 240 06:23 01.04.2020
5533 Clouds -9 1008 57 10000 3 220 05:55 01.04.2020
5534 Clouds -9 1009 61 10000 3 240 04:30 01.04.2020
5535 Clouds -9 1010 61 10000 3 260 03:28 01.04.2020
5536 Clouds -7 1010 53 10000 3 280 02:49 01.04.2020
5537 Clouds -6 1010 53 10000 4 270 01:56 01.04.2020
5538 Clouds -6 1011 57 10000 3 270 01:36 01.04.2020
5539 Clouds -6 1011 53 10000 3 270 01:18 01.04.2020
5540 Clouds -6 1011 49 10000 4 280 00:43 01.04.2020
5541 Clouds -6 1011 49 10000 4 280 00:18 01.04.2020
5542 Clouds -6 1011 49 10000 3 280 23:41 31.03.2020
5543 Clouds -5 1011 45 10000 3 280 23:23 31.03.2020
5544 Clouds -5 1011 45 10000 3 280 23:23 31.03.2020
5545 Clouds -5 1012 45 10000 3 290 22:57 31.03.2020
5546 Clouds -5 1012 45 10000 3 290 22:36 31.03.2020
5547 Clouds -5 1012 45 10000 2 300 22:18 31.03.2020
5548 Clouds -5 1012 38 10000 3 300 21:55 31.03.2020
5549 Clouds -5 1012 38 10000 3 300 21:55 31.03.2020
5550 Clouds -5 1012 38 10000 3 300 21:37 31.03.2020
5551 Clouds -4 1012 35 10000 3 300 21:19 31.03.2020
5552 Clouds -4 1012 35 10000 3 300 20:54 31.03.2020
5553 Clouds -4 1012 35 10000 3 300 20:36 31.03.2020
5554 Clouds -4 1012 35 10000 3 300 20:36 31.03.2020
5555 Clouds -3 1012 42 10000 3 280 20:18 31.03.2020
5556 Clouds -3 1012 42 10000 2 270 19:41 31.03.2020
5557 Clouds -3 1012 39 10000 1 320 19:22 31.03.2020
5558 Clouds -3 1012 39 10000 1 320 18:56 31.03.2020
5559 Clouds -2 1012 39 10000 2 340 18:37 31.03.2020
5560 Snow -2 1012 36 10000 4 350 18:18 31.03.2020
5561 Snow -2 1012 36 10000 4 350 17:54 31.03.2020
5562 Snow -2 1012 39 10000 6 350 17:36 31.03.2020
5563 Snow -2 1012 33 10000 6 340 17:18 31.03.2020
5564 Snow -3 1012 39 10000 6 340 16:39 31.03.2020
5565 Snow -3 1012 39 10000 6 340 16:19 31.03.2020
5566 Snow -3 1012 42 10000 7 350 15:57 31.03.2020
5567 Clouds -3 1012 50 10000 7 350 15:39 31.03.2020
5568 Snow -3 1012 68 10000 7 340 15:20 31.03.2020
5569 Snow -3 1012 68 10000 7 340 14:57 31.03.2020
5570 Snow -3 1012 79 9000 7 340 14:38 31.03.2020
5571 Snow -3 1012 79 9000 7 340 14:20 31.03.2020
5572 Snow -3 1012 86 3700 6 360 13:42 31.03.2020
5573 Snow -3 1012 86 3700 6 360 13:19 31.03.2020
5574 Snow -3 1012 85 4100 7 10 12:56 31.03.2020
5575 Snow -3 1012 92 2200 6 10 12:38 31.03.2020
5576 Snow -3 1012 92 2200 6 10 12:19 31.03.2020
5577 Snow -4 1011 85 2300 6 10 11:39 31.03.2020
5578 Snow -4 1011 85 2300 6 10 11:20 31.03.2020
5579 Snow -4 1011 85 2900 6 10 10:58 31.03.2020
5580 Snow -4 1011 79 2500 8 10 10:40 31.03.2020
5581 Snow -4 1011 79 2500 8 10 10:21 31.03.2020
5582 Snow -4 1011 79 3800 8 10 09:56 31.03.2020
5583 Snow -4 1011 79 4300 6 20 09:37 31.03.2020
5584 Snow -4 1011 79 4300 6 20 09:19 31.03.2020
5585 Snow -4 1011 79 3800 5 10 08:56 31.03.2020
5586 Snow -4 1011 79 3800 5 10 08:56 31.03.2020
5587 Snow -4 1011 79 3000 8 10 08:38 31.03.2020
5588 Snow -4 1011 79 3000 8 10 08:19 31.03.2020
5589 Snow -4 1011 79 5000 7 20 07:55 31.03.2020
5590 Snow -4 1011 79 5000 7 20 07:55 31.03.2020
5591 Snow -4 1011 85 2400 5 20 07:37 31.03.2020
5592 Snow -4 1011 85 2400 5 20 07:18 31.03.2020
5593 Snow -4 1011 79 3200 6 10 06:42 31.03.2020
5594 Snow -4 1011 79 4800 4 10 05:57 31.03.2020
5595 Snow -4 1010 79 5000 6 20 05:38 31.03.2020
5596 Snow -3 1011 85 6000 6 10 03:28 31.03.2020
5597 Snow -3 1011 85 7000 6 10 01:52 31.03.2020
5598 Snow -3 1011 85 8000 6 20 01:33 31.03.2020
5599 Snow -3 1011 92 6000 6 10 00:46 31.03.2020
5600 Snow -3 1011 92 6000 6 10 00:24 31.03.2020
5601 Snow -3 1011 86 3500 7 10 23:41 30.03.2020
5602 Snow -3 1011 86 3500 7 10 23:20 30.03.2020
5603 Snow -3 1011 86 6000 5 20 22:58 30.03.2020
5604 Snow -2 1011 92 5000 6 360 22:39 30.03.2020
5605 Snow -2 1011 92 5000 6 360 22:20 30.03.2020
5606 Snow -2 1011 92 7000 6 10 21:58 30.03.2020
5607 Snow -2 1011 92 4600 6 20 21:39 30.03.2020
5608 Snow -2 1011 92 4600 6 20 21:21 30.03.2020
5609 Snow -2 1011 92 3200 6 10 20:59 30.03.2020
5610 Snow -2 1011 92 5000 7 360 20:39 30.03.2020
5611 Snow -2 1011 92 5000 7 360 20:20 30.03.2020
5612 Snow -2 1011 92 7000 6 360 19:57 30.03.2020
5613 Snow -2 1010 100 4300 6 10 19:39 30.03.2020
5614 Snow -2 1010 100 2100 6 360 19:20 30.03.2020
5615 Snow -1 1010 100 1300 5 360 18:44 30.03.2020
5616 Snow -1 1010 100 1300 5 360 18:26 30.03.2020
5617 Snow -1 1010 100 800 6 10 17:58 30.03.2020
5618 Snow 0 1010 92 1300 6 360 17:40 30.03.2020
5619 Snow 0 1010 92 1300 6 360 17:22 30.03.2020
5620 Snow 0 1010 92 4400 6 10 16:59 30.03.2020
5621 Snow 0 1009 92 9000 6 10 16:40 30.03.2020
5622 Snow 0 1009 92 9000 6 10 16:21 30.03.2020
5623 Snow 0 1009 92 6000 6 10 15:56 30.03.2020
5624 Snow 0 1009 92 2800 6 20 15:38 30.03.2020
5625 Snow 1 1009 86 5000 6 10 15:20 30.03.2020
5626 Snow 1 1009 86 5000 6 10 14:58 30.03.2020
5627 Snow 1 1009 80 8000 6 20 14:37 30.03.2020
5628 Snow 1 1009 80 8000 6 20 14:19 30.03.2020
5629 Snow 1 1009 74 9000 7 20 13:57 30.03.2020
5630 Clouds 1 1008 74 10000 7 20 13:38 30.03.2020
5631 Clouds 1 1008 74 10000 7 20 13:19 30.03.2020
5632 Clouds 1 1008 74 10000 8 20 12:45 30.03.2020
5633 Clouds 1 1008 80 10000 7 20 12:21 30.03.2020
5634 Clouds 2 1008 89 10000 7 360 11:59 30.03.2020
5635 Clouds 2 1008 89 10000 7 360 11:59 30.03.2020
5636 Clouds 1 1008 80 10000 6 10 11:41 30.03.2020
5637 Clouds 1 1008 80 10000 6 10 11:22 30.03.2020
5638 Clouds 1 1007 89 10000 8 20 10:55 30.03.2020
5639 Clouds 1 1007 89 10000 7 20 10:37 30.03.2020
5640 Clouds 1 1007 89 10000 7 20 10:18 30.03.2020
5641 Clouds 1 1006 74 10000 6 30 09:40 30.03.2020
5642 Clouds 1 1006 74 10000 6 30 09:19 30.03.2020
5643 Clouds 1 1006 74 10000 6 30 09:19 30.03.2020
5644 Clouds 1 1007 80 10000 6 10 08:57 30.03.2020
5645 Clouds 1 1007 80 10000 6 360 08:38 30.03.2020
5646 Clouds 1 1006 80 10000 5 20 08:19 30.03.2020
5647 Clouds 1 1007 86 10000 6 20 07:43 30.03.2020
5648 Clouds 1 1007 86 10000 6 20 07:21 30.03.2020
5649 Clouds 1 1006 86 10000 7 10 06:47 30.03.2020
5650 Clouds 1 1006 86 10000 7 10 06:25 30.03.2020
5651 Clouds 1 1006 86 10000 7 360 05:44 30.03.2020
5652 Clouds 2 1006 81 10000 6 10 04:31 30.03.2020
5653 Clouds 2 1005 81 10000 6 10 03:57 30.03.2020
5654 Clouds 3 1005 86 10000 5 10 02:45 30.03.2020
5655 Clouds 5 1006 86 10000 5 10 01:58 30.03.2020
5656 Clouds 6 1005 60 10000 4 10 01:18 30.03.2020
5657 Clouds 7 1006 69 10000 5 10 00:29 30.03.2020
5658 Clouds 7 1006 69 10000 5 350 23:56 29.03.2020
5659 Clouds 8 1006 60 10000 5 10 23:37 29.03.2020
5660 Clouds 8 1006 60 10000 5 10 23:37 29.03.2020
5661 Clouds 8 1006 60 10000 5 10 23:19 29.03.2020
5662 Clouds 9 1006 56 10000 4 30 22:55 29.03.2020
5663 Clouds 10 1004 37 10000 2 180 22:37 29.03.2020
5664 Clouds 10 1004 37 10000 2 180 22:18 29.03.2020
5665 Clouds 10 1005 52 10000 6 360 21:38 29.03.2020
5666 Clouds 11 1005 37 10000 2 200 21:20 29.03.2020
5667 Clouds 11 1005 37 10000 2 200 20:56 29.03.2020
5668 Clouds 12 1005 37 10000 5 350 20:37 29.03.2020
5669 Clouds 12 1005 37 10000 5 350 20:37 29.03.2020
5670 Clouds 12 1005 37 10000 5 350 20:37 29.03.2020
5671 Clouds 12 1005 37 10000 5 350 20:19 29.03.2020
5672 Clouds 12 1005 37 10000 5 350 20:19 29.03.2020
5673 Clouds 13 1005 30 10000 6 250 19:57 29.03.2020
5674 Clouds 13 1005 30 10000 5 250 19:39 29.03.2020
5675 Clouds 13 1005 24 10000 3 190 19:21 29.03.2020
5676 Clouds 13 1005 24 10000 3 190 18:57 29.03.2020
5677 Clouds 14 1005 22 10000 4 240 18:38 29.03.2020
5678 Clouds 15 1005 22 10000 2 190 18:19 29.03.2020
5679 Clouds 15 1005 22 10000 2 190 17:56 29.03.2020
5680 Clouds 15 1005 28 10000 3 250 17:37 29.03.2020
5681 Clouds 16 1005 22 10000 4 250 17:18 29.03.2020
5682 Clouds 15 1005 22 10000 4 250 16:56 29.03.2020
5683 Clouds 16 1005 22 10000 5 210 16:38 29.03.2020
5684 Clouds 16 1005 22 10000 5 210 16:18 29.03.2020
5685 Clouds 16 1006 21 10000 5 220 15:41 29.03.2020
5686 Clouds 16 1006 21 10000 5 220 15:23 29.03.2020
5687 Clouds 16 1006 19 10000 5 200 14:58 29.03.2020
5688 Clouds 16 1006 19 10000 5 230 14:40 29.03.2020
5689 Clouds 16 1007 23 10000 5 210 14:20 29.03.2020
5690 Clouds 16 1007 23 10000 5 210 13:57 29.03.2020
5691 Clouds 16 1007 23 10000 6 180 13:39 29.03.2020
5692 Clouds 16 1007 23 10000 6 180 13:39 29.03.2020
5693 Clouds 16 1008 23 10000 5 170 13:20 29.03.2020
5694 Clouds 16 1008 26 10000 5 210 12:55 29.03.2020
5695 Clouds 16 1008 26 10000 5 210 12:37 29.03.2020
5696 Clouds 15 1008 28 10000 4 210 12:19 29.03.2020
5697 Clouds 15 1008 28 10000 4 210 11:55 29.03.2020
5698 Clouds 15 1009 30 10000 3 210 11:37 29.03.2020
5699 Clouds 14 1009 35 10000 3 180 11:18 29.03.2020
5700 Clouds 13 1009 34 10000 3 200 10:38 29.03.2020
5701 Clouds 13 1009 34 10000 3 200 10:19 29.03.2020
5702 Clouds 11 1010 43 10000 3 220 09:41 29.03.2020
5703 Clouds 11 1010 43 10000 3 220 09:22 29.03.2020
5704 Clouds 10 1010 45 10000 3 220 08:56 29.03.2020
5705 Clouds 8 1010 49 10000 3 220 08:38 29.03.2020
5706 Clouds 8 1010 49 9000 2 220 08:19 29.03.2020
5707 Clouds 7 1010 52 9000 2 230 07:42 29.03.2020
5708 Clouds 7 1010 52 9000 2 230 07:21 29.03.2020
5709 Clouds 5 1011 60 10000 2 230 05:58 29.03.2020
5710 Clouds 5 1011 64 10000 2 240 04:55 29.03.2020
5711 Clouds 5 1012 60 9000 1 0 03:33 29.03.2020
5712 Clouds 6 1012 60 9000 2.55 211 01:57 29.03.2020
5713 Clouds 6 1013 60 9000 1 0 01:37 29.03.2020
5714 Clouds 6 1013 60 9000 1 0 01:19 29.03.2020
5715 Clouds 7 1013 56 9000 2 230 00:39 29.03.2020
5716 Clouds 7 1013 60 8000 2.32 207 23:59 28.03.2020
5717 Smoke 7 1014 56 8000 1 0 23:40 28.03.2020
5718 Smoke 7 1014 56 8000 1 0 23:40 28.03.2020
5719 Smoke 7 1014 56 8000 1 0 23:22 28.03.2020
5720 Clouds 8 1014 60 9000 2.48 206 22:42 28.03.2020
5721 Clouds 8 1014 56 6000 1 0 22:22 28.03.2020
5722 Clouds 9 1014 49 7000 1 0 21:57 28.03.2020
5723 Clouds 9 1014 49 6000 2.48 206 21:39 28.03.2020
5724 Clouds 9 1014 49 6000 2.48 206 21:19 28.03.2020
5725 Smoke 10 1015 43 5000 1 0 20:56 28.03.2020
5726 Clouds 10 1015 40 7000 3 220 20:37 28.03.2020
5727 Clouds 10 1015 40 7000 3 220 20:19 28.03.2020
5728 Clouds 10 1015 40 7000 3 220 20:19 28.03.2020
5729 Clouds 10 1015 45 7000 2 260 19:55 28.03.2020
5730 Clouds 10 1015 34 9000 2 180 19:36 28.03.2020
5731 Clouds 10 1015 34 9000 2 180 19:18 28.03.2020
5732 Clouds 11 1015 32 10000 2 180 18:42 28.03.2020
5733 Clouds 11 1015 32 10000 2 180 18:20 28.03.2020
5734 Clouds 14 1016 28 10000 3 190 17:43 28.03.2020
5735 Clouds 14 1016 28 10000 4 200 17:24 28.03.2020
5736 Clouds 15 1016 28 10000 4 200 16:59 28.03.2020
5737 Clouds 15 1016 26 10000 3 210 16:40 28.03.2020
5738 Clouds 15 1016 26 10000 3 210 16:18 28.03.2020
5739 Clouds 16 1017 26 10000 4 220 15:55 28.03.2020
5740 Clouds 17 1017 25 10000 5 210 15:37 28.03.2020
5741 Clouds 17 1018 25 10000 5 190 15:18 28.03.2020
5742 Clouds 17 1018 23 10000 5 200 14:41 28.03.2020
5743 Clouds 17 1018 23 10000 5 200 14:21 28.03.2020
5744 Clouds 17 1018 23 10000 5 200 14:21 28.03.2020
5745 Clouds 17 1019 25 10000 5 200 13:43 28.03.2020
5746 Clouds 17 1019 23 10000 6 170 13:24 28.03.2020
5747 Clouds 17 1020 25 10000 5 190 12:57 28.03.2020
5748 Clouds 17 1020 25 10000 4 200 12:37 28.03.2020
5749 Clouds 17 1020 25 10000 4 200 12:18 28.03.2020
5750 Clouds 17 1021 26 10000 4 180 11:41 28.03.2020
5751 Clouds 16 1022 29 10000 5 160 11:21 28.03.2020
5752 Clouds 15 1022 30 10000 3 190 10:40 28.03.2020
5753 Clouds 15 1022 30 10000 3 190 10:22 28.03.2020
5754 Clouds 15 1023 33 10000 4 220 09:59 28.03.2020
5755 Clouds 14 1023 33 10000 3 240 09:39 28.03.2020
5756 Clouds 14 1023 33 10000 3 240 09:20 28.03.2020
5757 Clouds 12 1024 37 9000 3 220 08:42 28.03.2020
5758 Clouds 12 1024 37 9000 3 220 08:23 28.03.2020
5759 Clouds 10 1024 43 7000 1 0 07:49 28.03.2020
5760 Clouds 10 1024 45 6000 2 170 07:31 28.03.2020
5761 Clouds 5 1025 56 9000 1 0 06:42 28.03.2020
5762 Clouds 5 1025 56 9000 1 0 06:18 28.03.2020
5763 Clouds 2 1025 64 10000 1.89 177 05:24 28.03.2020
5764 Clouds 1 1026 69 9000 1 0 04:48 28.03.2020
5765 Clouds 1 1026 69 10000 1 0 04:28 28.03.2020
5766 Clouds 2 1027 59 10000 1 0 02:46 28.03.2020
5767 Clouds 3 1027 59 10000 1 0 01:47 28.03.2020
5768 Clouds 3 1027 59 10000 1.28 192 01:23 28.03.2020
5769 Clouds 3 1028 55 10000 1.28 192 00:47 28.03.2020
5770 Clouds 4 1028 55 10000 1 0 00:24 28.03.2020
5771 Clouds 4 1028 51 9000 1 40 23:44 27.03.2020
5772 Clouds 5 1028 51 9000 1 0 23:25 27.03.2020
5773 Clouds 5 1028 51 9000 1 0 22:57 27.03.2020
5774 Clouds 6 1029 48 9000 1 0 22:39 27.03.2020
5775 Clouds 6 1029 48 9000 1 0 22:20 27.03.2020
5776 Clouds 6 1029 52 7000 1 0 21:58 27.03.2020
5777 Clouds 6 1029 45 8000 1 0 21:40 27.03.2020
5778 Clouds 6 1029 45 8000 1 0 21:22 27.03.2020
5779 Clouds 6 1029 45 8000 1 0 21:22 27.03.2020
5780 Clouds 7 1029 45 9000 2 330 20:56 27.03.2020
5781 Clouds 7 1029 39 9000 1 0 20:38 27.03.2020
5782 Clouds 7 1029 39 9000 1 0 20:19 27.03.2020
5783 Clouds 8 1029 36 7000 2 330 19:54 27.03.2020
5784 Clouds 8 1029 48 6000 2 330 19:36 27.03.2020
5785 Clouds 9 1030 45 9000 0.94 67 19:18 27.03.2020
5786 Clouds 9 1030 42 10000 2 310 18:42 27.03.2020
5787 Clouds 9 1030 42 10000 2 310 18:22 27.03.2020
5788 Clouds 12 1030 30 10000 2 70 17:54 27.03.2020
5789 Clouds 12 1030 30 10000 2 70 17:36 27.03.2020
5790 Clouds 13 1030 26 10000 2 70 17:18 27.03.2020
5791 Clouds 13 1030 28 10000 2 80 16:41 27.03.2020
5792 Clouds 13 1030 28 10000 2 80 16:23 27.03.2020
5793 Clouds 14 1031 24 10000 2 40 15:43 27.03.2020
5794 Clouds 9 1031 54 0 0.56 4 15:25 27.03.2020
5795 Clouds 9 1031 54 0 0.56 4 14:48 27.03.2020
5796 Clouds 11 1033 47 0 1.62 346 14:27 27.03.2020
5797 Clouds 11 1033 47 0 1.62 346 13:58 27.03.2020
5798 Clouds 11 1033 47 0 1.62 346 13:40 27.03.2020
5799 Clouds 11 1033 47 0 1.62 346 13:21 27.03.2020
5800 Clouds 11 1033 46 0 1.69 352 12:58 27.03.2020
5801 Clouds 11 1033 46 0 1.69 352 12:39 27.03.2020
5802 Clouds 11 1033 46 0 1.69 352 12:19 27.03.2020
5803 Clouds 11 1033 46 0 1.69 352 11:42 27.03.2020
5804 Clouds 9 1034 53 0 1.71 328 11:24 27.03.2020
5805 Clouds 9 1034 53 0 1.71 328 10:55 27.03.2020
5806 Clouds 9 1034 53 0 1.71 328 10:37 27.03.2020
5807 Clouds 9 1034 53 0 1.71 328 10:19 27.03.2020
5808 Clouds 9 1034 53 0 1.71 328 09:57 27.03.2020
5809 Clouds 9 1034 53 0 1.71 328 09:38 27.03.2020
5810 Clouds 9 1034 53 0 1.71 328 09:19 27.03.2020
5811 Clouds 9 1034 53 0 1.71 328 08:56 27.03.2020
5812 Clouds 9 1034 53 0 1.71 328 08:38 27.03.2020
5813 Clouds 5 1035 67 0 1.28 315 08:20 27.03.2020
5814 Clouds 5 1035 69 0 1.27 321 07:52 27.03.2020
5815 Clouds 5 1035 69 0 1.27 321 07:25 27.03.2020
5816 Clouds 5 1035 69 0 1.27 321 06:55 27.03.2020
5817 Clouds 5 1035 69 0 1.27 321 06:37 27.03.2020
5818 Clouds 5 1035 69 0 1.27 321 05:28 27.03.2020
5819 Clouds 2 1034 80 0 1.58 334 02:46 27.03.2020
5820 Clear 3 1035 76 0 2.21 337 01:23 27.03.2020
5821 Clear 3 1035 76 0 2.19 336 00:51 27.03.2020
5822 Clear 3 1035 76 0 2.19 336 00:32 27.03.2020
5823 Clear 3 1035 76 0 2.19 336 23:44 26.03.2020
5824 Clear 4 1034 72 0 2.56 324 23:23 26.03.2020
5825 Clear 4 1034 72 0 2.56 324 22:59 26.03.2020
5826 Clear 4 1034 72 0 2.56 324 22:39 26.03.2020
5827 Clear 4 1034 72 0 2.56 324 22:20 26.03.2020
5828 Clear 4 1034 72 0 2.56 324 21:58 26.03.2020
5829 Clear 4 1034 72 0 2.56 324 21:39 26.03.2020
5830 Clear 4 1034 72 0 2.56 324 21:21 26.03.2020
5831 Clear 4 1034 72 0 2.56 324 20:58 26.03.2020
5832 Clear 4 1034 72 0 2.56 324 20:38 26.03.2020
5833 Clear 5 1034 65 0 2.7 306 20:20 26.03.2020
5834 Clear 5 1034 65 0 2.7 306 19:56 26.03.2020
5835 Clear 5 1034 65 0 2.7 306 19:38 26.03.2020
5836 Clear 5 1034 65 0 2.7 306 19:20 26.03.2020
5837 Clear 5 1034 65 0 2.7 306 18:55 26.03.2020
5838 Clear 5 1034 65 0 2.7 306 18:55 26.03.2020
5839 Clear 5 1034 65 0 2.7 306 18:36 26.03.2020
5840 Clear 5 1034 65 0 2.7 306 18:18 26.03.2020
5841 Clear 5 1034 65 0 2.7 306 17:42 26.03.2020
5842 Clear 9 1033 51 0 3.15 298 17:19 26.03.2020
5843 Clear 9 1033 51 0 3.15 298 16:45 26.03.2020
5844 Clear 9 1033 51 0 3.15 298 16:27 26.03.2020
5845 Clear 9 1033 51 0 3.15 298 15:58 26.03.2020
5846 Clear 9 1033 51 0 3.15 298 15:40 26.03.2020
5847 Clear 9 1033 51 0 3.15 298 15:21 26.03.2020
5848 Clear 9 1033 51 0 3.15 298 14:58 26.03.2020
5849 Clear 9 1033 51 0 3.15 298 14:38 26.03.2020
5850 Clear 9 1033 51 0 3.15 298 14:38 26.03.2020
5851 Clear 11 1033 43 0 4.87 293 14:19 26.03.2020
5852 Clear 11 1033 43 0 4.87 293 13:43 26.03.2020
5853 Clear 11 1033 43 0 4.54 293 13:23 26.03.2020
5854 Clear 11 1033 43 0 4.54 293 12:57 26.03.2020
5855 Clear 11 1033 43 0 4.54 293 12:38 26.03.2020
5856 Clear 11 1033 43 0 4.54 293 12:19 26.03.2020
5857 Clear 11 1033 43 0 4.54 293 11:45 26.03.2020
5858 Clear 11 1033 43 0 4.54 293 11:45 26.03.2020
5859 Clear 8 1033 52 0 4.31 284 11:21 26.03.2020
5860 Clear 8 1033 52 0 4.31 284 10:56 26.03.2020
5861 Clear 8 1033 52 0 4.31 284 10:37 26.03.2020
5862 Clear 8 1033 52 0 4.31 284 10:37 26.03.2020
5863 Clear 8 1033 52 0 4.31 284 10:19 26.03.2020
5864 Clear 9 1017 20 0 4.02 180 09:43 26.03.2020
5865 Clear 9 1017 21 0 2.24 180 09:20 26.03.2020
5866 Clear 8 1017 21 0 2.68 174 08:55 26.03.2020
5867 Clear 8 1018 20 0 3.13 180 08:37 26.03.2020
5868 Clear 3 1034 69 0 4.54 285 08:18 26.03.2020
5869 Clear 3 1034 69 0 4.54 285 07:41 26.03.2020
5870 Clear 3 1034 69 0 4.54 285 07:20 26.03.2020
5871 Clear 3 1034 69 0 4.54 285 06:48 26.03.2020
5872 Clear 3 1034 69 0 4.54 285 05:54 26.03.2020
5873 Clear 0 1033 87 0 4.14 272 04:25 26.03.2020
5874 Clear 0 1033 87 0 4.14 272 03:41 26.03.2020
5875 Clear 0 1033 87 0 4.14 272 02:54 26.03.2020
5876 Clouds 0 1033 86 0 4.1 267 01:50 26.03.2020
5877 Clouds 0 1033 86 0 4.06 265 00:48 26.03.2020
5878 Clouds 0 1033 86 0 4.06 265 23:59 25.03.2020
5879 Clouds 0 1033 86 0 4.06 265 23:40 25.03.2020
5880 Clouds 1 1032 82 0 4.08 269 23:20 25.03.2020
5881 Clouds 1 1032 82 0 4.08 269 22:39 25.03.2020
5882 Clouds 1 1032 82 0 4.08 269 22:20 25.03.2020
5883 Clouds 1 1032 82 0 4.08 269 21:56 25.03.2020
5884 Clouds 1 1032 82 0 4.08 269 21:37 25.03.2020
5885 Clouds 1 1032 82 0 4.08 269 21:19 25.03.2020
5886 Clouds 1 1032 82 0 4.08 269 20:55 25.03.2020
5887 Clouds 1 1032 82 0 4.08 269 20:37 25.03.2020
5888 Clouds 2 1033 75 0 4.81 271 20:18 25.03.2020
5889 Clouds 2 1033 75 0 4.81 271 19:42 25.03.2020
5890 Clouds 2 1033 75 0 4.66 270 19:22 25.03.2020
5891 Clouds 2 1033 75 0 4.66 270 18:57 25.03.2020
5892 Clouds 2 1033 75 0 4.81 271 18:38 25.03.2020
5893 Clouds 2 1033 75 0 4.66 270 18:20 25.03.2020
5894 Clouds 2 1033 75 0 4.66 270 17:55 25.03.2020
5895 Clouds 2 1033 75 0 4.66 270 17:36 25.03.2020
5896 Clouds 5 1032 63 0 4.84 257 17:18 25.03.2020
5897 Clouds 5 1032 63 0 4.84 257 16:43 25.03.2020
5898 Clouds 5 1032 63 0 4.84 257 16:43 25.03.2020
5899 Clouds 5 1032 63 0 4.84 257 16:23 25.03.2020
5900 Clouds 5 1032 63 0 4.84 257 15:57 25.03.2020
5901 Clouds 5 1032 63 0 4.84 257 15:38 25.03.2020
5902 Clouds 5 1032 63 0 4.84 257 15:19 25.03.2020
5903 Clouds 5 1032 63 0 4.84 257 15:19 25.03.2020
5904 Clouds 5 1032 63 0 4.84 257 14:42 25.03.2020
5905 Clouds 7 1033 51 0 5.83 264 14:22 25.03.2020
5906 Clouds 7 1033 51 0 5.83 264 13:56 25.03.2020
5907 Clouds 7 1033 51 0 5.83 264 13:38 25.03.2020
5908 Clouds 7 1033 51 0 5.83 264 13:38 25.03.2020
5909 Clouds 7 1033 51 0 5.61 261 13:19 25.03.2020
5910 Clouds 7 1033 51 0 5.61 261 12:37 25.03.2020
5911 Clouds 10 1017 21 0 2.68 180 12:19 25.03.2020
5912 Clouds 10 1017 23 0 5.36 180 11:55 25.03.2020
5913 Clouds 9 1017 20 0 3.58 180 11:36 25.03.2020
5914 Clouds 5 1033 59 0 5.41 257 11:18 25.03.2020
5915 Clouds 5 1033 59 0 5.41 257 10:56 25.03.2020
5916 Clouds 5 1033 59 0 5.41 257 10:37 25.03.2020
5917 Clouds 7 1018 19 0 4.47 180 10:18 25.03.2020
5918 Clouds 6 1018 21 0 3.13 180 09:42 25.03.2020
5919 Clouds 6 1018 27 0 3.13 180 09:23 25.03.2020
5920 Clouds 6 1018 29 0 4.02 180 08:56 25.03.2020
5921 Clouds 4 1018 31 0 4.02 185 08:38 25.03.2020
5922 Clouds 4 1018 33 0 5.36 180 08:19 25.03.2020
5923 Clouds 3 1017 33 0 3.58 180 07:41 25.03.2020
5924 Clouds 3 1017 33 0 1.79 180 07:20 25.03.2020
5925 Clouds 3 1017 29 0 3.58 180 06:48 25.03.2020
5926 Clouds 3 1017 29 0 2.68 180 06:28 25.03.2020
5927 Clouds 1 1017 31 0 1.79 180 05:56 25.03.2020
5928 Clouds 1 1017 31 0 1.79 180 05:30 25.03.2020
5929 Clouds 1 1017 31 0 1.79 180 04:39 25.03.2020
5930 Clouds 1 1017 30 0 2.24 183 03:36 25.03.2020
5931 Clouds 1 1017 28 0 1.79 174 02:31 25.03.2020
5932 Clouds 1 1017 24 0 1.79 185 01:21 25.03.2020
5933 Clouds 2 1017 23 0 1.79 180 00:48 25.03.2020
5934 Clouds 2 1017 22 0 1.79 180 00:23 25.03.2020
5935 Clouds 2 1017 22 0 1.79 180 23:45 24.03.2020
5936 Clouds 2 1017 22 0 1.79 177 23:26 24.03.2020
5937 Clouds 2 1017 22 0 0.89 180 22:57 24.03.2020
5938 Clouds 2 1017 22 0 1.79 180 22:38 24.03.2020
5939 Clouds 2 1017 22 0 1.34 176 22:19 24.03.2020
5940 Clouds 2 1017 22 0 1.34 187 21:56 24.03.2020
5941 Clouds 2 1017 20 0 1.34 166 21:37 24.03.2020
5942 Clouds 2 1017 20 0 1.79 183 21:18 24.03.2020
5943 Clouds 2 1017 19 0 0.89 180 20:56 24.03.2020
5944 Clouds 2 1017 19 0 0.89 180 20:38 24.03.2020
5945 Clear 2 1017 19 0 1.34 175 20:19 24.03.2020
5946 Clear -2 1034 82 0 2.53 298 19:41 24.03.2020
5947 Clear -2 1034 82 0 2.53 298 19:19 24.03.2020
5948 Clear -2 1034 82 0 2.53 298 18:55 24.03.2020
5949 Clear -2 1034 82 0 2.53 298 18:37 24.03.2020
5950 Clear -2 1034 82 0 2.53 298 18:18 24.03.2020
5951 Clear -2 1034 82 0 2.53 298 18:18 24.03.2020
5952 Clear -2 1034 82 0 2.53 298 17:42 24.03.2020
5953 Clear 3 1016 22 0 2.68 0 17:23 24.03.2020
5954 Clear 3 1031 23 10000 5 300 16:58 24.03.2020
5955 Clear 3 1031 23 10000 5 300 16:40 24.03.2020
5956 Clear 4 1031 23 10000 5 300 16:22 24.03.2020
5957 Clear 3 1031 25 10000 6 290 15:59 24.03.2020
5958 Clear 4 1031 21 10000 5 310 15:39 24.03.2020
5959 Clear 4 1031 21 10000 5 310 15:21 24.03.2020
5960 Clear 4 1031 21 10000 5 310 15:21 24.03.2020
5961 Clear 4 1031 21 10000 5 310 15:21 24.03.2020
5962 Clear 4 1031 19 10000 6 310 14:43 24.03.2020
5963 Clear 2 1034 61 0 4.88 334 14:21 24.03.2020
5964 Clear 2 1034 61 0 4.88 334 13:55 24.03.2020
5965 Clear 2 1034 61 0 4.88 334 13:36 24.03.2020
5966 Clear 2 1034 61 0 4.78 336 13:18 24.03.2020
5967 Clear 4 1017 21 0 2.24 2 12:41 24.03.2020
5968 Clear 3 1017 22 0 4.47 3 12:23 24.03.2020
5969 Clear 3 1018 18 0 3.13 308 11:41 24.03.2020
5970 Clear 2 1033 27 10000 6 330 11:20 24.03.2020
5971 Clear 2 1033 27 10000 6 330 10:57 24.03.2020
5972 Clear 2 1034 29 10000 6 350 10:38 24.03.2020
5973 Clear 2 1034 29 10000 6 350 10:18 24.03.2020
5974 Clear 1 1034 26 10000 5 360 09:43 24.03.2020
5975 Clear 1 1034 26 10000 7 360 09:43 24.03.2020
5976 Clear 1 1034 26 10000 7 360 09:25 24.03.2020
5977 Clear 1 1035 33 10000 5 10 08:40 24.03.2020
5978 Clear 0 1035 44 10000 5 10 08:21 24.03.2020
5979 Clear 0 1035 36 10000 4 360 07:59 24.03.2020
5980 Clear -1 1035 42 10000 4 360 07:41 24.03.2020
5981 Clear -2 1035 42 10000 4 360 07:21 24.03.2020
5982 Clear -3 1035 53 10000 4 350 06:35 24.03.2020
5983 Clear -5 1035 57 10000 4 350 05:36 24.03.2020
5984 Clear -6 1035 57 10000 4 350 04:50 24.03.2020
5985 Clear -5 1035 57 10000 4 350 03:21 24.03.2020
5986 Clear -5 1035 57 10000 4 350 02:37 24.03.2020
5987 Clouds -4 1035 53 10000 4 360 00:54 24.03.2020
5988 Clouds -4 1035 53 10000 4 350 00:27 24.03.2020
5989 Clouds -3 1035 49 10000 4 350 23:55 23.03.2020
5990 Clouds -3 1035 49 10000 4 350 23:37 23.03.2020
5991 Clouds -3 1035 49 10000 4 350 23:19 23.03.2020
5992 Clouds -3 1035 49 10000 4 350 22:43 23.03.2020
5993 Clouds -3 1035 49 10000 4 350 22:22 23.03.2020
5994 Clouds -3 1035 49 10000 4 360 21:55 23.03.2020
5995 Clouds -3 1035 45 10000 4 350 21:37 23.03.2020
5996 Clouds -3 1035 45 10000 4 350 21:18 23.03.2020
5997 Clouds -2 1035 39 10000 3 350 20:44 23.03.2020
5998 Clouds -2 1035 39 10000 3 350 20:26 23.03.2020
5999 Clouds -2 1035 39 10000 2 360 19:59 23.03.2020
6000 Clouds -2 1035 36 10000 3 20 19:41 23.03.2020
6001 Clouds -2 1035 36 10000 3 10 19:22 23.03.2020
6002 Clouds -2 1035 33 10000 3 30 18:54 23.03.2020
6003 Clouds -2 1035 33 10000 3 30 18:36 23.03.2020
6004 Clouds -1 1035 33 10000 3 40 18:18 23.03.2020
6005 Clouds -1 1035 54 10000 4 40 17:41 23.03.2020
6006 Clouds 0 1035 47 10000 5 30 17:20 23.03.2020
6007 Clouds 0 1035 47 10000 6 20 16:44 23.03.2020
6008 Clouds 0 1035 47 10000 6 20 16:26 23.03.2020
6009 Clouds 1 1035 26 10000 6 20 15:59 23.03.2020
6010 Clouds 1 1035 29 10000 5 30 15:39 23.03.2020
6011 Clouds 1 1035 29 10000 5 30 15:19 23.03.2020
6012 Clouds 1 1035 34 10000 7 40 14:37 23.03.2020
6013 Clouds 1 1035 34 10000 7 40 14:19 23.03.2020
6014 Clouds 1 1035 44 10000 7 30 13:57 23.03.2020
6015 Clouds 1 1035 44 10000 7 360 13:38 23.03.2020
6016 Clouds 1 1035 44 10000 7 360 13:38 23.03.2020
6017 Clouds 1 1035 44 10000 7 360 13:38 23.03.2020
6018 Clouds 1 1035 44 10000 7 360 13:20 23.03.2020
6019 Clouds 1 1036 45 10000 7 50 12:43 23.03.2020
6020 Clouds 1 1036 45 10000 7 50 12:43 23.03.2020
6021 Clouds 0 1036 39 10000 6 40 12:25 23.03.2020
6022 Clouds 0 1036 39 10000 6 40 11:56 23.03.2020
6023 Clouds 0 1036 45 10000 6 30 11:38 23.03.2020
6024 Clouds 0 1036 45 10000 6 30 11:38 23.03.2020
6025 Clouds 0 1037 33 10000 8 80 11:19 23.03.2020
6026 Clouds 0 1037 33 10000 8 80 10:56 23.03.2020
6027 Clouds 0 1037 33 10000 7 70 10:37 23.03.2020
6028 Clouds -1 1037 36 10000 7 30 10:19 23.03.2020
6029 Clouds -1 1037 39 10000 7 50 09:43 23.03.2020
6030 Clouds -1 1037 39 10000 7 50 09:21 23.03.2020
6031 Clouds -2 1038 46 10000 6 50 08:40 23.03.2020
6032 Clouds -2 1038 46 10000 6 50 08:20 23.03.2020
6033 Clear -2 1038 46 10000 5 40 07:59 23.03.2020
6034 Clear -3 1038 53 10000 5 40 07:40 23.03.2020
6035 Clear -3 1037 62 10000 5 20 07:19 23.03.2020
6036 Clear -4 1037 62 10000 5 20 06:48 23.03.2020
6037 Clear -5 1037 73 10000 4 360 05:50 23.03.2020
6038 Clear -6 1036 67 10000 3 30 04:41 23.03.2020
6039 Clear -5 1036 62 10000 4 20 03:24 23.03.2020
6040 Clouds -4 1036 57 10000 4 20 01:50 23.03.2020
6041 Clouds -4 1036 57 10000 4 20 00:52 23.03.2020
6042 Clouds -4 1035 57 10000 5 20 00:33 23.03.2020
6043 Clouds -3 1035 53 10000 4 20 23:46 22.03.2020
6044 Clouds -3 1035 53 10000 4 20 23:25 22.03.2020
6045 Clouds -3 1035 49 10000 5 30 22:45 22.03.2020
6046 Clouds -3 1035 49 10000 5 30 22:23 22.03.2020
6047 Clouds -3 1035 45 10000 5 30 21:55 22.03.2020
6048 Clouds -3 1034 42 10000 5 30 21:37 22.03.2020
6049 Clouds -3 1034 42 10000 5 30 21:18 22.03.2020
6050 Clouds -3 1034 42 10000 5 30 20:46 22.03.2020
6051 Clouds -3 1034 42 10000 5 30 20:25 22.03.2020
6052 Clouds -3 1034 42 10000 5 30 20:25 22.03.2020
6053 Clouds -3 1034 42 10000 5 40 19:58 22.03.2020
6054 Clouds -2 1034 38 10000 5 40 19:40 22.03.2020
6055 Clouds -2 1034 38 10000 5 40 19:20 22.03.2020
6056 Clouds -3 1034 38 10000 5 40 18:59 22.03.2020
6057 Clouds -2 1033 42 10000 4 50 18:41 22.03.2020
6058 Clouds -2 1033 39 10000 5 40 18:22 22.03.2020
6059 Clouds -2 1033 39 10000 5 40 17:59 22.03.2020
6060 Clouds -2 1033 42 10000 6 40 17:39 22.03.2020
6061 Clouds -2 1033 42 10000 6 40 17:20 22.03.2020
6062 Clouds -2 1033 42 10000 5 40 16:58 22.03.2020
6063 Clouds -2 1033 42 10000 5 40 16:58 22.03.2020
6064 Snow -1 1033 42 8000 6 30 16:39 22.03.2020
6065 Snow -1 1033 42 8000 6 30 16:21 22.03.2020
6066 Clouds -1 1031 33 10000 6 40 15:57 22.03.2020
6067 Clouds -1 1032 36 10000 6 30 15:39 22.03.2020
6068 Clouds -1 1032 36 10000 6 50 14:47 22.03.2020
6069 Clouds -1 1032 30 10000 6 30 14:19 22.03.2020
6070 Clouds -1 1032 33 10000 6 30 13:56 22.03.2020
6071 Clouds 0 1032 30 10000 7 30 13:37 22.03.2020
6072 Clouds 0 1032 30 10000 7 30 13:19 22.03.2020
6073 Clouds 0 1032 30 10000 7 60 12:43 22.03.2020
6074 Clouds 0 1032 30 10000 7 60 12:20 22.03.2020
6075 Clouds 0 1031 32 10000 7 70 11:56 22.03.2020
6076 Clouds -1 1032 28 10000 7 50 11:38 22.03.2020
6077 Clear -1 1032 28 10000 7 50 11:19 22.03.2020
6078 Clear -1 1032 30 10000 7 50 10:43 22.03.2020
6079 Clear -1 1032 30 10000 7 50 10:24 22.03.2020
6080 Clear -1 1032 30 10000 7 50 10:24 22.03.2020
6081 Clear -1 1031 30 10000 8 70 09:49 22.03.2020
6082 Clouds -1 1031 33 10000 7 30 09:30 22.03.2020
6083 Clouds -2 1031 42 10000 6 50 08:55 22.03.2020
6084 Clouds -3 1031 45 10000 5 50 08:36 22.03.2020
6085 Clouds -3 1031 45 10000 5 50 08:36 22.03.2020
6086 Clouds -3 1031 45 10000 5 50 08:18 22.03.2020
6087 Clear -3 1031 49 10000 5 40 07:48 22.03.2020
6088 Clear -4 1030 62 10000 4 50 07:18 22.03.2020
6089 Clear -5 1029 67 10000 3 10 05:55 22.03.2020
6090 Clear -6 1029 62 10000 3 20 04:58 22.03.2020
6091 Clear -5 1027 57 10000 4 20 02:43 22.03.2020
6092 Clear -5 1027 57 9000 2 30 01:21 22.03.2020
6093 Clear -4 1026 53 10000 4 20 00:36 22.03.2020
6094 Clear -4 1026 53 10000 4 20 23:58 21.03.2020
6095 Clear -4 1026 53 10000 4 20 23:40 21.03.2020
6096 Clear -4 1025 53 10000 5 30 23:18 21.03.2020
6097 Clear -3 1025 53 10000 5 30 22:38 21.03.2020
6098 Clear -3 1025 53 10000 5 30 22:38 21.03.2020
6099 Clear -4 1025 53 10000 5 30 22:20 21.03.2020
6100 Clear -3 1025 49 9000 4 20 21:59 21.03.2020
6101 Clear -3 1025 49 10000 4 30 21:39 21.03.2020
6102 Clear -3 1025 49 10000 4 30 21:21 21.03.2020
6103 Clear -3 1024 45 10000 3 30 20:46 21.03.2020
6104 Clouds -2 1024 45 10000 4 50 20:23 21.03.2020
6105 Clouds -2 1023 42 10000 5 40 19:57 21.03.2020
6106 Clouds -2 1023 42 10000 5 50 19:39 21.03.2020
6107 Clouds -2 1023 42 10000 5 50 19:21 21.03.2020
6108 Clouds -2 1023 46 10000 5 30 18:55 21.03.2020
6109 Clouds -1 1022 46 10000 5 20 18:37 21.03.2020
6110 Clouds -1 1022 46 10000 5 20 18:19 21.03.2020
6111 Clouds -1 1021 36 10000 4 20 17:43 21.03.2020
6112 Clouds -1 1021 36 10000 4 20 17:43 21.03.2020
6113 Clouds -1 1021 36 10000 4 20 17:43 21.03.2020
6114 Clouds -1 1021 39 10000 5 10 17:24 21.03.2020
6115 Clouds -1 1021 39 10000 5 10 16:57 21.03.2020
6116 Clouds 0 1021 46 10000 4 20 16:39 21.03.2020
6117 Clouds 0 1021 46 10000 4 20 16:19 21.03.2020
6118 Clouds 0 1020 46 10000 5 40 15:55 21.03.2020
6119 Clouds 0 1020 54 10000 6 20 15:36 21.03.2020
6120 Clouds 0 1020 54 10000 6 20 15:18 21.03.2020
6121 Clouds 1 1019 47 10000 6 30 14:54 21.03.2020
6122 Clouds 1 1019 40 10000 6 30 14:36 21.03.2020
6123 Dust 1 1020 46 10000 5 30 14:18 21.03.2020
6124 Clouds 1 1019 47 10000 5 20 13:54 21.03.2020
6125 Clouds 1 1019 50 10000 5 30 13:36 21.03.2020
6126 Clouds 1 1019 50 10000 5 30 13:18 21.03.2020
6127 Clouds 1 1019 50 10000 5 30 12:39 21.03.2020
6128 Clouds 1 1019 46 10000 5 360 12:19 21.03.2020
6129 Clouds 1 1018 46 10000 5 10 11:57 21.03.2020
6130 Clouds 1 1018 47 10000 5 20 11:38 21.03.2020
6131 Clouds 1 1018 51 10000 6 20 11:19 21.03.2020
6132 Clouds 1 1018 51 10000 6 20 10:57 21.03.2020
6133 Clouds 0 1018 50 10000 4 40 10:38 21.03.2020
6134 Clouds 0 1018 50 10000 5 40 10:19 21.03.2020
6135 Clouds 0 1018 50 10000 5 40 09:56 21.03.2020
6136 Clouds 0 1018 50 10000 5 40 09:37 21.03.2020
6137 Clouds 0 1018 50 10000 5 40 09:19 21.03.2020
6138 Clouds 0 1018 50 10000 5 40 09:19 21.03.2020
6139 Clouds 0 1018 54 10000 6 40 08:44 21.03.2020
6140 Clouds 0 1018 54 10000 6 40 08:44 21.03.2020
6141 Clouds 0 1018 58 10000 5 50 08:25 21.03.2020
6142 Clouds -1 1018 63 10000 5 30 07:47 21.03.2020
6143 Clouds -1 1017 68 10000 5 50 07:28 21.03.2020
6144 Clouds -1 1017 71 10000 4 30 06:48 21.03.2020
6145 Clouds -1 1017 71 10000 4 30 06:28 21.03.2020
6146 Clouds -1 1016 71 10000 4 50 05:48 21.03.2020
6147 Clouds -1 1016 79 10000 4 360 05:18 21.03.2020
6148 Clouds 0 1016 80 10000 4 360 03:26 21.03.2020
6149 Snow 0 1015 80 10000 4 10 02:34 21.03.2020
6150 Snow 0 1015 93 9000 2 10 01:40 21.03.2020
6151 Snow 0 1015 86 9000 2 10 01:20 21.03.2020
6152 Clouds 0 1015 86 10000 3 320 00:38 21.03.2020
6153 Clouds 1 1015 86 10000 3 320 23:59 20.03.2020
6154 Clouds 1 1015 86 10000 3 310 23:40 20.03.2020
6155 Clouds 0 1014 83 10000 3 310 23:18 20.03.2020
6156 Clouds 0 1014 86 10000 3 340 22:42 20.03.2020
6157 Clouds 1 1014 86 10000 3 340 22:24 20.03.2020
6158 Clouds 0 1014 83 10000 4 320 21:57 20.03.2020
6159 Clouds 0 1014 86 10000 4 300 21:39 20.03.2020
6160 Clouds 0 1014 86 10000 4 300 21:19 20.03.2020
6161 Snow 1 1014 83 10000 4 300 20:57 20.03.2020
6162 Snow 0 1014 83 10000 3 300 20:39 20.03.2020
6163 Snow 1 1014 74 10000 3 300 20:18 20.03.2020
6164 Snow 1 1014 76 10000 3 290 19:46 20.03.2020
6165 Snow 2 1014 76 10000 2 280 19:19 20.03.2020
6166 Snow 2 1014 76 10000 2 320 18:56 20.03.2020
6167 Snow 3 1014 76 10000 3 330 18:37 20.03.2020
6168 Snow 3 1014 69 9000 6 330 18:19 20.03.2020
6169 Clouds 3 1013 51 10000 4 290 17:40 20.03.2020
6170 Clouds 5 1013 44 10000 3 300 17:22 20.03.2020
6171 Clouds 5 1013 44 10000 3 300 16:59 20.03.2020
6172 Snow 5 1013 48 10000 4 300 16:41 20.03.2020
6173 Snow 5 1013 48 10000 4 300 16:41 20.03.2020
6174 Snow 5 1013 48 10000 4 300 16:20 20.03.2020
6175 Snow 6 1013 48 10000 6 290 15:44 20.03.2020
6176 Snow 6 1013 48 10000 6 290 15:22 20.03.2020
6177 Snow 5 1013 48 10000 7 290 14:58 20.03.2020
6178 Clouds 5 1013 48 10000 7 290 14:40 20.03.2020
6179 Clouds 5 1013 52 10000 6 290 14:20 20.03.2020
6180 Clouds 5 1013 52 10000 6 290 13:48 20.03.2020
6181 Clouds 5 1013 48 10000 6 290 13:21 20.03.2020
6182 Clouds 6 1013 56 10000 6 290 12:58 20.03.2020
6183 Clouds 5 1013 56 10000 5 290 12:37 20.03.2020
6184 Clouds 4 1013 60 10000 6 310 12:19 20.03.2020
6185 Clouds 5 1013 60 10000 6 290 11:39 20.03.2020
6186 Rain 4 1013 64 10000 4 300 11:20 20.03.2020
6187 Rain 4 1013 69 10000 6 290 10:55 20.03.2020
6188 Rain 4 1013 69 10000 6 290 10:36 20.03.2020
6189 Clouds 4 1013 69 10000 6 290 10:18 20.03.2020
6190 Clouds 5 1013 60 10000 7 290 09:44 20.03.2020
6191 Clouds 5 1013 83 10000 5 280 09:20 20.03.2020
6192 Clouds 5 1013 74 10000 7 300 08:57 20.03.2020
6193 Clouds 4 1012 64 10000 5 310 08:38 20.03.2020
6194 Clouds 4 1012 64 10000 5 310 08:18 20.03.2020
6195 Clouds 4 1012 69 10000 5 300 07:41 20.03.2020
6196 Clouds 4 1012 69 10000 5 300 07:23 20.03.2020
6197 Clouds 2 1012 74 10000 5 290 06:42 20.03.2020
6198 Clouds 1 1011 80 10000 5 280 06:21 20.03.2020
6199 Clear 1 1011 74 10000 4 270 04:39 20.03.2020
6200 Clear 2 1011 69 10000 4 270 02:51 20.03.2020
6201 Clear 2 1010 64 10000 3 290 01:50 20.03.2020
6202 Clear 2 1010 59 10000 3 300 00:45 20.03.2020
6203 Clear 2 1010 59 10000 3 290 00:24 20.03.2020
6204 Clear 2 1010 59 10000 2 300 23:42 19.03.2020
6205 Clear 2 1010 59 10000 3 270 23:23 19.03.2020
6206 Clear 2 1010 59 10000 3 270 22:54 19.03.2020
6207 Clear 3 1010 55 10000 2 310 22:36 19.03.2020
6208 Clear 3 1010 55 10000 2 310 22:18 19.03.2020
6209 Clear 4 1010 48 10000 3 290 21:39 19.03.2020
6210 Clear 4 1010 48 10000 3 290 21:20 19.03.2020
6211 Clear 4 1010 48 10000 4 280 20:55 19.03.2020
6212 Clear 4 1010 55 10000 3 260 20:37 19.03.2020
6213 Clear 4 1010 55 10000 3 260 20:19 19.03.2020
6214 Clear 5 1009 51 10000 2 280 19:54 19.03.2020
6215 Clear 6 1009 48 10000 2 300 19:36 19.03.2020
6216 Clear 6 1009 48 10000 2 300 19:18 19.03.2020
6217 Clear 6 1009 41 10000 3 280 18:41 19.03.2020
6218 Clear 7 1009 36 10000 3 280 18:22 19.03.2020
6219 Clear 8 1009 31 10000 4 300 17:56 19.03.2020
6220 Clear 8 1009 31 10000 4 300 17:37 19.03.2020
6221 Clear 9 1009 31 10000 5 290 17:18 19.03.2020
6222 Clear 9 1008 31 10000 8 280 16:43 19.03.2020
6223 Clear 9 1008 31 10000 8 280 16:22 19.03.2020
6224 Clear 11 1008 27 10000 7 280 15:44 19.03.2020
6225 Clear 10 1008 27 10000 7 280 15:25 19.03.2020
6226 Clear 11 1008 27 10000 9 280 14:54 19.03.2020
6227 Clear 11 1008 29 10000 9 270 14:36 19.03.2020
6228 Clouds 10 1008 29 10000 9 270 14:18 19.03.2020
6229 Clouds 11 1008 27 10000 11 280 13:39 19.03.2020
6230 Clouds 11 1008 27 10000 11 280 13:18 19.03.2020
6231 Clouds 11 1008 31 10000 9 290 12:42 19.03.2020
6232 Clouds 11 1008 37 10000 8 270 12:24 19.03.2020
6233 Clouds 11 1008 37 10000 8 270 11:59 19.03.2020
6234 Clouds 11 1008 42 10000 7 280 11:41 19.03.2020
6235 Clouds 11 1008 42 10000 9 280 11:22 19.03.2020
6236 Clouds 11 1008 52 10000 8 280 10:44 19.03.2020
6237 Clouds 10 1008 52 10000 8 280 10:22 19.03.2020
6238 Clouds 11 1008 50 10000 10 290 09:59 19.03.2020
6239 Clouds 11 1008 53 10000 9 290 09:40 19.03.2020
6240 Clouds 11 1008 53 10000 9 290 09:21 19.03.2020
6241 Clouds 11 1008 62 10000 10 270 08:47 19.03.2020
6242 Clouds 10 1007 57 10000 8 290 08:23 19.03.2020
6243 Clouds 10 1007 61 10000 10 270 07:49 19.03.2020
6244 Clouds 9 1007 66 10000 9 250 07:31 19.03.2020
6245 Clouds 9 1007 66 10000 9 250 06:55 19.03.2020
6246 Clouds 8 1007 70 10000 8 240 06:18 19.03.2020
6247 Clouds 8 1007 65 10000 8 230 05:24 19.03.2020
6248 Clouds 8 1007 65 10000 8 230 04:46 19.03.2020
6249 Clouds 8 1008 65 10000 8 220 03:44 19.03.2020
6250 Rain 8 1010 65 10000 8 230 01:45 19.03.2020
6251 Clouds 7 1011 65 10000 6 220 00:42 19.03.2020
6252 Clouds 7 1011 84 10000 6 220 00:19 19.03.2020
6253 Clouds 7 1012 65 10000 5 210 23:42 18.03.2020
6254 Rain 7 1012 65 10000 6 220 23:22 18.03.2020
6255 Rain 7 1013 83 10000 6 210 22:43 18.03.2020
6256 Rain 8 1013 83 10000 7 230 22:23 18.03.2020
6257 Rain 8 1013 83 10000 7 230 21:55 18.03.2020
6258 Rain 8 1014 83 10000 7 230 21:37 18.03.2020
6259 Rain 8 1014 83 10000 7 230 21:19 18.03.2020
6260 Clouds 8 1014 49 10000 8 230 20:55 18.03.2020
6261 Clouds 8 1014 52 10000 8 230 20:37 18.03.2020
6262 Clouds 7 1014 52 10000 8 230 20:18 18.03.2020
6263 Clouds 7 1015 49 10000 6 220 19:40 18.03.2020
6264 Clouds 7 1015 49 10000 6 220 19:21 18.03.2020
6265 Clouds 8 1015 45 10000 7 220 18:57 18.03.2020
6266 Clouds 8 1016 45 10000 7 220 18:38 18.03.2020
6267 Clouds 8 1016 45 10000 7 220 18:19 18.03.2020
6268 Clouds 8 1016 45 10000 6 220 17:55 18.03.2020
6269 Clouds 8 1016 45 10000 6 220 17:37 18.03.2020
6270 Clouds 8 1017 45 10000 7 220 17:18 18.03.2020
6271 Clouds 9 1017 43 10000 8 230 16:42 18.03.2020
6272 Clouds 9 1017 43 10000 8 230 16:20 18.03.2020
6273 Clouds 9 1017 43 10000 8 230 16:20 18.03.2020
6274 Clouds 10 1017 43 10000 8 230 15:57 18.03.2020
6275 Clouds 10 1018 43 10000 9 230 15:38 18.03.2020
6276 Clouds 10 1018 43 10000 9 230 15:19 18.03.2020
6277 Clouds 10 1018 43 10000 9 240 14:42 18.03.2020
6278 Clouds 10 1019 43 10000 10 240 14:21 18.03.2020
6279 Clouds 10 1019 45 10000 8 230 13:41 18.03.2020
6280 Clouds 9 1019 45 10000 9 230 13:19 18.03.2020
6281 Clouds 9 1020 45 10000 9 230 12:55 18.03.2020
6282 Clouds 9 1020 45 10000 9 230 12:37 18.03.2020
6283 Clouds 9 1020 52 10000 9 230 12:18 18.03.2020
6284 Clouds 8 1021 52 10000 8 220 11:38 18.03.2020
6285 Clouds 8 1021 56 10000 8 230 11:19 18.03.2020
6286 Clouds 8 1021 56 10000 8 230 10:57 18.03.2020
6287 Clouds 7 1022 56 10000 7 230 10:37 18.03.2020
6288 Clouds 7 1022 56 10000 7 230 10:19 18.03.2020
6289 Clouds 6 1022 56 10000 8 230 09:42 18.03.2020
6290 Clouds 6 1022 56 10000 9 240 09:23 18.03.2020
6291 Clouds 5 1022 60 10000 7 230 08:55 18.03.2020
6292 Clouds 4 1022 65 10000 8 240 08:37 18.03.2020
6293 Clouds 4 1023 69 10000 7 240 08:19 18.03.2020
6294 Clouds 3 1023 74 10000 7 240 07:43 18.03.2020
6295 Clouds 3 1023 74 10000 7 240 07:25 18.03.2020
6296 Clouds 2 1023 80 10000 6 230 06:44 18.03.2020
6297 Clouds 2 1022 80 10000 6 220 05:56 18.03.2020
6298 Clouds 2 1022 80 10000 6 220 05:33 18.03.2020
6299 Clouds 2 1023 74 10000 5 240 04:24 18.03.2020
6300 Clouds 1 1022 69 10000 5 230 02:42 18.03.2020
6301 Clouds 1 1022 69 10000 4 230 01:47 18.03.2020
6302 Clouds 2 1023 59 10000 3 220 01:26 18.03.2020
6303 Clouds 2 1023 59 10000 5 230 00:23 18.03.2020
6304 Clouds 2 1023 64 10000 5 260 23:47 17.03.2020
6305 Clouds 3 1023 59 10000 4 240 23:27 17.03.2020
6306 Clouds 3 1023 59 10000 3 220 22:55 17.03.2020
6307 Clouds 3 1023 59 10000 3 220 22:37 17.03.2020
6308 Clouds 3 1023 59 10000 3 220 22:18 17.03.2020
6309 Clouds 3 1023 64 10000 3 240 21:39 17.03.2020
6310 Clouds 4 1023 55 10000 3 220 21:21 17.03.2020
6311 Clouds 4 1023 55 10000 3 220 20:40 17.03.2020
6312 Clear 4 1023 64 10000 3 260 20:21 17.03.2020
6313 Clear 4 1022 59 10000 4 260 19:58 17.03.2020
6314 Clear 4 1022 55 10000 3 260 19:39 17.03.2020
6315 Clear 4 1022 59 10000 1 0 19:18 17.03.2020
6316 Clear 4 1022 59 10000 1 0 18:56 17.03.2020
6317 Clear 5 1022 55 10000 2 260 18:37 17.03.2020
6318 Clear 6 1022 48 10000 2 300 18:19 17.03.2020
6319 Clear 7 1022 45 10000 3 260 17:40 17.03.2020
6320 Clear 7 1022 45 10000 3 260 17:21 17.03.2020
6321 Clear 7 1022 45 10000 3 270 16:55 17.03.2020
6322 Clear 8 1022 45 10000 4 260 16:36 17.03.2020
6323 Clear 8 1022 45 10000 4 260 16:18 17.03.2020
6324 Clear 9 1021 36 10000 4 270 15:41 17.03.2020
6325 Clear 9 1021 36 10000 4 270 15:19 17.03.2020
6326 Clear 9 1022 34 10000 5 270 14:42 17.03.2020
6327 Clouds 9 1022 34 10000 5 270 14:21 17.03.2020
6328 Clouds 9 1021 36 10000 4 250 13:44 17.03.2020
6329 Clouds 9 1022 34 10000 3 240 13:26 17.03.2020
6330 Clouds 9 1022 34 10000 3 240 12:58 17.03.2020
6331 Clouds 8 1021 39 10000 4 220 12:40 17.03.2020
6332 Clouds 8 1021 39 10000 4 240 12:21 17.03.2020
6333 Clouds 7 1021 39 10000 3 250 11:46 17.03.2020
6334 Clouds 7 1021 39 10000 3 230 11:27 17.03.2020
6335 Clouds 7 1021 39 10000 3 230 10:58 17.03.2020
6336 Clouds 7 1021 39 10000 3 230 10:58 17.03.2020
6337 Clouds 7 1021 41 10000 3 240 10:38 17.03.2020
6338 Clouds 6 1021 41 10000 3 240 10:20 17.03.2020
6339 Clouds 6 1021 41 10000 2 240 09:55 17.03.2020
6340 Clouds 6 1021 41 10000 2 240 09:55 17.03.2020
6341 Clouds 5 1021 41 10000 2 280 09:36 17.03.2020
6342 Clouds 5 1021 41 10000 2 280 09:18 17.03.2020
6343 Clouds 4 1020 44 10000 4 240 08:42 17.03.2020
6344 Clouds 4 1020 44 10000 4 240 08:21 17.03.2020
6345 Clouds 3 1020 47 10000 3 240 07:50 17.03.2020
6346 Clouds 2 1020 51 10000 4 250 07:25 17.03.2020
6347 Clouds 1 1019 50 10000 4 250 06:56 17.03.2020
6348 Clouds 1 1018 69 10000 5 240 06:33 17.03.2020
6349 Clouds 1 1018 69 10000 4 230 05:41 17.03.2020
6350 Clouds 1 1017 50 10000 3 210 03:36 17.03.2020
6351 Clouds 1 1017 47 10000 3 210 02:45 17.03.2020
6352 Clouds 1 1017 50 10000 2 230 01:42 17.03.2020
6353 Clouds 1 1017 50 10000 3 230 01:24 17.03.2020
6354 Clouds 2 1017 50 10000 3 230 00:25 17.03.2020
6355 Clouds 2 1017 47 10000 5 230 23:45 16.03.2020
6356 Clouds 3 1017 47 10000 6 240 23:23 16.03.2020
6357 Clouds 3 1017 44 10000 7 240 22:40 16.03.2020
6358 Clouds 3 1017 44 10000 7 240 22:22 16.03.2020
6359 Clouds 3 1017 44 10000 8 240 21:55 16.03.2020
6360 Clouds 3 1017 44 10000 8 240 21:36 16.03.2020
6361 Clouds 3 1017 44 10000 8 240 21:18 16.03.2020
6362 Clouds 3 1017 44 10000 8 240 20:55 16.03.2020
6363 Clouds 3 1017 44 10000 8 240 20:37 16.03.2020
6364 Clouds 3 1017 44 10000 8 240 20:18 16.03.2020
6365 Clouds 3 1017 44 10000 7 220 19:40 16.03.2020
6366 Clouds 3 1017 44 10000 7 220 19:20 16.03.2020
6367 Clouds 3 1018 44 10000 7 220 18:41 16.03.2020
6368 Clouds 3 1018 40 10000 7 220 18:20 16.03.2020
6369 Clouds 3 1018 38 10000 6 220 17:47 16.03.2020
6370 Clouds 4 1018 38 10000 6 220 17:26 16.03.2020
6371 Clouds 4 1018 35 10000 6 220 16:59 16.03.2020
6372 Clouds 4 1018 35 10000 7 220 16:41 16.03.2020
6373 Clouds 4 1018 35 10000 7 220 16:22 16.03.2020
6374 Clouds 5 1019 35 10000 8 220 15:44 16.03.2020
6375 Clouds 5 1019 35 10000 7 220 15:25 16.03.2020
6376 Clouds 5 1019 38 10000 8 220 14:49 16.03.2020
6377 Clouds 5 1020 35 10000 8 230 14:27 16.03.2020
6378 Clouds 5 1020 38 10000 8 230 13:57 16.03.2020
6379 Clouds 5 1021 38 10000 7 230 13:38 16.03.2020
6380 Clouds 5 1021 38 10000 7 230 13:20 16.03.2020
6381 Clouds 4 1021 41 10000 8 220 12:44 16.03.2020
6382 Clouds 4 1021 41 10000 8 220 12:23 16.03.2020
6383 Clouds 3 1022 47 10000 6 210 11:46 16.03.2020
6384 Clouds 3 1022 47 10000 6 210 11:27 16.03.2020
6385 Clear 2 1023 43 10000 6 220 10:56 16.03.2020
6386 Clear 2 1023 47 10000 7 230 10:37 16.03.2020
6387 Clear 1 1023 47 10000 7 230 10:18 16.03.2020
6388 Clear 1 1023 61 10000 7 230 09:42 16.03.2020
6389 Clear 0 1023 54 10000 8 250 09:21 16.03.2020
6390 Clear -1 1023 54 10000 6 240 08:50 16.03.2020
6391 Clear -2 1023 54 10000 5 230 08:25 16.03.2020
6392 Clear -4 1023 62 10000 4 230 07:45 16.03.2020
6393 Clear -5 1023 62 10000 4 230 07:25 16.03.2020
6394 Clear -6 1023 79 10000 3 230 06:51 16.03.2020
6395 Clear -7 1023 92 10000 3 250 06:23 16.03.2020
6396 Clear -7 1023 85 10000 3 250 04:54 16.03.2020
6397 Clear -7 1023 85 10000 3 300 02:41 16.03.2020
6398 Clouds -6 1022 79 10000 3 310 00:52 16.03.2020
6399 Clouds -6 1022 85 10000 3 300 00:32 16.03.2020
6400 Clouds -5 1021 79 10000 3 300 23:46 15.03.2020
6401 Clouds -5 1021 79 10000 3 300 23:20 15.03.2020
6402 Clouds -5 1020 73 10000 3 300 22:42 15.03.2020
6403 Clouds -5 1020 73 10000 3 300 22:22 15.03.2020
6404 Clouds -4 1020 73 10000 3 300 21:56 15.03.2020
6405 Clouds -4 1020 73 10000 3 300 21:37 15.03.2020
6406 Clouds -4 1020 73 10000 3 300 21:18 15.03.2020
6407 Clouds -4 1020 73 10000 3 300 20:42 15.03.2020
6408 Clouds -4 1020 73 10000 3 300 20:20 15.03.2020
6409 Clouds -4 1019 68 10000 2 300 19:58 15.03.2020
6410 Clouds -3 1019 68 10000 3 340 19:38 15.03.2020
6411 Clouds -3 1019 68 10000 3 340 19:19 15.03.2020
6412 Clouds -3 1019 63 10000 4 350 18:55 15.03.2020
6413 Clouds -3 1018 63 10000 6 360 18:37 15.03.2020
6414 Clouds -3 1018 68 10000 4 340 18:18 15.03.2020
6415 Snow -3 1017 73 9000 4 340 17:41 15.03.2020
6416 Snow -3 1017 63 9000 4 340 17:21 15.03.2020
6417 Snow -3 1017 63 9000 4 340 16:58 15.03.2020
6418 Snow -3 1017 63 9000 4 340 16:58 15.03.2020
6419 Clouds -3 1016 63 10000 5 350 16:38 15.03.2020
6420 Clouds -3 1016 63 10000 5 350 16:19 15.03.2020
6421 Clouds -3 1015 63 10000 5 330 15:45 15.03.2020
6422 Clouds -3 1015 63 10000 5 330 15:27 15.03.2020
6423 Snow -3 1015 68 7000 5 350 14:58 15.03.2020
6424 Clouds -3 1014 79 10000 6 340 14:38 15.03.2020
6425 Clouds -3 1014 79 10000 6 340 14:19 15.03.2020
6426 Snow -3 1014 92 6000 5 340 13:55 15.03.2020
6427 Snow -3 1014 86 10000 5 340 13:36 15.03.2020
6428 Snow -3 1014 86 10000 5 340 13:18 15.03.2020
6429 Snow -3 1013 68 9000 7 340 12:40 15.03.2020
6430 Clouds -3 1012 86 10000 6 330 12:21 15.03.2020
6431 Snow -3 1012 79 10000 6 350 11:43 15.03.2020
6432 Snow -3 1012 92 9000 6 350 11:24 15.03.2020
6433 Snow -3 1012 92 9000 6 350 10:58 15.03.2020
6434 Snow -4 1011 63 10000 6 330 10:39 15.03.2020
6435 Snow -4 1011 63 10000 6 330 10:21 15.03.2020
6436 Snow -4 1011 68 10000 6 340 09:45 15.03.2020
6437 Snow -4 1011 68 10000 6 340 09:25 15.03.2020
6438 Snow -4 1010 85 10000 6 330 08:59 15.03.2020
6439 Snow -5 1010 92 1600 7 330 08:40 15.03.2020
6440 Snow -5 1010 92 1600 7 330 08:19 15.03.2020
6441 Clouds -5 1010 79 10000 6 330 07:45 15.03.2020
6442 Clouds -6 1009 85 10000 4 310 07:21 15.03.2020
6443 Clouds -7 1008 85 10000 5 300 06:36 15.03.2020
6444 Clouds -7 1008 79 10000 5 300 05:46 15.03.2020
6445 Clouds -6 1008 79 10000 4 310 04:55 15.03.2020
6446 Clouds -6 1007 79 10000 5 310 04:37 15.03.2020
6447 Clouds -6 1007 79 10000 5 310 04:18 15.03.2020
6448 Clouds -6 1006 85 10000 6 300 02:54 15.03.2020
6449 Snow -6 1006 92 10000 5 300 02:22 15.03.2020
6450 Snow -5 1005 92 9000 3 300 00:58 15.03.2020
6451 Snow -5 1005 92 9000 4 330 00:40 15.03.2020
6452 Snow -5 1005 92 9000 5 350 00:19 15.03.2020
6453 Snow -5 1004 92 2100 7 350 23:39 14.03.2020
6454 Snow -5 1004 100 1000 6 340 23:20 14.03.2020
6455 Snow -5 1004 100 1000 6 340 22:56 14.03.2020
6456 Snow -4 1003 100 1100 6 340 22:37 14.03.2020
6457 Snow -4 1003 100 1100 6 340 22:19 14.03.2020
6458 Snow -5 1003 100 550 5 330 21:55 14.03.2020
6459 Snow -4 1003 100 550 5 330 21:55 14.03.2020
6460 Snow -4 1003 100 800 6 340 21:36 14.03.2020
6461 Snow -4 1002 92 750 6 350 21:18 14.03.2020
6462 Snow -4 1002 92 750 6 350 20:56 14.03.2020
6463 Snow -4 1002 92 750 6 350 20:56 14.03.2020
6464 Snow -3 1002 92 650 8 350 20:38 14.03.2020
6465 Snow -3 1002 92 650 8 350 20:18 14.03.2020
6466 Snow -1 1000 100 1900 7 10 19:41 14.03.2020
6467 Snow -1 1000 100 1900 7 10 19:20 14.03.2020
6468 Snow 2 998 100 1300 9 10 18:40 14.03.2020
6469 Snow 3 997 92 2300 8 360 18:20 14.03.2020
6470 Snow 6 996 52 10000 2 190 17:42 14.03.2020
6471 Snow 7 996 45 10000 2 220 17:23 14.03.2020
6472 Snow 6 996 45 10000 2 220 16:59 14.03.2020
6473 Clouds 7 996 52 10000 5 340 16:38 14.03.2020
6474 Clouds 7 996 52 10000 5 340 16:19 14.03.2020
6475 Clouds 8 996 48 10000 5 240 15:46 14.03.2020
6476 Clouds 8 996 48 10000 5 240 15:23 14.03.2020
6477 Clouds 8 996 45 10000 7 220 14:44 14.03.2020
6478 Clouds 8 996 45 10000 7 220 14:22 14.03.2020
6479 Clouds 8 996 45 10000 7 220 13:57 14.03.2020
6480 Clouds 8 996 42 10000 7 220 13:39 14.03.2020
6481 Clouds 8 997 45 10000 6 250 13:20 14.03.2020
6482 Clouds 8 997 52 10000 6 220 12:44 14.03.2020
6483 Clouds 8 997 52 10000 7 220 12:26 14.03.2020
6484 Clouds 8 997 52 10000 6 220 12:26 14.03.2020
6485 Clouds 7 998 60 10000 5 220 11:47 14.03.2020
6486 Clouds 7 998 73 10000 5 230 11:26 14.03.2020
6487 Clouds 7 998 73 10000 5 230 10:59 14.03.2020
6488 Clouds 7 998 73 10000 5 220 10:40 14.03.2020
6489 Clouds 6 998 73 10000 5 220 10:22 14.03.2020
6490 Clouds 5 998 73 10000 5 210 09:43 14.03.2020
6491 Clouds 5 998 73 10000 5 210 09:24 14.03.2020
6492 Clouds 5 999 73 10000 5 210 08:47 14.03.2020
6493 Clouds 4 999 73 10000 5 230 08:29 14.03.2020
6494 Clouds 3 999 86 10000 4 250 07:55 14.03.2020
6495 Clouds 2 999 86 10000 4 230 07:37 14.03.2020
6496 Clouds 2 999 86 10000 4 230 07:18 14.03.2020
6497 Clouds 1 999 86 10000 5 220 06:40 14.03.2020
6498 Clouds 1 999 86 10000 5 220 06:40 14.03.2020
6499 Clouds 1 999 93 10000 4 250 05:19 14.03.2020
6500 Clouds 2 999 93 10000 5 260 03:43 14.03.2020
6501 Clouds 2 999 93 10000 5 260 03:23 14.03.2020
6502 Rain 3 998 93 10000 6 240 02:22 14.03.2020
6503 Clouds 3 998 86 10000 5 230 00:46 14.03.2020
6504 Clouds 3 998 84 10000 6 240 23:46 13.03.2020
6505 Clouds 3 998 84 10000 6 240 23:27 13.03.2020
6506 Clouds 3 998 78 10000 7 240 22:49 13.03.2020
6507 Clouds 3 998 78 10000 7 240 22:26 13.03.2020
6508 Clouds 3 998 78 10000 7 240 21:44 13.03.2020
6509 Clouds 4 998 78 10000 8 250 21:22 13.03.2020
6510 Clouds 4 998 78 10000 8 250 20:59 13.03.2020
6511 Clouds 4 997 78 10000 9 250 20:40 13.03.2020
6512 Clouds 4 997 72 10000 9 250 20:20 13.03.2020
6513 Clouds 4 997 72 10000 8 250 19:48 13.03.2020
6514 Clouds 5 997 86 10000 5 240 19:30 13.03.2020
6515 Clouds 4 997 86 10000 6 240 18:49 13.03.2020
6516 Clouds 5 997 56 10000 8 260 18:31 13.03.2020
6517 Clouds 6 997 56 10000 8 260 17:57 13.03.2020
6518 Clouds 6 997 56 10000 8 260 17:39 13.03.2020
6519 Snow 6 996 56 10000 8 260 17:20 13.03.2020
6520 Snow 6 996 56 10000 7 260 16:42 13.03.2020
6521 Snow 6 996 56 10000 7 260 16:24 13.03.2020
6522 Clouds 6 994 93 10000 6 260 15:59 13.03.2020
6523 Clouds 5 994 93 10000 6 260 15:39 13.03.2020
6524 Rain 5 994 86 10000 8 260 15:20 13.03.2020
6525 Rain 5 993 86 10000 10 270 14:43 13.03.2020
6526 Rain 4 993 86 10000 10 270 14:22 13.03.2020
6527 Rain 5 992 93 10000 13 250 13:58 13.03.2020
6528 Rain 5 991 93 9000 13 250 13:39 13.03.2020
6529 Rain 5 990 86 9000 13 260 13:20 13.03.2020
6530 Rain 5 990 86 9000 13 260 12:55 13.03.2020
6531 Rain 5 989 80 10000 14 250 12:37 13.03.2020
6532 Clouds 5 989 65 10000 16 250 12:18 13.03.2020
6533 Rain 5 988 73 10000 14 250 11:43 13.03.2020
6534 Rain 5 988 79 10000 13 250 11:25 13.03.2020
6535 Snow 5 988 79 10000 13 250 10:58 13.03.2020
6536 Rain 5 987 79 10000 12 250 10:39 13.03.2020
6537 Rain 5 987 79 10000 12 250 10:21 13.03.2020
6538 Rain 6 986 79 10000 15 250 09:44 13.03.2020
6539 Rain 6 986 79 10000 15 250 09:25 13.03.2020
6540 Clouds 6 986 65 10000 14 240 08:48 13.03.2020
6541 Clouds 6 986 65 10000 13 240 08:24 13.03.2020
6542 Clouds 5 986 65 10000 13 240 07:59 13.03.2020
6543 Clouds 5 986 65 10000 13 240 07:38 13.03.2020
6544 Clouds 5 985 67 10000 13 230 07:20 13.03.2020
6545 Clouds 5 985 69 10000 13 230 06:45 13.03.2020
6546 Clouds 4 985 69 10000 11 230 06:19 13.03.2020
6547 Clouds 4 985 69 10000 11 230 05:43 13.03.2020
6548 Rain 5 985 69 10000 11 240 04:39 13.03.2020
6549 Rain 5 986 80 10000 9 250 03:50 13.03.2020
6550 Clouds 6 985 93 10000 10 220 01:49 13.03.2020
6551 Clouds 6 985 93 10000 8 210 01:19 13.03.2020
6552 Rain 6 986 87 10000 10 220 00:56 13.03.2020
6553 Rain 5 987 93 10000 8 210 00:38 13.03.2020
6554 Rain 5 987 93 10000 8 190 00:18 13.03.2020
6555 Rain 5 988 86 9000 9 190 23:37 12.03.2020
6556 Rain 6 989 86 9000 8 200 23:18 12.03.2020
6557 Rain 6 990 70 10000 11 230 22:44 12.03.2020
6558 Rain 7 990 70 10000 11 230 22:25 12.03.2020
6559 Rain 7 991 48 10000 7 210 21:55 12.03.2020
6560 Rain 7 992 48 10000 6 210 21:36 12.03.2020
6561 Rain 7 992 48 10000 6 210 21:18 12.03.2020
6562 Rain 7 993 48 10000 5 210 20:42 12.03.2020
6563 Clouds 8 993 48 10000 5 210 20:20 12.03.2020
6564 Clouds 7 995 45 10000 8 230 19:42 12.03.2020
6565 Clouds 7 995 45 10000 8 230 19:21 12.03.2020
6566 Clouds 8 995 45 10000 9 240 18:58 12.03.2020
6567 Clouds 7 995 45 10000 6 220 18:39 12.03.2020
6568 Clouds 8 995 45 10000 5 220 18:21 12.03.2020
6569 Clouds 8 995 45 10000 5 230 17:41 12.03.2020
6570 Clouds 9 995 45 10000 6 240 17:22 12.03.2020
6571 Clouds 9 996 39 10000 5 230 16:58 12.03.2020
6572 Clouds 9 995 45 10000 7 240 16:40 12.03.2020
6573 Clouds 9 995 45 10000 7 240 16:21 12.03.2020
6574 Clouds 9 995 45 10000 7 230 15:48 12.03.2020
6575 Clouds 10 996 43 10000 8 250 15:28 12.03.2020
6576 Clouds 10 996 43 10000 8 250 15:28 12.03.2020
6577 Clouds 9 995 60 10000 10 240 14:55 12.03.2020
6578 Clouds 9 996 65 10000 7 230 14:37 12.03.2020
6579 Clouds 9 996 65 10000 7 230 14:18 12.03.2020
6580 Clouds 8 996 75 10000 8 240 13:38 12.03.2020
6581 Clouds 8 996 75 10000 10 250 13:20 12.03.2020
6582 Clouds 8 996 75 10000 10 250 12:55 12.03.2020
6583 Clouds 7 996 81 10000 10 250 12:37 12.03.2020
6584 Clouds 7 996 81 10000 10 250 12:37 12.03.2020
6585 Clouds 7 996 81 10000 10 260 12:18 12.03.2020
6586 Clouds 7 996 81 10000 10 260 11:55 12.03.2020
6587 Clouds 7 996 87 10000 9 250 11:36 12.03.2020
6588 Rain 6 995 93 10000 8 240 11:18 12.03.2020
6589 Rain 6 995 86 9000 8 250 10:41 12.03.2020
6590 Rain 5 995 86 9000 8 250 10:23 12.03.2020
6591 Rain 5 995 86 9000 9 250 09:55 12.03.2020
6592 Rain 5 995 86 10000 9 250 09:37 12.03.2020
6593 Rain 5 995 86 10000 9 250 09:19 12.03.2020
6594 Clouds 5 994 86 10000 8 250 08:38 12.03.2020
6595 Rain 5 994 93 10000 8 260 08:18 12.03.2020
6596 Rain 5 994 93 10000 8 260 07:47 12.03.2020
6597 Clouds 4 993 93 10000 7 260 07:21 12.03.2020
6598 Rain 5 993 93 8000 9 250 06:20 12.03.2020
6599 Rain 5 993 93 9000 8 240 05:34 12.03.2020
6600 Drizzle 5 992 93 6000 5 230 03:34 12.03.2020
6601 Clouds 5 992 93 10000 6 230 01:58 12.03.2020
6602 Clouds 5 992 93 10000 6 240 01:23 12.03.2020
6603 Clouds 5 992 93 10000 6 240 00:42 12.03.2020
6604 Rain 5 992 93 10000 5 220 23:58 11.03.2020
6605 Rain 5 993 93 10000 5 230 23:29 11.03.2020
6606 Rain 5 993 93 10000 5 240 22:59 11.03.2020
6607 Rain 5 993 93 10000 6 240 22:39 11.03.2020
6608 Rain 6 993 93 10000 6 240 22:21 11.03.2020
6609 Clouds 5 993 93 10000 7 240 21:58 11.03.2020
6610 Clouds 5 993 100 10000 4 220 21:39 11.03.2020
6611 Clouds 6 993 100 10000 4 220 21:21 11.03.2020
6612 Clouds 5 993 93 10000 4 220 20:56 11.03.2020
6613 Clouds 5 994 100 10000 4 210 20:37 11.03.2020
6614 Clouds 5 994 100 10000 4 210 20:19 11.03.2020
6615 Clouds 6 994 93 10000 5 230 19:42 11.03.2020
6616 Clouds 6 994 93 10000 6 230 19:24 11.03.2020
6617 Clouds 6 994 93 10000 6 250 18:57 11.03.2020
6618 Clouds 7 994 93 9000 6 240 18:37 11.03.2020
6619 Rain 7 994 100 2300 5 240 18:18 11.03.2020
6620 Drizzle 7 994 100 2500 3 210 17:55 11.03.2020
6621 Drizzle 7 994 100 2500 3 210 17:37 11.03.2020
6622 Rain 7 994 100 2200 3 190 17:18 11.03.2020
6623 Rain 7 995 100 1900 3 200 16:43 11.03.2020
6624 Rain 7 995 100 1800 3 190 16:20 11.03.2020
6625 Rain 7 995 100 1500 3 200 15:43 11.03.2020
6626 Rain 7 995 100 1500 3 200 15:23 11.03.2020
6627 Drizzle 7 995 93 1600 3 180 14:56 11.03.2020
6628 Drizzle 7 995 87 2300 3 170 14:37 11.03.2020
6629 Drizzle 7 995 87 2300 3 170 14:18 11.03.2020
6630 Mist 7 996 100 4300 3 100 13:42 11.03.2020
6631 Mist 7 996 100 4300 3 100 13:24 11.03.2020
6632 Mist 7 997 100 4600 2 90 12:56 11.03.2020
6633 Mist 7 997 93 4700 2 60 12:38 11.03.2020
6634 Mist 7 997 93 4700 2 60 12:19 11.03.2020
6635 Mist 7 998 93 4700 1 0 11:41 11.03.2020
6636 Mist 7 998 93 4700 1 0 11:21 11.03.2020
6637 Mist 7 999 93 4600 3 70 10:47 11.03.2020
6638 Mist 7 1000 93 4600 3 80 10:21 11.03.2020
6639 Mist 7 999 93 4600 3 70 10:21 11.03.2020
6640 Mist 7 1000 93 4600 3 80 09:59 11.03.2020
6641 Mist 7 1000 100 4100 3 80 09:40 11.03.2020
6642 Mist 7 1000 100 4100 3 80 09:21 11.03.2020
6643 Mist 7 1001 93 3900 3 80 08:43 11.03.2020
6644 Mist 6 1001 100 3800 2 60 08:25 11.03.2020
6645 Mist 6 1002 100 3800 3 80 07:48 11.03.2020
6646 Rain 6 1002 100 3700 3 90 07:21 11.03.2020
6647 Rain 6 1003 100 3500 3 100 06:53 11.03.2020
6648 Rain 5 1003 100 3400 2 80 06:33 11.03.2020
6649 Mist 5 1004 100 4100 3 100 05:33 11.03.2020
6650 Clouds 5 1005 100 6000 3 130 03:26 11.03.2020
6651 Mist 5 1006 100 5000 3 90 01:54 11.03.2020
6652 Mist 5 1007 100 3800 4 90 01:25 11.03.2020
6653 Clouds 5 1007 100 6000 3 100 00:44 11.03.2020
6654 Clouds 4 1008 100 8000 3 100 23:50 10.03.2020
6655 Clouds 5 1008 93 7000 3 100 23:28 10.03.2020
6656 Clouds 5 1008 100 7000 3 100 22:58 10.03.2020
6657 Clouds 5 1009 93 8000 2 100 22:37 10.03.2020
6658 Clouds 5 1009 93 8000 2 100 22:19 10.03.2020
6659 Clouds 5 1009 93 7000 2 120 21:56 10.03.2020
6660 Clouds 5 1009 93 9000 2 110 21:38 10.03.2020
6661 Clouds 5 1009 93 9000 2 110 21:19 10.03.2020
6662 Clouds 5 1009 93 10000 2 120 20:54 10.03.2020
6663 Clouds 6 1009 93 10000 2 120 20:36 10.03.2020
6664 Clouds 6 1009 93 10000 2 120 20:18 10.03.2020
6665 Clouds 7 1009 93 10000 2 130 19:42 10.03.2020
6666 Clouds 7 1009 93 10000 2 130 19:42 10.03.2020
6667 Clouds 7 1009 93 10000 2 130 19:23 10.03.2020
6668 Clouds 6 1010 87 10000 2 160 18:58 10.03.2020
6669 Clouds 6 1010 87 10000 2 150 18:40 10.03.2020
6670 Clouds 6 1010 87 10000 2 150 18:21 10.03.2020
6671 Clouds 7 1010 87 10000 2 160 17:56 10.03.2020
6672 Clouds 7 1010 87 10000 2 140 17:37 10.03.2020
6673 Clouds 8 1010 87 10000 2 120 17:19 10.03.2020
6674 Clouds 8 1010 87 10000 2 170 16:38 10.03.2020
6675 Clouds 9 1010 87 10000 1 190 16:18 10.03.2020
6676 Clouds 9 1010 87 10000 1 190 15:55 10.03.2020
6677 Clouds 9 1010 87 10000 2 190 15:36 10.03.2020
6678 Clouds 9 1010 87 10000 2 190 15:18 10.03.2020
6679 Clouds 9 1010 87 10000 3 250 14:40 10.03.2020
6680 Clouds 9 1010 87 10000 3 260 14:19 10.03.2020
6681 Clouds 9 1010 87 10000 4 240 13:54 10.03.2020
6682 Clouds 9 1010 87 10000 4 240 13:36 10.03.2020
6683 Clouds 8 1010 93 10000 3 220 13:18 10.03.2020
6684 Clouds 8 1010 93 10000 3 260 12:39 10.03.2020
6685 Clouds 7 1010 93 10000 2 240 12:19 10.03.2020
6686 Clouds 7 1010 100 8000 3 230 11:43 10.03.2020
6687 Clouds 7 1010 100 8000 3 230 11:25 10.03.2020
6688 -273 0 0 0 0 0 10:59 10.03.2020
6689 Drizzle 6 1009 100 10000 1 0 10:41 10.03.2020
6690 Drizzle 5 1009 100 10000 1 0 10:22 10.03.2020
6691 Rain 5 1010 100 9000 1 0 09:57 10.03.2020
6692 Rain 5 1010 93 8000 1 140 09:38 10.03.2020
6693 Rain 5 1010 100 8000 3 110 09:18 10.03.2020
6694 Rain 5 1010 93 9000 3 110 08:45 10.03.2020
6695 Rain 5 1010 93 9000 3 110 08:26 10.03.2020
6696 Rain 4 1010 93 9000 4 100 07:49 10.03.2020
6697 Rain 4 1011 100 7000 4 110 07:30 10.03.2020
6698 Rain 4 1011 100 5000 4 120 06:44 10.03.2020
6699 Rain 4 1011 100 5000 4 120 06:25 10.03.2020
6700 Rain 4 1012 93 4100 4 100 05:41 10.03.2020
6701 Rain 5 1013 100 3800 5 100 04:40 10.03.2020
6702 Rain 5 1014 100 4400 4 100 03:37 10.03.2020
6703 Rain 5 1014 93 5000 3 110 02:26 10.03.2020
6704 Rain 5 1015 93 6000 2 110 01:22 10.03.2020
6705 Rain 5 1016 87 8000 2 130 00:42 10.03.2020
6706 Rain 6 1016 81 10000 2 140 00:22 10.03.2020
6707 Rain 6 1016 70 10000 2 140 23:40 09.03.2020
6708 Clouds 6 1016 87 10000 3 110 23:21 09.03.2020
6709 Clouds 6 1017 70 10000 3 160 22:41 09.03.2020
6710 Clouds 6 1017 70 10000 3 160 22:22 09.03.2020
6711 Clouds 7 1017 65 10000 2 170 21:57 09.03.2020
6712 Clouds 6 1017 65 10000 2 170 21:39 09.03.2020
6713 Clouds 6 1017 65 10000 2 170 21:20 09.03.2020
6714 Clouds 7 1017 65 10000 3 180 20:56 09.03.2020
6715 Clouds 7 1017 61 10000 3 180 20:37 09.03.2020
6716 Clear 7 1017 61 10000 3 180 20:19 09.03.2020
6717 Clouds 8 1017 66 10000 3 180 19:44 09.03.2020
6718 Clouds 8 1017 66 10000 3 180 19:25 09.03.2020
6719 Clear 8 1017 61 10000 3 170 18:58 09.03.2020
6720 Clear 8 1018 61 10000 3 180 18:38 09.03.2020
6721 Clear 8 1018 61 10000 3 150 18:19 09.03.2020
6722 Clear 8 1018 61 10000 3 150 17:57 09.03.2020
6723 Clear 8 1018 57 10000 3 140 17:38 09.03.2020
6724 Clear 9 1018 57 10000 2 140 17:20 09.03.2020
6725 Clear 9 1018 57 10000 2 140 16:58 09.03.2020
6726 Clear 10 1018 53 10000 2 170 16:39 09.03.2020
6727 Clear 10 1018 53 10000 2 170 16:21 09.03.2020
6728 Clear 10 1018 53 10000 2 170 16:21 09.03.2020
6729 Clear 10 1018 53 10000 2 170 15:58 09.03.2020
6730 Clear 10 1018 53 10000 2 180 15:38 09.03.2020
6731 Clear 10 1018 53 10000 2 180 15:20 09.03.2020
6732 Clear 11 1018 57 10000 3 180 14:55 09.03.2020
6733 Clear 11 1018 50 10000 3 170 14:36 09.03.2020
6734 Clouds 11 1018 50 10000 3 170 14:18 09.03.2020
6735 Clouds 11 1018 53 10000 3 170 13:55 09.03.2020
6736 Clouds 11 1019 57 10000 4 180 13:36 09.03.2020
6737 Clouds 11 1019 57 10000 4 180 13:18 09.03.2020
6738 Clouds 11 1019 57 10000 3 160 12:41 09.03.2020
6739 Clouds 10 1019 61 10000 3 170 12:22 09.03.2020
6740 Clouds 9 1019 65 10000 2 200 11:42 09.03.2020
6741 Clouds 9 1019 65 10000 2 200 11:22 09.03.2020
6742 Clouds 9 1019 65 10000 2 170 10:59 09.03.2020
6743 Clouds 9 1019 65 10000 3 210 10:40 09.03.2020
6744 Clouds 9 1019 65 10000 3 210 10:40 09.03.2020
6745 Clouds 9 1019 65 10000 3 210 10:20 09.03.2020
6746 Clouds 9 1019 65 10000 4 180 09:59 09.03.2020
6747 Clouds 8 1019 75 10000 3 170 09:37 09.03.2020
6748 Clouds 8 1019 75 10000 3 170 09:19 09.03.2020
6749 Clouds 7 1019 81 10000 2 180 08:43 09.03.2020
6750 Clouds 6 1019 81 10000 2 180 08:25 09.03.2020
6751 Clouds 4 1019 86 10000 2 160 07:41 09.03.2020
6752 Clouds 4 1019 86 10000 2 160 07:21 09.03.2020
6753 Clouds 2 1019 93 10000 2 230 06:44 09.03.2020
6754 Clouds 3 1019 93 10000 2 230 06:25 09.03.2020
6755 Clouds 3 1019 93 10000 2 230 06:25 09.03.2020
6756 Clouds 2 1019 93 10000 2.71 186 05:52 09.03.2020
6757 Clouds 1 1019 93 10000 2 190 05:34 09.03.2020
6758 Clouds 1 1019 93 10000 1 0 04:43 09.03.2020
6759 Clouds 1 1019 93 10000 1 0 04:22 09.03.2020
6760 Clouds 2 1018 86 10000 1 0 03:20 09.03.2020
6761 Clouds 2 1018 86 10000 1 0 01:41 09.03.2020
6762 Clouds 2 1018 86 10000 1 0 00:39 09.03.2020
6763 Clouds 2 1018 86 10000 1 0 00:20 09.03.2020
6764 Clouds 2 1018 86 10000 1 0 23:51 08.03.2020
6765 Clouds 2 1018 86 10000 2 170 23:23 08.03.2020
6766 Clouds 2 1018 93 10000 1 0 22:57 08.03.2020
6767 Clouds 2 1018 86 10000 1 330 22:38 08.03.2020
6768 Clouds 2 1018 86 10000 1 330 22:20 08.03.2020
6769 Clouds 2 1018 86 10000 1 0 21:54 08.03.2020
6770 Clouds 2 1018 86 10000 1 0 21:54 08.03.2020
6771 Clouds 2 1018 86 10000 1 0 21:54 08.03.2020
6772 Clouds 3 1018 86 10000 3 220 21:36 08.03.2020
6773 Clouds 3 1018 86 10000 3 220 21:36 08.03.2020
6774 Clouds 3 1018 86 10000 1 0 21:18 08.03.2020
6775 Clouds 3 1018 80 10000 2 170 20:39 08.03.2020
6776 Clouds 4 1018 80 10000 2 170 20:21 08.03.2020
6777 Clouds 4 1018 80 10000 2 170 20:21 08.03.2020
6778 Clouds 4 1018 80 10000 1 310 19:56 08.03.2020
6779 Clouds 4 1018 75 10000